<?xml version='1.0' encoding='UTF-8'?><gpx version="1.1" creator="JPX - https://github.com/jenetics/jpx" xmlns="http://www.topografix.com/GPX/1/1"><trk><trkseg><trkpt lat="45.3709035" lon="11.1319582"><ele>28.999999999999996</ele><time>2026-05-03T11:37:51.652Z</time></trkpt><trkpt lat="45.3709824" lon="11.1319424"><ele>29.0</ele><time>2026-05-03T11:39:03.755Z</time></trkpt><trkpt lat="45.3709333" lon="11.1318633"><ele>29.0</ele><time>2026-05-03T11:40:39.756Z</time></trkpt><trkpt lat="45.37092" lon="11.131745"><ele>29.0</ele><time>2026-05-03T11:40:42.753Z</time></trkpt><trkpt lat="45.3709833" lon="11.1316533"><ele>28.999999999999996</ele><time>2026-05-03T11:40:45.755Z</time></trkpt><trkpt lat="45.3710217" lon="11.1315717"><ele>29.0</ele><time>2026-05-03T11:40:48.757Z</time></trkpt><trkpt lat="45.371065" lon="11.1314767"><ele>29.0</ele><time>2026-05-03T11:40:52.756Z</time></trkpt><trkpt lat="45.3711717" lon="11.13152"><ele>29.0</ele><time>2026-05-03T11:40:55.754Z</time></trkpt><trkpt lat="45.3712333" lon="11.13161"><ele>29.0</ele><time>2026-05-03T11:40:56.76Z</time></trkpt><trkpt lat="45.3712817" lon="11.1317233"><ele>29.0</ele><time>2026-05-03T11:40:57.758Z</time></trkpt><trkpt lat="45.37133" lon="11.13185"><ele>29.0</ele><time>2026-05-03T11:40:58.755Z</time></trkpt><trkpt lat="45.37137" lon="11.1319933"><ele>29.4</ele><time>2026-05-03T11:40:59.756Z</time></trkpt><trkpt lat="45.3714083" lon="11.1321433"><ele>29.799999999999997</ele><time>2026-05-03T11:41:00.758Z</time></trkpt><trkpt lat="45.3714417" lon="11.1322933"><ele>30.200000000000003</ele><time>2026-05-03T11:41:01.755Z</time></trkpt><trkpt lat="45.3714767" lon="11.1324467"><ele>30.6</ele><time>2026-05-03T11:41:02.759Z</time></trkpt><trkpt lat="45.3715083" lon="11.13259"><ele>31.0</ele><time>2026-05-03T11:41:03.753Z</time></trkpt><trkpt lat="45.37155" lon="11.132735"><ele>31.200000000000003</ele><time>2026-05-03T11:41:04.759Z</time></trkpt><trkpt lat="45.3715917" lon="11.132885"><ele>31.400000000000002</ele><time>2026-05-03T11:41:05.754Z</time></trkpt><trkpt lat="45.37164" lon="11.13303"><ele>31.6</ele><time>2026-05-03T11:41:06.757Z</time></trkpt><trkpt lat="45.371685" lon="11.1331717"><ele>31.8</ele><time>2026-05-03T11:41:07.754Z</time></trkpt><trkpt lat="45.3717317" lon="11.1333"><ele>32.0</ele><time>2026-05-03T11:41:08.753Z</time></trkpt><trkpt lat="45.3717783" lon="11.1334167"><ele>31.999999999999996</ele><time>2026-05-03T11:41:09.754Z</time></trkpt><trkpt lat="45.37182" lon="11.13352"><ele>32.0</ele><time>2026-05-03T11:41:10.753Z</time></trkpt><trkpt lat="45.37187" lon="11.133615"><ele>32.0</ele><time>2026-05-03T11:41:11.761Z</time></trkpt><trkpt lat="45.3719233" lon="11.1337117"><ele>32.0</ele><time>2026-05-03T11:41:12.752Z</time></trkpt><trkpt lat="45.37198" lon="11.1338133"><ele>31.999999999999996</ele><time>2026-05-03T11:41:13.761Z</time></trkpt><trkpt lat="45.3720417" lon="11.133925"><ele>32.0</ele><time>2026-05-03T11:41:14.759Z</time></trkpt><trkpt lat="45.3721" lon="11.1340383"><ele>31.999999999999996</ele><time>2026-05-03T11:41:15.754Z</time></trkpt><trkpt lat="45.3721467" lon="11.1341567"><ele>32.0</ele><time>2026-05-03T11:41:16.756Z</time></trkpt><trkpt lat="45.37219" lon="11.1342733"><ele>32.0</ele><time>2026-05-03T11:41:17.759Z</time></trkpt><trkpt lat="45.372235" lon="11.1343817"><ele>32.0</ele><time>2026-05-03T11:41:18.756Z</time></trkpt><trkpt lat="45.3722767" lon="11.1344683"><ele>31.999999999999996</ele><time>2026-05-03T11:41:19.756Z</time></trkpt><trkpt lat="45.372335" lon="11.1345783"><ele>32.0</ele><time>2026-05-03T11:41:21.754Z</time></trkpt><trkpt lat="45.3724017" lon="11.1346517"><ele>32.0</ele><time>2026-05-03T11:41:24.753Z</time></trkpt><trkpt lat="45.37248" lon="11.1347533"><ele>32.0</ele><time>2026-05-03T11:41:26.755Z</time></trkpt><trkpt lat="45.3725283" lon="11.134825"><ele>32.0</ele><time>2026-05-03T11:41:27.755Z</time></trkpt><trkpt lat="45.372595" lon="11.13491"><ele>32.0</ele><time>2026-05-03T11:41:28.759Z</time></trkpt><trkpt lat="45.3726867" lon="11.13502"><ele>32.0</ele><time>2026-05-03T11:41:29.756Z</time></trkpt><trkpt lat="45.3727733" lon="11.1351267"><ele>31.8</ele><time>2026-05-03T11:41:30.759Z</time></trkpt><trkpt lat="45.3728583" lon="11.1352283"><ele>31.6</ele><time>2026-05-03T11:41:31.757Z</time></trkpt><trkpt lat="45.372935" lon="11.135315"><ele>31.400000000000002</ele><time>2026-05-03T11:41:32.751Z</time></trkpt><trkpt lat="45.3730083" lon="11.1353983"><ele>31.200000000000003</ele><time>2026-05-03T11:41:33.755Z</time></trkpt><trkpt lat="45.3730833" lon="11.1354817"><ele>31.0</ele><time>2026-05-03T11:41:34.751Z</time></trkpt><trkpt lat="45.3731583" lon="11.13556"><ele>31.0</ele><time>2026-05-03T11:41:35.757Z</time></trkpt><trkpt lat="45.373235" lon="11.13564"><ele>31.0</ele><time>2026-05-03T11:41:36.763Z</time></trkpt><trkpt lat="45.3733083" lon="11.1357317"><ele>31.0</ele><time>2026-05-03T11:41:37.756Z</time></trkpt><trkpt lat="45.3733883" lon="11.1358283"><ele>31.0</ele><time>2026-05-03T11:41:38.759Z</time></trkpt><trkpt lat="45.373485" lon="11.1359367"><ele>31.0</ele><time>2026-05-03T11:41:39.762Z</time></trkpt><trkpt lat="45.373595" lon="11.1360483"><ele>31.0</ele><time>2026-05-03T11:41:40.764Z</time></trkpt><trkpt lat="45.3737017" lon="11.1361467"><ele>31.0</ele><time>2026-05-03T11:41:41.762Z</time></trkpt><trkpt lat="45.373805" lon="11.1362317"><ele>31.0</ele><time>2026-05-03T11:41:42.759Z</time></trkpt><trkpt lat="45.373905" lon="11.1363083"><ele>31.0</ele><time>2026-05-03T11:41:43.756Z</time></trkpt><trkpt lat="45.373995" lon="11.136375"><ele>31.0</ele><time>2026-05-03T11:41:44.76Z</time></trkpt><trkpt lat="45.3740717" lon="11.1364333"><ele>31.000000000000004</ele><time>2026-05-03T11:41:45.757Z</time></trkpt><trkpt lat="45.37414" lon="11.13648"><ele>31.0</ele><time>2026-05-03T11:41:46.757Z</time></trkpt><trkpt lat="45.374205" lon="11.13652"><ele>31.0</ele><time>2026-05-03T11:41:47.756Z</time></trkpt><trkpt lat="45.3742683" lon="11.1365533"><ele>31.000000000000004</ele><time>2026-05-03T11:41:48.756Z</time></trkpt><trkpt lat="45.3743367" lon="11.1365833"><ele>31.0</ele><time>2026-05-03T11:41:49.761Z</time></trkpt><trkpt lat="45.374405" lon="11.1366067"><ele>31.0</ele><time>2026-05-03T11:41:50.755Z</time></trkpt><trkpt lat="45.3745233" lon="11.1366533"><ele>31.0</ele><time>2026-05-03T11:41:52.755Z</time></trkpt><trkpt lat="45.3746333" lon="11.1366933"><ele>31.0</ele><time>2026-05-03T11:41:54.763Z</time></trkpt><trkpt lat="45.37473" lon="11.1367333"><ele>31.0</ele><time>2026-05-03T11:41:56.757Z</time></trkpt><trkpt lat="45.3748467" lon="11.13681"><ele>31.0</ele><time>2026-05-03T11:41:58.753Z</time></trkpt><trkpt lat="45.374905" lon="11.1368483"><ele>31.0</ele><time>2026-05-03T11:41:59.752Z</time></trkpt><trkpt lat="45.37499" lon="11.1368983"><ele>30.8</ele><time>2026-05-03T11:42:01.758Z</time></trkpt><trkpt lat="45.3750783" lon="11.1369583"><ele>30.6</ele><time>2026-05-03T11:42:04.757Z</time></trkpt><trkpt lat="45.3751767" lon="11.1370783"><ele>30.4</ele><time>2026-05-03T11:42:06.753Z</time></trkpt><trkpt lat="45.3752433" lon="11.1371383"><ele>30.2</ele><time>2026-05-03T11:42:07.756Z</time></trkpt><trkpt lat="45.37531" lon="11.137175"><ele>30.0</ele><time>2026-05-03T11:42:08.752Z</time></trkpt><trkpt lat="45.3754217" lon="11.1371583"><ele>30.0</ele><time>2026-05-03T11:42:10.76Z</time></trkpt><trkpt lat="45.3754983" lon="11.137025"><ele>30.0</ele><time>2026-05-03T11:42:12.753Z</time></trkpt><trkpt lat="45.37548" lon="11.1369233"><ele>30.0</ele><time>2026-05-03T11:42:13.752Z</time></trkpt><trkpt lat="45.37544" lon="11.1368067"><ele>30.0</ele><time>2026-05-03T11:42:14.759Z</time></trkpt><trkpt lat="45.37539" lon="11.1366717"><ele>30.0</ele><time>2026-05-03T11:42:15.755Z</time></trkpt><trkpt lat="45.3753217" lon="11.1365283"><ele>30.0</ele><time>2026-05-03T11:42:16.752Z</time></trkpt><trkpt lat="45.37528" lon="11.1363933"><ele>30.0</ele><time>2026-05-03T11:42:17.752Z</time></trkpt><trkpt lat="45.3752517" lon="11.1362733"><ele>30.0</ele><time>2026-05-03T11:42:18.754Z</time></trkpt><trkpt lat="45.3752317" lon="11.1361683"><ele>30.0</ele><time>2026-05-03T11:42:19.757Z</time></trkpt><trkpt lat="45.3752217" lon="11.1359933"><ele>30.0</ele><time>2026-05-03T11:42:21.755Z</time></trkpt><trkpt lat="45.3752433" lon="11.135845"><ele>30.0</ele><time>2026-05-03T11:42:23.755Z</time></trkpt><trkpt lat="45.3752383" lon="11.13574"><ele>30.0</ele><time>2026-05-03T11:42:25.757Z</time></trkpt><trkpt lat="45.3752417" lon="11.1356483"><ele>30.0</ele><time>2026-05-03T11:42:27.755Z</time></trkpt><trkpt lat="45.3753167" lon="11.135525"><ele>30.0</ele><time>2026-05-03T11:42:29.753Z</time></trkpt><trkpt lat="45.37538" lon="11.1354183"><ele>30.0</ele><time>2026-05-03T11:42:30.753Z</time></trkpt><trkpt lat="45.3754483" lon="11.135315"><ele>30.0</ele><time>2026-05-03T11:42:31.761Z</time></trkpt><trkpt lat="45.3755333" lon="11.1352333"><ele>30.0</ele><time>2026-05-03T11:42:32.768Z</time></trkpt><trkpt lat="45.37562" lon="11.13517"><ele>30.0</ele><time>2026-05-03T11:42:33.757Z</time></trkpt><trkpt lat="45.375705" lon="11.1351217"><ele>30.0</ele><time>2026-05-03T11:42:34.76Z</time></trkpt><trkpt lat="45.37579" lon="11.1350733"><ele>30.0</ele><time>2026-05-03T11:42:35.761Z</time></trkpt><trkpt lat="45.3758783" lon="11.1350317"><ele>30.0</ele><time>2026-05-03T11:42:36.757Z</time></trkpt><trkpt lat="45.37596" lon="11.1350017"><ele>30.0</ele><time>2026-05-03T11:42:37.759Z</time></trkpt><trkpt lat="45.37603" lon="11.1349733"><ele>30.0</ele><time>2026-05-03T11:42:38.759Z</time></trkpt><trkpt lat="45.37613" lon="11.1349283"><ele>30.0</ele><time>2026-05-03T11:42:40.764Z</time></trkpt><trkpt lat="45.3762033" lon="11.13494"><ele>30.0</ele><time>2026-05-03T11:42:44.756Z</time></trkpt><trkpt lat="45.3762683" lon="11.1349517"><ele>30.0</ele><time>2026-05-03T11:42:45.757Z</time></trkpt><trkpt lat="45.3763583" lon="11.1349633"><ele>30.0</ele><time>2026-05-03T11:42:46.755Z</time></trkpt><trkpt lat="45.37647" lon="11.13496"><ele>30.0</ele><time>2026-05-03T11:42:47.754Z</time></trkpt><trkpt lat="45.3765933" lon="11.1349617"><ele>30.0</ele><time>2026-05-03T11:42:48.756Z</time></trkpt><trkpt lat="45.376705" lon="11.1349683"><ele>30.0</ele><time>2026-05-03T11:42:49.755Z</time></trkpt><trkpt lat="45.376805" lon="11.13498"><ele>30.0</ele><time>2026-05-03T11:42:50.761Z</time></trkpt><trkpt lat="45.3769067" lon="11.1349917"><ele>30.0</ele><time>2026-05-03T11:42:51.761Z</time></trkpt><trkpt lat="45.37701" lon="11.135"><ele>30.0</ele><time>2026-05-03T11:42:52.756Z</time></trkpt><trkpt lat="45.3771183" lon="11.135005"><ele>30.0</ele><time>2026-05-03T11:42:53.76Z</time></trkpt><trkpt lat="45.377225" lon="11.1350167"><ele>30.0</ele><time>2026-05-03T11:42:54.754Z</time></trkpt><trkpt lat="45.3773333" lon="11.135025"><ele>30.0</ele><time>2026-05-03T11:42:55.753Z</time></trkpt><trkpt lat="45.37744" lon="11.1350333"><ele>30.5</ele><time>2026-05-03T11:42:56.757Z</time></trkpt><trkpt lat="45.3775517" lon="11.1350433"><ele>31.0</ele><time>2026-05-03T11:42:57.759Z</time></trkpt><trkpt lat="45.3776633" lon="11.1350567"><ele>31.5</ele><time>2026-05-03T11:42:58.755Z</time></trkpt><trkpt lat="45.3777783" lon="11.1350717"><ele>32.0</ele><time>2026-05-03T11:42:59.757Z</time></trkpt><trkpt lat="45.3778933" lon="11.1350817"><ele>32.0</ele><time>2026-05-03T11:43:00.751Z</time></trkpt><trkpt lat="45.3780083" lon="11.13509"><ele>32.0</ele><time>2026-05-03T11:43:01.753Z</time></trkpt><trkpt lat="45.3781217" lon="11.1351"><ele>32.0</ele><time>2026-05-03T11:43:02.755Z</time></trkpt><trkpt lat="45.378235" lon="11.13511"><ele>32.0</ele><time>2026-05-03T11:43:03.752Z</time></trkpt><trkpt lat="45.378345" lon="11.1351167"><ele>32.0</ele><time>2026-05-03T11:43:04.758Z</time></trkpt><trkpt lat="45.378455" lon="11.135125"><ele>32.0</ele><time>2026-05-03T11:43:05.754Z</time></trkpt><trkpt lat="45.37857" lon="11.13513"><ele>32.0</ele><time>2026-05-03T11:43:06.755Z</time></trkpt><trkpt lat="45.3786783" lon="11.135135"><ele>32.0</ele><time>2026-05-03T11:43:07.757Z</time></trkpt><trkpt lat="45.3787883" lon="11.135145"><ele>32.0</ele><time>2026-05-03T11:43:08.752Z</time></trkpt><trkpt lat="45.3789" lon="11.1351567"><ele>32.0</ele><time>2026-05-03T11:43:09.756Z</time></trkpt><trkpt lat="45.379015" lon="11.1351733"><ele>32.0</ele><time>2026-05-03T11:43:10.754Z</time></trkpt><trkpt lat="45.3791367" lon="11.1351883"><ele>32.0</ele><time>2026-05-03T11:43:11.753Z</time></trkpt><trkpt lat="45.3792633" lon="11.1351983"><ele>32.0</ele><time>2026-05-03T11:43:12.754Z</time></trkpt><trkpt lat="45.3793917" lon="11.1352067"><ele>32.0</ele><time>2026-05-03T11:43:13.754Z</time></trkpt><trkpt lat="45.379515" lon="11.1352183"><ele>32.0</ele><time>2026-05-03T11:43:14.756Z</time></trkpt><trkpt lat="45.3796317" lon="11.13523"><ele>32.0</ele><time>2026-05-03T11:43:15.757Z</time></trkpt><trkpt lat="45.379745" lon="11.1352367"><ele>32.0</ele><time>2026-05-03T11:43:16.754Z</time></trkpt><trkpt lat="45.3798567" lon="11.135245"><ele>30.75</ele><time>2026-05-03T11:43:17.756Z</time></trkpt><trkpt lat="45.3799733" lon="11.135255"><ele>29.5</ele><time>2026-05-03T11:43:18.753Z</time></trkpt><trkpt lat="45.3800967" lon="11.1352683"><ele>28.25</ele><time>2026-05-03T11:43:19.752Z</time></trkpt><trkpt lat="45.3802283" lon="11.1352833"><ele>27.0</ele><time>2026-05-03T11:43:20.755Z</time></trkpt><trkpt lat="45.3803517" lon="11.1352967"><ele>27.0</ele><time>2026-05-03T11:43:21.755Z</time></trkpt><trkpt lat="45.38047" lon="11.13531"><ele>27.0</ele><time>2026-05-03T11:43:22.755Z</time></trkpt><trkpt lat="45.38059" lon="11.1353183"><ele>27.0</ele><time>2026-05-03T11:43:23.756Z</time></trkpt><trkpt lat="45.3807117" lon="11.1353267"><ele>27.0</ele><time>2026-05-03T11:43:24.759Z</time></trkpt><trkpt lat="45.380835" lon="11.1353333"><ele>26.25</ele><time>2026-05-03T11:43:25.758Z</time></trkpt><trkpt lat="45.3809583" lon="11.1353433"><ele>25.5</ele><time>2026-05-03T11:43:26.762Z</time></trkpt><trkpt lat="45.3810767" lon="11.13535"><ele>24.75</ele><time>2026-05-03T11:43:27.754Z</time></trkpt><trkpt lat="45.3811883" lon="11.1353583"><ele>24.0</ele><time>2026-05-03T11:43:28.755Z</time></trkpt><trkpt lat="45.3812967" lon="11.1353633"><ele>24.799999999999997</ele><time>2026-05-03T11:43:29.761Z</time></trkpt><trkpt lat="45.3814" lon="11.1353717"><ele>25.599999999999998</ele><time>2026-05-03T11:43:30.754Z</time></trkpt><trkpt lat="45.3815017" lon="11.1353783"><ele>26.4</ele><time>2026-05-03T11:43:31.756Z</time></trkpt><trkpt lat="45.381595" lon="11.13538"><ele>27.2</ele><time>2026-05-03T11:43:32.755Z</time></trkpt><trkpt lat="45.3816867" lon="11.13537"><ele>28.0</ele><time>2026-05-03T11:43:33.754Z</time></trkpt><trkpt lat="45.381785" lon="11.1353367"><ele>28.0</ele><time>2026-05-03T11:43:34.757Z</time></trkpt><trkpt lat="45.3818883" lon="11.135285"><ele>27.999999999999996</ele><time>2026-05-03T11:43:35.76Z</time></trkpt><trkpt lat="45.3819883" lon="11.1352183"><ele>27.999999999999996</ele><time>2026-05-03T11:43:36.759Z</time></trkpt><trkpt lat="45.3820933" lon="11.1351433"><ele>28.0</ele><time>2026-05-03T11:43:37.757Z</time></trkpt><trkpt lat="45.3821867" lon="11.135065"><ele>28.0</ele><time>2026-05-03T11:43:38.755Z</time></trkpt><trkpt lat="45.3822783" lon="11.1349933"><ele>28.2</ele><time>2026-05-03T11:43:39.756Z</time></trkpt><trkpt lat="45.382365" lon="11.134925"><ele>28.4</ele><time>2026-05-03T11:43:40.756Z</time></trkpt><trkpt lat="45.382455" lon="11.13485"><ele>28.599999999999998</ele><time>2026-05-03T11:43:41.754Z</time></trkpt><trkpt lat="45.3825517" lon="11.1347767"><ele>28.799999999999997</ele><time>2026-05-03T11:43:42.759Z</time></trkpt><trkpt lat="45.382655" lon="11.1346983"><ele>29.0</ele><time>2026-05-03T11:43:43.755Z</time></trkpt><trkpt lat="45.3827617" lon="11.1346183"><ele>29.0</ele><time>2026-05-03T11:43:44.76Z</time></trkpt><trkpt lat="45.38287" lon="11.13453"><ele>29.0</ele><time>2026-05-03T11:43:45.763Z</time></trkpt><trkpt lat="45.3829833" lon="11.1344433"><ele>29.0</ele><time>2026-05-03T11:43:46.753Z</time></trkpt><trkpt lat="45.3831033" lon="11.1343533"><ele>29.0</ele><time>2026-05-03T11:43:47.762Z</time></trkpt><trkpt lat="45.3832267" lon="11.1342683"><ele>29.25</ele><time>2026-05-03T11:43:48.758Z</time></trkpt><trkpt lat="45.3833467" lon="11.13418"><ele>29.5</ele><time>2026-05-03T11:43:49.753Z</time></trkpt><trkpt lat="45.3834583" lon="11.1340967"><ele>29.75</ele><time>2026-05-03T11:43:50.755Z</time></trkpt><trkpt lat="45.38357" lon="11.1340083"><ele>30.0</ele><time>2026-05-03T11:43:51.754Z</time></trkpt><trkpt lat="45.38368" lon="11.1339267"><ele>30.25</ele><time>2026-05-03T11:43:52.754Z</time></trkpt><trkpt lat="45.3837917" lon="11.133845"><ele>30.5</ele><time>2026-05-03T11:43:53.755Z</time></trkpt><trkpt lat="45.3838917" lon="11.13377"><ele>30.75</ele><time>2026-05-03T11:43:54.758Z</time></trkpt><trkpt lat="45.383985" lon="11.1337"><ele>31.0</ele><time>2026-05-03T11:43:55.754Z</time></trkpt><trkpt lat="45.3840783" lon="11.1336283"><ele>31.0</ele><time>2026-05-03T11:43:56.754Z</time></trkpt><trkpt lat="45.3841733" lon="11.1335517"><ele>31.0</ele><time>2026-05-03T11:43:57.754Z</time></trkpt><trkpt lat="45.3842733" lon="11.1334733"><ele>31.0</ele><time>2026-05-03T11:43:58.754Z</time></trkpt><trkpt lat="45.3843767" lon="11.133395"><ele>31.0</ele><time>2026-05-03T11:43:59.757Z</time></trkpt><trkpt lat="45.384475" lon="11.1333217"><ele>31.0</ele><time>2026-05-03T11:44:00.755Z</time></trkpt><trkpt lat="45.3845717" lon="11.1332467"><ele>31.0</ele><time>2026-05-03T11:44:01.76Z</time></trkpt><trkpt lat="45.38467" lon="11.1331717"><ele>31.0</ele><time>2026-05-03T11:44:02.762Z</time></trkpt><trkpt lat="45.3847733" lon="11.1330917"><ele>31.0</ele><time>2026-05-03T11:44:03.76Z</time></trkpt><trkpt lat="45.3848783" lon="11.13301"><ele>30.75</ele><time>2026-05-03T11:44:04.759Z</time></trkpt><trkpt lat="45.3849867" lon="11.1329267"><ele>30.5</ele><time>2026-05-03T11:44:05.764Z</time></trkpt><trkpt lat="45.3850917" lon="11.13284"><ele>30.25</ele><time>2026-05-03T11:44:06.756Z</time></trkpt><trkpt lat="45.385195" lon="11.1327583"><ele>30.0</ele><time>2026-05-03T11:44:07.754Z</time></trkpt><trkpt lat="45.3853017" lon="11.1326733"><ele>30.0</ele><time>2026-05-03T11:44:08.763Z</time></trkpt><trkpt lat="45.3854117" lon="11.1325867"><ele>30.0</ele><time>2026-05-03T11:44:09.756Z</time></trkpt><trkpt lat="45.3855217" lon="11.1325017"><ele>30.0</ele><time>2026-05-03T11:44:10.755Z</time></trkpt><trkpt lat="45.3856367" lon="11.1324167"><ele>30.0</ele><time>2026-05-03T11:44:11.753Z</time></trkpt><trkpt lat="45.3857533" lon="11.1323333"><ele>29.75</ele><time>2026-05-03T11:44:12.753Z</time></trkpt><trkpt lat="45.3858683" lon="11.1322483"><ele>29.5</ele><time>2026-05-03T11:44:13.758Z</time></trkpt><trkpt lat="45.3859817" lon="11.1321633"><ele>29.25</ele><time>2026-05-03T11:44:14.756Z</time></trkpt><trkpt lat="45.3861" lon="11.1320767"><ele>29.0</ele><time>2026-05-03T11:44:15.763Z</time></trkpt><trkpt lat="45.3862217" lon="11.1319833"><ele>28.75</ele><time>2026-05-03T11:44:16.755Z</time></trkpt><trkpt lat="45.3863467" lon="11.1318917"><ele>28.5</ele><time>2026-05-03T11:44:17.754Z</time></trkpt><trkpt lat="45.3864767" lon="11.131795"><ele>28.25</ele><time>2026-05-03T11:44:18.754Z</time></trkpt><trkpt lat="45.3866067" lon="11.1316983"><ele>28.0</ele><time>2026-05-03T11:44:19.752Z</time></trkpt><trkpt lat="45.386735" lon="11.1316"><ele>28.0</ele><time>2026-05-03T11:44:20.754Z</time></trkpt><trkpt lat="45.3868617" lon="11.1315067"><ele>28.0</ele><time>2026-05-03T11:44:21.757Z</time></trkpt><trkpt lat="45.3869833" lon="11.1314167"><ele>28.0</ele><time>2026-05-03T11:44:22.768Z</time></trkpt><trkpt lat="45.3871" lon="11.131325"><ele>28.0</ele><time>2026-05-03T11:44:23.752Z</time></trkpt><trkpt lat="45.387215" lon="11.131235"><ele>28.25</ele><time>2026-05-03T11:44:24.756Z</time></trkpt><trkpt lat="45.3873333" lon="11.1311417"><ele>28.5</ele><time>2026-05-03T11:44:25.759Z</time></trkpt><trkpt lat="45.387455" lon="11.1310483"><ele>28.75</ele><time>2026-05-03T11:44:26.757Z</time></trkpt><trkpt lat="45.38758" lon="11.1309517"><ele>29.0</ele><time>2026-05-03T11:44:27.756Z</time></trkpt><trkpt lat="45.3877017" lon="11.1308583"><ele>29.0</ele><time>2026-05-03T11:44:28.757Z</time></trkpt><trkpt lat="45.3878183" lon="11.1307667"><ele>29.0</ele><time>2026-05-03T11:44:29.757Z</time></trkpt><trkpt lat="45.3879333" lon="11.1306767"><ele>29.0</ele><time>2026-05-03T11:44:30.755Z</time></trkpt><trkpt lat="45.38805" lon="11.1305917"><ele>29.0</ele><time>2026-05-03T11:44:31.754Z</time></trkpt><trkpt lat="45.38816" lon="11.13051"><ele>29.25</ele><time>2026-05-03T11:44:32.76Z</time></trkpt><trkpt lat="45.38827" lon="11.130425"><ele>29.5</ele><time>2026-05-03T11:44:33.755Z</time></trkpt><trkpt lat="45.38838" lon="11.1303417"><ele>29.75</ele><time>2026-05-03T11:44:34.757Z</time></trkpt><trkpt lat="45.38849" lon="11.1302583"><ele>30.0</ele><time>2026-05-03T11:44:35.76Z</time></trkpt><trkpt lat="45.3886" lon="11.1301767"><ele>30.0</ele><time>2026-05-03T11:44:36.761Z</time></trkpt><trkpt lat="45.3887167" lon="11.1300983"><ele>30.0</ele><time>2026-05-03T11:44:37.757Z</time></trkpt><trkpt lat="45.3888367" lon="11.1300217"><ele>30.0</ele><time>2026-05-03T11:44:38.769Z</time></trkpt><trkpt lat="45.38896" lon="11.1299633"><ele>30.0</ele><time>2026-05-03T11:44:39.758Z</time></trkpt><trkpt lat="45.389085" lon="11.1299217"><ele>29.5</ele><time>2026-05-03T11:44:40.758Z</time></trkpt><trkpt lat="45.38921" lon="11.1298983"><ele>29.0</ele><time>2026-05-03T11:44:41.758Z</time></trkpt><trkpt lat="45.3893383" lon="11.1298883"><ele>28.5</ele><time>2026-05-03T11:44:42.754Z</time></trkpt><trkpt lat="45.389475" lon="11.129895"><ele>28.0</ele><time>2026-05-03T11:44:43.754Z</time></trkpt><trkpt lat="45.38963" lon="11.12991"><ele>27.666666666666668</ele><time>2026-05-03T11:44:44.752Z</time></trkpt><trkpt lat="45.3898017" lon="11.1299317"><ele>27.333333333333336</ele><time>2026-05-03T11:44:45.752Z</time></trkpt><trkpt lat="45.38999" lon="11.1299667"><ele>27.0</ele><time>2026-05-03T11:44:46.759Z</time></trkpt><trkpt lat="45.3901933" lon="11.13002"><ele>27.0</ele><time>2026-05-03T11:44:47.756Z</time></trkpt><trkpt lat="45.3904067" lon="11.130075"><ele>27.0</ele><time>2026-05-03T11:44:48.76Z</time></trkpt><trkpt lat="45.3906233" lon="11.130125"><ele>27.0</ele><time>2026-05-03T11:44:49.754Z</time></trkpt><trkpt lat="45.3908483" lon="11.1301717"><ele>27.0</ele><time>2026-05-03T11:44:50.755Z</time></trkpt><trkpt lat="45.3910783" lon="11.1302133"><ele>27.0</ele><time>2026-05-03T11:44:51.755Z</time></trkpt><trkpt lat="45.3913083" lon="11.130235"><ele>28.0</ele><time>2026-05-03T11:44:52.756Z</time></trkpt><trkpt lat="45.391535" lon="11.13023"><ele>29.0</ele><time>2026-05-03T11:44:53.753Z</time></trkpt><trkpt lat="45.3917583" lon="11.1302033"><ele>29.0</ele><time>2026-05-03T11:44:54.758Z</time></trkpt><trkpt lat="45.3919767" lon="11.1301683"><ele>29.0</ele><time>2026-05-03T11:44:55.755Z</time></trkpt><trkpt lat="45.3921883" lon="11.1301183"><ele>29.0</ele><time>2026-05-03T11:44:56.756Z</time></trkpt><trkpt lat="45.3923933" lon="11.1300483"><ele>28.666666666666664</ele><time>2026-05-03T11:44:57.758Z</time></trkpt><trkpt lat="45.3925967" lon="11.1299583"><ele>28.333333333333336</ele><time>2026-05-03T11:44:58.755Z</time></trkpt><trkpt lat="45.3927983" lon="11.12986"><ele>28.0</ele><time>2026-05-03T11:44:59.761Z</time></trkpt><trkpt lat="45.3930033" lon="11.1297533"><ele>28.0</ele><time>2026-05-03T11:45:00.757Z</time></trkpt><trkpt lat="45.3932067" lon="11.1296517"><ele>28.0</ele><time>2026-05-03T11:45:01.756Z</time></trkpt><trkpt lat="45.3934" lon="11.1295517"><ele>28.0</ele><time>2026-05-03T11:45:02.757Z</time></trkpt><trkpt lat="45.3935833" lon="11.129455"><ele>28.0</ele><time>2026-05-03T11:45:03.76Z</time></trkpt><trkpt lat="45.39375" lon="11.129365"><ele>28.0</ele><time>2026-05-03T11:45:04.755Z</time></trkpt><trkpt lat="45.39391" lon="11.12928"><ele>28.0</ele><time>2026-05-03T11:45:05.764Z</time></trkpt><trkpt lat="45.3940683" lon="11.1292017"><ele>28.0</ele><time>2026-05-03T11:45:06.762Z</time></trkpt><trkpt lat="45.394235" lon="11.129125"><ele>28.0</ele><time>2026-05-03T11:45:07.77Z</time></trkpt><trkpt lat="45.3944067" lon="11.1290633"><ele>28.0</ele><time>2026-05-03T11:45:08.757Z</time></trkpt><trkpt lat="45.39457" lon="11.1290183"><ele>28.5</ele><time>2026-05-03T11:45:09.76Z</time></trkpt><trkpt lat="45.394725" lon="11.1289933"><ele>29.0</ele><time>2026-05-03T11:45:10.755Z</time></trkpt><trkpt lat="45.3948717" lon="11.12899"><ele>29.5</ele><time>2026-05-03T11:45:11.754Z</time></trkpt><trkpt lat="45.3950183" lon="11.1289883"><ele>30.0</ele><time>2026-05-03T11:45:12.756Z</time></trkpt><trkpt lat="45.395165" lon="11.12898"><ele>30.0</ele><time>2026-05-03T11:45:13.758Z</time></trkpt><trkpt lat="45.39531" lon="11.128965"><ele>30.0</ele><time>2026-05-03T11:45:14.756Z</time></trkpt><trkpt lat="45.395455" lon="11.1289367"><ele>30.0</ele><time>2026-05-03T11:45:15.754Z</time></trkpt><trkpt lat="45.3956" lon="11.128895"><ele>30.0</ele><time>2026-05-03T11:45:16.756Z</time></trkpt><trkpt lat="45.39574" lon="11.128835"><ele>30.0</ele><time>2026-05-03T11:45:17.759Z</time></trkpt><trkpt lat="45.3958733" lon="11.1287667"><ele>30.0</ele><time>2026-05-03T11:45:18.766Z</time></trkpt><trkpt lat="45.396" lon="11.1286817"><ele>30.0</ele><time>2026-05-03T11:45:19.755Z</time></trkpt><trkpt lat="45.39612" lon="11.1285817"><ele>30.0</ele><time>2026-05-03T11:45:20.757Z</time></trkpt><trkpt lat="45.396245" lon="11.1284583"><ele>29.333333333333336</ele><time>2026-05-03T11:45:21.756Z</time></trkpt><trkpt lat="45.396375" lon="11.12831"><ele>28.666666666666668</ele><time>2026-05-03T11:45:22.753Z</time></trkpt><trkpt lat="45.3965117" lon="11.12814"><ele>28.0</ele><time>2026-05-03T11:45:23.757Z</time></trkpt><trkpt lat="45.3966567" lon="11.1279667"><ele>28.0</ele><time>2026-05-03T11:45:24.757Z</time></trkpt><trkpt lat="45.396805" lon="11.1277883"><ele>28.0</ele><time>2026-05-03T11:45:25.756Z</time></trkpt><trkpt lat="45.3969583" lon="11.1275967"><ele>28.0</ele><time>2026-05-03T11:45:26.757Z</time></trkpt><trkpt lat="45.3971133" lon="11.1273917"><ele>28.0</ele><time>2026-05-03T11:45:27.756Z</time></trkpt><trkpt lat="45.3972733" lon="11.1271833"><ele>28.0</ele><time>2026-05-03T11:45:28.76Z</time></trkpt><trkpt lat="45.3974267" lon="11.1269767"><ele>28.0</ele><time>2026-05-03T11:45:29.755Z</time></trkpt><trkpt lat="45.3975733" lon="11.12678"><ele>28.0</ele><time>2026-05-03T11:45:30.753Z</time></trkpt><trkpt lat="45.3977133" lon="11.1265917"><ele>28.0</ele><time>2026-05-03T11:45:31.758Z</time></trkpt><trkpt lat="45.397845" lon="11.1264183"><ele>28.0</ele><time>2026-05-03T11:45:32.76Z</time></trkpt><trkpt lat="45.39797" lon="11.1262583"><ele>27.75</ele><time>2026-05-03T11:45:33.76Z</time></trkpt><trkpt lat="45.39809" lon="11.1261183"><ele>27.5</ele><time>2026-05-03T11:45:34.761Z</time></trkpt><trkpt lat="45.3982033" lon="11.1260017"><ele>27.25</ele><time>2026-05-03T11:45:35.756Z</time></trkpt><trkpt lat="45.3983117" lon="11.1258967"><ele>27.0</ele><time>2026-05-03T11:45:36.757Z</time></trkpt><trkpt lat="45.39841" lon="11.1258067"><ele>27.200000000000003</ele><time>2026-05-03T11:45:37.76Z</time></trkpt><trkpt lat="45.3984967" lon="11.1257283"><ele>27.400000000000002</ele><time>2026-05-03T11:45:38.757Z</time></trkpt><trkpt lat="45.3985683" lon="11.1256667"><ele>27.599999999999998</ele><time>2026-05-03T11:45:39.756Z</time></trkpt><trkpt lat="45.398625" lon="11.1256167"><ele>27.799999999999997</ele><time>2026-05-03T11:45:40.759Z</time></trkpt><trkpt lat="45.3987133" lon="11.1255333"><ele>28.0</ele><time>2026-05-03T11:45:42.756Z</time></trkpt><trkpt lat="45.3987917" lon="11.125465"><ele>28.166666666666668</ele><time>2026-05-03T11:45:44.758Z</time></trkpt><trkpt lat="45.39885" lon="11.1254183"><ele>28.333333333333336</ele><time>2026-05-03T11:45:46.756Z</time></trkpt><trkpt lat="45.3989267" lon="11.1253183"><ele>28.5</ele><time>2026-05-03T11:46:06.761Z</time></trkpt><trkpt lat="45.3990183" lon="11.1252033"><ele>28.666666666666664</ele><time>2026-05-03T11:46:08.765Z</time></trkpt><trkpt lat="45.3990533" lon="11.1251233"><ele>28.833333333333332</ele><time>2026-05-03T11:46:09.758Z</time></trkpt><trkpt lat="45.3990733" lon="11.1250133"><ele>29.0</ele><time>2026-05-03T11:46:10.761Z</time></trkpt><trkpt lat="45.3990817" lon="11.1248783"><ele>29.0</ele><time>2026-05-03T11:46:11.757Z</time></trkpt><trkpt lat="45.3990783" lon="11.1247133"><ele>29.0</ele><time>2026-05-03T11:46:12.755Z</time></trkpt><trkpt lat="45.3990733" lon="11.1245283"><ele>29.0</ele><time>2026-05-03T11:46:13.76Z</time></trkpt><trkpt lat="45.3990683" lon="11.1243317"><ele>29.0</ele><time>2026-05-03T11:46:14.761Z</time></trkpt><trkpt lat="45.3990717" lon="11.1241283"><ele>28.75</ele><time>2026-05-03T11:46:15.757Z</time></trkpt><trkpt lat="45.3990783" lon="11.12393"><ele>28.5</ele><time>2026-05-03T11:46:16.762Z</time></trkpt><trkpt lat="45.3990833" lon="11.1237367"><ele>28.25</ele><time>2026-05-03T11:46:17.762Z</time></trkpt><trkpt lat="45.3990867" lon="11.1235483"><ele>28.0</ele><time>2026-05-03T11:46:18.759Z</time></trkpt><trkpt lat="45.3990867" lon="11.12336"><ele>28.0</ele><time>2026-05-03T11:46:19.76Z</time></trkpt><trkpt lat="45.3990883" lon="11.1231767"><ele>28.0</ele><time>2026-05-03T11:46:20.762Z</time></trkpt><trkpt lat="45.3990867" lon="11.1229983"><ele>28.0</ele><time>2026-05-03T11:46:21.764Z</time></trkpt><trkpt lat="45.3990883" lon="11.1228183"><ele>28.0</ele><time>2026-05-03T11:46:22.757Z</time></trkpt><trkpt lat="45.3990883" lon="11.12265"><ele>28.0</ele><time>2026-05-03T11:46:23.758Z</time></trkpt><trkpt lat="45.3990833" lon="11.1224883"><ele>27.999999999999996</ele><time>2026-05-03T11:46:24.757Z</time></trkpt><trkpt lat="45.399065" lon="11.1223283"><ele>27.999999999999996</ele><time>2026-05-03T11:46:25.758Z</time></trkpt><trkpt lat="45.399035" lon="11.1221783"><ele>28.0</ele><time>2026-05-03T11:46:26.756Z</time></trkpt><trkpt lat="45.39899" lon="11.1220333"><ele>28.0</ele><time>2026-05-03T11:46:27.753Z</time></trkpt><trkpt lat="45.398935" lon="11.121885"><ele>28.0</ele><time>2026-05-03T11:46:28.756Z</time></trkpt><trkpt lat="45.3988817" lon="11.1217383"><ele>28.0</ele><time>2026-05-03T11:46:29.755Z</time></trkpt><trkpt lat="45.3988317" lon="11.12159"><ele>28.0</ele><time>2026-05-03T11:46:30.76Z</time></trkpt><trkpt lat="45.3987883" lon="11.121435"><ele>28.0</ele><time>2026-05-03T11:46:31.753Z</time></trkpt><trkpt lat="45.398745" lon="11.1212833"><ele>28.0</ele><time>2026-05-03T11:46:32.758Z</time></trkpt><trkpt lat="45.3986967" lon="11.12113"><ele>28.0</ele><time>2026-05-03T11:46:33.759Z</time></trkpt><trkpt lat="45.398645" lon="11.1209767"><ele>28.0</ele><time>2026-05-03T11:46:34.758Z</time></trkpt><trkpt lat="45.3985933" lon="11.120825"><ele>28.0</ele><time>2026-05-03T11:46:35.755Z</time></trkpt><trkpt lat="45.3985483" lon="11.1206733"><ele>28.0</ele><time>2026-05-03T11:46:36.764Z</time></trkpt><trkpt lat="45.398505" lon="11.120515"><ele>28.0</ele><time>2026-05-03T11:46:37.756Z</time></trkpt><trkpt lat="45.3984617" lon="11.1203567"><ele>28.0</ele><time>2026-05-03T11:46:38.754Z</time></trkpt><trkpt lat="45.3984133" lon="11.1202"><ele>28.0</ele><time>2026-05-03T11:46:39.759Z</time></trkpt><trkpt lat="45.3983683" lon="11.120045"><ele>28.0</ele><time>2026-05-03T11:46:40.757Z</time></trkpt><trkpt lat="45.3983233" lon="11.1199017"><ele>27.999999999999996</ele><time>2026-05-03T11:46:41.756Z</time></trkpt><trkpt lat="45.3982783" lon="11.1197633"><ele>27.999999999999996</ele><time>2026-05-03T11:46:42.759Z</time></trkpt><trkpt lat="45.39823" lon="11.1196267"><ele>28.0</ele><time>2026-05-03T11:46:43.756Z</time></trkpt><trkpt lat="45.3981917" lon="11.1194983"><ele>28.0</ele><time>2026-05-03T11:46:44.763Z</time></trkpt><trkpt lat="45.3981683" lon="11.1193617"><ele>27.799999999999997</ele><time>2026-05-03T11:46:45.761Z</time></trkpt><trkpt lat="45.3981617" lon="11.119215"><ele>27.599999999999998</ele><time>2026-05-03T11:46:46.759Z</time></trkpt><trkpt lat="45.3981733" lon="11.1190667"><ele>27.400000000000002</ele><time>2026-05-03T11:46:47.755Z</time></trkpt><trkpt lat="45.3981933" lon="11.1189117"><ele>27.200000000000003</ele><time>2026-05-03T11:46:48.759Z</time></trkpt><trkpt lat="45.3982167" lon="11.1187517"><ele>27.0</ele><time>2026-05-03T11:46:49.752Z</time></trkpt><trkpt lat="45.3982367" lon="11.1185917"><ele>27.0</ele><time>2026-05-03T11:46:50.756Z</time></trkpt><trkpt lat="45.398255" lon="11.1184317"><ele>27.000000000000004</ele><time>2026-05-03T11:46:51.753Z</time></trkpt><trkpt lat="45.3982717" lon="11.11827"><ele>27.000000000000004</ele><time>2026-05-03T11:46:52.755Z</time></trkpt><trkpt lat="45.3982883" lon="11.118115"><ele>27.0</ele><time>2026-05-03T11:46:53.752Z</time></trkpt><trkpt lat="45.3983033" lon="11.1179633"><ele>27.0</ele><time>2026-05-03T11:46:54.753Z</time></trkpt><trkpt lat="45.398315" lon="11.1178117"><ele>27.0</ele><time>2026-05-03T11:46:55.756Z</time></trkpt><trkpt lat="45.3983233" lon="11.117665"><ele>27.000000000000004</ele><time>2026-05-03T11:46:56.755Z</time></trkpt><trkpt lat="45.39833" lon="11.1175117"><ele>27.000000000000004</ele><time>2026-05-03T11:46:57.762Z</time></trkpt><trkpt lat="45.3983333" lon="11.1173567"><ele>27.0</ele><time>2026-05-03T11:46:58.753Z</time></trkpt><trkpt lat="45.3983383" lon="11.117205"><ele>27.0</ele><time>2026-05-03T11:46:59.756Z</time></trkpt><trkpt lat="45.3983433" lon="11.11705"><ele>27.0</ele><time>2026-05-03T11:47:00.759Z</time></trkpt><trkpt lat="45.3983483" lon="11.116895"><ele>27.000000000000004</ele><time>2026-05-03T11:47:01.752Z</time></trkpt><trkpt lat="45.3983533" lon="11.1167483"><ele>27.000000000000004</ele><time>2026-05-03T11:47:02.762Z</time></trkpt><trkpt lat="45.39836" lon="11.1165983"><ele>27.0</ele><time>2026-05-03T11:47:03.76Z</time></trkpt><trkpt lat="45.398365" lon="11.1164667"><ele>27.0</ele><time>2026-05-03T11:47:04.759Z</time></trkpt><trkpt lat="45.39837" lon="11.1163483"><ele>27.0</ele><time>2026-05-03T11:47:05.758Z</time></trkpt><trkpt lat="45.3983667" lon="11.1162167"><ele>27.000000000000004</ele><time>2026-05-03T11:47:06.758Z</time></trkpt><trkpt lat="45.3983517" lon="11.116075"><ele>27.000000000000004</ele><time>2026-05-03T11:47:07.753Z</time></trkpt><trkpt lat="45.3983283" lon="11.115925"><ele>27.0</ele><time>2026-05-03T11:47:08.758Z</time></trkpt><trkpt lat="45.3983" lon="11.1157683"><ele>27.0</ele><time>2026-05-03T11:47:09.754Z</time></trkpt><trkpt lat="45.3982683" lon="11.11561"><ele>27.0</ele><time>2026-05-03T11:47:10.754Z</time></trkpt><trkpt lat="45.3982367" lon="11.1154567"><ele>27.000000000000004</ele><time>2026-05-03T11:47:11.761Z</time></trkpt><trkpt lat="45.3982067" lon="11.1153033"><ele>27.000000000000004</ele><time>2026-05-03T11:47:12.755Z</time></trkpt><trkpt lat="45.3981783" lon="11.11515"><ele>27.0</ele><time>2026-05-03T11:47:13.756Z</time></trkpt><trkpt lat="45.39815" lon="11.1149967"><ele>27.0</ele><time>2026-05-03T11:47:14.752Z</time></trkpt><trkpt lat="45.3981217" lon="11.11484"><ele>27.200000000000003</ele><time>2026-05-03T11:47:15.756Z</time></trkpt><trkpt lat="45.398095" lon="11.1146833"><ele>27.400000000000002</ele><time>2026-05-03T11:47:16.752Z</time></trkpt><trkpt lat="45.3980717" lon="11.1145333"><ele>27.599999999999998</ele><time>2026-05-03T11:47:17.757Z</time></trkpt><trkpt lat="45.3980483" lon="11.114385"><ele>27.799999999999997</ele><time>2026-05-03T11:47:18.761Z</time></trkpt><trkpt lat="45.3980217" lon="11.1142367"><ele>28.0</ele><time>2026-05-03T11:47:19.76Z</time></trkpt><trkpt lat="45.397995" lon="11.114085"><ele>28.599999999999998</ele><time>2026-05-03T11:47:20.76Z</time></trkpt><trkpt lat="45.39797" lon="11.1139367"><ele>29.199999999999996</ele><time>2026-05-03T11:47:21.756Z</time></trkpt><trkpt lat="45.3979467" lon="11.11379"><ele>29.8</ele><time>2026-05-03T11:47:22.762Z</time></trkpt><trkpt lat="45.3979283" lon="11.1136383"><ele>30.4</ele><time>2026-05-03T11:47:23.756Z</time></trkpt><trkpt lat="45.3979167" lon="11.11349"><ele>31.0</ele><time>2026-05-03T11:47:24.754Z</time></trkpt><trkpt lat="45.3979133" lon="11.11334"><ele>31.200000000000003</ele><time>2026-05-03T11:47:25.754Z</time></trkpt><trkpt lat="45.3979233" lon="11.1131933"><ele>31.400000000000002</ele><time>2026-05-03T11:47:26.755Z</time></trkpt><trkpt lat="45.3979383" lon="11.1130483"><ele>31.6</ele><time>2026-05-03T11:47:27.753Z</time></trkpt><trkpt lat="45.3979467" lon="11.1129067"><ele>31.8</ele><time>2026-05-03T11:47:28.755Z</time></trkpt><trkpt lat="45.3979483" lon="11.1127683"><ele>32.0</ele><time>2026-05-03T11:47:29.755Z</time></trkpt><trkpt lat="45.3979383" lon="11.112635"><ele>31.999999999999996</ele><time>2026-05-03T11:47:30.755Z</time></trkpt><trkpt lat="45.3979267" lon="11.1125033"><ele>32.0</ele><time>2026-05-03T11:47:31.758Z</time></trkpt><trkpt lat="45.3979183" lon="11.112395"><ele>32.0</ele><time>2026-05-03T11:47:32.755Z</time></trkpt><trkpt lat="45.3979133" lon="11.1123017"><ele>32.0</ele><time>2026-05-03T11:47:33.755Z</time></trkpt><trkpt lat="45.3979083" lon="11.1121667"><ele>31.999999999999996</ele><time>2026-05-03T11:47:35.758Z</time></trkpt><trkpt lat="45.3978533" lon="11.11204"><ele>32.0</ele><time>2026-05-03T11:47:38.757Z</time></trkpt><trkpt lat="45.3977983" lon="11.111895"><ele>31.8</ele><time>2026-05-03T11:47:40.754Z</time></trkpt><trkpt lat="45.397775" lon="11.1118017"><ele>31.6</ele><time>2026-05-03T11:47:41.753Z</time></trkpt><trkpt lat="45.3977667" lon="11.1116833"><ele>31.400000000000002</ele><time>2026-05-03T11:47:42.758Z</time></trkpt><trkpt lat="45.3977583" lon="11.1115383"><ele>31.200000000000003</ele><time>2026-05-03T11:47:43.758Z</time></trkpt><trkpt lat="45.3977567" lon="11.1113617"><ele>31.0</ele><time>2026-05-03T11:47:44.762Z</time></trkpt><trkpt lat="45.3977567" lon="11.11117"><ele>31.0</ele><time>2026-05-03T11:47:45.755Z</time></trkpt><trkpt lat="45.397755" lon="11.1109733"><ele>31.0</ele><time>2026-05-03T11:47:46.76Z</time></trkpt><trkpt lat="45.3977533" lon="11.1107817"><ele>31.0</ele><time>2026-05-03T11:47:47.753Z</time></trkpt><trkpt lat="45.39775" lon="11.110595"><ele>31.0</ele><time>2026-05-03T11:47:48.753Z</time></trkpt><trkpt lat="45.39775" lon="11.11042"><ele>30.5</ele><time>2026-05-03T11:47:49.757Z</time></trkpt><trkpt lat="45.39775" lon="11.1102517"><ele>30.0</ele><time>2026-05-03T11:47:50.756Z</time></trkpt><trkpt lat="45.39775" lon="11.1100817"><ele>29.5</ele><time>2026-05-03T11:47:51.753Z</time></trkpt><trkpt lat="45.3977483" lon="11.1099117"><ele>29.0</ele><time>2026-05-03T11:47:52.758Z</time></trkpt><trkpt lat="45.3977417" lon="11.10974"><ele>28.75</ele><time>2026-05-03T11:47:53.755Z</time></trkpt><trkpt lat="45.3977367" lon="11.1095717"><ele>28.5</ele><time>2026-05-03T11:47:54.757Z</time></trkpt><trkpt lat="45.3977317" lon="11.1094033"><ele>28.25</ele><time>2026-05-03T11:47:55.759Z</time></trkpt><trkpt lat="45.3977283" lon="11.109235"><ele>28.0</ele><time>2026-05-03T11:47:56.755Z</time></trkpt><trkpt lat="45.3977267" lon="11.109065"><ele>28.4</ele><time>2026-05-03T11:47:57.758Z</time></trkpt><trkpt lat="45.397725" lon="11.108895"><ele>28.799999999999997</ele><time>2026-05-03T11:47:58.755Z</time></trkpt><trkpt lat="45.3977233" lon="11.1087333"><ele>29.2</ele><time>2026-05-03T11:47:59.757Z</time></trkpt><trkpt lat="45.3977233" lon="11.1085883"><ele>29.6</ele><time>2026-05-03T11:48:00.762Z</time></trkpt><trkpt lat="45.3977217" lon="11.1084683"><ele>30.0</ele><time>2026-05-03T11:48:01.758Z</time></trkpt><trkpt lat="45.397715" lon="11.1083783"><ele>30.0</ele><time>2026-05-03T11:48:02.765Z</time></trkpt><trkpt lat="45.39766" lon="11.1082533"><ele>30.0</ele><time>2026-05-03T11:48:04.754Z</time></trkpt><trkpt lat="45.3975417" lon="11.10823"><ele>30.0</ele><time>2026-05-03T11:48:06.755Z</time></trkpt><trkpt lat="45.39746" lon="11.1082467"><ele>30.0</ele><time>2026-05-03T11:48:07.756Z</time></trkpt><trkpt lat="45.39736" lon="11.1082683"><ele>30.0</ele><time>2026-05-03T11:48:08.754Z</time></trkpt><trkpt lat="45.397245" lon="11.1082883"><ele>30.0</ele><time>2026-05-03T11:48:09.757Z</time></trkpt><trkpt lat="45.3971217" lon="11.1083067"><ele>30.0</ele><time>2026-05-03T11:48:10.756Z</time></trkpt><trkpt lat="45.3969983" lon="11.1083183"><ele>30.0</ele><time>2026-05-03T11:48:11.753Z</time></trkpt><trkpt lat="45.3968783" lon="11.108325"><ele>30.0</ele><time>2026-05-03T11:48:12.756Z</time></trkpt><trkpt lat="45.3967633" lon="11.10833"><ele>30.0</ele><time>2026-05-03T11:48:13.754Z</time></trkpt><trkpt lat="45.3966517" lon="11.108335"><ele>30.0</ele><time>2026-05-03T11:48:14.763Z</time></trkpt><trkpt lat="45.3965367" lon="11.1083433"><ele>30.0</ele><time>2026-05-03T11:48:15.757Z</time></trkpt><trkpt lat="45.3964217" lon="11.10835"><ele>30.0</ele><time>2026-05-03T11:48:16.76Z</time></trkpt><trkpt lat="45.3963083" lon="11.1083583"><ele>30.25</ele><time>2026-05-03T11:48:17.754Z</time></trkpt><trkpt lat="45.396195" lon="11.1083633"><ele>30.5</ele><time>2026-05-03T11:48:18.762Z</time></trkpt><trkpt lat="45.3960783" lon="11.1083717"><ele>30.75</ele><time>2026-05-03T11:48:19.759Z</time></trkpt><trkpt lat="45.3959633" lon="11.10838"><ele>31.0</ele><time>2026-05-03T11:48:20.756Z</time></trkpt><trkpt lat="45.3958533" lon="11.1083883"><ele>31.0</ele><time>2026-05-03T11:48:21.755Z</time></trkpt><trkpt lat="45.3957517" lon="11.1083933"><ele>31.0</ele><time>2026-05-03T11:48:22.761Z</time></trkpt><trkpt lat="45.3956583" lon="11.108405"><ele>31.0</ele><time>2026-05-03T11:48:23.754Z</time></trkpt><trkpt lat="45.39558" lon="11.1084133"><ele>31.0</ele><time>2026-05-03T11:48:24.763Z</time></trkpt><trkpt lat="45.3955167" lon="11.10842"><ele>31.0</ele><time>2026-05-03T11:48:25.755Z</time></trkpt><trkpt lat="45.3954" lon="11.10841"><ele>31.0</ele><time>2026-05-03T11:48:27.753Z</time></trkpt><trkpt lat="45.3952917" lon="11.108325"><ele>31.0</ele><time>2026-05-03T11:48:29.752Z</time></trkpt><trkpt lat="45.39523" lon="11.1082483"><ele>31.0</ele><time>2026-05-03T11:48:30.755Z</time></trkpt><trkpt lat="45.395155" lon="11.1081567"><ele>31.0</ele><time>2026-05-03T11:48:31.757Z</time></trkpt><trkpt lat="45.395065" lon="11.1080567"><ele>31.0</ele><time>2026-05-03T11:48:32.761Z</time></trkpt><trkpt lat="45.3949683" lon="11.1079483"><ele>30.75</ele><time>2026-05-03T11:48:33.766Z</time></trkpt><trkpt lat="45.3948683" lon="11.1078367"><ele>30.5</ele><time>2026-05-03T11:48:34.755Z</time></trkpt><trkpt lat="45.39477" lon="11.1077233"><ele>30.25</ele><time>2026-05-03T11:48:35.761Z</time></trkpt><trkpt lat="45.39467" lon="11.1076133"><ele>30.0</ele><time>2026-05-03T11:48:36.758Z</time></trkpt><trkpt lat="45.3945733" lon="11.107505"><ele>30.5</ele><time>2026-05-03T11:48:37.759Z</time></trkpt><trkpt lat="45.3944817" lon="11.107405"><ele>31.0</ele><time>2026-05-03T11:48:38.755Z</time></trkpt><trkpt lat="45.39439" lon="11.1073067"><ele>31.5</ele><time>2026-05-03T11:48:39.756Z</time></trkpt><trkpt lat="45.3943" lon="11.1072067"><ele>32.0</ele><time>2026-05-03T11:48:40.755Z</time></trkpt><trkpt lat="45.3942133" lon="11.1071117"><ele>31.999999999999996</ele><time>2026-05-03T11:48:41.752Z</time></trkpt><trkpt lat="45.3941333" lon="11.1070233"><ele>32.0</ele><time>2026-05-03T11:48:42.757Z</time></trkpt><trkpt lat="45.3940583" lon="11.1069417"><ele>32.0</ele><time>2026-05-03T11:48:43.752Z</time></trkpt><trkpt lat="45.3939867" lon="11.1068633"><ele>32.0</ele><time>2026-05-03T11:48:44.755Z</time></trkpt><trkpt lat="45.3939233" lon="11.106795"><ele>31.999999999999996</ele><time>2026-05-03T11:48:45.756Z</time></trkpt><trkpt lat="45.3938733" lon="11.1067383"><ele>32.0</ele><time>2026-05-03T11:48:46.758Z</time></trkpt><trkpt lat="45.3938083" lon="11.1066183"><ele>32.0</ele><time>2026-05-03T11:48:48.757Z</time></trkpt><trkpt lat="45.3938533" lon="11.1064733"><ele>32.0</ele><time>2026-05-03T11:48:50.763Z</time></trkpt><trkpt lat="45.3939183" lon="11.1063767"><ele>32.0</ele><time>2026-05-03T11:48:51.757Z</time></trkpt><trkpt lat="45.3940067" lon="11.1062667"><ele>32.0</ele><time>2026-05-03T11:48:52.752Z</time></trkpt><trkpt lat="45.3941183" lon="11.106115"><ele>32.0</ele><time>2026-05-03T11:48:53.756Z</time></trkpt><trkpt lat="45.3942333" lon="11.1059533"><ele>32.0</ele><time>2026-05-03T11:48:54.752Z</time></trkpt><trkpt lat="45.39434" lon="11.1058017"><ele>32.0</ele><time>2026-05-03T11:48:55.758Z</time></trkpt><trkpt lat="45.3944383" lon="11.1056617"><ele>31.8</ele><time>2026-05-03T11:48:56.762Z</time></trkpt><trkpt lat="45.3945267" lon="11.105535"><ele>31.6</ele><time>2026-05-03T11:48:57.754Z</time></trkpt><trkpt lat="45.3946083" lon="11.1054167"><ele>31.400000000000002</ele><time>2026-05-03T11:48:58.755Z</time></trkpt><trkpt lat="45.39468" lon="11.1053067"><ele>31.200000000000003</ele><time>2026-05-03T11:48:59.757Z</time></trkpt><trkpt lat="45.39475" lon="11.1052017"><ele>31.0</ele><time>2026-05-03T11:49:00.755Z</time></trkpt><trkpt lat="45.394825" lon="11.1050917"><ele>30.75</ele><time>2026-05-03T11:49:01.759Z</time></trkpt><trkpt lat="45.3949017" lon="11.1049783"><ele>30.5</ele><time>2026-05-03T11:49:02.758Z</time></trkpt><trkpt lat="45.3949883" lon="11.1048533"><ele>30.25</ele><time>2026-05-03T11:49:03.754Z</time></trkpt><trkpt lat="45.3950883" lon="11.10471"><ele>30.0</ele><time>2026-05-03T11:49:04.756Z</time></trkpt><trkpt lat="45.395195" lon="11.1045567"><ele>30.0</ele><time>2026-05-03T11:49:05.755Z</time></trkpt><trkpt lat="45.3953033" lon="11.1044"><ele>30.0</ele><time>2026-05-03T11:49:06.755Z</time></trkpt><trkpt lat="45.3954183" lon="11.1042383"><ele>30.0</ele><time>2026-05-03T11:49:07.752Z</time></trkpt><trkpt lat="45.39553" lon="11.1040817"><ele>30.25</ele><time>2026-05-03T11:49:08.754Z</time></trkpt><trkpt lat="45.3956367" lon="11.1039317"><ele>30.5</ele><time>2026-05-03T11:49:09.759Z</time></trkpt><trkpt lat="45.3957433" lon="11.1037817"><ele>30.75</ele><time>2026-05-03T11:49:10.753Z</time></trkpt><trkpt lat="45.3958467" lon="11.1036317"><ele>31.0</ele><time>2026-05-03T11:49:11.753Z</time></trkpt><trkpt lat="45.3959433" lon="11.10349"><ele>31.0</ele><time>2026-05-03T11:49:12.752Z</time></trkpt><trkpt lat="45.3960267" lon="11.10336"><ele>31.0</ele><time>2026-05-03T11:49:13.754Z</time></trkpt><trkpt lat="45.396085" lon="11.103225"><ele>31.0</ele><time>2026-05-03T11:49:14.755Z</time></trkpt><trkpt lat="45.39612" lon="11.1030683"><ele>31.0</ele><time>2026-05-03T11:49:15.758Z</time></trkpt><trkpt lat="45.3961433" lon="11.1028833"><ele>31.0</ele><time>2026-05-03T11:49:16.753Z</time></trkpt><trkpt lat="45.3961633" lon="11.1026783"><ele>31.0</ele><time>2026-05-03T11:49:17.758Z</time></trkpt><trkpt lat="45.3961883" lon="11.1024783"><ele>31.0</ele><time>2026-05-03T11:49:18.76Z</time></trkpt><trkpt lat="45.3962133" lon="11.1022933"><ele>31.0</ele><time>2026-05-03T11:49:19.755Z</time></trkpt><trkpt lat="45.3962367" lon="11.102105"><ele>31.0</ele><time>2026-05-03T11:49:20.758Z</time></trkpt><trkpt lat="45.3962617" lon="11.10192"><ele>31.0</ele><time>2026-05-03T11:49:21.755Z</time></trkpt><trkpt lat="45.396285" lon="11.1017533"><ele>31.0</ele><time>2026-05-03T11:49:22.753Z</time></trkpt><trkpt lat="45.3963083" lon="11.1016083"><ele>31.0</ele><time>2026-05-03T11:49:23.754Z</time></trkpt><trkpt lat="45.3963417" lon="11.101475"><ele>31.0</ele><time>2026-05-03T11:49:24.756Z</time></trkpt><trkpt lat="45.3963983" lon="11.10136"><ele>31.0</ele><time>2026-05-03T11:49:25.757Z</time></trkpt><trkpt lat="45.3964783" lon="11.1012517"><ele>31.0</ele><time>2026-05-03T11:49:26.754Z</time></trkpt><trkpt lat="45.396585" lon="11.1011383"><ele>31.0</ele><time>2026-05-03T11:49:27.754Z</time></trkpt><trkpt lat="45.3967017" lon="11.101015"><ele>31.0</ele><time>2026-05-03T11:49:28.757Z</time></trkpt><trkpt lat="45.396825" lon="11.10088"><ele>31.0</ele><time>2026-05-03T11:49:29.758Z</time></trkpt><trkpt lat="45.3969483" lon="11.1007383"><ele>31.0</ele><time>2026-05-03T11:49:30.762Z</time></trkpt><trkpt lat="45.397065" lon="11.100605"><ele>30.75</ele><time>2026-05-03T11:49:31.756Z</time></trkpt><trkpt lat="45.3971783" lon="11.1004767"><ele>30.5</ele><time>2026-05-03T11:49:32.762Z</time></trkpt><trkpt lat="45.3972917" lon="11.1003483"><ele>30.25</ele><time>2026-05-03T11:49:33.758Z</time></trkpt><trkpt lat="45.397405" lon="11.10022"><ele>30.0</ele><time>2026-05-03T11:49:34.756Z</time></trkpt><trkpt lat="45.3975167" lon="11.1000933"><ele>30.0</ele><time>2026-05-03T11:49:35.768Z</time></trkpt><trkpt lat="45.3976233" lon="11.099975"><ele>30.0</ele><time>2026-05-03T11:49:36.756Z</time></trkpt><trkpt lat="45.39772" lon="11.0998683"><ele>30.0</ele><time>2026-05-03T11:49:37.757Z</time></trkpt><trkpt lat="45.3978067" lon="11.09977"><ele>30.0</ele><time>2026-05-03T11:49:38.756Z</time></trkpt><trkpt lat="45.397885" lon="11.09968"><ele>30.2</ele><time>2026-05-03T11:49:39.757Z</time></trkpt><trkpt lat="45.3979533" lon="11.09959"><ele>30.4</ele><time>2026-05-03T11:49:40.757Z</time></trkpt><trkpt lat="45.3980167" lon="11.0994933"><ele>30.6</ele><time>2026-05-03T11:49:41.76Z</time></trkpt><trkpt lat="45.39808" lon="11.099375"><ele>30.8</ele><time>2026-05-03T11:49:42.76Z</time></trkpt><trkpt lat="45.39815" lon="11.0992367"><ele>31.0</ele><time>2026-05-03T11:49:43.754Z</time></trkpt><trkpt lat="45.3982217" lon="11.099075"><ele>31.333333333333336</ele><time>2026-05-03T11:49:44.763Z</time></trkpt><trkpt lat="45.398295" lon="11.0988917"><ele>31.666666666666664</ele><time>2026-05-03T11:49:45.754Z</time></trkpt><trkpt lat="45.398375" lon="11.098695"><ele>32.0</ele><time>2026-05-03T11:49:46.752Z</time></trkpt><trkpt lat="45.3984567" lon="11.0985017"><ele>32.0</ele><time>2026-05-03T11:49:47.753Z</time></trkpt><trkpt lat="45.3985367" lon="11.0983167"><ele>32.0</ele><time>2026-05-03T11:49:48.759Z</time></trkpt><trkpt lat="45.3986167" lon="11.09814"><ele>32.0</ele><time>2026-05-03T11:49:49.754Z</time></trkpt><trkpt lat="45.3986983" lon="11.097965"><ele>32.0</ele><time>2026-05-03T11:49:50.755Z</time></trkpt><trkpt lat="45.3987833" lon="11.0977917"><ele>32.33333333333333</ele><time>2026-05-03T11:49:51.755Z</time></trkpt><trkpt lat="45.3988733" lon="11.0976133"><ele>32.666666666666664</ele><time>2026-05-03T11:49:52.756Z</time></trkpt><trkpt lat="45.3989717" lon="11.0974283"><ele>33.0</ele><time>2026-05-03T11:49:53.753Z</time></trkpt><trkpt lat="45.39908" lon="11.0972333"><ele>33.0</ele><time>2026-05-03T11:49:54.753Z</time></trkpt><trkpt lat="45.3991967" lon="11.09702"><ele>33.0</ele><time>2026-05-03T11:49:55.761Z</time></trkpt><trkpt lat="45.39931" lon="11.096805"><ele>33.0</ele><time>2026-05-03T11:49:56.754Z</time></trkpt><trkpt lat="45.39942" lon="11.0965933"><ele>33.0</ele><time>2026-05-03T11:49:57.755Z</time></trkpt><trkpt lat="45.399525" lon="11.09638"><ele>33.0</ele><time>2026-05-03T11:49:58.755Z</time></trkpt><trkpt lat="45.3996283" lon="11.09617"><ele>33.0</ele><time>2026-05-03T11:49:59.76Z</time></trkpt><trkpt lat="45.3997317" lon="11.095965"><ele>33.0</ele><time>2026-05-03T11:50:00.754Z</time></trkpt><trkpt lat="45.3998283" lon="11.09577"><ele>33.0</ele><time>2026-05-03T11:50:01.759Z</time></trkpt><trkpt lat="45.399915" lon="11.095595"><ele>33.0</ele><time>2026-05-03T11:50:02.762Z</time></trkpt><trkpt lat="45.3999967" lon="11.0954433"><ele>33.25</ele><time>2026-05-03T11:50:03.762Z</time></trkpt><trkpt lat="45.4000817" lon="11.0953183"><ele>33.5</ele><time>2026-05-03T11:50:04.759Z</time></trkpt><trkpt lat="45.4001833" lon="11.0952133"><ele>33.75</ele><time>2026-05-03T11:50:05.758Z</time></trkpt><trkpt lat="45.4003" lon="11.095115"><ele>34.0</ele><time>2026-05-03T11:50:06.757Z</time></trkpt><trkpt lat="45.4004217" lon="11.095015"><ele>34.0</ele><time>2026-05-03T11:50:07.759Z</time></trkpt><trkpt lat="45.40054" lon="11.0949267"><ele>34.0</ele><time>2026-05-03T11:50:08.767Z</time></trkpt><trkpt lat="45.400645" lon="11.094865"><ele>34.0</ele><time>2026-05-03T11:50:09.757Z</time></trkpt><trkpt lat="45.4007483" lon="11.0948433"><ele>34.0</ele><time>2026-05-03T11:50:10.758Z</time></trkpt><trkpt lat="45.4008667" lon="11.09486"><ele>34.0</ele><time>2026-05-03T11:50:11.754Z</time></trkpt><trkpt lat="45.4009983" lon="11.0949067"><ele>34.0</ele><time>2026-05-03T11:50:12.753Z</time></trkpt><trkpt lat="45.4011417" lon="11.09497"><ele>34.0</ele><time>2026-05-03T11:50:13.76Z</time></trkpt><trkpt lat="45.40129" lon="11.0950483"><ele>34.0</ele><time>2026-05-03T11:50:14.755Z</time></trkpt><trkpt lat="45.4014283" lon="11.0951267"><ele>35.0</ele><time>2026-05-03T11:50:15.753Z</time></trkpt><trkpt lat="45.4015567" lon="11.0952"><ele>36.0</ele><time>2026-05-03T11:50:16.756Z</time></trkpt><trkpt lat="45.4016617" lon="11.09527"><ele>37.0</ele><time>2026-05-03T11:50:17.752Z</time></trkpt><trkpt lat="45.4017567" lon="11.0953283"><ele>38.0</ele><time>2026-05-03T11:50:18.755Z</time></trkpt><trkpt lat="45.4018467" lon="11.09538"><ele>38.0</ele><time>2026-05-03T11:50:19.752Z</time></trkpt><trkpt lat="45.4019317" lon="11.0954167"><ele>38.0</ele><time>2026-05-03T11:50:20.759Z</time></trkpt><trkpt lat="45.4020233" lon="11.0954367"><ele>38.0</ele><time>2026-05-03T11:50:21.756Z</time></trkpt><trkpt lat="45.4021267" lon="11.0954383"><ele>38.0</ele><time>2026-05-03T11:50:22.753Z</time></trkpt><trkpt lat="45.40224" lon="11.095415"><ele>38.0</ele><time>2026-05-03T11:50:23.756Z</time></trkpt><trkpt lat="45.40236" lon="11.09537"><ele>39.0</ele><time>2026-05-03T11:50:24.758Z</time></trkpt><trkpt lat="45.4024917" lon="11.0953017"><ele>40.0</ele><time>2026-05-03T11:50:25.76Z</time></trkpt><trkpt lat="45.4026283" lon="11.095215"><ele>41.0</ele><time>2026-05-03T11:50:26.756Z</time></trkpt><trkpt lat="45.4027833" lon="11.09511"><ele>41.0</ele><time>2026-05-03T11:50:27.757Z</time></trkpt><trkpt lat="45.4029433" lon="11.0950133"><ele>41.0</ele><time>2026-05-03T11:50:28.757Z</time></trkpt><trkpt lat="45.403105" lon="11.0949133"><ele>41.0</ele><time>2026-05-03T11:50:29.767Z</time></trkpt><trkpt lat="45.40327" lon="11.094815"><ele>41.0</ele><time>2026-05-03T11:50:30.754Z</time></trkpt><trkpt lat="45.4034417" lon="11.0947133"><ele>41.0</ele><time>2026-05-03T11:50:31.753Z</time></trkpt><trkpt lat="45.403625" lon="11.094605"><ele>41.0</ele><time>2026-05-03T11:50:32.758Z</time></trkpt><trkpt lat="45.4038117" lon="11.0944933"><ele>41.666666666666664</ele><time>2026-05-03T11:50:33.755Z</time></trkpt><trkpt lat="45.4039917" lon="11.094385"><ele>42.333333333333336</ele><time>2026-05-03T11:50:34.756Z</time></trkpt><trkpt lat="45.4041683" lon="11.0942783"><ele>43.0</ele><time>2026-05-03T11:50:35.759Z</time></trkpt><trkpt lat="45.4043417" lon="11.094175"><ele>42.66666666666667</ele><time>2026-05-03T11:50:36.758Z</time></trkpt><trkpt lat="45.40451" lon="11.094075"><ele>42.333333333333336</ele><time>2026-05-03T11:50:37.76Z</time></trkpt><trkpt lat="45.4046683" lon="11.0939833"><ele>42.0</ele><time>2026-05-03T11:50:38.765Z</time></trkpt><trkpt lat="45.4048167" lon="11.0938983"><ele>42.0</ele><time>2026-05-03T11:50:39.766Z</time></trkpt><trkpt lat="45.4049717" lon="11.0938117"><ele>42.0</ele><time>2026-05-03T11:50:40.76Z</time></trkpt><trkpt lat="45.405135" lon="11.0937217"><ele>42.0</ele><time>2026-05-03T11:50:41.754Z</time></trkpt><trkpt lat="45.4052983" lon="11.093635"><ele>42.0</ele><time>2026-05-03T11:50:42.757Z</time></trkpt><trkpt lat="45.4054533" lon="11.0935483"><ele>42.0</ele><time>2026-05-03T11:50:43.757Z</time></trkpt><trkpt lat="45.4055933" lon="11.09347"><ele>42.0</ele><time>2026-05-03T11:50:44.754Z</time></trkpt><trkpt lat="45.40572" lon="11.0934"><ele>42.2</ele><time>2026-05-03T11:50:45.758Z</time></trkpt><trkpt lat="45.405835" lon="11.0933383"><ele>42.400000000000006</ele><time>2026-05-03T11:50:46.754Z</time></trkpt><trkpt lat="45.4059433" lon="11.09328"><ele>42.599999999999994</ele><time>2026-05-03T11:50:47.757Z</time></trkpt><trkpt lat="45.4060383" lon="11.09323"><ele>42.8</ele><time>2026-05-03T11:50:48.757Z</time></trkpt><trkpt lat="45.406125" lon="11.0931833"><ele>43.0</ele><time>2026-05-03T11:50:49.757Z</time></trkpt><trkpt lat="45.40621" lon="11.093145"><ele>43.0</ele><time>2026-05-03T11:50:50.758Z</time></trkpt><trkpt lat="45.40629" lon="11.093105"><ele>43.0</ele><time>2026-05-03T11:50:51.755Z</time></trkpt><trkpt lat="45.4063617" lon="11.093055"><ele>43.0</ele><time>2026-05-03T11:50:52.755Z</time></trkpt><trkpt lat="45.4064317" lon="11.0929883"><ele>43.0</ele><time>2026-05-03T11:50:53.752Z</time></trkpt><trkpt lat="45.4064667" lon="11.0928817"><ele>43.0</ele><time>2026-05-03T11:50:54.758Z</time></trkpt><trkpt lat="45.4064883" lon="11.092765"><ele>43.0</ele><time>2026-05-03T11:50:55.759Z</time></trkpt><trkpt lat="45.406485" lon="11.0926167"><ele>43.0</ele><time>2026-05-03T11:50:56.761Z</time></trkpt><trkpt lat="45.4064383" lon="11.0924217"><ele>43.0</ele><time>2026-05-03T11:50:57.755Z</time></trkpt><trkpt lat="45.4063867" lon="11.0922117"><ele>43.0</ele><time>2026-05-03T11:50:58.754Z</time></trkpt><trkpt lat="45.4063283" lon="11.0919867"><ele>43.0</ele><time>2026-05-03T11:50:59.757Z</time></trkpt><trkpt lat="45.4062683" lon="11.0917467"><ele>43.0</ele><time>2026-05-03T11:51:00.754Z</time></trkpt><trkpt lat="45.4062083" lon="11.0914983"><ele>43.0</ele><time>2026-05-03T11:51:01.757Z</time></trkpt><trkpt lat="45.4061517" lon="11.0912483"><ele>43.0</ele><time>2026-05-03T11:51:02.758Z</time></trkpt><trkpt lat="45.4060933" lon="11.0909983"><ele>43.0</ele><time>2026-05-03T11:51:03.757Z</time></trkpt><trkpt lat="45.4060383" lon="11.0907517"><ele>43.0</ele><time>2026-05-03T11:51:04.765Z</time></trkpt><trkpt lat="45.405985" lon="11.0905117"><ele>43.0</ele><time>2026-05-03T11:51:05.757Z</time></trkpt><trkpt lat="45.4059317" lon="11.0902717"><ele>43.0</ele><time>2026-05-03T11:51:06.763Z</time></trkpt><trkpt lat="45.4058767" lon="11.0900317"><ele>43.0</ele><time>2026-05-03T11:51:07.756Z</time></trkpt><trkpt lat="45.4058233" lon="11.0897917"><ele>42.333333333333336</ele><time>2026-05-03T11:51:08.758Z</time></trkpt><trkpt lat="45.4057683" lon="11.08955"><ele>41.666666666666664</ele><time>2026-05-03T11:51:09.754Z</time></trkpt><trkpt lat="45.4057133" lon="11.0892967"><ele>41.0</ele><time>2026-05-03T11:51:10.76Z</time></trkpt><trkpt lat="45.4056617" lon="11.089035"><ele>41.0</ele><time>2026-05-03T11:51:11.759Z</time></trkpt><trkpt lat="45.40561" lon="11.0887767"><ele>41.0</ele><time>2026-05-03T11:51:12.756Z</time></trkpt><trkpt lat="45.4055583" lon="11.0885367"><ele>41.0</ele><time>2026-05-03T11:51:13.758Z</time></trkpt><trkpt lat="45.4055067" lon="11.0883033"><ele>41.666666666666664</ele><time>2026-05-03T11:51:14.755Z</time></trkpt><trkpt lat="45.405455" lon="11.0880717"><ele>42.333333333333336</ele><time>2026-05-03T11:51:15.754Z</time></trkpt><trkpt lat="45.4054017" lon="11.087835"><ele>43.0</ele><time>2026-05-03T11:51:16.755Z</time></trkpt><trkpt lat="45.4053483" lon="11.0875967"><ele>42.75</ele><time>2026-05-03T11:51:17.755Z</time></trkpt><trkpt lat="45.4052967" lon="11.0873717"><ele>42.5</ele><time>2026-05-03T11:51:18.756Z</time></trkpt><trkpt lat="45.4052517" lon="11.0871733"><ele>42.25</ele><time>2026-05-03T11:51:19.756Z</time></trkpt><trkpt lat="45.40521" lon="11.0869933"><ele>42.0</ele><time>2026-05-03T11:51:20.767Z</time></trkpt><trkpt lat="45.4051733" lon="11.0868317"><ele>42.0</ele><time>2026-05-03T11:51:21.757Z</time></trkpt><trkpt lat="45.4051433" lon="11.0866917"><ele>42.0</ele><time>2026-05-03T11:51:22.755Z</time></trkpt><trkpt lat="45.405115" lon="11.08657"><ele>42.0</ele><time>2026-05-03T11:51:23.757Z</time></trkpt><trkpt lat="45.40509" lon="11.0864667"><ele>42.0</ele><time>2026-05-03T11:51:24.76Z</time></trkpt><trkpt lat="45.4050583" lon="11.0863183"><ele>42.0</ele><time>2026-05-03T11:51:26.757Z</time></trkpt><trkpt lat="45.4050517" lon="11.08621"><ele>42.0</ele><time>2026-05-03T11:51:29.761Z</time></trkpt><trkpt lat="45.4051433" lon="11.0860633"><ele>42.0</ele><time>2026-05-03T11:51:45.763Z</time></trkpt><trkpt lat="45.4052267" lon="11.0859867"><ele>42.0</ele><time>2026-05-03T11:51:46.753Z</time></trkpt><trkpt lat="45.40533" lon="11.0858917"><ele>42.0</ele><time>2026-05-03T11:51:47.759Z</time></trkpt><trkpt lat="45.4054433" lon="11.0857867"><ele>42.25</ele><time>2026-05-03T11:51:48.756Z</time></trkpt><trkpt lat="45.4055583" lon="11.085675"><ele>42.5</ele><time>2026-05-03T11:51:49.755Z</time></trkpt><trkpt lat="45.4056667" lon="11.08556"><ele>42.75</ele><time>2026-05-03T11:51:50.764Z</time></trkpt><trkpt lat="45.40576" lon="11.0854517"><ele>43.0</ele><time>2026-05-03T11:51:51.754Z</time></trkpt><trkpt lat="45.40584" lon="11.0853583"><ele>43.0</ele><time>2026-05-03T11:51:52.754Z</time></trkpt><trkpt lat="45.4059167" lon="11.08527"><ele>43.0</ele><time>2026-05-03T11:51:53.754Z</time></trkpt><trkpt lat="45.4059933" lon="11.08519"><ele>43.0</ele><time>2026-05-03T11:51:54.756Z</time></trkpt><trkpt lat="45.406065" lon="11.08512"><ele>43.0</ele><time>2026-05-03T11:51:55.757Z</time></trkpt><trkpt lat="45.4061233" lon="11.0850583"><ele>43.0</ele><time>2026-05-03T11:51:56.758Z</time></trkpt><trkpt lat="45.4061733" lon="11.0849983"><ele>43.0</ele><time>2026-05-03T11:51:57.759Z</time></trkpt><trkpt lat="45.4062233" lon="11.0849317"><ele>43.00000000000001</ele><time>2026-05-03T11:51:58.753Z</time></trkpt><trkpt lat="45.4062733" lon="11.084855"><ele>43.0</ele><time>2026-05-03T11:51:59.754Z</time></trkpt><trkpt lat="45.4063183" lon="11.0847717"><ele>43.0</ele><time>2026-05-03T11:52:00.752Z</time></trkpt><trkpt lat="45.40636" lon="11.0846917"><ele>43.0</ele><time>2026-05-03T11:52:01.758Z</time></trkpt><trkpt lat="45.4064017" lon="11.084615"><ele>43.0</ele><time>2026-05-03T11:52:02.76Z</time></trkpt><trkpt lat="45.4064483" lon="11.08454"><ele>43.00000000000001</ele><time>2026-05-03T11:52:03.756Z</time></trkpt><trkpt lat="45.4065017" lon="11.084485"><ele>43.0</ele><time>2026-05-03T11:52:04.757Z</time></trkpt><trkpt lat="45.4065617" lon="11.0844467"><ele>43.0</ele><time>2026-05-03T11:52:05.755Z</time></trkpt><trkpt lat="45.4066367" lon="11.0844383"><ele>43.0</ele><time>2026-05-03T11:52:06.755Z</time></trkpt><trkpt lat="45.4067167" lon="11.0844367"><ele>43.0</ele><time>2026-05-03T11:52:07.753Z</time></trkpt><trkpt lat="45.406795" lon="11.0844167"><ele>43.0</ele><time>2026-05-03T11:52:08.761Z</time></trkpt><trkpt lat="45.4068733" lon="11.0843783"><ele>43.0</ele><time>2026-05-03T11:52:09.755Z</time></trkpt><trkpt lat="45.406965" lon="11.0843133"><ele>43.0</ele><time>2026-05-03T11:52:10.754Z</time></trkpt><trkpt lat="45.4070717" lon="11.08421"><ele>43.25</ele><time>2026-05-03T11:52:11.754Z</time></trkpt><trkpt lat="45.407165" lon="11.0840983"><ele>43.5</ele><time>2026-05-03T11:52:12.755Z</time></trkpt><trkpt lat="45.4072417" lon="11.0839633"><ele>43.75</ele><time>2026-05-03T11:52:13.755Z</time></trkpt><trkpt lat="45.4073133" lon="11.0838267"><ele>44.0</ele><time>2026-05-03T11:52:14.758Z</time></trkpt><trkpt lat="45.4073817" lon="11.0836783"><ele>43.5</ele><time>2026-05-03T11:52:15.757Z</time></trkpt><trkpt lat="45.40745" lon="11.0835283"><ele>43.0</ele><time>2026-05-03T11:52:16.753Z</time></trkpt><trkpt lat="45.40752" lon="11.0833617"><ele>42.5</ele><time>2026-05-03T11:52:17.761Z</time></trkpt><trkpt lat="45.4075983" lon="11.0831833"><ele>42.0</ele><time>2026-05-03T11:52:18.759Z</time></trkpt><trkpt lat="45.407685" lon="11.0830033"><ele>42.0</ele><time>2026-05-03T11:52:19.758Z</time></trkpt><trkpt lat="45.4077767" lon="11.0828433"><ele>42.0</ele><time>2026-05-03T11:52:20.76Z</time></trkpt><trkpt lat="45.4078767" lon="11.0827167"><ele>42.0</ele><time>2026-05-03T11:52:21.763Z</time></trkpt><trkpt lat="45.40798" lon="11.08262"><ele>42.0</ele><time>2026-05-03T11:52:22.754Z</time></trkpt><trkpt lat="45.4080767" lon="11.0825483"><ele>42.25</ele><time>2026-05-03T11:52:23.757Z</time></trkpt><trkpt lat="45.408175" lon="11.082485"><ele>42.5</ele><time>2026-05-03T11:52:24.757Z</time></trkpt><trkpt lat="45.4082883" lon="11.08242"><ele>42.75</ele><time>2026-05-03T11:52:25.757Z</time></trkpt><trkpt lat="45.4084117" lon="11.0823517"><ele>43.0</ele><time>2026-05-03T11:52:26.758Z</time></trkpt><trkpt lat="45.40855" lon="11.08228"><ele>43.0</ele><time>2026-05-03T11:52:27.76Z</time></trkpt><trkpt lat="45.4086917" lon="11.0822067"><ele>43.0</ele><time>2026-05-03T11:52:28.755Z</time></trkpt><trkpt lat="45.4088267" lon="11.0821333"><ele>43.0</ele><time>2026-05-03T11:52:29.758Z</time></trkpt><trkpt lat="45.4089533" lon="11.0820667"><ele>43.0</ele><time>2026-05-03T11:52:30.758Z</time></trkpt><trkpt lat="45.4090817" lon="11.0819983"><ele>43.5</ele><time>2026-05-03T11:52:31.752Z</time></trkpt><trkpt lat="45.4092033" lon="11.081935"><ele>44.0</ele><time>2026-05-03T11:52:32.756Z</time></trkpt><trkpt lat="45.4093167" lon="11.0818817"><ele>44.5</ele><time>2026-05-03T11:52:33.755Z</time></trkpt><trkpt lat="45.409425" lon="11.08183"><ele>45.0</ele><time>2026-05-03T11:52:34.756Z</time></trkpt><trkpt lat="45.4095317" lon="11.0817833"><ele>45.0</ele><time>2026-05-03T11:52:35.762Z</time></trkpt><trkpt lat="45.4096383" lon="11.0817483"><ele>45.0</ele><time>2026-05-03T11:52:36.758Z</time></trkpt><trkpt lat="45.4097417" lon="11.0817267"><ele>45.0</ele><time>2026-05-03T11:52:37.757Z</time></trkpt><trkpt lat="45.4098367" lon="11.0817217"><ele>45.0</ele><time>2026-05-03T11:52:38.76Z</time></trkpt><trkpt lat="45.4099283" lon="11.081725"><ele>45.0</ele><time>2026-05-03T11:52:39.772Z</time></trkpt><trkpt lat="45.41002" lon="11.0817367"><ele>45.166666666666664</ele><time>2026-05-03T11:52:40.755Z</time></trkpt><trkpt lat="45.4101067" lon="11.0817567"><ele>45.333333333333336</ele><time>2026-05-03T11:52:41.758Z</time></trkpt><trkpt lat="45.4101883" lon="11.0817767"><ele>45.5</ele><time>2026-05-03T11:52:42.755Z</time></trkpt><trkpt lat="45.4102617" lon="11.0818033"><ele>45.66666666666667</ele><time>2026-05-03T11:52:43.754Z</time></trkpt><trkpt lat="45.4103367" lon="11.0818233"><ele>45.833333333333336</ele><time>2026-05-03T11:52:44.757Z</time></trkpt><trkpt lat="45.410415" lon="11.08184"><ele>46.0</ele><time>2026-05-03T11:52:45.754Z</time></trkpt><trkpt lat="45.410485" lon="11.0818583"><ele>46.16666666666667</ele><time>2026-05-03T11:52:46.753Z</time></trkpt><trkpt lat="45.4105483" lon="11.0818767"><ele>46.333333333333336</ele><time>2026-05-03T11:52:47.756Z</time></trkpt><trkpt lat="45.4106133" lon="11.081885"><ele>46.5</ele><time>2026-05-03T11:52:48.758Z</time></trkpt><trkpt lat="45.4106783" lon="11.0818783"><ele>46.666666666666664</ele><time>2026-05-03T11:52:49.762Z</time></trkpt><trkpt lat="45.4107983" lon="11.08184"><ele>46.83333333333333</ele><time>2026-05-03T11:52:51.762Z</time></trkpt><trkpt lat="45.41091" lon="11.0817917"><ele>47.0</ele><time>2026-05-03T11:52:53.756Z</time></trkpt><trkpt lat="45.4110283" lon="11.0817417"><ele>47.0</ele><time>2026-05-03T11:52:55.76Z</time></trkpt><trkpt lat="45.4111383" lon="11.081695"><ele>47.0</ele><time>2026-05-03T11:52:57.754Z</time></trkpt><trkpt lat="45.4112533" lon="11.0816533"><ele>47.0</ele><time>2026-05-03T11:52:59.755Z</time></trkpt><trkpt lat="45.4113867" lon="11.0816"><ele>47.0</ele><time>2026-05-03T11:53:01.758Z</time></trkpt><trkpt lat="45.411475" lon="11.0815317"><ele>46.25</ele><time>2026-05-03T11:53:02.761Z</time></trkpt><trkpt lat="45.4115617" lon="11.0814433"><ele>45.5</ele><time>2026-05-03T11:53:03.754Z</time></trkpt><trkpt lat="45.4116567" lon="11.0813717"><ele>44.75</ele><time>2026-05-03T11:53:04.754Z</time></trkpt><trkpt lat="45.411765" lon="11.081335"><ele>44.0</ele><time>2026-05-03T11:53:05.755Z</time></trkpt><trkpt lat="45.4118933" lon="11.0813217"><ele>44.0</ele><time>2026-05-03T11:53:06.76Z</time></trkpt><trkpt lat="45.4120417" lon="11.081315"><ele>44.0</ele><time>2026-05-03T11:53:07.754Z</time></trkpt><trkpt lat="45.4122033" lon="11.08131"><ele>44.0</ele><time>2026-05-03T11:53:08.764Z</time></trkpt><trkpt lat="45.4123767" lon="11.0813133"><ele>42.666666666666664</ele><time>2026-05-03T11:53:09.76Z</time></trkpt><trkpt lat="45.41256" lon="11.0813167"><ele>41.333333333333336</ele><time>2026-05-03T11:53:10.756Z</time></trkpt><trkpt lat="45.4127433" lon="11.0813233"><ele>40.0</ele><time>2026-05-03T11:53:11.758Z</time></trkpt><trkpt lat="45.4129233" lon="11.0813333"><ele>39.333333333333336</ele><time>2026-05-03T11:53:12.759Z</time></trkpt><trkpt lat="45.4131017" lon="11.08134"><ele>38.666666666666664</ele><time>2026-05-03T11:53:13.754Z</time></trkpt><trkpt lat="45.4132817" lon="11.081345"><ele>38.0</ele><time>2026-05-03T11:53:14.755Z</time></trkpt><trkpt lat="45.41347" lon="11.081355"><ele>38.0</ele><time>2026-05-03T11:53:15.757Z</time></trkpt><trkpt lat="45.413665" lon="11.0813667"><ele>38.0</ele><time>2026-05-03T11:53:16.757Z</time></trkpt><trkpt lat="45.4138633" lon="11.0813767"><ele>38.0</ele><time>2026-05-03T11:53:17.761Z</time></trkpt><trkpt lat="45.4140567" lon="11.0813867"><ele>37.666666666666664</ele><time>2026-05-03T11:53:18.755Z</time></trkpt><trkpt lat="45.4142483" lon="11.081385"><ele>37.333333333333336</ele><time>2026-05-03T11:53:19.762Z</time></trkpt><trkpt lat="45.4144433" lon="11.081365"><ele>37.0</ele><time>2026-05-03T11:53:20.766Z</time></trkpt><trkpt lat="45.414645" lon="11.0813217"><ele>37.66666666666667</ele><time>2026-05-03T11:53:21.756Z</time></trkpt><trkpt lat="45.4148467" lon="11.0812633"><ele>38.333333333333336</ele><time>2026-05-03T11:53:22.752Z</time></trkpt><trkpt lat="45.4150367" lon="11.081195"><ele>39.0</ele><time>2026-05-03T11:53:23.762Z</time></trkpt><trkpt lat="45.415215" lon="11.0811183"><ele>39.0</ele><time>2026-05-03T11:53:24.76Z</time></trkpt><trkpt lat="45.4153817" lon="11.0810367"><ele>39.0</ele><time>2026-05-03T11:53:25.758Z</time></trkpt><trkpt lat="45.4155433" lon="11.080945"><ele>39.0</ele><time>2026-05-03T11:53:26.756Z</time></trkpt><trkpt lat="45.4157017" lon="11.08085"><ele>39.25</ele><time>2026-05-03T11:53:27.76Z</time></trkpt><trkpt lat="45.4158533" lon="11.0807583"><ele>39.5</ele><time>2026-05-03T11:53:28.755Z</time></trkpt><trkpt lat="45.4159917" lon="11.080685"><ele>39.75</ele><time>2026-05-03T11:53:29.755Z</time></trkpt><trkpt lat="45.4161133" lon="11.0806333"><ele>40.0</ele><time>2026-05-03T11:53:30.757Z</time></trkpt><trkpt lat="45.4162283" lon="11.0805933"><ele>40.333333333333336</ele><time>2026-05-03T11:53:31.753Z</time></trkpt><trkpt lat="45.41633" lon="11.080565"><ele>40.66666666666667</ele><time>2026-05-03T11:53:32.756Z</time></trkpt><trkpt lat="45.4164167" lon="11.0805517"><ele>41.0</ele><time>2026-05-03T11:53:33.754Z</time></trkpt><trkpt lat="45.41649" lon="11.0805483"><ele>41.333333333333336</ele><time>2026-05-03T11:53:34.754Z</time></trkpt><trkpt lat="45.4165567" lon="11.08056"><ele>41.666666666666664</ele><time>2026-05-03T11:53:35.758Z</time></trkpt><trkpt lat="45.4166183" lon="11.0806033"><ele>42.0</ele><time>2026-05-03T11:53:36.756Z</time></trkpt><trkpt lat="45.416695" lon="11.0806733"><ele>42.0</ele><time>2026-05-03T11:53:37.754Z</time></trkpt><trkpt lat="45.4167783" lon="11.080725"><ele>42.0</ele><time>2026-05-03T11:53:38.757Z</time></trkpt><trkpt lat="45.416875" lon="11.0806967"><ele>42.0</ele><time>2026-05-03T11:53:39.756Z</time></trkpt><trkpt lat="45.4169533" lon="11.0806333"><ele>42.0</ele><time>2026-05-03T11:53:40.756Z</time></trkpt><trkpt lat="45.4169767" lon="11.0804983"><ele>42.0</ele><time>2026-05-03T11:53:41.758Z</time></trkpt><trkpt lat="45.4169583" lon="11.0803483"><ele>42.0</ele><time>2026-05-03T11:53:42.758Z</time></trkpt><trkpt lat="45.4169317" lon="11.0801967"><ele>42.0</ele><time>2026-05-03T11:53:43.757Z</time></trkpt><trkpt lat="45.4169283" lon="11.080045"><ele>42.0</ele><time>2026-05-03T11:53:44.76Z</time></trkpt><trkpt lat="45.4169617" lon="11.0799"><ele>42.0</ele><time>2026-05-03T11:53:45.757Z</time></trkpt><trkpt lat="45.4170417" lon="11.079755"><ele>42.0</ele><time>2026-05-03T11:53:46.758Z</time></trkpt><trkpt lat="45.4171433" lon="11.0796033"><ele>42.0</ele><time>2026-05-03T11:53:47.754Z</time></trkpt><trkpt lat="45.417255" lon="11.0794367"><ele>42.0</ele><time>2026-05-03T11:53:48.755Z</time></trkpt><trkpt lat="45.417375" lon="11.0792617"><ele>41.666666666666664</ele><time>2026-05-03T11:53:49.758Z</time></trkpt><trkpt lat="45.4174967" lon="11.0790683"><ele>41.33333333333333</ele><time>2026-05-03T11:53:50.758Z</time></trkpt><trkpt lat="45.4176167" lon="11.07886"><ele>41.0</ele><time>2026-05-03T11:53:51.761Z</time></trkpt><trkpt lat="45.4177317" lon="11.0786467"><ele>41.0</ele><time>2026-05-03T11:53:52.76Z</time></trkpt><trkpt lat="45.41784" lon="11.07844"><ele>41.0</ele><time>2026-05-03T11:53:53.762Z</time></trkpt><trkpt lat="45.4179483" lon="11.0782367"><ele>41.0</ele><time>2026-05-03T11:53:54.756Z</time></trkpt><trkpt lat="45.418055" lon="11.0780367"><ele>41.33333333333333</ele><time>2026-05-03T11:53:55.753Z</time></trkpt><trkpt lat="45.4181617" lon="11.0778433"><ele>41.666666666666664</ele><time>2026-05-03T11:53:56.76Z</time></trkpt><trkpt lat="45.4182683" lon="11.0776533"><ele>42.0</ele><time>2026-05-03T11:53:57.755Z</time></trkpt><trkpt lat="45.4183783" lon="11.0774633"><ele>41.333333333333336</ele><time>2026-05-03T11:53:58.754Z</time></trkpt><trkpt lat="45.4184883" lon="11.0772783"><ele>40.66666666666667</ele><time>2026-05-03T11:53:59.757Z</time></trkpt><trkpt lat="45.4186" lon="11.0770967"><ele>40.0</ele><time>2026-05-03T11:54:00.755Z</time></trkpt><trkpt lat="45.4187167" lon="11.0769233"><ele>40.66666666666667</ele><time>2026-05-03T11:54:01.755Z</time></trkpt><trkpt lat="45.4188367" lon="11.076755"><ele>41.333333333333336</ele><time>2026-05-03T11:54:02.757Z</time></trkpt><trkpt lat="45.4189567" lon="11.0765867"><ele>42.0</ele><time>2026-05-03T11:54:03.754Z</time></trkpt><trkpt lat="45.419075" lon="11.0764183"><ele>42.0</ele><time>2026-05-03T11:54:04.757Z</time></trkpt><trkpt lat="45.41919" lon="11.07625"><ele>42.0</ele><time>2026-05-03T11:54:05.757Z</time></trkpt><trkpt lat="45.4193017" lon="11.0760883"><ele>42.0</ele><time>2026-05-03T11:54:06.754Z</time></trkpt><trkpt lat="45.419405" lon="11.0759367"><ele>42.0</ele><time>2026-05-03T11:54:07.753Z</time></trkpt><trkpt lat="45.4195" lon="11.0757967"><ele>42.0</ele><time>2026-05-03T11:54:08.759Z</time></trkpt><trkpt lat="45.4195883" lon="11.0756667"><ele>42.0</ele><time>2026-05-03T11:54:09.766Z</time></trkpt><trkpt lat="45.4196667" lon="11.0755467"><ele>42.0</ele><time>2026-05-03T11:54:10.755Z</time></trkpt><trkpt lat="45.4197383" lon="11.07544"><ele>42.400000000000006</ele><time>2026-05-03T11:54:11.754Z</time></trkpt><trkpt lat="45.4198017" lon="11.07535"><ele>42.800000000000004</ele><time>2026-05-03T11:54:12.757Z</time></trkpt><trkpt lat="45.419855" lon="11.0752683"><ele>43.2</ele><time>2026-05-03T11:54:13.757Z</time></trkpt><trkpt lat="45.41991" lon="11.0751867"><ele>43.6</ele><time>2026-05-03T11:54:14.756Z</time></trkpt><trkpt lat="45.41998" lon="11.07509"><ele>44.0</ele><time>2026-05-03T11:54:15.763Z</time></trkpt><trkpt lat="45.4200667" lon="11.0749617"><ele>43.25</ele><time>2026-05-03T11:54:16.754Z</time></trkpt><trkpt lat="45.42016" lon="11.0748183"><ele>42.5</ele><time>2026-05-03T11:54:17.754Z</time></trkpt><trkpt lat="45.4202583" lon="11.0746583"><ele>41.75</ele><time>2026-05-03T11:54:18.754Z</time></trkpt><trkpt lat="45.4203483" lon="11.0744933"><ele>41.0</ele><time>2026-05-03T11:54:19.755Z</time></trkpt><trkpt lat="45.4204317" lon="11.074325"><ele>42.0</ele><time>2026-05-03T11:54:20.755Z</time></trkpt><trkpt lat="45.4205117" lon="11.07415"><ele>43.0</ele><time>2026-05-03T11:54:21.753Z</time></trkpt><trkpt lat="45.4205933" lon="11.073965"><ele>44.0</ele><time>2026-05-03T11:54:22.752Z</time></trkpt><trkpt lat="45.4206767" lon="11.0737633"><ele>44.0</ele><time>2026-05-03T11:54:23.753Z</time></trkpt><trkpt lat="45.4207617" lon="11.0735533"><ele>44.0</ele><time>2026-05-03T11:54:24.754Z</time></trkpt><trkpt lat="45.4208467" lon="11.0733383"><ele>44.0</ele><time>2026-05-03T11:54:25.758Z</time></trkpt><trkpt lat="45.4209267" lon="11.0731367"><ele>43.5</ele><time>2026-05-03T11:54:26.76Z</time></trkpt><trkpt lat="45.4209967" lon="11.0729483"><ele>43.0</ele><time>2026-05-03T11:54:27.752Z</time></trkpt><trkpt lat="45.4210567" lon="11.072765"><ele>42.5</ele><time>2026-05-03T11:54:28.759Z</time></trkpt><trkpt lat="45.4211117" lon="11.0725717"><ele>42.0</ele><time>2026-05-03T11:54:29.756Z</time></trkpt><trkpt lat="45.421165" lon="11.0723667"><ele>41.333333333333336</ele><time>2026-05-03T11:54:30.758Z</time></trkpt><trkpt lat="45.42122" lon="11.0721483"><ele>40.66666666666667</ele><time>2026-05-03T11:54:31.755Z</time></trkpt><trkpt lat="45.4212783" lon="11.0719183"><ele>40.0</ele><time>2026-05-03T11:54:32.755Z</time></trkpt><trkpt lat="45.42134" lon="11.0717"><ele>42.333333333333336</ele><time>2026-05-03T11:54:33.757Z</time></trkpt><trkpt lat="45.4214017" lon="11.07149"><ele>44.666666666666664</ele><time>2026-05-03T11:54:34.759Z</time></trkpt><trkpt lat="45.421465" lon="11.0712733"><ele>47.0</ele><time>2026-05-03T11:54:35.76Z</time></trkpt><trkpt lat="45.4215367" lon="11.071045"><ele>47.0</ele><time>2026-05-03T11:54:36.757Z</time></trkpt><trkpt lat="45.4216133" lon="11.07081"><ele>47.0</ele><time>2026-05-03T11:54:37.754Z</time></trkpt><trkpt lat="45.4216933" lon="11.0705717"><ele>47.0</ele><time>2026-05-03T11:54:38.761Z</time></trkpt><trkpt lat="45.4217767" lon="11.0703283"><ele>46.33333333333333</ele><time>2026-05-03T11:54:39.759Z</time></trkpt><trkpt lat="45.4218617" lon="11.07008"><ele>45.666666666666664</ele><time>2026-05-03T11:54:40.758Z</time></trkpt><trkpt lat="45.4219433" lon="11.069825"><ele>45.0</ele><time>2026-05-03T11:54:41.761Z</time></trkpt><trkpt lat="45.422025" lon="11.0695683"><ele>45.333333333333336</ele><time>2026-05-03T11:54:42.755Z</time></trkpt><trkpt lat="45.4221117" lon="11.06932"><ele>45.66666666666667</ele><time>2026-05-03T11:54:43.757Z</time></trkpt><trkpt lat="45.4222" lon="11.0690867"><ele>46.0</ele><time>2026-05-03T11:54:44.762Z</time></trkpt><trkpt lat="45.4222917" lon="11.0688833"><ele>46.0</ele><time>2026-05-03T11:54:45.756Z</time></trkpt><trkpt lat="45.42238" lon="11.0687017"><ele>46.0</ele><time>2026-05-03T11:54:46.765Z</time></trkpt><trkpt lat="45.4224583" lon="11.06853"><ele>46.0</ele><time>2026-05-03T11:54:47.753Z</time></trkpt><trkpt lat="45.4225217" lon="11.06835"><ele>46.0</ele><time>2026-05-03T11:54:48.764Z</time></trkpt><trkpt lat="45.4225767" lon="11.0681433"><ele>45.333333333333336</ele><time>2026-05-03T11:54:49.754Z</time></trkpt><trkpt lat="45.4226267" lon="11.0679317"><ele>44.666666666666664</ele><time>2026-05-03T11:54:50.757Z</time></trkpt><trkpt lat="45.422675" lon="11.0677283"><ele>44.0</ele><time>2026-05-03T11:54:51.756Z</time></trkpt><trkpt lat="45.4227217" lon="11.0675333"><ele>43.666666666666664</ele><time>2026-05-03T11:54:52.753Z</time></trkpt><trkpt lat="45.4227717" lon="11.0673283"><ele>43.333333333333336</ele><time>2026-05-03T11:54:53.757Z</time></trkpt><trkpt lat="45.4228217" lon="11.06711"><ele>43.0</ele><time>2026-05-03T11:54:54.754Z</time></trkpt><trkpt lat="45.422875" lon="11.066885"><ele>43.0</ele><time>2026-05-03T11:54:55.759Z</time></trkpt><trkpt lat="45.42293" lon="11.0666483"><ele>43.0</ele><time>2026-05-03T11:54:56.76Z</time></trkpt><trkpt lat="45.4229833" lon="11.0664133"><ele>43.0</ele><time>2026-05-03T11:54:57.755Z</time></trkpt><trkpt lat="45.42303" lon="11.0661733"><ele>44.66666666666667</ele><time>2026-05-03T11:54:58.758Z</time></trkpt><trkpt lat="45.4230717" lon="11.06592"><ele>46.333333333333336</ele><time>2026-05-03T11:54:59.756Z</time></trkpt><trkpt lat="45.4231083" lon="11.0656467"><ele>48.0</ele><time>2026-05-03T11:55:00.757Z</time></trkpt><trkpt lat="45.42314" lon="11.0653683"><ele>48.33333333333333</ele><time>2026-05-03T11:55:01.755Z</time></trkpt><trkpt lat="45.4231733" lon="11.0650733"><ele>48.666666666666664</ele><time>2026-05-03T11:55:02.757Z</time></trkpt><trkpt lat="45.4232083" lon="11.0647667"><ele>49.0</ele><time>2026-05-03T11:55:03.761Z</time></trkpt><trkpt lat="45.423245" lon="11.06445"><ele>49.0</ele><time>2026-05-03T11:55:04.758Z</time></trkpt><trkpt lat="45.4232817" lon="11.0641333"><ele>49.0</ele><time>2026-05-03T11:55:05.753Z</time></trkpt><trkpt lat="45.4233183" lon="11.06383"><ele>49.0</ele><time>2026-05-03T11:55:06.76Z</time></trkpt><trkpt lat="45.4233517" lon="11.0635367"><ele>48.666666666666664</ele><time>2026-05-03T11:55:07.754Z</time></trkpt><trkpt lat="45.4233867" lon="11.06324"><ele>48.33333333333333</ele><time>2026-05-03T11:55:08.755Z</time></trkpt><trkpt lat="45.4234217" lon="11.0629467"><ele>48.0</ele><time>2026-05-03T11:55:09.759Z</time></trkpt><trkpt lat="45.42346" lon="11.0626583"><ele>48.33333333333333</ele><time>2026-05-03T11:55:10.763Z</time></trkpt><trkpt lat="45.4235017" lon="11.0623733"><ele>48.666666666666664</ele><time>2026-05-03T11:55:11.758Z</time></trkpt><trkpt lat="45.423555" lon="11.0620883"><ele>49.0</ele><time>2026-05-03T11:55:12.763Z</time></trkpt><trkpt lat="45.423625" lon="11.0617983"><ele>49.0</ele><time>2026-05-03T11:55:13.759Z</time></trkpt><trkpt lat="45.4237067" lon="11.061505"><ele>49.0</ele><time>2026-05-03T11:55:14.758Z</time></trkpt><trkpt lat="45.4237917" lon="11.0612183"><ele>49.0</ele><time>2026-05-03T11:55:15.754Z</time></trkpt><trkpt lat="45.4238767" lon="11.06094"><ele>49.666666666666664</ele><time>2026-05-03T11:55:16.756Z</time></trkpt><trkpt lat="45.4239567" lon="11.06068"><ele>50.33333333333333</ele><time>2026-05-03T11:55:17.762Z</time></trkpt><trkpt lat="45.4240317" lon="11.0604367"><ele>51.0</ele><time>2026-05-03T11:55:18.76Z</time></trkpt><trkpt lat="45.4241017" lon="11.0602133"><ele>51.0</ele><time>2026-05-03T11:55:19.768Z</time></trkpt><trkpt lat="45.424175" lon="11.0600083"><ele>51.0</ele><time>2026-05-03T11:55:20.76Z</time></trkpt><trkpt lat="45.424255" lon="11.0598133"><ele>51.0</ele><time>2026-05-03T11:55:21.759Z</time></trkpt><trkpt lat="45.4243517" lon="11.05962"><ele>51.33333333333333</ele><time>2026-05-03T11:55:22.768Z</time></trkpt><trkpt lat="45.4244567" lon="11.05943"><ele>51.666666666666664</ele><time>2026-05-03T11:55:23.761Z</time></trkpt><trkpt lat="45.424575" lon="11.0592467"><ele>52.0</ele><time>2026-05-03T11:55:24.755Z</time></trkpt><trkpt lat="45.4246933" lon="11.059075"><ele>52.0</ele><time>2026-05-03T11:55:25.758Z</time></trkpt><trkpt lat="45.4248033" lon="11.0589217"><ele>52.0</ele><time>2026-05-03T11:55:26.756Z</time></trkpt><trkpt lat="45.424905" lon="11.0587617"><ele>52.0</ele><time>2026-05-03T11:55:27.763Z</time></trkpt><trkpt lat="45.4249983" lon="11.058585"><ele>52.0</ele><time>2026-05-03T11:55:28.76Z</time></trkpt><trkpt lat="45.4250817" lon="11.0583883"><ele>52.0</ele><time>2026-05-03T11:55:29.754Z</time></trkpt><trkpt lat="45.425145" lon="11.05817"><ele>52.0</ele><time>2026-05-03T11:55:30.756Z</time></trkpt><trkpt lat="45.4251917" lon="11.0579417"><ele>52.666666666666664</ele><time>2026-05-03T11:55:31.756Z</time></trkpt><trkpt lat="45.4252267" lon="11.0577033"><ele>53.33333333333333</ele><time>2026-05-03T11:55:32.767Z</time></trkpt><trkpt lat="45.42526" lon="11.0574517"><ele>54.0</ele><time>2026-05-03T11:55:33.755Z</time></trkpt><trkpt lat="45.4252917" lon="11.05719"><ele>54.0</ele><time>2026-05-03T11:55:34.762Z</time></trkpt><trkpt lat="45.4253217" lon="11.0569283"><ele>54.0</ele><time>2026-05-03T11:55:35.76Z</time></trkpt><trkpt lat="45.4253517" lon="11.0566583"><ele>54.0</ele><time>2026-05-03T11:55:36.759Z</time></trkpt><trkpt lat="45.4253817" lon="11.056385"><ele>54.0</ele><time>2026-05-03T11:55:37.761Z</time></trkpt><trkpt lat="45.4254133" lon="11.05611"><ele>54.0</ele><time>2026-05-03T11:55:38.761Z</time></trkpt><trkpt lat="45.425445" lon="11.05583"><ele>54.0</ele><time>2026-05-03T11:55:39.757Z</time></trkpt><trkpt lat="45.4254783" lon="11.0555533"><ele>53.33333333333333</ele><time>2026-05-03T11:55:40.754Z</time></trkpt><trkpt lat="45.42551" lon="11.0552783"><ele>52.666666666666664</ele><time>2026-05-03T11:55:41.758Z</time></trkpt><trkpt lat="45.4255417" lon="11.0550083"><ele>52.0</ele><time>2026-05-03T11:55:42.763Z</time></trkpt><trkpt lat="45.42557" lon="11.0547417"><ele>52.0</ele><time>2026-05-03T11:55:43.757Z</time></trkpt><trkpt lat="45.4256" lon="11.054485"><ele>52.0</ele><time>2026-05-03T11:55:44.763Z</time></trkpt><trkpt lat="45.4256317" lon="11.054235"><ele>52.0</ele><time>2026-05-03T11:55:45.768Z</time></trkpt><trkpt lat="45.4256617" lon="11.053985"><ele>52.33333333333333</ele><time>2026-05-03T11:55:46.757Z</time></trkpt><trkpt lat="45.4256867" lon="11.05374"><ele>52.66666666666667</ele><time>2026-05-03T11:55:47.757Z</time></trkpt><trkpt lat="45.4257117" lon="11.053495"><ele>53.0</ele><time>2026-05-03T11:55:48.76Z</time></trkpt><trkpt lat="45.4257417" lon="11.0532517"><ele>53.0</ele><time>2026-05-03T11:55:49.758Z</time></trkpt><trkpt lat="45.425775" lon="11.05301"><ele>53.0</ele><time>2026-05-03T11:55:50.758Z</time></trkpt><trkpt lat="45.4258067" lon="11.0527767"><ele>53.0</ele><time>2026-05-03T11:55:51.759Z</time></trkpt><trkpt lat="45.4258367" lon="11.0525583"><ele>52.599999999999994</ele><time>2026-05-03T11:55:52.758Z</time></trkpt><trkpt lat="45.425865" lon="11.052365"><ele>52.199999999999996</ele><time>2026-05-03T11:55:53.76Z</time></trkpt><trkpt lat="45.4258933" lon="11.0522017"><ele>51.8</ele><time>2026-05-03T11:55:54.76Z</time></trkpt><trkpt lat="45.4259167" lon="11.0520683"><ele>51.4</ele><time>2026-05-03T11:55:55.753Z</time></trkpt><trkpt lat="45.425935" lon="11.05196"><ele>51.0</ele><time>2026-05-03T11:55:56.755Z</time></trkpt><trkpt lat="45.4259517" lon="11.05187"><ele>51.0</ele><time>2026-05-03T11:55:57.757Z</time></trkpt><trkpt lat="45.4259783" lon="11.0517233"><ele>51.0</ele><time>2026-05-03T11:55:59.762Z</time></trkpt><trkpt lat="45.425995" lon="11.051635"><ele>51.0</ele><time>2026-05-03T11:56:00.758Z</time></trkpt><trkpt lat="45.4260133" lon="11.0515433"><ele>51.0</ele><time>2026-05-03T11:56:01.756Z</time></trkpt><trkpt lat="45.426045" lon="11.051375"><ele>51.0</ele><time>2026-05-03T11:56:03.766Z</time></trkpt><trkpt lat="45.4260733" lon="11.051255"><ele>51.0</ele><time>2026-05-03T11:56:04.757Z</time></trkpt><trkpt lat="45.4261183" lon="11.0511017"><ele>50.75</ele><time>2026-05-03T11:56:05.76Z</time></trkpt><trkpt lat="45.426165" lon="11.0509267"><ele>50.5</ele><time>2026-05-03T11:56:06.762Z</time></trkpt><trkpt lat="45.4262117" lon="11.0507333"><ele>50.25</ele><time>2026-05-03T11:56:07.754Z</time></trkpt><trkpt lat="45.4262633" lon="11.0505217"><ele>50.0</ele><time>2026-05-03T11:56:08.761Z</time></trkpt><trkpt lat="45.426315" lon="11.050285"><ele>50.0</ele><time>2026-05-03T11:56:09.762Z</time></trkpt><trkpt lat="45.4263617" lon="11.0500417"><ele>50.0</ele><time>2026-05-03T11:56:10.756Z</time></trkpt><trkpt lat="45.42641" lon="11.0497967"><ele>50.0</ele><time>2026-05-03T11:56:11.761Z</time></trkpt><trkpt lat="45.4264567" lon="11.0495617"><ele>50.0</ele><time>2026-05-03T11:56:12.759Z</time></trkpt><trkpt lat="45.426515" lon="11.049345"><ele>50.0</ele><time>2026-05-03T11:56:13.763Z</time></trkpt><trkpt lat="45.426595" lon="11.04914"><ele>50.0</ele><time>2026-05-03T11:56:14.756Z</time></trkpt><trkpt lat="45.426695" lon="11.04894"><ele>50.0</ele><time>2026-05-03T11:56:15.755Z</time></trkpt><trkpt lat="45.4268067" lon="11.04873"><ele>50.0</ele><time>2026-05-03T11:56:16.754Z</time></trkpt><trkpt lat="45.4269167" lon="11.048525"><ele>50.0</ele><time>2026-05-03T11:56:17.761Z</time></trkpt><trkpt lat="45.4270167" lon="11.048335"><ele>50.0</ele><time>2026-05-03T11:56:18.762Z</time></trkpt><trkpt lat="45.42711" lon="11.0481533"><ele>50.0</ele><time>2026-05-03T11:56:19.759Z</time></trkpt><trkpt lat="45.4272067" lon="11.04797"><ele>50.0</ele><time>2026-05-03T11:56:20.756Z</time></trkpt><trkpt lat="45.4273" lon="11.0477917"><ele>50.0</ele><time>2026-05-03T11:56:21.755Z</time></trkpt><trkpt lat="45.4273867" lon="11.047625"><ele>50.0</ele><time>2026-05-03T11:56:22.755Z</time></trkpt><trkpt lat="45.427465" lon="11.0474733"><ele>50.0</ele><time>2026-05-03T11:56:23.757Z</time></trkpt><trkpt lat="45.4275367" lon="11.0473383"><ele>50.0</ele><time>2026-05-03T11:56:24.755Z</time></trkpt><trkpt lat="45.4275983" lon="11.0472267"><ele>49.6</ele><time>2026-05-03T11:56:25.756Z</time></trkpt><trkpt lat="45.4276533" lon="11.0471367"><ele>49.2</ele><time>2026-05-03T11:56:26.76Z</time></trkpt><trkpt lat="45.4277" lon="11.0470683"><ele>48.8</ele><time>2026-05-03T11:56:27.761Z</time></trkpt><trkpt lat="45.4277717" lon="11.0470083"><ele>48.4</ele><time>2026-05-03T11:56:29.754Z</time></trkpt><trkpt lat="45.4278533" lon="11.04705"><ele>48.0</ele><time>2026-05-03T11:56:31.756Z</time></trkpt><trkpt lat="45.42796" lon="11.0471767"><ele>48.25</ele><time>2026-05-03T11:56:33.756Z</time></trkpt><trkpt lat="45.428055" lon="11.0473233"><ele>48.5</ele><time>2026-05-03T11:56:34.759Z</time></trkpt><trkpt lat="45.4281483" lon="11.0474417"><ele>48.75</ele><time>2026-05-03T11:56:35.758Z</time></trkpt><trkpt lat="45.4282417" lon="11.0475317"><ele>49.0</ele><time>2026-05-03T11:56:36.756Z</time></trkpt><trkpt lat="45.4283433" lon="11.0475983"><ele>49.0</ele><time>2026-05-03T11:56:37.763Z</time></trkpt><trkpt lat="45.428445" lon="11.0476267"><ele>49.0</ele><time>2026-05-03T11:56:38.758Z</time></trkpt><trkpt lat="45.428545" lon="11.0476133"><ele>49.0</ele><time>2026-05-03T11:56:39.751Z</time></trkpt><trkpt lat="45.4286483" lon="11.0475533"><ele>49.0</ele><time>2026-05-03T11:56:40.752Z</time></trkpt><trkpt lat="45.4287517" lon="11.0474517"><ele>49.0</ele><time>2026-05-03T11:56:41.758Z</time></trkpt><trkpt lat="45.428855" lon="11.0473133"><ele>49.666666666666664</ele><time>2026-05-03T11:56:42.754Z</time></trkpt><trkpt lat="45.4289633" lon="11.0471567"><ele>50.33333333333333</ele><time>2026-05-03T11:56:43.754Z</time></trkpt><trkpt lat="45.4290833" lon="11.0470017"><ele>51.0</ele><time>2026-05-03T11:56:44.763Z</time></trkpt><trkpt lat="45.4292017" lon="11.0468467"><ele>51.0</ele><time>2026-05-03T11:56:45.755Z</time></trkpt><trkpt lat="45.4293083" lon="11.0466933"><ele>51.0</ele><time>2026-05-03T11:56:46.757Z</time></trkpt><trkpt lat="45.42941" lon="11.0465433"><ele>51.0</ele><time>2026-05-03T11:56:47.753Z</time></trkpt><trkpt lat="45.4295117" lon="11.046395"><ele>51.0</ele><time>2026-05-03T11:56:48.753Z</time></trkpt><trkpt lat="45.429615" lon="11.0462483"><ele>51.0</ele><time>2026-05-03T11:56:49.757Z</time></trkpt><trkpt lat="45.42972" lon="11.0461033"><ele>51.0</ele><time>2026-05-03T11:56:50.762Z</time></trkpt><trkpt lat="45.42983" lon="11.045965"><ele>51.0</ele><time>2026-05-03T11:56:51.758Z</time></trkpt><trkpt lat="45.4299467" lon="11.0458283"><ele>51.0</ele><time>2026-05-03T11:56:52.757Z</time></trkpt><trkpt lat="45.4300717" lon="11.0456867"><ele>51.5</ele><time>2026-05-03T11:56:53.762Z</time></trkpt><trkpt lat="45.4302017" lon="11.0455567"><ele>52.0</ele><time>2026-05-03T11:56:54.765Z</time></trkpt><trkpt lat="45.4303233" lon="11.04544"><ele>52.5</ele><time>2026-05-03T11:56:55.762Z</time></trkpt><trkpt lat="45.4304417" lon="11.0453417"><ele>53.0</ele><time>2026-05-03T11:56:56.762Z</time></trkpt><trkpt lat="45.4305633" lon="11.0452533"><ele>53.0</ele><time>2026-05-03T11:56:57.766Z</time></trkpt><trkpt lat="45.4306817" lon="11.045175"><ele>53.0</ele><time>2026-05-03T11:56:58.752Z</time></trkpt><trkpt lat="45.4308" lon="11.0450967"><ele>53.0</ele><time>2026-05-03T11:56:59.757Z</time></trkpt><trkpt lat="45.43092" lon="11.0450183"><ele>53.0</ele><time>2026-05-03T11:57:00.759Z</time></trkpt><trkpt lat="45.4310367" lon="11.0449433"><ele>53.2</ele><time>2026-05-03T11:57:01.752Z</time></trkpt><trkpt lat="45.431145" lon="11.0448783"><ele>53.4</ele><time>2026-05-03T11:57:02.758Z</time></trkpt><trkpt lat="45.4312383" lon="11.0448267"><ele>53.60000000000001</ele><time>2026-05-03T11:57:03.761Z</time></trkpt><trkpt lat="45.43131" lon="11.04478"><ele>53.800000000000004</ele><time>2026-05-03T11:57:04.754Z</time></trkpt><trkpt lat="45.4313967" lon="11.04474"><ele>54.0</ele><time>2026-05-03T11:57:06.754Z</time></trkpt><trkpt lat="45.431475" lon="11.0447183"><ele>54.0</ele><time>2026-05-03T11:57:11.755Z</time></trkpt><trkpt lat="45.431585" lon="11.04465"><ele>54.0</ele><time>2026-05-03T11:57:13.76Z</time></trkpt><trkpt lat="45.4316483" lon="11.0445883"><ele>54.0</ele><time>2026-05-03T11:57:14.771Z</time></trkpt><trkpt lat="45.4317017" lon="11.044525"><ele>54.0</ele><time>2026-05-03T11:57:15.754Z</time></trkpt><trkpt lat="45.431755" lon="11.0444667"><ele>54.0</ele><time>2026-05-03T11:57:16.76Z</time></trkpt><trkpt lat="45.4318083" lon="11.044405"><ele>54.0</ele><time>2026-05-03T11:57:17.761Z</time></trkpt><trkpt lat="45.4318633" lon="11.0443433"><ele>54.0</ele><time>2026-05-03T11:57:18.755Z</time></trkpt><trkpt lat="45.4319133" lon="11.0442817"><ele>54.0</ele><time>2026-05-03T11:57:19.76Z</time></trkpt><trkpt lat="45.4319917" lon="11.04418"><ele>54.0</ele><time>2026-05-03T11:57:21.754Z</time></trkpt><trkpt lat="45.4320517" lon="11.0441483"><ele>54.0</ele><time>2026-05-03T11:57:23.753Z</time></trkpt><trkpt lat="45.4321267" lon="11.04421"><ele>54.0</ele><time>2026-05-03T11:57:25.76Z</time></trkpt><trkpt lat="45.4321883" lon="11.0442817"><ele>54.0</ele><time>2026-05-03T11:57:26.757Z</time></trkpt><trkpt lat="45.4322717" lon="11.04437"><ele>54.800000000000004</ele><time>2026-05-03T11:57:27.762Z</time></trkpt><trkpt lat="45.4323733" lon="11.0444633"><ele>55.60000000000001</ele><time>2026-05-03T11:57:28.762Z</time></trkpt><trkpt lat="45.43247" lon="11.0445567"><ele>56.4</ele><time>2026-05-03T11:57:29.757Z</time></trkpt><trkpt lat="45.43256" lon="11.0446367"><ele>57.2</ele><time>2026-05-03T11:57:30.755Z</time></trkpt><trkpt lat="45.4326417" lon="11.044715"><ele>58.0</ele><time>2026-05-03T11:57:31.754Z</time></trkpt><trkpt lat="45.4327217" lon="11.044775"><ele>57.99999999999999</ele><time>2026-05-03T11:57:32.777Z</time></trkpt><trkpt lat="45.432785" lon="11.0448217"><ele>58.0</ele><time>2026-05-03T11:57:33.755Z</time></trkpt><trkpt lat="45.4328417" lon="11.0448617"><ele>58.0</ele><time>2026-05-03T11:57:34.758Z</time></trkpt><trkpt lat="45.432935" lon="11.0449217"><ele>58.0</ele><time>2026-05-03T11:57:36.756Z</time></trkpt><trkpt lat="45.43301" lon="11.0449767"><ele>57.99999999999999</ele><time>2026-05-03T11:57:39.759Z</time></trkpt><trkpt lat="45.4330817" lon="11.0450317"><ele>58.0</ele><time>2026-05-03T11:57:41.76Z</time></trkpt><trkpt lat="45.4331867" lon="11.045035"><ele>58.2</ele><time>2026-05-03T11:57:43.754Z</time></trkpt><trkpt lat="45.4332433" lon="11.0449933"><ele>58.4</ele><time>2026-05-03T11:57:44.758Z</time></trkpt><trkpt lat="45.4333067" lon="11.044915"><ele>58.60000000000001</ele><time>2026-05-03T11:57:45.756Z</time></trkpt><trkpt lat="45.4333567" lon="11.0447783"><ele>58.800000000000004</ele><time>2026-05-03T11:57:46.755Z</time></trkpt><trkpt lat="45.4333917" lon="11.0445683"><ele>59.0</ele><time>2026-05-03T11:57:47.754Z</time></trkpt><trkpt lat="45.43344" lon="11.044345"><ele>59.0</ele><time>2026-05-03T11:57:48.763Z</time></trkpt><trkpt lat="45.4335" lon="11.04411"><ele>59.0</ele><time>2026-05-03T11:57:49.758Z</time></trkpt><trkpt lat="45.4335617" lon="11.0438617"><ele>59.0</ele><time>2026-05-03T11:57:50.761Z</time></trkpt><trkpt lat="45.4336217" lon="11.0436083"><ele>59.0</ele><time>2026-05-03T11:57:51.759Z</time></trkpt><trkpt lat="45.4336917" lon="11.0433467"><ele>59.0</ele><time>2026-05-03T11:57:52.76Z</time></trkpt><trkpt lat="45.43375" lon="11.0430933"><ele>59.0</ele><time>2026-05-03T11:57:53.756Z</time></trkpt><trkpt lat="45.4338017" lon="11.0428417"><ele>59.0</ele><time>2026-05-03T11:57:54.757Z</time></trkpt><trkpt lat="45.4338467" lon="11.0425933"><ele>59.0</ele><time>2026-05-03T11:57:55.758Z</time></trkpt><trkpt lat="45.4338917" lon="11.0423483"><ele>59.0</ele><time>2026-05-03T11:57:56.762Z</time></trkpt><trkpt lat="45.4339383" lon="11.0421067"><ele>59.0</ele><time>2026-05-03T11:57:57.756Z</time></trkpt><trkpt lat="45.4339883" lon="11.0418717"><ele>59.0</ele><time>2026-05-03T11:57:58.759Z</time></trkpt><trkpt lat="45.4340417" lon="11.04164"><ele>59.0</ele><time>2026-05-03T11:57:59.76Z</time></trkpt><trkpt lat="45.4340917" lon="11.0414117"><ele>58.333333333333336</ele><time>2026-05-03T11:58:00.759Z</time></trkpt><trkpt lat="45.4341533" lon="11.0411833"><ele>57.66666666666667</ele><time>2026-05-03T11:58:01.761Z</time></trkpt><trkpt lat="45.4342217" lon="11.0409617"><ele>57.0</ele><time>2026-05-03T11:58:02.753Z</time></trkpt><trkpt lat="45.4342867" lon="11.0407367"><ele>56.33333333333333</ele><time>2026-05-03T11:58:03.76Z</time></trkpt><trkpt lat="45.4343633" lon="11.0405167"><ele>55.666666666666664</ele><time>2026-05-03T11:58:04.761Z</time></trkpt><trkpt lat="45.4344533" lon="11.0403083"><ele>55.0</ele><time>2026-05-03T11:58:05.758Z</time></trkpt><trkpt lat="45.434545" lon="11.0401"><ele>56.0</ele><time>2026-05-03T11:58:06.763Z</time></trkpt><trkpt lat="45.4346217" lon="11.0398883"><ele>57.0</ele><time>2026-05-03T11:58:07.76Z</time></trkpt><trkpt lat="45.4346917" lon="11.0396783"><ele>58.0</ele><time>2026-05-03T11:58:08.757Z</time></trkpt><trkpt lat="45.4347583" lon="11.0394633"><ele>58.0</ele><time>2026-05-03T11:58:09.757Z</time></trkpt><trkpt lat="45.43482" lon="11.0392417"><ele>58.0</ele><time>2026-05-03T11:58:10.761Z</time></trkpt><trkpt lat="45.4348883" lon="11.039015"><ele>58.0</ele><time>2026-05-03T11:58:11.757Z</time></trkpt><trkpt lat="45.4349517" lon="11.03878"><ele>58.0</ele><time>2026-05-03T11:58:12.755Z</time></trkpt><trkpt lat="45.435015" lon="11.0385417"><ele>58.0</ele><time>2026-05-03T11:58:13.757Z</time></trkpt><trkpt lat="45.43507" lon="11.0382783"><ele>58.0</ele><time>2026-05-03T11:58:14.759Z</time></trkpt><trkpt lat="45.4351267" lon="11.0380167"><ele>57.0</ele><time>2026-05-03T11:58:15.762Z</time></trkpt><trkpt lat="45.43518" lon="11.0377567"><ele>56.0</ele><time>2026-05-03T11:58:16.758Z</time></trkpt><trkpt lat="45.4352317" lon="11.0374983"><ele>55.0</ele><time>2026-05-03T11:58:17.757Z</time></trkpt><trkpt lat="45.4352833" lon="11.0372417"><ele>53.666666666666664</ele><time>2026-05-03T11:58:18.757Z</time></trkpt><trkpt lat="45.435335" lon="11.0369833"><ele>52.33333333333333</ele><time>2026-05-03T11:58:19.754Z</time></trkpt><trkpt lat="45.4353883" lon="11.0367233"><ele>51.0</ele><time>2026-05-03T11:58:20.756Z</time></trkpt><trkpt lat="45.43544" lon="11.03646"><ele>53.66666666666667</ele><time>2026-05-03T11:58:21.754Z</time></trkpt><trkpt lat="45.4354917" lon="11.0362017"><ele>56.333333333333336</ele><time>2026-05-03T11:58:22.758Z</time></trkpt><trkpt lat="45.4355433" lon="11.0359383"><ele>59.0</ele><time>2026-05-03T11:58:23.759Z</time></trkpt><trkpt lat="45.435595" lon="11.0356767"><ele>59.0</ele><time>2026-05-03T11:58:24.76Z</time></trkpt><trkpt lat="45.4356467" lon="11.0354167"><ele>59.0</ele><time>2026-05-03T11:58:25.761Z</time></trkpt><trkpt lat="45.4356983" lon="11.03516"><ele>59.0</ele><time>2026-05-03T11:58:26.756Z</time></trkpt><trkpt lat="45.43575" lon="11.0349083"><ele>59.0</ele><time>2026-05-03T11:58:27.757Z</time></trkpt><trkpt lat="45.4358017" lon="11.0346533"><ele>59.0</ele><time>2026-05-03T11:58:28.758Z</time></trkpt><trkpt lat="45.4358517" lon="11.0344033"><ele>59.0</ele><time>2026-05-03T11:58:29.764Z</time></trkpt><trkpt lat="45.4359033" lon="11.03415"><ele>58.0</ele><time>2026-05-03T11:58:30.759Z</time></trkpt><trkpt lat="45.4359533" lon="11.0338967"><ele>57.0</ele><time>2026-05-03T11:58:31.758Z</time></trkpt><trkpt lat="45.436005" lon="11.03365"><ele>56.0</ele><time>2026-05-03T11:58:32.758Z</time></trkpt><trkpt lat="45.4360567" lon="11.0334"><ele>55.333333333333336</ele><time>2026-05-03T11:58:33.755Z</time></trkpt><trkpt lat="45.4361017" lon="11.0331567"><ele>54.66666666666667</ele><time>2026-05-03T11:58:34.759Z</time></trkpt><trkpt lat="45.436145" lon="11.0329133"><ele>54.0</ele><time>2026-05-03T11:58:35.758Z</time></trkpt><trkpt lat="45.43619" lon="11.0326733"><ele>54.0</ele><time>2026-05-03T11:58:36.758Z</time></trkpt><trkpt lat="45.4362367" lon="11.0324283"><ele>54.0</ele><time>2026-05-03T11:58:37.757Z</time></trkpt><trkpt lat="45.4362783" lon="11.0321817"><ele>54.0</ele><time>2026-05-03T11:58:38.763Z</time></trkpt><trkpt lat="45.4363233" lon="11.0319317"><ele>56.66666666666667</ele><time>2026-05-03T11:58:39.758Z</time></trkpt><trkpt lat="45.436375" lon="11.0316733"><ele>59.333333333333336</ele><time>2026-05-03T11:58:40.754Z</time></trkpt><trkpt lat="45.4364233" lon="11.03141"><ele>62.0</ele><time>2026-05-03T11:58:41.757Z</time></trkpt><trkpt lat="45.4364667" lon="11.031145"><ele>62.0</ele><time>2026-05-03T11:58:42.757Z</time></trkpt><trkpt lat="45.43651" lon="11.0308933"><ele>62.0</ele><time>2026-05-03T11:58:43.755Z</time></trkpt><trkpt lat="45.4365533" lon="11.0306617"><ele>62.0</ele><time>2026-05-03T11:58:44.754Z</time></trkpt><trkpt lat="45.436595" lon="11.0304333"><ele>61.333333333333336</ele><time>2026-05-03T11:58:45.755Z</time></trkpt><trkpt lat="45.4366433" lon="11.030195"><ele>60.66666666666667</ele><time>2026-05-03T11:58:46.761Z</time></trkpt><trkpt lat="45.4366933" lon="11.02996"><ele>60.0</ele><time>2026-05-03T11:58:47.76Z</time></trkpt><trkpt lat="45.43674" lon="11.029735"><ele>59.5</ele><time>2026-05-03T11:58:48.757Z</time></trkpt><trkpt lat="45.4367817" lon="11.029525"><ele>59.0</ele><time>2026-05-03T11:58:49.756Z</time></trkpt><trkpt lat="45.436815" lon="11.02934"><ele>58.5</ele><time>2026-05-03T11:58:50.757Z</time></trkpt><trkpt lat="45.436845" lon="11.0291867"><ele>58.0</ele><time>2026-05-03T11:58:51.755Z</time></trkpt><trkpt lat="45.4368667" lon="11.029065"><ele>57.8</ele><time>2026-05-03T11:58:52.753Z</time></trkpt><trkpt lat="45.436885" lon="11.0289717"><ele>57.599999999999994</ele><time>2026-05-03T11:58:53.759Z</time></trkpt><trkpt lat="45.4369167" lon="11.0288383"><ele>57.400000000000006</ele><time>2026-05-03T11:58:55.756Z</time></trkpt><trkpt lat="45.436945" lon="11.0287167"><ele>57.2</ele><time>2026-05-03T11:58:58.756Z</time></trkpt><trkpt lat="45.43697" lon="11.0285783"><ele>57.0</ele><time>2026-05-03T11:59:04.758Z</time></trkpt><trkpt lat="45.437" lon="11.0284317"><ele>56.5</ele><time>2026-05-03T11:59:05.756Z</time></trkpt><trkpt lat="45.4370367" lon="11.0282583"><ele>56.0</ele><time>2026-05-03T11:59:06.753Z</time></trkpt><trkpt lat="45.4370733" lon="11.0280667"><ele>55.5</ele><time>2026-05-03T11:59:07.759Z</time></trkpt><trkpt lat="45.437115" lon="11.0278617"><ele>55.0</ele><time>2026-05-03T11:59:08.761Z</time></trkpt><trkpt lat="45.43716" lon="11.0276417"><ele>56.666666666666664</ele><time>2026-05-03T11:59:09.761Z</time></trkpt><trkpt lat="45.4372083" lon="11.0274033"><ele>58.33333333333333</ele><time>2026-05-03T11:59:10.758Z</time></trkpt><trkpt lat="45.4372567" lon="11.0271583"><ele>60.0</ele><time>2026-05-03T11:59:11.756Z</time></trkpt><trkpt lat="45.4373067" lon="11.0269"><ele>59.66666666666667</ele><time>2026-05-03T11:59:12.768Z</time></trkpt><trkpt lat="45.43736" lon="11.02664"><ele>59.333333333333336</ele><time>2026-05-03T11:59:13.751Z</time></trkpt><trkpt lat="45.4374083" lon="11.0263783"><ele>59.0</ele><time>2026-05-03T11:59:14.757Z</time></trkpt><trkpt lat="45.4374567" lon="11.0261167"><ele>59.0</ele><time>2026-05-03T11:59:15.755Z</time></trkpt><trkpt lat="45.4375067" lon="11.0258583"><ele>59.0</ele><time>2026-05-03T11:59:16.758Z</time></trkpt><trkpt lat="45.437555" lon="11.0256017"><ele>59.0</ele><time>2026-05-03T11:59:17.755Z</time></trkpt><trkpt lat="45.4376017" lon="11.0253483"><ele>58.0</ele><time>2026-05-03T11:59:18.757Z</time></trkpt><trkpt lat="45.4376517" lon="11.025095"><ele>57.0</ele><time>2026-05-03T11:59:19.772Z</time></trkpt><trkpt lat="45.4376983" lon="11.0248533"><ele>56.0</ele><time>2026-05-03T11:59:20.761Z</time></trkpt><trkpt lat="45.43774" lon="11.02463"><ele>56.0</ele><time>2026-05-03T11:59:21.758Z</time></trkpt><trkpt lat="45.4377817" lon="11.02442"><ele>56.0</ele><time>2026-05-03T11:59:22.756Z</time></trkpt><trkpt lat="45.4378217" lon="11.02422"><ele>56.0</ele><time>2026-05-03T11:59:23.754Z</time></trkpt><trkpt lat="45.4378583" lon="11.024045"><ele>56.0</ele><time>2026-05-03T11:59:24.757Z</time></trkpt><trkpt lat="45.4378967" lon="11.023885"><ele>55.833333333333336</ele><time>2026-05-03T11:59:25.76Z</time></trkpt><trkpt lat="45.437935" lon="11.0237617"><ele>55.66666666666667</ele><time>2026-05-03T11:59:26.758Z</time></trkpt><trkpt lat="45.43797" lon="11.0236717"><ele>55.5</ele><time>2026-05-03T11:59:27.759Z</time></trkpt><trkpt lat="45.4380117" lon="11.0235983"><ele>55.33333333333333</ele><time>2026-05-03T11:59:28.762Z</time></trkpt><trkpt lat="45.4380783" lon="11.0235117"><ele>55.166666666666664</ele><time>2026-05-03T11:59:29.76Z</time></trkpt><trkpt lat="45.43813" lon="11.0234217"><ele>55.0</ele><time>2026-05-03T11:59:30.762Z</time></trkpt><trkpt lat="45.4381567" lon="11.0233233"><ele>55.5</ele><time>2026-05-03T11:59:31.753Z</time></trkpt><trkpt lat="45.4381617" lon="11.023195"><ele>56.0</ele><time>2026-05-03T11:59:32.761Z</time></trkpt><trkpt lat="45.4381417" lon="11.0229967"><ele>56.5</ele><time>2026-05-03T11:59:33.753Z</time></trkpt><trkpt lat="45.4381633" lon="11.0227767"><ele>57.0</ele><time>2026-05-03T11:59:34.759Z</time></trkpt><trkpt lat="45.4382017" lon="11.022555"><ele>56.66666666666667</ele><time>2026-05-03T11:59:35.753Z</time></trkpt><trkpt lat="45.4382417" lon="11.022315"><ele>56.333333333333336</ele><time>2026-05-03T11:59:36.758Z</time></trkpt><trkpt lat="45.438285" lon="11.0220567"><ele>56.0</ele><time>2026-05-03T11:59:37.753Z</time></trkpt><trkpt lat="45.4383383" lon="11.02177"><ele>56.333333333333336</ele><time>2026-05-03T11:59:38.756Z</time></trkpt><trkpt lat="45.4383933" lon="11.0214767"><ele>56.66666666666667</ele><time>2026-05-03T11:59:39.759Z</time></trkpt><trkpt lat="45.4384483" lon="11.0211733"><ele>57.0</ele><time>2026-05-03T11:59:40.76Z</time></trkpt><trkpt lat="45.4385117" lon="11.02086"><ele>57.0</ele><time>2026-05-03T11:59:41.761Z</time></trkpt><trkpt lat="45.4385767" lon="11.0205483"><ele>57.0</ele><time>2026-05-03T11:59:42.753Z</time></trkpt><trkpt lat="45.4386383" lon="11.0202417"><ele>56.66666666666667</ele><time>2026-05-03T11:59:43.76Z</time></trkpt><trkpt lat="45.4387" lon="11.0199383"><ele>56.333333333333336</ele><time>2026-05-03T11:59:44.759Z</time></trkpt><trkpt lat="45.438755" lon="11.0196433"><ele>56.0</ele><time>2026-05-03T11:59:45.755Z</time></trkpt><trkpt lat="45.4388017" lon="11.0193567"><ele>57.0</ele><time>2026-05-03T11:59:46.759Z</time></trkpt><trkpt lat="45.4388483" lon="11.0190633"><ele>58.0</ele><time>2026-05-03T11:59:47.76Z</time></trkpt><trkpt lat="45.43891" lon="11.0187717"><ele>59.0</ele><time>2026-05-03T11:59:48.763Z</time></trkpt><trkpt lat="45.4389683" lon="11.0185017"><ele>59.333333333333336</ele><time>2026-05-03T11:59:49.755Z</time></trkpt><trkpt lat="45.4390233" lon="11.0182517"><ele>59.66666666666667</ele><time>2026-05-03T11:59:50.764Z</time></trkpt><trkpt lat="45.439075" lon="11.0180183"><ele>60.0</ele><time>2026-05-03T11:59:51.76Z</time></trkpt><trkpt lat="45.4391217" lon="11.0178083"><ele>60.0</ele><time>2026-05-03T11:59:52.755Z</time></trkpt><trkpt lat="45.4391617" lon="11.0176167"><ele>60.0</ele><time>2026-05-03T11:59:53.756Z</time></trkpt><trkpt lat="45.4392" lon="11.0174383"><ele>60.0</ele><time>2026-05-03T11:59:54.757Z</time></trkpt><trkpt lat="45.4392317" lon="11.0172767"><ele>60.0</ele><time>2026-05-03T11:59:55.757Z</time></trkpt><trkpt lat="45.4392583" lon="11.0171333"><ele>60.0</ele><time>2026-05-03T11:59:56.764Z</time></trkpt><trkpt lat="45.43928" lon="11.0170133"><ele>60.0</ele><time>2026-05-03T11:59:57.752Z</time></trkpt><trkpt lat="45.4393" lon="11.016915"><ele>60.0</ele><time>2026-05-03T11:59:58.762Z</time></trkpt><trkpt lat="45.4393233" lon="11.0167867"><ele>60.0</ele><time>2026-05-03T12:00:00.758Z</time></trkpt><trkpt lat="45.4393433" lon="11.0166433"><ele>60.0</ele><time>2026-05-03T12:00:12.766Z</time></trkpt><trkpt lat="45.4393267" lon="11.0164883"><ele>59.75</ele><time>2026-05-03T12:00:13.757Z</time></trkpt><trkpt lat="45.4392817" lon="11.0163217"><ele>59.5</ele><time>2026-05-03T12:00:14.758Z</time></trkpt><trkpt lat="45.439215" lon="11.0161833"><ele>59.25</ele><time>2026-05-03T12:00:15.755Z</time></trkpt><trkpt lat="45.4391233" lon="11.0160567"><ele>59.0</ele><time>2026-05-03T12:00:16.751Z</time></trkpt><trkpt lat="45.4390167" lon="11.0159567"><ele>59.0</ele><time>2026-05-03T12:00:17.76Z</time></trkpt><trkpt lat="45.4389017" lon="11.0158767"><ele>59.0</ele><time>2026-05-03T12:00:18.753Z</time></trkpt><trkpt lat="45.4387667" lon="11.0158"><ele>59.0</ele><time>2026-05-03T12:00:19.755Z</time></trkpt><trkpt lat="45.4386117" lon="11.01573"><ele>59.0</ele><time>2026-05-03T12:00:20.755Z</time></trkpt><trkpt lat="45.4384383" lon="11.0156617"><ele>58.0</ele><time>2026-05-03T12:00:21.762Z</time></trkpt><trkpt lat="45.4382567" lon="11.0155817"><ele>57.0</ele><time>2026-05-03T12:00:22.755Z</time></trkpt><trkpt lat="45.43807" lon="11.0154817"><ele>56.0</ele><time>2026-05-03T12:00:23.759Z</time></trkpt><trkpt lat="45.4378833" lon="11.0153833"><ele>55.0</ele><time>2026-05-03T12:00:24.754Z</time></trkpt><trkpt lat="45.4377017" lon="11.01529"><ele>54.0</ele><time>2026-05-03T12:00:25.762Z</time></trkpt><trkpt lat="45.4375283" lon="11.0151933"><ele>53.0</ele><time>2026-05-03T12:00:26.759Z</time></trkpt><trkpt lat="45.43736" lon="11.0150883"><ele>53.0</ele><time>2026-05-03T12:00:27.759Z</time></trkpt><trkpt lat="45.4371967" lon="11.0149667"><ele>53.0</ele><time>2026-05-03T12:00:28.757Z</time></trkpt><trkpt lat="45.43704" lon="11.0148267"><ele>53.0</ele><time>2026-05-03T12:00:29.757Z</time></trkpt><trkpt lat="45.4368883" lon="11.0146667"><ele>53.0</ele><time>2026-05-03T12:00:30.759Z</time></trkpt><trkpt lat="45.4367333" lon="11.014485"><ele>53.0</ele><time>2026-05-03T12:00:31.757Z</time></trkpt><trkpt lat="45.4365833" lon="11.01429"><ele>53.0</ele><time>2026-05-03T12:00:32.758Z</time></trkpt><trkpt lat="45.4364417" lon="11.0140617"><ele>53.0</ele><time>2026-05-03T12:00:33.756Z</time></trkpt><trkpt lat="45.43631" lon="11.01381"><ele>53.0</ele><time>2026-05-03T12:00:34.759Z</time></trkpt><trkpt lat="45.4361917" lon="11.0135367"><ele>53.0</ele><time>2026-05-03T12:00:35.756Z</time></trkpt><trkpt lat="45.4360783" lon="11.0132583"><ele>53.333333333333336</ele><time>2026-05-03T12:00:36.756Z</time></trkpt><trkpt lat="45.4359633" lon="11.012995"><ele>53.66666666666667</ele><time>2026-05-03T12:00:37.759Z</time></trkpt><trkpt lat="45.4358567" lon="11.0127333"><ele>54.0</ele><time>2026-05-03T12:00:38.762Z</time></trkpt><trkpt lat="45.4357517" lon="11.0124783"><ele>54.0</ele><time>2026-05-03T12:00:39.761Z</time></trkpt><trkpt lat="45.435645" lon="11.0122317"><ele>54.0</ele><time>2026-05-03T12:00:40.753Z</time></trkpt><trkpt lat="45.4355317" lon="11.011995"><ele>54.0</ele><time>2026-05-03T12:00:41.76Z</time></trkpt><trkpt lat="45.4353917" lon="11.0117717"><ele>54.0</ele><time>2026-05-03T12:00:42.758Z</time></trkpt><trkpt lat="45.4352367" lon="11.0115567"><ele>54.0</ele><time>2026-05-03T12:00:43.758Z</time></trkpt><trkpt lat="45.435075" lon="11.011345"><ele>54.0</ele><time>2026-05-03T12:00:44.755Z</time></trkpt><trkpt lat="45.434915" lon="11.0111367"><ele>54.0</ele><time>2026-05-03T12:00:45.753Z</time></trkpt><trkpt lat="45.434755" lon="11.01093"><ele>54.0</ele><time>2026-05-03T12:00:46.755Z</time></trkpt><trkpt lat="45.4345967" lon="11.0107283"><ele>54.0</ele><time>2026-05-03T12:00:47.759Z</time></trkpt><trkpt lat="45.4344433" lon="11.0105267"><ele>54.0</ele><time>2026-05-03T12:00:48.754Z</time></trkpt><trkpt lat="45.4342917" lon="11.010335"><ele>54.0</ele><time>2026-05-03T12:00:49.767Z</time></trkpt><trkpt lat="45.4341533" lon="11.010165"><ele>54.0</ele><time>2026-05-03T12:00:50.765Z</time></trkpt><trkpt lat="45.4340267" lon="11.0100067"><ele>54.5</ele><time>2026-05-03T12:00:51.76Z</time></trkpt><trkpt lat="45.43392" lon="11.00985"><ele>55.0</ele><time>2026-05-03T12:00:52.759Z</time></trkpt><trkpt lat="45.4338383" lon="11.0096867"><ele>55.5</ele><time>2026-05-03T12:00:53.761Z</time></trkpt><trkpt lat="45.4337817" lon="11.0095017"><ele>56.0</ele><time>2026-05-03T12:00:54.755Z</time></trkpt><trkpt lat="45.4337533" lon="11.0092917"><ele>55.66666666666667</ele><time>2026-05-03T12:00:55.754Z</time></trkpt><trkpt lat="45.433755" lon="11.0090583"><ele>55.33333333333333</ele><time>2026-05-03T12:00:56.76Z</time></trkpt><trkpt lat="45.4337933" lon="11.0088217"><ele>55.0</ele><time>2026-05-03T12:00:57.758Z</time></trkpt><trkpt lat="45.4338517" lon="11.0086333"><ele>55.0</ele><time>2026-05-03T12:00:58.759Z</time></trkpt><trkpt lat="45.4339133" lon="11.008485"><ele>55.0</ele><time>2026-05-03T12:00:59.756Z</time></trkpt><trkpt lat="45.4339717" lon="11.0083683"><ele>55.0</ele><time>2026-05-03T12:01:00.756Z</time></trkpt><trkpt lat="45.4340133" lon="11.0082967"><ele>55.0</ele><time>2026-05-03T12:01:01.756Z</time></trkpt><trkpt lat="45.43415" lon="11.008125"><ele>54.75</ele><time>2026-05-03T12:01:09.76Z</time></trkpt><trkpt lat="45.43421" lon="11.00802"><ele>54.5</ele><time>2026-05-03T12:01:10.757Z</time></trkpt><trkpt lat="45.4342833" lon="11.0078867"><ele>54.25</ele><time>2026-05-03T12:01:11.757Z</time></trkpt><trkpt lat="45.4343667" lon="11.0077383"><ele>54.0</ele><time>2026-05-03T12:01:12.755Z</time></trkpt><trkpt lat="45.434465" lon="11.007565"><ele>54.66666666666667</ele><time>2026-05-03T12:01:13.752Z</time></trkpt><trkpt lat="45.4345667" lon="11.007375"><ele>55.333333333333336</ele><time>2026-05-03T12:01:14.757Z</time></trkpt><trkpt lat="45.43468" lon="11.00717"><ele>56.0</ele><time>2026-05-03T12:01:15.754Z</time></trkpt><trkpt lat="45.434795" lon="11.0069583"><ele>57.333333333333336</ele><time>2026-05-03T12:01:16.754Z</time></trkpt><trkpt lat="45.4349133" lon="11.00674"><ele>58.66666666666667</ele><time>2026-05-03T12:01:17.76Z</time></trkpt><trkpt lat="45.43503" lon="11.00653"><ele>60.0</ele><time>2026-05-03T12:01:18.758Z</time></trkpt><trkpt lat="45.435135" lon="11.0063317"><ele>60.0</ele><time>2026-05-03T12:01:19.758Z</time></trkpt><trkpt lat="45.4352367" lon="11.0061233"><ele>60.0</ele><time>2026-05-03T12:01:20.754Z</time></trkpt><trkpt lat="45.4353167" lon="11.0058983"><ele>60.0</ele><time>2026-05-03T12:01:21.761Z</time></trkpt><trkpt lat="45.4353767" lon="11.0056617"><ele>59.66666666666667</ele><time>2026-05-03T12:01:22.758Z</time></trkpt><trkpt lat="45.4354167" lon="11.0054233"><ele>59.333333333333336</ele><time>2026-05-03T12:01:23.763Z</time></trkpt><trkpt lat="45.4354383" lon="11.0051767"><ele>59.0</ele><time>2026-05-03T12:01:24.759Z</time></trkpt><trkpt lat="45.4354417" lon="11.0049283"><ele>58.333333333333336</ele><time>2026-05-03T12:01:25.761Z</time></trkpt><trkpt lat="45.435445" lon="11.004665"><ele>57.66666666666667</ele><time>2026-05-03T12:01:26.755Z</time></trkpt><trkpt lat="45.435445" lon="11.004405"><ele>57.0</ele><time>2026-05-03T12:01:27.755Z</time></trkpt><trkpt lat="45.4354433" lon="11.0041667"><ele>57.66666666666667</ele><time>2026-05-03T12:01:28.76Z</time></trkpt><trkpt lat="45.4354483" lon="11.0039417"><ele>58.333333333333336</ele><time>2026-05-03T12:01:29.757Z</time></trkpt><trkpt lat="45.4354583" lon="11.0037117"><ele>59.0</ele><time>2026-05-03T12:01:30.763Z</time></trkpt><trkpt lat="45.4354683" lon="11.0034933"><ele>59.25</ele><time>2026-05-03T12:01:31.76Z</time></trkpt><trkpt lat="45.4354767" lon="11.0032967"><ele>59.5</ele><time>2026-05-03T12:01:32.76Z</time></trkpt><trkpt lat="45.4354883" lon="11.0031167"><ele>59.75</ele><time>2026-05-03T12:01:33.755Z</time></trkpt><trkpt lat="45.4354967" lon="11.0029633"><ele>60.0</ele><time>2026-05-03T12:01:34.758Z</time></trkpt><trkpt lat="45.4355017" lon="11.00283"><ele>60.0</ele><time>2026-05-03T12:01:35.758Z</time></trkpt><trkpt lat="45.4355017" lon="11.0027367"><ele>60.0</ele><time>2026-05-03T12:01:36.755Z</time></trkpt><trkpt lat="45.43551" lon="11.00264"><ele>60.0</ele><time>2026-05-03T12:01:37.757Z</time></trkpt><trkpt lat="45.4355183" lon="11.0025483"><ele>60.0</ele><time>2026-05-03T12:01:38.759Z</time></trkpt><trkpt lat="45.435525" lon="11.0024517"><ele>60.0</ele><time>2026-05-03T12:01:39.761Z</time></trkpt><trkpt lat="45.4355333" lon="11.0023317"><ele>60.0</ele><time>2026-05-03T12:01:41.758Z</time></trkpt><trkpt lat="45.4355633" lon="11.0022283"><ele>60.0</ele><time>2026-05-03T12:01:44.766Z</time></trkpt><trkpt lat="45.43558" lon="11.0021033"><ele>59.6</ele><time>2026-05-03T12:01:46.759Z</time></trkpt><trkpt lat="45.4356333" lon="11.0018683"><ele>59.2</ele><time>2026-05-03T12:02:09.758Z</time></trkpt><trkpt lat="45.4356517" lon="11.00177"><ele>58.8</ele><time>2026-05-03T12:02:10.754Z</time></trkpt><trkpt lat="45.435655" lon="11.0016667"><ele>58.4</ele><time>2026-05-03T12:02:11.76Z</time></trkpt><trkpt lat="45.43564" lon="11.0015533"><ele>58.0</ele><time>2026-05-03T12:02:12.765Z</time></trkpt><trkpt lat="45.435565" lon="11.001435"><ele>56.5</ele><time>2026-05-03T12:02:13.755Z</time></trkpt><trkpt lat="45.4354633" lon="11.0013383"><ele>55.0</ele><time>2026-05-03T12:02:14.755Z</time></trkpt><trkpt lat="45.4353417" lon="11.001265"><ele>53.5</ele><time>2026-05-03T12:02:15.756Z</time></trkpt><trkpt lat="45.435235" lon="11.0012117"><ele>52.0</ele><time>2026-05-03T12:02:16.757Z</time></trkpt><trkpt lat="45.435135" lon="11.001165"><ele>51.99999999999999</ele><time>2026-05-03T12:02:17.755Z</time></trkpt><trkpt lat="45.4350483" lon="11.00112"><ele>52.0</ele><time>2026-05-03T12:02:18.762Z</time></trkpt><trkpt lat="45.4349733" lon="11.0010817"><ele>52.0</ele><time>2026-05-03T12:02:19.762Z</time></trkpt><trkpt lat="45.4349167" lon="11.0010417"><ele>52.0</ele><time>2026-05-03T12:02:20.76Z</time></trkpt><trkpt lat="45.4348533" lon="11.000925"><ele>51.99999999999999</ele><time>2026-05-03T12:02:22.76Z</time></trkpt><trkpt lat="45.43486" lon="11.0008267"><ele>52.0</ele><time>2026-05-03T12:02:23.76Z</time></trkpt><trkpt lat="45.4348917" lon="11.000695"><ele>52.0</ele><time>2026-05-03T12:02:24.752Z</time></trkpt><trkpt lat="45.4349367" lon="11.0005333"><ele>52.0</ele><time>2026-05-03T12:02:25.752Z</time></trkpt><trkpt lat="45.4349783" lon="11.0003617"><ele>52.0</ele><time>2026-05-03T12:02:26.754Z</time></trkpt><trkpt lat="45.4350217" lon="11.000185"><ele>52.0</ele><time>2026-05-03T12:02:27.755Z</time></trkpt><trkpt lat="45.435065" lon="11.0000133"><ele>52.0</ele><time>2026-05-03T12:02:28.753Z</time></trkpt><trkpt lat="45.435105" lon="10.9998467"><ele>52.0</ele><time>2026-05-03T12:02:29.76Z</time></trkpt><trkpt lat="45.435145" lon="10.9996717"><ele>52.0</ele><time>2026-05-03T12:02:30.762Z</time></trkpt><trkpt lat="45.4351867" lon="10.99948"><ele>52.0</ele><time>2026-05-03T12:02:31.755Z</time></trkpt><trkpt lat="45.4352283" lon="10.9992683"><ele>53.33333333333333</ele><time>2026-05-03T12:02:32.763Z</time></trkpt><trkpt lat="45.4352817" lon="10.99904"><ele>54.66666666666667</ele><time>2026-05-03T12:02:33.757Z</time></trkpt><trkpt lat="45.4353317" lon="10.998815"><ele>56.0</ele><time>2026-05-03T12:02:34.76Z</time></trkpt><trkpt lat="45.4353783" lon="10.9986017"><ele>56.0</ele><time>2026-05-03T12:02:35.757Z</time></trkpt><trkpt lat="45.435425" lon="10.9984"><ele>56.0</ele><time>2026-05-03T12:02:36.755Z</time></trkpt><trkpt lat="45.435475" lon="10.998215"><ele>56.0</ele><time>2026-05-03T12:02:37.757Z</time></trkpt><trkpt lat="45.4355217" lon="10.998045"><ele>56.0</ele><time>2026-05-03T12:02:38.758Z</time></trkpt><trkpt lat="45.4355617" lon="10.9978817"><ele>56.199999999999996</ele><time>2026-05-03T12:02:39.767Z</time></trkpt><trkpt lat="45.4356017" lon="10.9977433"><ele>56.39999999999999</ele><time>2026-05-03T12:02:40.758Z</time></trkpt><trkpt lat="45.4356383" lon="10.9976167"><ele>56.6</ele><time>2026-05-03T12:02:41.756Z</time></trkpt><trkpt lat="45.4356883" lon="10.997505"><ele>56.8</ele><time>2026-05-03T12:02:42.76Z</time></trkpt><trkpt lat="45.4357517" lon="10.9973983"><ele>57.0</ele><time>2026-05-03T12:02:43.761Z</time></trkpt><trkpt lat="45.4358183" lon="10.99729"><ele>57.0</ele><time>2026-05-03T12:02:44.764Z</time></trkpt><trkpt lat="45.4358717" lon="10.9971883"><ele>57.0</ele><time>2026-05-03T12:02:45.756Z</time></trkpt><trkpt lat="45.4359217" lon="10.9971183"><ele>57.0</ele><time>2026-05-03T12:02:46.76Z</time></trkpt><trkpt lat="45.4359783" lon="10.9970767"><ele>57.0</ele><time>2026-05-03T12:02:47.758Z</time></trkpt><trkpt lat="45.4360467" lon="10.9970833"><ele>57.0</ele><time>2026-05-03T12:02:48.76Z</time></trkpt><trkpt lat="45.436135" lon="10.9971133"><ele>57.0</ele><time>2026-05-03T12:02:49.761Z</time></trkpt><trkpt lat="45.4362267" lon="10.9971283"><ele>57.400000000000006</ele><time>2026-05-03T12:02:50.759Z</time></trkpt><trkpt lat="45.4363367" lon="10.997155"><ele>57.800000000000004</ele><time>2026-05-03T12:02:51.757Z</time></trkpt><trkpt lat="45.4364417" lon="10.997165"><ele>58.2</ele><time>2026-05-03T12:02:52.759Z</time></trkpt><trkpt lat="45.4365417" lon="10.9971717"><ele>58.6</ele><time>2026-05-03T12:02:53.76Z</time></trkpt><trkpt lat="45.4366417" lon="10.997175"><ele>59.0</ele><time>2026-05-03T12:02:54.755Z</time></trkpt><trkpt lat="45.4367367" lon="10.9971783"><ele>59.00000000000001</ele><time>2026-05-03T12:02:55.764Z</time></trkpt><trkpt lat="45.43683" lon="10.9971667"><ele>59.0</ele><time>2026-05-03T12:02:56.76Z</time></trkpt><trkpt lat="45.4369117" lon="10.9971283"><ele>59.0</ele><time>2026-05-03T12:02:57.76Z</time></trkpt><trkpt lat="45.4369817" lon="10.9970833"><ele>59.0</ele><time>2026-05-03T12:02:58.754Z</time></trkpt><trkpt lat="45.4370383" lon="10.9970383"><ele>59.00000000000001</ele><time>2026-05-03T12:02:59.762Z</time></trkpt><trkpt lat="45.4371383" lon="10.9969483"><ele>59.0</ele><time>2026-05-03T12:03:01.766Z</time></trkpt><trkpt lat="45.4372217" lon="10.9968467"><ele>59.333333333333336</ele><time>2026-05-03T12:03:03.761Z</time></trkpt><trkpt lat="45.437315" lon="10.9968217"><ele>59.66666666666667</ele><time>2026-05-03T12:03:05.764Z</time></trkpt><trkpt lat="45.4373917" lon="10.9968133"><ele>60.0</ele><time>2026-05-03T12:03:07.757Z</time></trkpt><trkpt lat="45.4374583" lon="10.9968067"><ele>60.33333333333333</ele><time>2026-05-03T12:03:09.753Z</time></trkpt><trkpt lat="45.4375517" lon="10.9968217"><ele>60.666666666666664</ele><time>2026-05-03T12:03:11.76Z</time></trkpt><trkpt lat="45.4376483" lon="10.9969083"><ele>61.0</ele><time>2026-05-03T12:03:13.761Z</time></trkpt><trkpt lat="45.4377467" lon="10.9970167"><ele>61.0</ele><time>2026-05-03T12:03:15.755Z</time></trkpt><trkpt lat="45.437805" lon="10.99707"><ele>60.99999999999999</ele><time>2026-05-03T12:03:16.754Z</time></trkpt><trkpt lat="45.4378717" lon="10.9971483"><ele>60.99999999999999</ele><time>2026-05-03T12:03:17.752Z</time></trkpt><trkpt lat="45.4379383" lon="10.9972517"><ele>61.0</ele><time>2026-05-03T12:03:18.755Z</time></trkpt><trkpt lat="45.4380183" lon="10.9974017"><ele>61.0</ele><time>2026-05-03T12:03:19.756Z</time></trkpt><trkpt lat="45.4381017" lon="10.99758"><ele>61.0</ele><time>2026-05-03T12:03:20.762Z</time></trkpt><trkpt lat="45.438195" lon="10.9977783"><ele>61.0</ele><time>2026-05-03T12:03:21.757Z</time></trkpt><trkpt lat="45.4382917" lon="10.9979833"><ele>61.0</ele><time>2026-05-03T12:03:22.763Z</time></trkpt><trkpt lat="45.43838" lon="10.9981733"><ele>61.33333333333333</ele><time>2026-05-03T12:03:23.765Z</time></trkpt><trkpt lat="45.43846" lon="10.9983567"><ele>61.66666666666667</ele><time>2026-05-03T12:03:24.757Z</time></trkpt><trkpt lat="45.4385517" lon="10.9985483"><ele>62.0</ele><time>2026-05-03T12:03:25.754Z</time></trkpt><trkpt lat="45.438645" lon="10.99874"><ele>62.0</ele><time>2026-05-03T12:03:26.756Z</time></trkpt><trkpt lat="45.4387283" lon="10.9989233"><ele>62.0</ele><time>2026-05-03T12:03:27.761Z</time></trkpt><trkpt lat="45.438815" lon="10.999095"><ele>62.0</ele><time>2026-05-03T12:03:28.753Z</time></trkpt><trkpt lat="45.438905" lon="10.999275"><ele>62.0</ele><time>2026-05-03T12:03:29.754Z</time></trkpt><trkpt lat="45.439005" lon="10.99945"><ele>62.0</ele><time>2026-05-03T12:03:30.759Z</time></trkpt><trkpt lat="45.4391033" lon="10.9996033"><ele>62.0</ele><time>2026-05-03T12:03:31.754Z</time></trkpt><trkpt lat="45.4392083" lon="10.99975"><ele>62.0</ele><time>2026-05-03T12:03:32.765Z</time></trkpt><trkpt lat="45.4393083" lon="10.999875"><ele>62.0</ele><time>2026-05-03T12:03:33.757Z</time></trkpt><trkpt lat="45.4393867" lon="11.0000033"><ele>62.0</ele><time>2026-05-03T12:03:34.758Z</time></trkpt><trkpt lat="45.43945" lon="11.00012"><ele>62.0</ele><time>2026-05-03T12:03:35.758Z</time></trkpt><trkpt lat="45.4394867" lon="11.0002267"><ele>62.0</ele><time>2026-05-03T12:03:36.759Z</time></trkpt><trkpt lat="45.4395083" lon="11.0003167"><ele>62.00000000000001</ele><time>2026-05-03T12:03:37.765Z</time></trkpt><trkpt lat="45.43952" lon="11.000455"><ele>62.0</ele><time>2026-05-03T12:03:39.755Z</time></trkpt><trkpt lat="45.4394983" lon="11.000545"><ele>62.0</ele><time>2026-05-03T12:03:41.755Z</time></trkpt><trkpt lat="45.4394317" lon="11.0006133"><ele>62.0</ele><time>2026-05-03T12:03:44.76Z</time></trkpt><trkpt lat="45.4393517" lon="11.0006867"><ele>62.00000000000001</ele><time>2026-05-03T12:03:46.757Z</time></trkpt><trkpt lat="45.439295" lon="11.000745"><ele>62.0</ele><time>2026-05-03T12:03:47.762Z</time></trkpt><trkpt lat="45.4392533" lon="11.0008783"><ele>60.75</ele><time>2026-05-03T12:03:48.758Z</time></trkpt><trkpt lat="45.439225" lon="11.0010617"><ele>59.5</ele><time>2026-05-03T12:03:49.756Z</time></trkpt><trkpt lat="45.439205" lon="11.0012467"><ele>58.25</ele><time>2026-05-03T12:03:50.754Z</time></trkpt><trkpt lat="45.4391933" lon="11.0014083"><ele>57.0</ele><time>2026-05-03T12:03:51.76Z</time></trkpt><trkpt lat="45.4391833" lon="11.0015417"><ele>57.0</ele><time>2026-05-03T12:03:52.757Z</time></trkpt><trkpt lat="45.439175" lon="11.0016517"><ele>57.0</ele><time>2026-05-03T12:03:53.755Z</time></trkpt><trkpt lat="45.43916" lon="11.0017917"><ele>57.0</ele><time>2026-05-03T12:03:55.756Z</time></trkpt><trkpt lat="45.4391417" lon="11.0019333"><ele>57.0</ele><time>2026-05-03T12:04:30.757Z</time></trkpt><trkpt lat="45.439135" lon="11.0020233"><ele>57.0</ele><time>2026-05-03T12:04:32.76Z</time></trkpt><trkpt lat="45.43916" lon="11.0021583"><ele>57.0</ele><time>2026-05-03T12:04:35.755Z</time></trkpt><trkpt lat="45.4392717" lon="11.0022283"><ele>57.25</ele><time>2026-05-03T12:04:37.762Z</time></trkpt><trkpt lat="45.4393533" lon="11.00226"><ele>57.5</ele><time>2026-05-03T12:04:38.757Z</time></trkpt><trkpt lat="45.4394517" lon="11.0023033"><ele>57.75</ele><time>2026-05-03T12:04:39.754Z</time></trkpt><trkpt lat="45.43958" lon="11.0023867"><ele>58.0</ele><time>2026-05-03T12:04:40.754Z</time></trkpt><trkpt lat="45.4397183" lon="11.0024717"><ele>58.75</ele><time>2026-05-03T12:04:41.763Z</time></trkpt><trkpt lat="45.4398533" lon="11.0025633"><ele>59.5</ele><time>2026-05-03T12:04:42.754Z</time></trkpt><trkpt lat="45.4399917" lon="11.0026517"><ele>60.25</ele><time>2026-05-03T12:04:43.759Z</time></trkpt><trkpt lat="45.440125" lon="11.0027317"><ele>61.0</ele><time>2026-05-03T12:04:44.758Z</time></trkpt><trkpt lat="45.4402667" lon="11.0028033"><ele>61.0</ele><time>2026-05-03T12:04:45.766Z</time></trkpt><trkpt lat="45.4404083" lon="11.0028833"><ele>61.0</ele><time>2026-05-03T12:04:46.763Z</time></trkpt><trkpt lat="45.4405483" lon="11.00296"><ele>61.0</ele><time>2026-05-03T12:04:47.76Z</time></trkpt><trkpt lat="45.44069" lon="11.0030433"><ele>60.75</ele><time>2026-05-03T12:04:48.755Z</time></trkpt><trkpt lat="45.4408333" lon="11.0031317"><ele>60.5</ele><time>2026-05-03T12:04:49.755Z</time></trkpt><trkpt lat="45.440975" lon="11.0032183"><ele>60.25</ele><time>2026-05-03T12:04:50.754Z</time></trkpt><trkpt lat="45.4411017" lon="11.0032983"><ele>60.0</ele><time>2026-05-03T12:04:51.758Z</time></trkpt><trkpt lat="45.4412233" lon="11.0033683"><ele>60.75</ele><time>2026-05-03T12:04:52.758Z</time></trkpt><trkpt lat="45.4413467" lon="11.0034383"><ele>61.5</ele><time>2026-05-03T12:04:53.76Z</time></trkpt><trkpt lat="45.4414567" lon="11.0035067"><ele>62.25</ele><time>2026-05-03T12:04:54.756Z</time></trkpt><trkpt lat="45.441555" lon="11.00357"><ele>63.0</ele><time>2026-05-03T12:04:55.76Z</time></trkpt><trkpt lat="45.4416417" lon="11.0036267"><ele>63.0</ele><time>2026-05-03T12:04:56.756Z</time></trkpt><trkpt lat="45.4417167" lon="11.003675"><ele>63.0</ele><time>2026-05-03T12:04:57.753Z</time></trkpt><trkpt lat="45.441775" lon="11.0037133"><ele>63.0</ele><time>2026-05-03T12:04:58.757Z</time></trkpt><trkpt lat="45.4418433" lon="11.0037667"><ele>63.0</ele><time>2026-05-03T12:05:00.755Z</time></trkpt><trkpt lat="45.4419417" lon="11.0038083"><ele>63.0</ele><time>2026-05-03T12:06:10.759Z</time></trkpt><trkpt lat="45.4420133" lon="11.00387"><ele>63.0</ele><time>2026-05-03T12:06:14.761Z</time></trkpt><trkpt lat="45.4420717" lon="11.003905"><ele>62.4</ele><time>2026-05-03T12:06:15.757Z</time></trkpt><trkpt lat="45.4421517" lon="11.0039517"><ele>61.8</ele><time>2026-05-03T12:06:16.755Z</time></trkpt><trkpt lat="45.4422517" lon="11.0039967"><ele>61.2</ele><time>2026-05-03T12:06:17.766Z</time></trkpt><trkpt lat="45.4423633" lon="11.0040433"><ele>60.6</ele><time>2026-05-03T12:06:18.756Z</time></trkpt><trkpt lat="45.4424817" lon="11.0040967"><ele>60.0</ele><time>2026-05-03T12:06:19.758Z</time></trkpt><trkpt lat="45.4425967" lon="11.004145"><ele>60.0</ele><time>2026-05-03T12:06:20.756Z</time></trkpt><trkpt lat="45.4427033" lon="11.0041817"><ele>60.0</ele><time>2026-05-03T12:06:21.757Z</time></trkpt><trkpt lat="45.442815" lon="11.004215"><ele>60.0</ele><time>2026-05-03T12:06:22.755Z</time></trkpt><trkpt lat="45.4429417" lon="11.0042467"><ele>60.0</ele><time>2026-05-03T12:06:23.757Z</time></trkpt><trkpt lat="45.4430583" lon="11.004255"><ele>60.0</ele><time>2026-05-03T12:06:24.757Z</time></trkpt><trkpt lat="45.443175" lon="11.00425"><ele>60.0</ele><time>2026-05-03T12:06:25.759Z</time></trkpt><trkpt lat="45.4432933" lon="11.004245"><ele>60.0</ele><time>2026-05-03T12:06:26.761Z</time></trkpt><trkpt lat="45.4434167" lon="11.0042467"><ele>60.0</ele><time>2026-05-03T12:06:27.757Z</time></trkpt><trkpt lat="45.4435483" lon="11.0042483"><ele>60.0</ele><time>2026-05-03T12:06:28.756Z</time></trkpt><trkpt lat="45.44369" lon="11.00424"><ele>60.0</ele><time>2026-05-03T12:06:29.754Z</time></trkpt><trkpt lat="45.4438483" lon="11.004225"><ele>60.0</ele><time>2026-05-03T12:06:30.755Z</time></trkpt><trkpt lat="45.4440083" lon="11.0041983"><ele>60.25</ele><time>2026-05-03T12:06:31.756Z</time></trkpt><trkpt lat="45.4441517" lon="11.0041517"><ele>60.5</ele><time>2026-05-03T12:06:32.76Z</time></trkpt><trkpt lat="45.444285" lon="11.0041067"><ele>60.75</ele><time>2026-05-03T12:06:33.759Z</time></trkpt><trkpt lat="45.44441" lon="11.00407"><ele>61.0</ele><time>2026-05-03T12:06:34.756Z</time></trkpt><trkpt lat="45.4445233" lon="11.0040267"><ele>60.99999999999999</ele><time>2026-05-03T12:06:35.756Z</time></trkpt><trkpt lat="45.444615" lon="11.0039817"><ele>61.0</ele><time>2026-05-03T12:06:36.757Z</time></trkpt><trkpt lat="45.444695" lon="11.0039383"><ele>61.0</ele><time>2026-05-03T12:06:37.758Z</time></trkpt><trkpt lat="45.444765" lon="11.003895"><ele>61.0</ele><time>2026-05-03T12:06:38.757Z</time></trkpt><trkpt lat="45.444825" lon="11.0038617"><ele>60.99999999999999</ele><time>2026-05-03T12:06:39.754Z</time></trkpt><trkpt lat="45.444915" lon="11.00387"><ele>61.0</ele><time>2026-05-03T12:06:41.76Z</time></trkpt><trkpt lat="45.444985" lon="11.0039817"><ele>60.99999999999999</ele><time>2026-05-03T12:06:43.767Z</time></trkpt><trkpt lat="45.445025" lon="11.004065"><ele>61.0</ele><time>2026-05-03T12:06:44.76Z</time></trkpt><trkpt lat="45.4450683" lon="11.0041467"><ele>61.0</ele><time>2026-05-03T12:06:45.76Z</time></trkpt><trkpt lat="45.44513" lon="11.004265"><ele>61.0</ele><time>2026-05-03T12:06:47.759Z</time></trkpt><trkpt lat="45.445185" lon="11.0043783"><ele>60.99999999999999</ele><time>2026-05-03T12:06:52.76Z</time></trkpt><trkpt lat="45.4452217" lon="11.004455"><ele>61.0</ele><time>2026-05-03T12:06:53.756Z</time></trkpt><trkpt lat="45.4452733" lon="11.0045567"><ele>60.666666666666664</ele><time>2026-05-03T12:06:54.759Z</time></trkpt><trkpt lat="45.44543" lon="11.00483"><ele>60.33333333333333</ele><time>2026-05-03T12:06:56.758Z</time></trkpt><trkpt lat="45.445525" lon="11.0049667"><ele>60.0</ele><time>2026-05-03T12:06:57.82Z</time></trkpt><trkpt lat="45.4456083" lon="11.0051"><ele>61.0</ele><time>2026-05-03T12:06:58.755Z</time></trkpt><trkpt lat="45.445755" lon="11.00538"><ele>62.0</ele><time>2026-05-03T12:07:00.76Z</time></trkpt><trkpt lat="45.4458433" lon="11.005485"><ele>63.0</ele><time>2026-05-03T12:07:01.762Z</time></trkpt><trkpt lat="45.44593" lon="11.0055783"><ele>63.0</ele><time>2026-05-03T12:07:02.766Z</time></trkpt><trkpt lat="45.4460167" lon="11.0056583"><ele>63.0</ele><time>2026-05-03T12:07:03.76Z</time></trkpt><trkpt lat="45.4460917" lon="11.0057133"><ele>63.0</ele><time>2026-05-03T12:07:04.776Z</time></trkpt><trkpt lat="45.446245" lon="11.00577"><ele>63.0</ele><time>2026-05-03T12:07:06.761Z</time></trkpt><trkpt lat="45.4463567" lon="11.0057217"><ele>64.5</ele><time>2026-05-03T12:07:08.763Z</time></trkpt><trkpt lat="45.4463883" lon="11.0055683"><ele>66.0</ele><time>2026-05-03T12:07:09.754Z</time></trkpt><trkpt lat="45.4464133" lon="11.005455"><ele>67.5</ele><time>2026-05-03T12:07:10.767Z</time></trkpt><trkpt lat="45.4464217" lon="11.005365"><ele>69.0</ele><time>2026-05-03T12:07:11.759Z</time></trkpt><trkpt lat="45.446525" lon="11.005315"><ele>70.5</ele><time>2026-05-03T12:07:14.76Z</time></trkpt><trkpt lat="45.4465983" lon="11.0053067"><ele>72.0</ele><time>2026-05-03T12:07:15.76Z</time></trkpt><trkpt lat="45.4466833" lon="11.0053167"><ele>72.0</ele><time>2026-05-03T12:07:16.76Z</time></trkpt><trkpt lat="45.4467667" lon="11.0053317"><ele>72.0</ele><time>2026-05-03T12:07:17.76Z</time></trkpt><trkpt lat="45.44686" lon="11.0053467"><ele>72.0</ele><time>2026-05-03T12:07:18.755Z</time></trkpt><trkpt lat="45.44697" lon="11.0053967"><ele>72.0</ele><time>2026-05-03T12:07:19.756Z</time></trkpt><trkpt lat="45.4470883" lon="11.005435"><ele>72.0</ele><time>2026-05-03T12:07:20.761Z</time></trkpt><trkpt lat="45.447215" lon="11.0054783"><ele>74.0</ele><time>2026-05-03T12:07:21.753Z</time></trkpt><trkpt lat="45.44734" lon="11.0055283"><ele>76.0</ele><time>2026-05-03T12:07:22.758Z</time></trkpt><trkpt lat="45.447445" lon="11.0055767"><ele>78.0</ele><time>2026-05-03T12:07:23.756Z</time></trkpt><trkpt lat="45.4475483" lon="11.0056167"><ele>80.0</ele><time>2026-05-03T12:07:24.755Z</time></trkpt><trkpt lat="45.4476533" lon="11.0056483"><ele>80.0</ele><time>2026-05-03T12:07:25.76Z</time></trkpt><trkpt lat="45.4477667" lon="11.0056817"><ele>80.0</ele><time>2026-05-03T12:07:26.765Z</time></trkpt><trkpt lat="45.4478783" lon="11.0057067"><ele>80.0</ele><time>2026-05-03T12:07:27.756Z</time></trkpt><trkpt lat="45.4479933" lon="11.005735"><ele>80.0</ele><time>2026-05-03T12:07:28.757Z</time></trkpt><trkpt lat="45.4481133" lon="11.0057783"><ele>81.5</ele><time>2026-05-03T12:07:29.764Z</time></trkpt><trkpt lat="45.4482367" lon="11.0058383"><ele>83.0</ele><time>2026-05-03T12:07:30.757Z</time></trkpt><trkpt lat="45.448345" lon="11.0059033"><ele>84.5</ele><time>2026-05-03T12:07:31.758Z</time></trkpt><trkpt lat="45.4484483" lon="11.0059783"><ele>86.0</ele><time>2026-05-03T12:07:32.757Z</time></trkpt><trkpt lat="45.4485383" lon="11.0060533"><ele>86.0</ele><time>2026-05-03T12:07:33.759Z</time></trkpt><trkpt lat="45.4486133" lon="11.0061217"><ele>86.0</ele><time>2026-05-03T12:07:34.754Z</time></trkpt><trkpt lat="45.4486867" lon="11.0061767"><ele>86.0</ele><time>2026-05-03T12:07:35.757Z</time></trkpt><trkpt lat="45.4487733" lon="11.0062383"><ele>86.0</ele><time>2026-05-03T12:07:36.758Z</time></trkpt><trkpt lat="45.4488783" lon="11.0063"><ele>86.0</ele><time>2026-05-03T12:07:37.752Z</time></trkpt><trkpt lat="45.448975" lon="11.0063483"><ele>87.4</ele><time>2026-05-03T12:07:38.761Z</time></trkpt><trkpt lat="45.4490783" lon="11.0064067"><ele>88.8</ele><time>2026-05-03T12:07:39.757Z</time></trkpt><trkpt lat="45.449175" lon="11.00648"><ele>90.2</ele><time>2026-05-03T12:07:40.755Z</time></trkpt><trkpt lat="45.449265" lon="11.00656"><ele>91.60000000000001</ele><time>2026-05-03T12:07:41.756Z</time></trkpt><trkpt lat="45.4493533" lon="11.006645"><ele>93.0</ele><time>2026-05-03T12:07:42.755Z</time></trkpt><trkpt lat="45.4494467" lon="11.0067283"><ele>93.0</ele><time>2026-05-03T12:07:43.759Z</time></trkpt><trkpt lat="45.4495383" lon="11.0068117"><ele>93.0</ele><time>2026-05-03T12:07:44.761Z</time></trkpt><trkpt lat="45.4496267" lon="11.0069083"><ele>93.0</ele><time>2026-05-03T12:07:45.755Z</time></trkpt><trkpt lat="45.449715" lon="11.006995"><ele>93.0</ele><time>2026-05-03T12:07:46.76Z</time></trkpt><trkpt lat="45.449805" lon="11.00708"><ele>93.0</ele><time>2026-05-03T12:07:47.756Z</time></trkpt><trkpt lat="45.4498933" lon="11.0071533"><ele>95.0</ele><time>2026-05-03T12:07:48.753Z</time></trkpt><trkpt lat="45.4499883" lon="11.00721"><ele>97.0</ele><time>2026-05-03T12:07:49.752Z</time></trkpt><trkpt lat="45.45009" lon="11.007255"><ele>99.0</ele><time>2026-05-03T12:07:50.765Z</time></trkpt><trkpt lat="45.4501983" lon="11.0073033"><ele>101.0</ele><time>2026-05-03T12:07:51.762Z</time></trkpt><trkpt lat="45.4503" lon="11.0073467"><ele>103.0</ele><time>2026-05-03T12:07:52.756Z</time></trkpt><trkpt lat="45.4503933" lon="11.0073767"><ele>106.0</ele><time>2026-05-03T12:07:53.76Z</time></trkpt><trkpt lat="45.4504717" lon="11.0073933"><ele>109.0</ele><time>2026-05-03T12:07:54.758Z</time></trkpt><trkpt lat="45.4505433" lon="11.00741"><ele>112.00000000000001</ele><time>2026-05-03T12:07:55.757Z</time></trkpt><trkpt lat="45.4506567" lon="11.0073733"><ele>115.0</ele><time>2026-05-03T12:07:57.756Z</time></trkpt><trkpt lat="45.4507533" lon="11.0072483"><ele>118.0</ele><time>2026-05-03T12:07:59.76Z</time></trkpt><trkpt lat="45.4507967" lon="11.00715"><ele>118.0</ele><time>2026-05-03T12:08:00.757Z</time></trkpt><trkpt lat="45.4508383" lon="11.0070583"><ele>118.0</ele><time>2026-05-03T12:08:01.754Z</time></trkpt><trkpt lat="45.450865" lon="11.0069683"><ele>118.0</ele><time>2026-05-03T12:08:02.756Z</time></trkpt><trkpt lat="45.4508817" lon="11.0068817"><ele>118.0</ele><time>2026-05-03T12:08:03.76Z</time></trkpt><trkpt lat="45.45091" lon="11.0067883"><ele>118.0</ele><time>2026-05-03T12:08:04.756Z</time></trkpt><trkpt lat="45.4509333" lon="11.0066933"><ele>118.0</ele><time>2026-05-03T12:08:05.759Z</time></trkpt><trkpt lat="45.4509417" lon="11.0066"><ele>118.0</ele><time>2026-05-03T12:08:06.761Z</time></trkpt><trkpt lat="45.45094" lon="11.0065033"><ele>119.00000000000001</ele><time>2026-05-03T12:08:07.756Z</time></trkpt><trkpt lat="45.45091" lon="11.0063283"><ele>120.0</ele><time>2026-05-03T12:08:09.755Z</time></trkpt><trkpt lat="45.4508767" lon="11.00624"><ele>121.0</ele><time>2026-05-03T12:08:10.762Z</time></trkpt><trkpt lat="45.4508283" lon="11.006155"><ele>122.0</ele><time>2026-05-03T12:08:11.755Z</time></trkpt><trkpt lat="45.4507833" lon="11.0060633"><ele>123.00000000000001</ele><time>2026-05-03T12:08:12.757Z</time></trkpt><trkpt lat="45.4507333" lon="11.0059733"><ele>124.0</ele><time>2026-05-03T12:08:13.757Z</time></trkpt><trkpt lat="45.4506867" lon="11.00589"><ele>123.6</ele><time>2026-05-03T12:08:14.756Z</time></trkpt><trkpt lat="45.4506333" lon="11.005815"><ele>123.2</ele><time>2026-05-03T12:08:15.754Z</time></trkpt><trkpt lat="45.450625" lon="11.0056367"><ele>122.79999999999998</ele><time>2026-05-03T12:08:17.76Z</time></trkpt><trkpt lat="45.45068" lon="11.00548"><ele>122.39999999999999</ele><time>2026-05-03T12:08:19.754Z</time></trkpt><trkpt lat="45.4507233" lon="11.0054133"><ele>122.0</ele><time>2026-05-03T12:08:20.761Z</time></trkpt><trkpt lat="45.450775" lon="11.0053533"><ele>121.99999999999999</ele><time>2026-05-03T12:08:21.755Z</time></trkpt><trkpt lat="45.450835" lon="11.00529"><ele>122.0</ele><time>2026-05-03T12:08:22.755Z</time></trkpt><trkpt lat="45.4508883" lon="11.0052283"><ele>122.0</ele><time>2026-05-03T12:08:23.757Z</time></trkpt><trkpt lat="45.450935" lon="11.0051633"><ele>122.0</ele><time>2026-05-03T12:08:24.76Z</time></trkpt><trkpt lat="45.4509883" lon="11.0051017"><ele>121.99999999999999</ele><time>2026-05-03T12:08:25.764Z</time></trkpt><trkpt lat="45.4510667" lon="11.0049667"><ele>122.0</ele><time>2026-05-03T12:08:27.753Z</time></trkpt><trkpt lat="45.4511067" lon="11.0048317"><ele>119.66666666666666</ele><time>2026-05-03T12:08:29.756Z</time></trkpt><trkpt lat="45.4510167" lon="11.0047683"><ele>117.33333333333333</ele><time>2026-05-03T12:08:31.763Z</time></trkpt><trkpt lat="45.4509417" lon="11.0047467"><ele>115.0</ele><time>2026-05-03T12:08:33.759Z</time></trkpt><trkpt lat="45.4508733" lon="11.00475"><ele>112.66666666666666</ele><time>2026-05-03T12:08:35.758Z</time></trkpt><trkpt lat="45.4509167" lon="11.0046517"><ele>110.33333333333333</ele><time>2026-05-03T12:09:03.753Z</time></trkpt><trkpt lat="45.450985" lon="11.0046517"><ele>108.0</ele><time>2026-05-03T12:09:06.755Z</time></trkpt><trkpt lat="45.4510867" lon="11.0047833"><ele>108.0</ele><time>2026-05-03T12:09:08.762Z</time></trkpt><trkpt lat="45.45117" lon="11.0048867"><ele>108.0</ele><time>2026-05-03T12:09:09.759Z</time></trkpt><trkpt lat="45.45127" lon="11.0050217"><ele>108.0</ele><time>2026-05-03T12:09:10.754Z</time></trkpt><trkpt lat="45.451385" lon="11.0051583"><ele>108.0</ele><time>2026-05-03T12:09:11.753Z</time></trkpt><trkpt lat="45.4514683" lon="11.0053167"><ele>110.75</ele><time>2026-05-03T12:09:12.76Z</time></trkpt><trkpt lat="45.4515767" lon="11.0054683"><ele>113.5</ele><time>2026-05-03T12:09:13.762Z</time></trkpt><trkpt lat="45.45168" lon="11.0056183"><ele>116.25</ele><time>2026-05-03T12:09:14.761Z</time></trkpt><trkpt lat="45.45178" lon="11.0057633"><ele>119.0</ele><time>2026-05-03T12:09:15.759Z</time></trkpt><trkpt lat="45.4518867" lon="11.0059017"><ele>123.0</ele><time>2026-05-03T12:09:16.762Z</time></trkpt><trkpt lat="45.45199" lon="11.006055"><ele>127.0</ele><time>2026-05-03T12:09:17.759Z</time></trkpt><trkpt lat="45.4521067" lon="11.0062067"><ele>131.0</ele><time>2026-05-03T12:09:18.757Z</time></trkpt><trkpt lat="45.4522233" lon="11.0063617"><ele>131.0</ele><time>2026-05-03T12:09:19.753Z</time></trkpt><trkpt lat="45.4523417" lon="11.00653"><ele>131.0</ele><time>2026-05-03T12:09:20.768Z</time></trkpt><trkpt lat="45.4524683" lon="11.0067033"><ele>131.0</ele><time>2026-05-03T12:09:21.756Z</time></trkpt><trkpt lat="45.45262" lon="11.00687"><ele>132.0</ele><time>2026-05-03T12:09:22.756Z</time></trkpt><trkpt lat="45.4527617" lon="11.007045"><ele>133.0</ele><time>2026-05-03T12:09:23.762Z</time></trkpt><trkpt lat="45.452905" lon="11.007205"><ele>134.0</ele><time>2026-05-03T12:09:24.764Z</time></trkpt><trkpt lat="45.4530517" lon="11.0073233"><ele>134.0</ele><time>2026-05-03T12:09:25.757Z</time></trkpt><trkpt lat="45.4531767" lon="11.0074167"><ele>134.0</ele><time>2026-05-03T12:09:26.754Z</time></trkpt><trkpt lat="45.4532833" lon="11.0074817"><ele>134.0</ele><time>2026-05-03T12:09:27.76Z</time></trkpt><trkpt lat="45.4533667" lon="11.0075483"><ele>134.0</ele><time>2026-05-03T12:09:28.764Z</time></trkpt><trkpt lat="45.45341" lon="11.0076317"><ele>134.0</ele><time>2026-05-03T12:09:29.757Z</time></trkpt><trkpt lat="45.45335" lon="11.0077667"><ele>134.0</ele><time>2026-05-03T12:09:31.754Z</time></trkpt><trkpt lat="45.4532233" lon="11.0077367"><ele>134.0</ele><time>2026-05-03T12:09:33.755Z</time></trkpt><trkpt lat="45.45313" lon="11.0076317"><ele>134.0</ele><time>2026-05-03T12:09:34.755Z</time></trkpt><trkpt lat="45.4529983" lon="11.0074283"><ele>134.0</ele><time>2026-05-03T12:09:35.755Z</time></trkpt><trkpt lat="45.4529033" lon="11.0073167"><ele>136.0</ele><time>2026-05-03T12:09:36.759Z</time></trkpt><trkpt lat="45.4528133" lon="11.0072333"><ele>138.0</ele><time>2026-05-03T12:09:37.767Z</time></trkpt><trkpt lat="45.4527267" lon="11.0071983"><ele>140.0</ele><time>2026-05-03T12:09:38.757Z</time></trkpt><trkpt lat="45.4526333" lon="11.0072017"><ele>142.0</ele><time>2026-05-03T12:09:39.762Z</time></trkpt><trkpt lat="45.4526383" lon="11.00736"><ele>144.0</ele><time>2026-05-03T12:09:40.759Z</time></trkpt><trkpt lat="45.45265" lon="11.00747"><ele>146.0</ele><time>2026-05-03T12:09:41.753Z</time></trkpt><trkpt lat="45.4526883" lon="11.0076067"><ele>148.0</ele><time>2026-05-03T12:09:42.762Z</time></trkpt><trkpt lat="45.4527583" lon="11.0077233"><ele>150.0</ele><time>2026-05-03T12:09:43.755Z</time></trkpt><trkpt lat="45.4528667" lon="11.0078517"><ele>152.0</ele><time>2026-05-03T12:09:44.758Z</time></trkpt><trkpt lat="45.4530667" lon="11.0079833"><ele>152.0</ele><time>2026-05-03T12:09:45.758Z</time></trkpt><trkpt lat="45.45321" lon="11.0081167"><ele>152.0</ele><time>2026-05-03T12:09:46.755Z</time></trkpt><trkpt lat="45.453365" lon="11.0082233"><ele>152.0</ele><time>2026-05-03T12:09:47.763Z</time></trkpt><trkpt lat="45.4535233" lon="11.0082833"><ele>152.0</ele><time>2026-05-03T12:09:48.759Z</time></trkpt><trkpt lat="45.45372" lon="11.00828"><ele>152.0</ele><time>2026-05-03T12:09:49.756Z</time></trkpt><trkpt lat="45.4539217" lon="11.0082083"><ele>152.0</ele><time>2026-05-03T12:09:50.759Z</time></trkpt><trkpt lat="45.4541033" lon="11.0081333"><ele>154.0</ele><time>2026-05-03T12:09:51.762Z</time></trkpt><trkpt lat="45.4542867" lon="11.0080667"><ele>156.0</ele><time>2026-05-03T12:09:52.759Z</time></trkpt><trkpt lat="45.4544517" lon="11.0079933"><ele>158.0</ele><time>2026-05-03T12:09:53.756Z</time></trkpt><trkpt lat="45.4546017" lon="11.0079317"><ele>161.0</ele><time>2026-05-03T12:09:54.762Z</time></trkpt><trkpt lat="45.4547633" lon="11.0079083"><ele>164.0</ele><time>2026-05-03T12:09:55.759Z</time></trkpt><trkpt lat="45.4549367" lon="11.0079283"><ele>167.0</ele><time>2026-05-03T12:09:56.758Z</time></trkpt><trkpt lat="45.4551217" lon="11.00798"><ele>167.0</ele><time>2026-05-03T12:09:57.763Z</time></trkpt><trkpt lat="45.455275" lon="11.0080233"><ele>167.0</ele><time>2026-05-03T12:09:58.767Z</time></trkpt><trkpt lat="45.4554067" lon="11.008065"><ele>167.0</ele><time>2026-05-03T12:09:59.756Z</time></trkpt><trkpt lat="45.4555117" lon="11.008115"><ele>167.0</ele><time>2026-05-03T12:10:00.754Z</time></trkpt><trkpt lat="45.4555783" lon="11.0082"><ele>167.8</ele><time>2026-05-03T12:10:01.76Z</time></trkpt><trkpt lat="45.4556367" lon="11.0083067"><ele>168.6</ele><time>2026-05-03T12:10:02.757Z</time></trkpt><trkpt lat="45.4556583" lon="11.0084317"><ele>169.4</ele><time>2026-05-03T12:10:03.762Z</time></trkpt><trkpt lat="45.4556333" lon="11.00857"><ele>170.20000000000002</ele><time>2026-05-03T12:10:04.755Z</time></trkpt><trkpt lat="45.455555" lon="11.0087017"><ele>171.0</ele><time>2026-05-03T12:10:05.758Z</time></trkpt><trkpt lat="45.4554917" lon="11.0088283"><ele>170.8</ele><time>2026-05-03T12:10:06.755Z</time></trkpt><trkpt lat="45.455435" lon="11.008945"><ele>170.60000000000002</ele><time>2026-05-03T12:10:07.755Z</time></trkpt><trkpt lat="45.4554033" lon="11.0090567"><ele>170.4</ele><time>2026-05-03T12:10:08.754Z</time></trkpt><trkpt lat="45.4554717" lon="11.00918"><ele>170.2</ele><time>2026-05-03T12:10:10.755Z</time></trkpt><trkpt lat="45.4556" lon="11.0091433"><ele>170.0</ele><time>2026-05-03T12:10:12.754Z</time></trkpt><trkpt lat="45.45567" lon="11.0090033"><ele>171.0</ele><time>2026-05-03T12:10:13.757Z</time></trkpt><trkpt lat="45.4557633" lon="11.00889"><ele>172.0</ele><time>2026-05-03T12:10:14.771Z</time></trkpt><trkpt lat="45.455875" lon="11.00883"><ele>173.0</ele><time>2026-05-03T12:10:15.758Z</time></trkpt><trkpt lat="45.4560033" lon="11.00883"><ele>174.0</ele><time>2026-05-03T12:10:16.758Z</time></trkpt><trkpt lat="45.4561467" lon="11.0088533"><ele>173.0</ele><time>2026-05-03T12:10:17.764Z</time></trkpt><trkpt lat="45.4563117" lon="11.008875"><ele>172.0</ele><time>2026-05-03T12:10:18.757Z</time></trkpt><trkpt lat="45.4564917" lon="11.008895"><ele>171.0</ele><time>2026-05-03T12:10:19.761Z</time></trkpt><trkpt lat="45.45668" lon="11.0088867"><ele>171.0</ele><time>2026-05-03T12:10:20.756Z</time></trkpt><trkpt lat="45.4568767" lon="11.00886"><ele>171.0</ele><time>2026-05-03T12:10:21.756Z</time></trkpt><trkpt lat="45.4570783" lon="11.00883"><ele>171.0</ele><time>2026-05-03T12:10:22.763Z</time></trkpt><trkpt lat="45.4572867" lon="11.0087983"><ele>171.33333333333334</ele><time>2026-05-03T12:10:23.754Z</time></trkpt><trkpt lat="45.457495" lon="11.008755"><ele>171.66666666666669</ele><time>2026-05-03T12:10:24.757Z</time></trkpt><trkpt lat="45.4577033" lon="11.0086817"><ele>172.0</ele><time>2026-05-03T12:10:25.755Z</time></trkpt><trkpt lat="45.4579017" lon="11.0085617"><ele>173.0</ele><time>2026-05-03T12:10:26.755Z</time></trkpt><trkpt lat="45.45809" lon="11.0084083"><ele>174.0</ele><time>2026-05-03T12:10:27.755Z</time></trkpt><trkpt lat="45.4582717" lon="11.0082367"><ele>175.0</ele><time>2026-05-03T12:10:28.754Z</time></trkpt><trkpt lat="45.45846" lon="11.008055"><ele>175.0</ele><time>2026-05-03T12:10:29.758Z</time></trkpt><trkpt lat="45.4586433" lon="11.007875"><ele>175.0</ele><time>2026-05-03T12:10:30.761Z</time></trkpt><trkpt lat="45.458815" lon="11.0077"><ele>175.0</ele><time>2026-05-03T12:10:31.759Z</time></trkpt><trkpt lat="45.45896" lon="11.0075267"><ele>176.66666666666669</ele><time>2026-05-03T12:10:32.756Z</time></trkpt><trkpt lat="45.459085" lon="11.007355"><ele>178.33333333333334</ele><time>2026-05-03T12:10:33.756Z</time></trkpt><trkpt lat="45.4591933" lon="11.0072033"><ele>180.0</ele><time>2026-05-03T12:10:34.76Z</time></trkpt><trkpt lat="45.4593" lon="11.007085"><ele>180.0</ele><time>2026-05-03T12:10:35.76Z</time></trkpt><trkpt lat="45.45942" lon="11.0070133"><ele>180.0</ele><time>2026-05-03T12:10:36.755Z</time></trkpt><trkpt lat="45.4595517" lon="11.0070017"><ele>180.0</ele><time>2026-05-03T12:10:37.755Z</time></trkpt><trkpt lat="45.4596833" lon="11.0070633"><ele>180.0</ele><time>2026-05-03T12:10:38.755Z</time></trkpt><trkpt lat="45.4598217" lon="11.0071583"><ele>184.66666666666669</ele><time>2026-05-03T12:10:39.754Z</time></trkpt><trkpt lat="45.459975" lon="11.0072483"><ele>189.33333333333334</ele><time>2026-05-03T12:10:40.759Z</time></trkpt><trkpt lat="45.46015" lon="11.0073083"><ele>194.0</ele><time>2026-05-03T12:10:41.755Z</time></trkpt><trkpt lat="45.4603333" lon="11.00735"><ele>200.33333333333334</ele><time>2026-05-03T12:10:42.753Z</time></trkpt><trkpt lat="45.4605233" lon="11.00738"><ele>206.66666666666669</ele><time>2026-05-03T12:10:43.761Z</time></trkpt><trkpt lat="45.4607183" lon="11.0073917"><ele>213.0</ele><time>2026-05-03T12:10:44.759Z</time></trkpt><trkpt lat="45.460915" lon="11.007385"><ele>213.0</ele><time>2026-05-03T12:10:45.762Z</time></trkpt><trkpt lat="45.4611" lon="11.007365"><ele>213.0</ele><time>2026-05-03T12:10:46.756Z</time></trkpt><trkpt lat="45.4612733" lon="11.007345"><ele>213.0</ele><time>2026-05-03T12:10:47.76Z</time></trkpt><trkpt lat="45.4614333" lon="11.0073233"><ele>214.75</ele><time>2026-05-03T12:10:48.762Z</time></trkpt><trkpt lat="45.4615783" lon="11.0073017"><ele>216.5</ele><time>2026-05-03T12:10:49.757Z</time></trkpt><trkpt lat="45.4617083" lon="11.0072783"><ele>218.25</ele><time>2026-05-03T12:10:50.754Z</time></trkpt><trkpt lat="45.4618367" lon="11.00725"><ele>220.0</ele><time>2026-05-03T12:10:51.759Z</time></trkpt><trkpt lat="45.4619717" lon="11.00721"><ele>220.0</ele><time>2026-05-03T12:10:52.77Z</time></trkpt><trkpt lat="45.4621033" lon="11.00718"><ele>220.0</ele><time>2026-05-03T12:10:53.759Z</time></trkpt><trkpt lat="45.4622333" lon="11.0071533"><ele>220.0</ele><time>2026-05-03T12:10:54.757Z</time></trkpt><trkpt lat="45.46238" lon="11.0071267"><ele>220.0</ele><time>2026-05-03T12:10:55.752Z</time></trkpt><trkpt lat="45.46254" lon="11.0071083"><ele>220.33333333333331</ele><time>2026-05-03T12:10:56.764Z</time></trkpt><trkpt lat="45.4627183" lon="11.0071117"><ele>220.66666666666669</ele><time>2026-05-03T12:10:57.759Z</time></trkpt><trkpt lat="45.4629083" lon="11.007115"><ele>221.0</ele><time>2026-05-03T12:10:58.763Z</time></trkpt><trkpt lat="45.463105" lon="11.0071233"><ele>222.0</ele><time>2026-05-03T12:10:59.76Z</time></trkpt><trkpt lat="45.46331" lon="11.0071283"><ele>223.0</ele><time>2026-05-03T12:11:00.761Z</time></trkpt><trkpt lat="45.46352" lon="11.0071367"><ele>224.0</ele><time>2026-05-03T12:11:01.761Z</time></trkpt><trkpt lat="45.4637333" lon="11.0071467"><ele>225.66666666666669</ele><time>2026-05-03T12:11:02.763Z</time></trkpt><trkpt lat="45.4639517" lon="11.0071583"><ele>227.33333333333331</ele><time>2026-05-03T12:11:03.76Z</time></trkpt><trkpt lat="45.464175" lon="11.0071717"><ele>229.0</ele><time>2026-05-03T12:11:04.761Z</time></trkpt><trkpt lat="45.464405" lon="11.0071833"><ele>230.0</ele><time>2026-05-03T12:11:05.76Z</time></trkpt><trkpt lat="45.4646433" lon="11.0071967"><ele>231.0</ele><time>2026-05-03T12:11:06.758Z</time></trkpt><trkpt lat="45.464885" lon="11.007215"><ele>231.0</ele><time>2026-05-03T12:11:07.759Z</time></trkpt><trkpt lat="45.4651217" lon="11.007235"><ele>231.0</ele><time>2026-05-03T12:11:08.754Z</time></trkpt><trkpt lat="45.4653483" lon="11.007255"><ele>234.0</ele><time>2026-05-03T12:11:09.757Z</time></trkpt><trkpt lat="45.46557" lon="11.007265"><ele>237.0</ele><time>2026-05-03T12:11:10.758Z</time></trkpt><trkpt lat="45.46579" lon="11.0072567"><ele>240.0</ele><time>2026-05-03T12:11:11.764Z</time></trkpt><trkpt lat="45.46601" lon="11.00723"><ele>240.0</ele><time>2026-05-03T12:11:12.76Z</time></trkpt><trkpt lat="45.4662283" lon="11.00722"><ele>240.0</ele><time>2026-05-03T12:11:13.762Z</time></trkpt><trkpt lat="45.4664433" lon="11.0072533"><ele>240.0</ele><time>2026-05-03T12:11:14.76Z</time></trkpt><trkpt lat="45.4666617" lon="11.0073117"><ele>242.33333333333331</ele><time>2026-05-03T12:11:15.757Z</time></trkpt><trkpt lat="45.4668783" lon="11.0073767"><ele>244.66666666666666</ele><time>2026-05-03T12:11:16.753Z</time></trkpt><trkpt lat="45.4670983" lon="11.007445"><ele>247.0</ele><time>2026-05-03T12:11:17.756Z</time></trkpt><trkpt lat="45.4673167" lon="11.0075017"><ele>248.33333333333331</ele><time>2026-05-03T12:11:18.753Z</time></trkpt><trkpt lat="45.4675267" lon="11.0075533"><ele>249.66666666666669</ele><time>2026-05-03T12:11:19.761Z</time></trkpt><trkpt lat="45.4677217" lon="11.0075967"><ele>251.0</ele><time>2026-05-03T12:11:20.767Z</time></trkpt><trkpt lat="45.4679083" lon="11.0076283"><ele>253.0</ele><time>2026-05-03T12:11:21.76Z</time></trkpt><trkpt lat="45.46809" lon="11.0076433"><ele>255.0</ele><time>2026-05-03T12:11:22.755Z</time></trkpt><trkpt lat="45.4682783" lon="11.0076233"><ele>257.0</ele><time>2026-05-03T12:11:23.757Z</time></trkpt><trkpt lat="45.4684733" lon="11.0075667"><ele>257.0</ele><time>2026-05-03T12:11:24.758Z</time></trkpt><trkpt lat="45.4686733" lon="11.00751"><ele>257.0</ele><time>2026-05-03T12:11:25.754Z</time></trkpt><trkpt lat="45.4688783" lon="11.0074767"><ele>257.0</ele><time>2026-05-03T12:11:26.761Z</time></trkpt><trkpt lat="45.4690817" lon="11.007475"><ele>258.6666666666667</ele><time>2026-05-03T12:11:27.761Z</time></trkpt><trkpt lat="45.4692733" lon="11.0074883"><ele>260.3333333333333</ele><time>2026-05-03T12:11:28.756Z</time></trkpt><trkpt lat="45.4694533" lon="11.0074817"><ele>262.0</ele><time>2026-05-03T12:11:29.758Z</time></trkpt><trkpt lat="45.4696283" lon="11.0074317"><ele>262.0</ele><time>2026-05-03T12:11:30.754Z</time></trkpt><trkpt lat="45.4697967" lon="11.00733"><ele>262.0</ele><time>2026-05-03T12:11:31.76Z</time></trkpt><trkpt lat="45.469945" lon="11.0072"><ele>262.0</ele><time>2026-05-03T12:11:32.755Z</time></trkpt><trkpt lat="45.4700733" lon="11.007065"><ele>262.0</ele><time>2026-05-03T12:11:33.765Z</time></trkpt><trkpt lat="45.4701867" lon="11.0069483"><ele>262.0</ele><time>2026-05-03T12:11:34.755Z</time></trkpt><trkpt lat="45.4702883" lon="11.0068467"><ele>262.0</ele><time>2026-05-03T12:11:35.762Z</time></trkpt><trkpt lat="45.4703783" lon="11.0067667"><ele>262.0</ele><time>2026-05-03T12:11:36.762Z</time></trkpt><trkpt lat="45.4704667" lon="11.0067183"><ele>263.8</ele><time>2026-05-03T12:11:37.755Z</time></trkpt><trkpt lat="45.4705517" lon="11.0067033"><ele>265.6</ele><time>2026-05-03T12:11:38.758Z</time></trkpt><trkpt lat="45.47064" lon="11.006705"><ele>267.40000000000003</ele><time>2026-05-03T12:11:39.76Z</time></trkpt><trkpt lat="45.470735" lon="11.0067467"><ele>269.2</ele><time>2026-05-03T12:11:40.767Z</time></trkpt><trkpt lat="45.4708233" lon="11.0067767"><ele>271.0</ele><time>2026-05-03T12:11:41.761Z</time></trkpt><trkpt lat="45.4709167" lon="11.0067917"><ele>271.0</ele><time>2026-05-03T12:11:42.765Z</time></trkpt><trkpt lat="45.471" lon="11.006785"><ele>271.0</ele><time>2026-05-03T12:11:43.763Z</time></trkpt><trkpt lat="45.4710583" lon="11.006725"><ele>271.0</ele><time>2026-05-03T12:11:44.764Z</time></trkpt><trkpt lat="45.471045" lon="11.0065417"><ele>271.0</ele><time>2026-05-03T12:11:45.76Z</time></trkpt><trkpt lat="45.4710433" lon="11.0063683"><ele>271.0</ele><time>2026-05-03T12:11:46.76Z</time></trkpt><trkpt lat="45.4710467" lon="11.0062133"><ele>270.6</ele><time>2026-05-03T12:11:47.756Z</time></trkpt><trkpt lat="45.4710783" lon="11.00609"><ele>270.20000000000005</ele><time>2026-05-03T12:11:48.758Z</time></trkpt><trkpt lat="45.4711267" lon="11.00598"><ele>269.79999999999995</ele><time>2026-05-03T12:11:49.764Z</time></trkpt><trkpt lat="45.471215" lon="11.005895"><ele>269.4</ele><time>2026-05-03T12:11:50.76Z</time></trkpt><trkpt lat="45.4713267" lon="11.005835"><ele>269.0</ele><time>2026-05-03T12:11:51.76Z</time></trkpt><trkpt lat="45.47146" lon="11.0057767"><ele>273.33333333333337</ele><time>2026-05-03T12:11:52.758Z</time></trkpt><trkpt lat="45.4716083" lon="11.0057183"><ele>277.6666666666667</ele><time>2026-05-03T12:11:53.757Z</time></trkpt><trkpt lat="45.47177" lon="11.00565"><ele>282.0</ele><time>2026-05-03T12:11:54.759Z</time></trkpt><trkpt lat="45.4719383" lon="11.0055667"><ele>282.0</ele><time>2026-05-03T12:11:55.76Z</time></trkpt><trkpt lat="45.4720933" lon="11.0054867"><ele>282.0</ele><time>2026-05-03T12:11:56.774Z</time></trkpt><trkpt lat="45.47222" lon="11.0054317"><ele>282.0</ele><time>2026-05-03T12:11:57.759Z</time></trkpt><trkpt lat="45.4723233" lon="11.005415"><ele>282.0</ele><time>2026-05-03T12:11:58.759Z</time></trkpt><trkpt lat="45.4724167" lon="11.0054533"><ele>284.75</ele><time>2026-05-03T12:11:59.757Z</time></trkpt><trkpt lat="45.47251" lon="11.0055383"><ele>287.5</ele><time>2026-05-03T12:12:00.761Z</time></trkpt><trkpt lat="45.4726217" lon="11.0056283"><ele>290.25</ele><time>2026-05-03T12:12:01.755Z</time></trkpt><trkpt lat="45.4727517" lon="11.0056983"><ele>293.0</ele><time>2026-05-03T12:12:02.758Z</time></trkpt><trkpt lat="45.4728933" lon="11.0057517"><ele>294.75</ele><time>2026-05-03T12:12:03.762Z</time></trkpt><trkpt lat="45.473045" lon="11.0057833"><ele>296.5</ele><time>2026-05-03T12:12:04.756Z</time></trkpt><trkpt lat="45.4731867" lon="11.0057833"><ele>298.25</ele><time>2026-05-03T12:12:05.755Z</time></trkpt><trkpt lat="45.4733217" lon="11.0057583"><ele>300.0</ele><time>2026-05-03T12:12:06.756Z</time></trkpt><trkpt lat="45.473445" lon="11.0057033"><ele>300.0</ele><time>2026-05-03T12:12:07.759Z</time></trkpt><trkpt lat="45.4735617" lon="11.0056183"><ele>300.0</ele><time>2026-05-03T12:12:08.758Z</time></trkpt><trkpt lat="45.4736767" lon="11.0054883"><ele>300.0</ele><time>2026-05-03T12:12:09.753Z</time></trkpt><trkpt lat="45.473775" lon="11.0053583"><ele>300.0</ele><time>2026-05-03T12:12:10.759Z</time></trkpt><trkpt lat="45.4738667" lon="11.00525"><ele>300.0</ele><time>2026-05-03T12:12:11.757Z</time></trkpt><trkpt lat="45.473945" lon="11.0051617"><ele>300.0</ele><time>2026-05-03T12:12:12.756Z</time></trkpt><trkpt lat="45.4740233" lon="11.00511"><ele>300.0</ele><time>2026-05-03T12:12:13.756Z</time></trkpt><trkpt lat="45.4741067" lon="11.0050983"><ele>300.0</ele><time>2026-05-03T12:12:14.759Z</time></trkpt><trkpt lat="45.4741933" lon="11.0051167"><ele>300.0</ele><time>2026-05-03T12:12:15.763Z</time></trkpt><trkpt lat="45.474295" lon="11.005155"><ele>300.0</ele><time>2026-05-03T12:12:16.758Z</time></trkpt><trkpt lat="45.4744617" lon="11.0052633"><ele>300.0</ele><time>2026-05-03T12:12:17.76Z</time></trkpt><trkpt lat="45.4746333" lon="11.0053533"><ele>300.0</ele><time>2026-05-03T12:12:18.757Z</time></trkpt><trkpt lat="45.4748183" lon="11.0054517"><ele>299.3333333333333</ele><time>2026-05-03T12:12:19.757Z</time></trkpt><trkpt lat="45.4750017" lon="11.005575"><ele>298.66666666666663</ele><time>2026-05-03T12:12:20.76Z</time></trkpt><trkpt lat="45.4751833" lon="11.0057083"><ele>298.0</ele><time>2026-05-03T12:12:21.756Z</time></trkpt><trkpt lat="45.4753733" lon="11.0058617"><ele>299.66666666666663</ele><time>2026-05-03T12:12:22.758Z</time></trkpt><trkpt lat="45.4755683" lon="11.0060233"><ele>301.3333333333333</ele><time>2026-05-03T12:12:23.759Z</time></trkpt><trkpt lat="45.475755" lon="11.0061733"><ele>303.0</ele><time>2026-05-03T12:12:24.761Z</time></trkpt><trkpt lat="45.47593" lon="11.00631"><ele>303.0</ele><time>2026-05-03T12:12:25.759Z</time></trkpt><trkpt lat="45.4760933" lon="11.0064433"><ele>303.0</ele><time>2026-05-03T12:12:26.76Z</time></trkpt><trkpt lat="45.47625" lon="11.0065717"><ele>303.0</ele><time>2026-05-03T12:12:27.763Z</time></trkpt><trkpt lat="45.4764017" lon="11.0066917"><ele>304.75</ele><time>2026-05-03T12:12:28.767Z</time></trkpt><trkpt lat="45.4765467" lon="11.006785"><ele>306.5</ele><time>2026-05-03T12:12:29.762Z</time></trkpt><trkpt lat="45.4766783" lon="11.006855"><ele>308.25</ele><time>2026-05-03T12:12:30.762Z</time></trkpt><trkpt lat="45.4768" lon="11.0069183"><ele>310.0</ele><time>2026-05-03T12:12:31.76Z</time></trkpt><trkpt lat="45.47692" lon="11.0069867"><ele>310.0</ele><time>2026-05-03T12:12:32.758Z</time></trkpt><trkpt lat="45.477025" lon="11.00706"><ele>310.0</ele><time>2026-05-03T12:12:33.768Z</time></trkpt><trkpt lat="45.4771133" lon="11.0071333"><ele>310.0</ele><time>2026-05-03T12:12:34.757Z</time></trkpt><trkpt lat="45.47721" lon="11.0072317"><ele>310.0</ele><time>2026-05-03T12:12:35.759Z</time></trkpt><trkpt lat="45.4773133" lon="11.0073517"><ele>310.3333333333333</ele><time>2026-05-03T12:12:36.758Z</time></trkpt><trkpt lat="45.4774367" lon="11.0075067"><ele>310.6666666666667</ele><time>2026-05-03T12:12:37.761Z</time></trkpt><trkpt lat="45.4775467" lon="11.0076667"><ele>311.0</ele><time>2026-05-03T12:12:38.763Z</time></trkpt><trkpt lat="45.4776483" lon="11.007815"><ele>311.0</ele><time>2026-05-03T12:12:39.758Z</time></trkpt><trkpt lat="45.477745" lon="11.007945"><ele>311.0</ele><time>2026-05-03T12:12:40.756Z</time></trkpt><trkpt lat="45.4778467" lon="11.0080633"><ele>311.0</ele><time>2026-05-03T12:12:41.755Z</time></trkpt><trkpt lat="45.4779633" lon="11.0081733"><ele>311.0</ele><time>2026-05-03T12:12:42.757Z</time></trkpt><trkpt lat="45.4781" lon="11.0082683"><ele>309.33333333333337</ele><time>2026-05-03T12:12:43.761Z</time></trkpt><trkpt lat="45.478255" lon="11.0083467"><ele>307.6666666666667</ele><time>2026-05-03T12:12:44.755Z</time></trkpt><trkpt lat="45.4784133" lon="11.00841"><ele>306.0</ele><time>2026-05-03T12:12:45.755Z</time></trkpt><trkpt lat="45.478565" lon="11.008465"><ele>306.0</ele><time>2026-05-03T12:12:46.757Z</time></trkpt><trkpt lat="45.478705" lon="11.008505"><ele>306.0</ele><time>2026-05-03T12:12:47.753Z</time></trkpt><trkpt lat="45.4788383" lon="11.008535"><ele>306.0</ele><time>2026-05-03T12:12:48.755Z</time></trkpt><trkpt lat="45.4789683" lon="11.008535"><ele>306.0</ele><time>2026-05-03T12:12:49.758Z</time></trkpt><trkpt lat="45.479095" lon="11.0084933"><ele>305.75</ele><time>2026-05-03T12:12:50.756Z</time></trkpt><trkpt lat="45.4792217" lon="11.0084383"><ele>305.5</ele><time>2026-05-03T12:12:51.755Z</time></trkpt><trkpt lat="45.4793433" lon="11.0083767"><ele>305.25</ele><time>2026-05-03T12:12:52.755Z</time></trkpt><trkpt lat="45.47946" lon="11.00831"><ele>305.0</ele><time>2026-05-03T12:12:53.755Z</time></trkpt><trkpt lat="45.4795817" lon="11.00824"><ele>304.5</ele><time>2026-05-03T12:12:54.767Z</time></trkpt><trkpt lat="45.479715" lon="11.008165"><ele>304.0</ele><time>2026-05-03T12:12:55.759Z</time></trkpt><trkpt lat="45.4798483" lon="11.00808"><ele>303.5</ele><time>2026-05-03T12:12:56.764Z</time></trkpt><trkpt lat="45.4799633" lon="11.007995"><ele>303.0</ele><time>2026-05-03T12:12:57.754Z</time></trkpt><trkpt lat="45.48006" lon="11.00789"><ele>303.0</ele><time>2026-05-03T12:12:58.751Z</time></trkpt><trkpt lat="45.4801483" lon="11.0077583"><ele>303.0</ele><time>2026-05-03T12:12:59.758Z</time></trkpt><trkpt lat="45.480225" lon="11.00762"><ele>303.0</ele><time>2026-05-03T12:13:00.763Z</time></trkpt><trkpt lat="45.4803083" lon="11.0075017"><ele>303.0</ele><time>2026-05-03T12:13:01.755Z</time></trkpt><trkpt lat="45.4804" lon="11.0074217"><ele>300.0</ele><time>2026-05-03T12:13:02.753Z</time></trkpt><trkpt lat="45.4804917" lon="11.0073767"><ele>297.0</ele><time>2026-05-03T12:13:03.76Z</time></trkpt><trkpt lat="45.4805917" lon="11.0073867"><ele>294.0</ele><time>2026-05-03T12:13:04.759Z</time></trkpt><trkpt lat="45.4807233" lon="11.0074217"><ele>291.0</ele><time>2026-05-03T12:13:05.763Z</time></trkpt><trkpt lat="45.4808683" lon="11.00745"><ele>291.0</ele><time>2026-05-03T12:13:06.754Z</time></trkpt><trkpt lat="45.4810217" lon="11.0074683"><ele>291.0</ele><time>2026-05-03T12:13:07.759Z</time></trkpt><trkpt lat="45.4811833" lon="11.0074883"><ele>291.0</ele><time>2026-05-03T12:13:08.767Z</time></trkpt><trkpt lat="45.4813483" lon="11.0075233"><ele>292.3333333333333</ele><time>2026-05-03T12:13:09.759Z</time></trkpt><trkpt lat="45.4815033" lon="11.0075717"><ele>293.66666666666663</ele><time>2026-05-03T12:13:10.764Z</time></trkpt><trkpt lat="45.4816467" lon="11.0076233"><ele>295.0</ele><time>2026-05-03T12:13:11.758Z</time></trkpt><trkpt lat="45.48179" lon="11.00766"><ele>295.0</ele><time>2026-05-03T12:13:12.757Z</time></trkpt><trkpt lat="45.4819317" lon="11.007665"><ele>295.0</ele><time>2026-05-03T12:13:13.757Z</time></trkpt><trkpt lat="45.4820667" lon="11.0076517"><ele>295.0</ele><time>2026-05-03T12:13:14.759Z</time></trkpt><trkpt lat="45.48219" lon="11.00763"><ele>295.0</ele><time>2026-05-03T12:13:15.768Z</time></trkpt><trkpt lat="45.482305" lon="11.0076"><ele>294.8</ele><time>2026-05-03T12:13:16.754Z</time></trkpt><trkpt lat="45.4824167" lon="11.0075567"><ele>294.6</ele><time>2026-05-03T12:13:17.755Z</time></trkpt><trkpt lat="45.482525" lon="11.0075267"><ele>294.4</ele><time>2026-05-03T12:13:18.754Z</time></trkpt><trkpt lat="45.48263" lon="11.0075067"><ele>294.2</ele><time>2026-05-03T12:13:19.764Z</time></trkpt><trkpt lat="45.4827333" lon="11.0075133"><ele>294.0</ele><time>2026-05-03T12:13:20.767Z</time></trkpt><trkpt lat="45.48285" lon="11.0075467"><ele>294.5</ele><time>2026-05-03T12:13:21.756Z</time></trkpt><trkpt lat="45.4829833" lon="11.0075917"><ele>295.0</ele><time>2026-05-03T12:13:22.755Z</time></trkpt><trkpt lat="45.4831217" lon="11.007635"><ele>295.5</ele><time>2026-05-03T12:13:23.757Z</time></trkpt><trkpt lat="45.48325" lon="11.0076683"><ele>296.0</ele><time>2026-05-03T12:13:24.761Z</time></trkpt><trkpt lat="45.483365" lon="11.0076817"><ele>296.0</ele><time>2026-05-03T12:13:25.761Z</time></trkpt><trkpt lat="45.4834717" lon="11.0076717"><ele>296.0</ele><time>2026-05-03T12:13:26.76Z</time></trkpt><trkpt lat="45.483565" lon="11.0076417"><ele>296.0</ele><time>2026-05-03T12:13:27.76Z</time></trkpt><trkpt lat="45.4836467" lon="11.00759"><ele>296.0</ele><time>2026-05-03T12:13:28.764Z</time></trkpt><trkpt lat="45.48373" lon="11.00753"><ele>296.0</ele><time>2026-05-03T12:13:29.759Z</time></trkpt><trkpt lat="45.4838233" lon="11.007455"><ele>295.0</ele><time>2026-05-03T12:13:30.76Z</time></trkpt><trkpt lat="45.4839317" lon="11.0073667"><ele>294.0</ele><time>2026-05-03T12:13:31.759Z</time></trkpt><trkpt lat="45.4840383" lon="11.00728"><ele>293.0</ele><time>2026-05-03T12:13:32.761Z</time></trkpt><trkpt lat="45.484135" lon="11.0072133"><ele>292.0</ele><time>2026-05-03T12:13:33.757Z</time></trkpt><trkpt lat="45.484215" lon="11.0071567"><ele>291.0</ele><time>2026-05-03T12:13:34.763Z</time></trkpt><trkpt lat="45.48428" lon="11.0071017"><ele>291.0</ele><time>2026-05-03T12:13:35.762Z</time></trkpt><trkpt lat="45.4843433" lon="11.007035"><ele>291.0</ele><time>2026-05-03T12:13:36.768Z</time></trkpt><trkpt lat="45.4843967" lon="11.0069233"><ele>291.0</ele><time>2026-05-03T12:13:37.757Z</time></trkpt><trkpt lat="45.48443" lon="11.0067617"><ele>291.0</ele><time>2026-05-03T12:13:38.761Z</time></trkpt><trkpt lat="45.484465" lon="11.0065683"><ele>291.0</ele><time>2026-05-03T12:13:39.76Z</time></trkpt><trkpt lat="45.4845083" lon="11.0063767"><ele>290.25</ele><time>2026-05-03T12:13:40.755Z</time></trkpt><trkpt lat="45.48455" lon="11.0061917"><ele>289.5</ele><time>2026-05-03T12:13:41.753Z</time></trkpt><trkpt lat="45.4845983" lon="11.00603"><ele>288.75</ele><time>2026-05-03T12:13:42.763Z</time></trkpt><trkpt lat="45.4846533" lon="11.0058783"><ele>288.0</ele><time>2026-05-03T12:13:43.76Z</time></trkpt><trkpt lat="45.484715" lon="11.0057333"><ele>288.0</ele><time>2026-05-03T12:13:44.764Z</time></trkpt><trkpt lat="45.4847833" lon="11.0056033"><ele>288.0</ele><time>2026-05-03T12:13:45.756Z</time></trkpt><trkpt lat="45.48485" lon="11.0054983"><ele>288.0</ele><time>2026-05-03T12:13:46.758Z</time></trkpt><trkpt lat="45.4849067" lon="11.00541"><ele>288.0</ele><time>2026-05-03T12:13:47.761Z</time></trkpt><trkpt lat="45.4849667" lon="11.005345"><ele>288.0</ele><time>2026-05-03T12:13:48.759Z</time></trkpt><trkpt lat="45.4850333" lon="11.0052933"><ele>288.0</ele><time>2026-05-03T12:13:49.753Z</time></trkpt><trkpt lat="45.4851133" lon="11.0052383"><ele>288.0</ele><time>2026-05-03T12:13:50.764Z</time></trkpt><trkpt lat="45.4852167" lon="11.005185"><ele>288.0</ele><time>2026-05-03T12:13:51.755Z</time></trkpt><trkpt lat="45.485355" lon="11.00513"><ele>288.0</ele><time>2026-05-03T12:13:52.756Z</time></trkpt><trkpt lat="45.4854833" lon="11.0050767"><ele>288.0</ele><time>2026-05-03T12:13:53.763Z</time></trkpt><trkpt lat="45.4856083" lon="11.00503"><ele>286.75</ele><time>2026-05-03T12:13:54.763Z</time></trkpt><trkpt lat="45.4857317" lon="11.00498"><ele>285.5</ele><time>2026-05-03T12:13:55.756Z</time></trkpt><trkpt lat="45.4858517" lon="11.004925"><ele>284.25</ele><time>2026-05-03T12:13:56.757Z</time></trkpt><trkpt lat="45.4859717" lon="11.00487"><ele>283.0</ele><time>2026-05-03T12:13:57.76Z</time></trkpt><trkpt lat="45.4860917" lon="11.0048133"><ele>283.0</ele><time>2026-05-03T12:13:58.76Z</time></trkpt><trkpt lat="45.48622" lon="11.004755"><ele>283.0</ele><time>2026-05-03T12:13:59.758Z</time></trkpt><trkpt lat="45.4863417" lon="11.0047033"><ele>283.0</ele><time>2026-05-03T12:14:00.758Z</time></trkpt><trkpt lat="45.4864567" lon="11.004665"><ele>283.0</ele><time>2026-05-03T12:14:01.759Z</time></trkpt><trkpt lat="45.4865517" lon="11.00463"><ele>285.5</ele><time>2026-05-03T12:14:02.76Z</time></trkpt><trkpt lat="45.4866233" lon="11.0045983"><ele>288.0</ele><time>2026-05-03T12:14:03.757Z</time></trkpt><trkpt lat="45.4867217" lon="11.0045783"><ele>290.5</ele><time>2026-05-03T12:14:05.757Z</time></trkpt><trkpt lat="45.4867817" lon="11.0046367"><ele>293.0</ele><time>2026-05-03T12:14:07.756Z</time></trkpt><trkpt lat="45.48683" lon="11.0047833"><ele>295.5</ele><time>2026-05-03T12:14:09.756Z</time></trkpt><trkpt lat="45.4868533" lon="11.00488"><ele>298.0</ele><time>2026-05-03T12:14:10.766Z</time></trkpt><trkpt lat="45.4869317" lon="11.0049917"><ele>298.5</ele><time>2026-05-03T12:14:12.759Z</time></trkpt><trkpt lat="45.48704" lon="11.0051017"><ele>299.0</ele><time>2026-05-03T12:14:20.766Z</time></trkpt><trkpt lat="45.4870867" lon="11.0051683"><ele>299.5</ele><time>2026-05-03T12:14:21.757Z</time></trkpt><trkpt lat="45.4871367" lon="11.005255"><ele>300.0</ele><time>2026-05-03T12:14:22.752Z</time></trkpt><trkpt lat="45.4871683" lon="11.0053467"><ele>300.5</ele><time>2026-05-03T12:14:23.764Z</time></trkpt><trkpt lat="45.4871983" lon="11.0054633"><ele>301.0</ele><time>2026-05-03T12:14:24.754Z</time></trkpt><trkpt lat="45.4872167" lon="11.0055917"><ele>300.8</ele><time>2026-05-03T12:14:25.762Z</time></trkpt><trkpt lat="45.4872333" lon="11.0057333"><ele>300.6</ele><time>2026-05-03T12:14:26.755Z</time></trkpt><trkpt lat="45.4872483" lon="11.00587"><ele>300.4</ele><time>2026-05-03T12:14:27.764Z</time></trkpt><trkpt lat="45.48726" lon="11.0060033"><ele>300.2</ele><time>2026-05-03T12:14:28.759Z</time></trkpt><trkpt lat="45.4872767" lon="11.00613"><ele>300.0</ele><time>2026-05-03T12:14:29.751Z</time></trkpt><trkpt lat="45.4873" lon="11.006255"><ele>300.0</ele><time>2026-05-03T12:14:30.764Z</time></trkpt><trkpt lat="45.4873367" lon="11.0063733"><ele>300.0</ele><time>2026-05-03T12:14:31.759Z</time></trkpt><trkpt lat="45.4873883" lon="11.0064817"><ele>300.0</ele><time>2026-05-03T12:14:32.756Z</time></trkpt><trkpt lat="45.4874467" lon="11.0065767"><ele>300.0</ele><time>2026-05-03T12:14:33.755Z</time></trkpt><trkpt lat="45.4875017" lon="11.006645"><ele>300.0</ele><time>2026-05-03T12:14:34.761Z</time></trkpt><trkpt lat="45.4875867" lon="11.00672"><ele>300.0</ele><time>2026-05-03T12:14:36.758Z</time></trkpt><trkpt lat="45.4876933" lon="11.0068283"><ele>297.0</ele><time>2026-05-03T12:14:52.755Z</time></trkpt><trkpt lat="45.4878317" lon="11.0069283"><ele>294.0</ele><time>2026-05-03T12:14:53.755Z</time></trkpt><trkpt lat="45.4879517" lon="11.0070233"><ele>291.0</ele><time>2026-05-03T12:14:54.758Z</time></trkpt><trkpt lat="45.4880767" lon="11.0071233"><ele>288.0</ele><time>2026-05-03T12:14:55.759Z</time></trkpt><trkpt lat="45.48819" lon="11.00722"><ele>288.0</ele><time>2026-05-03T12:14:56.761Z</time></trkpt><trkpt lat="45.4883083" lon="11.0073283"><ele>288.0</ele><time>2026-05-03T12:14:57.759Z</time></trkpt><trkpt lat="45.488415" lon="11.007435"><ele>288.0</ele><time>2026-05-03T12:14:58.76Z</time></trkpt><trkpt lat="45.4885183" lon="11.00754"><ele>288.0</ele><time>2026-05-03T12:14:59.767Z</time></trkpt><trkpt lat="45.4886233" lon="11.007645"><ele>284.2</ele><time>2026-05-03T12:15:00.758Z</time></trkpt><trkpt lat="45.4887233" lon="11.007735"><ele>280.4</ele><time>2026-05-03T12:15:01.755Z</time></trkpt><trkpt lat="45.488805" lon="11.0078133"><ele>276.59999999999997</ele><time>2026-05-03T12:15:02.759Z</time></trkpt><trkpt lat="45.4888767" lon="11.007875"><ele>272.8</ele><time>2026-05-03T12:15:03.757Z</time></trkpt><trkpt lat="45.4889683" lon="11.0079533"><ele>269.0</ele><time>2026-05-03T12:15:05.754Z</time></trkpt><trkpt lat="45.4889767" lon="11.0080683"><ele>269.0</ele><time>2026-05-03T12:15:08.755Z</time></trkpt><trkpt lat="45.488905" lon="11.0080883"><ele>269.0</ele><time>2026-05-03T12:15:10.76Z</time></trkpt><trkpt lat="45.4888183" lon="11.0081083"><ele>269.0</ele><time>2026-05-03T12:15:12.753Z</time></trkpt><trkpt lat="45.4887683" lon="11.0081733"><ele>269.0</ele><time>2026-05-03T12:15:14.758Z</time></trkpt><trkpt lat="45.48878" lon="11.0082867"><ele>269.0</ele><time>2026-05-03T12:15:16.759Z</time></trkpt><trkpt lat="45.4888483" lon="11.0084517"><ele>269.0</ele><time>2026-05-03T12:15:18.756Z</time></trkpt><trkpt lat="45.4888983" lon="11.0085367"><ele>266.0</ele><time>2026-05-03T12:15:19.758Z</time></trkpt><trkpt lat="45.4889617" lon="11.0086067"><ele>263.0</ele><time>2026-05-03T12:15:20.76Z</time></trkpt><trkpt lat="45.4890233" lon="11.0086683"><ele>260.0</ele><time>2026-05-03T12:15:21.76Z</time></trkpt><trkpt lat="45.4890967" lon="11.008725"><ele>257.0</ele><time>2026-05-03T12:15:22.753Z</time></trkpt><trkpt lat="45.4891617" lon="11.0087817"><ele>254.00000000000003</ele><time>2026-05-03T12:15:23.756Z</time></trkpt><trkpt lat="45.489225" lon="11.00884"><ele>251.0</ele><time>2026-05-03T12:15:24.762Z</time></trkpt><trkpt lat="45.4892917" lon="11.0089033"><ele>251.00000000000003</ele><time>2026-05-03T12:15:25.765Z</time></trkpt><trkpt lat="45.4893583" lon="11.0089683"><ele>251.0</ele><time>2026-05-03T12:15:26.752Z</time></trkpt><trkpt lat="45.4894333" lon="11.009025"><ele>251.0</ele><time>2026-05-03T12:15:27.762Z</time></trkpt><trkpt lat="45.4895117" lon="11.0090683"><ele>251.0</ele><time>2026-05-03T12:15:28.756Z</time></trkpt><trkpt lat="45.4895867" lon="11.0090983"><ele>251.00000000000003</ele><time>2026-05-03T12:15:29.757Z</time></trkpt><trkpt lat="45.4896583" lon="11.0091183"><ele>251.0</ele><time>2026-05-03T12:15:30.762Z</time></trkpt><trkpt lat="45.4897283" lon="11.0091417"><ele>250.57142857142856</ele><time>2026-05-03T12:15:31.758Z</time></trkpt><trkpt lat="45.4898" lon="11.0091617"><ele>250.14285714285714</ele><time>2026-05-03T12:15:32.762Z</time></trkpt><trkpt lat="45.489865" lon="11.0091717"><ele>249.71428571428572</ele><time>2026-05-03T12:15:33.754Z</time></trkpt><trkpt lat="45.489935" lon="11.0091767"><ele>249.28571428571428</ele><time>2026-05-03T12:15:34.755Z</time></trkpt><trkpt lat="45.4900133" lon="11.0091867"><ele>248.8571428571429</ele><time>2026-05-03T12:15:35.765Z</time></trkpt><trkpt lat="45.4900833" lon="11.00919"><ele>248.42857142857144</ele><time>2026-05-03T12:15:36.758Z</time></trkpt><trkpt lat="45.4901533" lon="11.00918"><ele>248.0</ele><time>2026-05-03T12:15:37.759Z</time></trkpt><trkpt lat="45.4902317" lon="11.0091583"><ele>248.0</ele><time>2026-05-03T12:15:38.759Z</time></trkpt><trkpt lat="45.4903033" lon="11.0091283"><ele>248.00000000000003</ele><time>2026-05-03T12:15:39.76Z</time></trkpt><trkpt lat="45.4903667" lon="11.009085"><ele>248.0</ele><time>2026-05-03T12:15:40.759Z</time></trkpt><trkpt lat="45.4904267" lon="11.0090267"><ele>248.0</ele><time>2026-05-03T12:15:41.757Z</time></trkpt><trkpt lat="45.4904783" lon="11.0089583"><ele>248.00000000000003</ele><time>2026-05-03T12:15:42.753Z</time></trkpt><trkpt lat="45.4905233" lon="11.0088833"><ele>248.0</ele><time>2026-05-03T12:15:43.758Z</time></trkpt><trkpt lat="45.4905567" lon="11.008795"><ele>248.0</ele><time>2026-05-03T12:15:44.752Z</time></trkpt><trkpt lat="45.4905883" lon="11.008705"><ele>245.2</ele><time>2026-05-03T12:15:45.756Z</time></trkpt><trkpt lat="45.4906517" lon="11.0085667"><ele>242.4</ele><time>2026-05-03T12:15:47.757Z</time></trkpt><trkpt lat="45.4907283" lon="11.0085083"><ele>239.59999999999997</ele><time>2026-05-03T12:15:49.764Z</time></trkpt><trkpt lat="45.4908167" lon="11.0085333"><ele>236.79999999999998</ele><time>2026-05-03T12:15:51.758Z</time></trkpt><trkpt lat="45.4908733" lon="11.0085817"><ele>234.0</ele><time>2026-05-03T12:15:52.756Z</time></trkpt><trkpt lat="45.4909517" lon="11.0086617"><ele>234.0</ele><time>2026-05-03T12:15:53.754Z</time></trkpt><trkpt lat="45.4910567" lon="11.0087783"><ele>234.0</ele><time>2026-05-03T12:15:54.756Z</time></trkpt><trkpt lat="45.491155" lon="11.008895"><ele>234.0</ele><time>2026-05-03T12:15:55.753Z</time></trkpt><trkpt lat="45.4912383" lon="11.0090033"><ele>234.0</ele><time>2026-05-03T12:15:56.755Z</time></trkpt><trkpt lat="45.4913133" lon="11.009105"><ele>231.5</ele><time>2026-05-03T12:15:57.755Z</time></trkpt><trkpt lat="45.491385" lon="11.009215"><ele>229.0</ele><time>2026-05-03T12:15:58.756Z</time></trkpt><trkpt lat="45.49146" lon="11.009335"><ele>226.5</ele><time>2026-05-03T12:15:59.757Z</time></trkpt><trkpt lat="45.49154" lon="11.0094667"><ele>224.0</ele><time>2026-05-03T12:16:00.753Z</time></trkpt><trkpt lat="45.4916133" lon="11.0095883"><ele>224.0</ele><time>2026-05-03T12:16:01.758Z</time></trkpt><trkpt lat="45.49168" lon="11.0097"><ele>223.99999999999997</ele><time>2026-05-03T12:16:02.757Z</time></trkpt><trkpt lat="45.4917467" lon="11.0098033"><ele>223.99999999999997</ele><time>2026-05-03T12:16:03.758Z</time></trkpt><trkpt lat="45.4918283" lon="11.0099067"><ele>224.0</ele><time>2026-05-03T12:16:04.759Z</time></trkpt><trkpt lat="45.4919267" lon="11.0100133"><ele>224.0</ele><time>2026-05-03T12:16:05.76Z</time></trkpt><trkpt lat="45.4920283" lon="11.0101233"><ele>220.5</ele><time>2026-05-03T12:16:06.755Z</time></trkpt><trkpt lat="45.4921267" lon="11.010245"><ele>217.0</ele><time>2026-05-03T12:16:07.752Z</time></trkpt><trkpt lat="45.49222" lon="11.0103633"><ele>213.5</ele><time>2026-05-03T12:16:08.762Z</time></trkpt><trkpt lat="45.49231" lon="11.01048"><ele>210.0</ele><time>2026-05-03T12:16:09.756Z</time></trkpt><trkpt lat="45.4923967" lon="11.010595"><ele>210.0</ele><time>2026-05-03T12:16:10.763Z</time></trkpt><trkpt lat="45.4924717" lon="11.01071"><ele>210.0</ele><time>2026-05-03T12:16:11.762Z</time></trkpt><trkpt lat="45.492545" lon="11.010815"><ele>210.0</ele><time>2026-05-03T12:16:12.758Z</time></trkpt><trkpt lat="45.4926133" lon="11.0109067"><ele>210.0</ele><time>2026-05-03T12:16:13.752Z</time></trkpt><trkpt lat="45.492685" lon="11.0109817"><ele>210.0</ele><time>2026-05-03T12:16:14.755Z</time></trkpt><trkpt lat="45.4927667" lon="11.0110367"><ele>206.5</ele><time>2026-05-03T12:16:15.761Z</time></trkpt><trkpt lat="45.4928617" lon="11.011085"><ele>203.0</ele><time>2026-05-03T12:16:16.769Z</time></trkpt><trkpt lat="45.4929583" lon="11.011105"><ele>199.5</ele><time>2026-05-03T12:16:17.762Z</time></trkpt><trkpt lat="45.4930517" lon="11.011115"><ele>196.0</ele><time>2026-05-03T12:16:18.759Z</time></trkpt><trkpt lat="45.493125" lon="11.011115"><ele>192.5</ele><time>2026-05-03T12:16:19.76Z</time></trkpt><trkpt lat="45.4932067" lon="11.01112"><ele>189.0</ele><time>2026-05-03T12:16:21.761Z</time></trkpt><trkpt lat="45.4931833" lon="11.0112183"><ele>189.0</ele><time>2026-05-03T12:16:27.753Z</time></trkpt><trkpt lat="45.4931167" lon="11.011265"><ele>189.0</ele><time>2026-05-03T12:16:29.755Z</time></trkpt><trkpt lat="45.4930683" lon="11.011355"><ele>189.0</ele><time>2026-05-03T12:16:31.754Z</time></trkpt><trkpt lat="45.49312" lon="11.0114067"><ele>189.0</ele><time>2026-05-03T12:16:33.76Z</time></trkpt><trkpt lat="45.4932233" lon="11.0114233"><ele>189.0</ele><time>2026-05-03T12:16:35.757Z</time></trkpt><trkpt lat="45.4933133" lon="11.0115517"><ele>189.0</ele><time>2026-05-03T12:16:37.759Z</time></trkpt><trkpt lat="45.493365" lon="11.0116467"><ele>184.0</ele><time>2026-05-03T12:16:38.759Z</time></trkpt><trkpt lat="45.49342" lon="11.011735"><ele>179.0</ele><time>2026-05-03T12:16:39.759Z</time></trkpt><trkpt lat="45.493485" lon="11.0118117"><ele>174.0</ele><time>2026-05-03T12:16:40.755Z</time></trkpt><trkpt lat="45.4935617" lon="11.0118917"><ele>169.0</ele><time>2026-05-03T12:16:41.76Z</time></trkpt><trkpt lat="45.4936533" lon="11.0119833"><ele>164.0</ele><time>2026-05-03T12:16:42.754Z</time></trkpt><trkpt lat="45.4937533" lon="11.0121117"><ele>161.5</ele><time>2026-05-03T12:16:43.756Z</time></trkpt><trkpt lat="45.49385" lon="11.012255"><ele>159.0</ele><time>2026-05-03T12:16:44.76Z</time></trkpt><trkpt lat="45.4939467" lon="11.0123967"><ele>156.5</ele><time>2026-05-03T12:16:45.755Z</time></trkpt><trkpt lat="45.49405" lon="11.0125333"><ele>154.0</ele><time>2026-05-03T12:16:46.752Z</time></trkpt><trkpt lat="45.4941483" lon="11.0126633"><ele>154.0</ele><time>2026-05-03T12:16:47.759Z</time></trkpt><trkpt lat="45.494245" lon="11.01279"><ele>154.0</ele><time>2026-05-03T12:16:48.758Z</time></trkpt><trkpt lat="45.4943333" lon="11.0129083"><ele>154.0</ele><time>2026-05-03T12:16:49.761Z</time></trkpt><trkpt lat="45.494415" lon="11.0130317"><ele>154.0</ele><time>2026-05-03T12:16:50.759Z</time></trkpt><trkpt lat="45.4944883" lon="11.013165"><ele>154.0</ele><time>2026-05-03T12:16:51.76Z</time></trkpt><trkpt lat="45.494555" lon="11.0132983"><ele>154.0</ele><time>2026-05-03T12:16:52.756Z</time></trkpt><trkpt lat="45.4946083" lon="11.0134117"><ele>154.0</ele><time>2026-05-03T12:16:53.755Z</time></trkpt><trkpt lat="45.4946483" lon="11.013505"><ele>154.0</ele><time>2026-05-03T12:16:54.757Z</time></trkpt><trkpt lat="45.4946717" lon="11.0136283"><ele>154.0</ele><time>2026-05-03T12:16:56.758Z</time></trkpt><trkpt lat="45.4946683" lon="11.0138067"><ele>151.25</ele><time>2026-05-03T12:16:59.757Z</time></trkpt><trkpt lat="45.4946717" lon="11.0139333"><ele>148.5</ele><time>2026-05-03T12:17:00.757Z</time></trkpt><trkpt lat="45.494665" lon="11.01409"><ele>145.75</ele><time>2026-05-03T12:17:01.762Z</time></trkpt><trkpt lat="45.4946683" lon="11.01431"><ele>143.0</ele><time>2026-05-03T12:17:02.762Z</time></trkpt><trkpt lat="45.4946683" lon="11.014545"><ele>138.66666666666666</ele><time>2026-05-03T12:17:03.756Z</time></trkpt><trkpt lat="45.4946617" lon="11.014785"><ele>134.33333333333334</ele><time>2026-05-03T12:17:04.754Z</time></trkpt><trkpt lat="45.4946583" lon="11.0150233"><ele>130.0</ele><time>2026-05-03T12:17:05.762Z</time></trkpt><trkpt lat="45.4946633" lon="11.01525"><ele>128.0</ele><time>2026-05-03T12:17:06.761Z</time></trkpt><trkpt lat="45.4946667" lon="11.01546"><ele>126.0</ele><time>2026-05-03T12:17:07.754Z</time></trkpt><trkpt lat="45.4946733" lon="11.0156433"><ele>124.0</ele><time>2026-05-03T12:17:08.753Z</time></trkpt><trkpt lat="45.49468" lon="11.0158033"><ele>122.0</ele><time>2026-05-03T12:17:09.754Z</time></trkpt><trkpt lat="45.494685" lon="11.0159433"><ele>120.99999999999999</ele><time>2026-05-03T12:17:10.76Z</time></trkpt><trkpt lat="45.4946917" lon="11.01607"><ele>120.0</ele><time>2026-05-03T12:17:11.753Z</time></trkpt><trkpt lat="45.4947017" lon="11.01618"><ele>119.0</ele><time>2026-05-03T12:17:12.762Z</time></trkpt><trkpt lat="45.494705" lon="11.01627"><ele>118.0</ele><time>2026-05-03T12:17:13.762Z</time></trkpt><trkpt lat="45.4947033" lon="11.0163917"><ele>116.99999999999999</ele><time>2026-05-03T12:17:15.762Z</time></trkpt><trkpt lat="45.494725" lon="11.0162617"><ele>116.0</ele><time>2026-05-03T12:17:20.759Z</time></trkpt><trkpt lat="45.4947167" lon="11.0161483"><ele>116.0</ele><time>2026-05-03T12:17:21.759Z</time></trkpt><trkpt lat="45.4947067" lon="11.015995"><ele>116.0</ele><time>2026-05-03T12:17:22.76Z</time></trkpt><trkpt lat="45.4947083" lon="11.0158"><ele>116.0</ele><time>2026-05-03T12:17:23.757Z</time></trkpt><trkpt lat="45.4947033" lon="11.0156017"><ele>116.0</ele><time>2026-05-03T12:17:24.759Z</time></trkpt><trkpt lat="45.494695" lon="11.0153967"><ele>118.0</ele><time>2026-05-03T12:17:25.766Z</time></trkpt><trkpt lat="45.4946883" lon="11.0151683"><ele>120.0</ele><time>2026-05-03T12:17:26.759Z</time></trkpt><trkpt lat="45.4946817" lon="11.0149517"><ele>122.0</ele><time>2026-05-03T12:17:27.757Z</time></trkpt><trkpt lat="45.4946767" lon="11.0147433"><ele>124.0</ele><time>2026-05-03T12:17:28.758Z</time></trkpt><trkpt lat="45.4946717" lon="11.0145417"><ele>126.0</ele><time>2026-05-03T12:17:29.76Z</time></trkpt><trkpt lat="45.4946683" lon="11.01436"><ele>128.0</ele><time>2026-05-03T12:17:30.766Z</time></trkpt><trkpt lat="45.49467" lon="11.0142"><ele>130.0</ele><time>2026-05-03T12:17:31.764Z</time></trkpt><trkpt lat="45.494665" lon="11.014065"><ele>132.6</ele><time>2026-05-03T12:17:32.757Z</time></trkpt><trkpt lat="45.4946667" lon="11.0139567"><ele>135.2</ele><time>2026-05-03T12:17:33.757Z</time></trkpt><trkpt lat="45.494705" lon="11.01383"><ele>137.8</ele><time>2026-05-03T12:17:35.755Z</time></trkpt><trkpt lat="45.4948" lon="11.0138267"><ele>140.4</ele><time>2026-05-03T12:17:37.76Z</time></trkpt><trkpt lat="45.4948617" lon="11.013905"><ele>143.0</ele><time>2026-05-03T12:17:38.754Z</time></trkpt><trkpt lat="45.4949317" lon="11.0140083"><ele>143.0</ele><time>2026-05-03T12:17:39.756Z</time></trkpt><trkpt lat="45.4950167" lon="11.0141033"><ele>143.0</ele><time>2026-05-03T12:17:40.754Z</time></trkpt><trkpt lat="45.495115" lon="11.014165"><ele>143.0</ele><time>2026-05-03T12:17:41.76Z</time></trkpt><trkpt lat="45.49523" lon="11.0142017"><ele>143.0</ele><time>2026-05-03T12:17:42.758Z</time></trkpt><trkpt lat="45.4953483" lon="11.0142183"><ele>141.20000000000002</ele><time>2026-05-03T12:17:43.76Z</time></trkpt><trkpt lat="45.4954567" lon="11.014225"><ele>139.4</ele><time>2026-05-03T12:17:44.765Z</time></trkpt><trkpt lat="45.495545" lon="11.0142333"><ele>137.60000000000002</ele><time>2026-05-03T12:17:45.758Z</time></trkpt><trkpt lat="45.49561" lon="11.014235"><ele>135.8</ele><time>2026-05-03T12:17:46.758Z</time></trkpt><trkpt lat="45.4957117" lon="11.0142583"><ele>134.0</ele><time>2026-05-03T12:17:48.755Z</time></trkpt><trkpt lat="45.49578" lon="11.0143583"><ele>134.0</ele><time>2026-05-03T12:17:50.756Z</time></trkpt><trkpt lat="45.4957783" lon="11.0145217"><ele>134.0</ele><time>2026-05-03T12:17:52.759Z</time></trkpt><trkpt lat="45.4958183" lon="11.01464"><ele>134.0</ele><time>2026-05-03T12:17:54.762Z</time></trkpt><trkpt lat="45.4959117" lon="11.01465"><ele>134.0</ele><time>2026-05-03T12:17:55.76Z</time></trkpt><trkpt lat="45.496015" lon="11.0146617"><ele>134.0</ele><time>2026-05-03T12:17:56.756Z</time></trkpt><trkpt lat="45.496145" lon="11.0146583"><ele>134.5</ele><time>2026-05-03T12:17:57.758Z</time></trkpt><trkpt lat="45.496275" lon="11.0146617"><ele>135.0</ele><time>2026-05-03T12:17:58.755Z</time></trkpt><trkpt lat="45.4964" lon="11.0146717"><ele>135.5</ele><time>2026-05-03T12:17:59.759Z</time></trkpt><trkpt lat="45.4965233" lon="11.0146867"><ele>136.0</ele><time>2026-05-03T12:18:00.765Z</time></trkpt><trkpt lat="45.4966433" lon="11.0147133"><ele>136.0</ele><time>2026-05-03T12:18:01.766Z</time></trkpt><trkpt lat="45.4967517" lon="11.0147367"><ele>136.0</ele><time>2026-05-03T12:18:02.763Z</time></trkpt><trkpt lat="45.496845" lon="11.0147733"><ele>136.0</ele><time>2026-05-03T12:18:03.761Z</time></trkpt><trkpt lat="45.4969267" lon="11.0148217"><ele>136.0</ele><time>2026-05-03T12:18:04.753Z</time></trkpt><trkpt lat="45.497" lon="11.0148867"><ele>136.0</ele><time>2026-05-03T12:18:05.752Z</time></trkpt><trkpt lat="45.497065" lon="11.01495"><ele>134.2</ele><time>2026-05-03T12:18:06.76Z</time></trkpt><trkpt lat="45.49712" lon="11.0150017"><ele>132.39999999999998</ele><time>2026-05-03T12:18:07.762Z</time></trkpt><trkpt lat="45.4972333" lon="11.0150767"><ele>130.6</ele><time>2026-05-03T12:18:09.755Z</time></trkpt><trkpt lat="45.4973033" lon="11.01508"><ele>128.79999999999998</ele><time>2026-05-03T12:18:10.757Z</time></trkpt><trkpt lat="45.49739" lon="11.0150667"><ele>127.0</ele><time>2026-05-03T12:18:11.755Z</time></trkpt><trkpt lat="45.4975" lon="11.0150517"><ele>127.0</ele><time>2026-05-03T12:18:12.753Z</time></trkpt><trkpt lat="45.497635" lon="11.0150417"><ele>127.0</ele><time>2026-05-03T12:18:13.756Z</time></trkpt><trkpt lat="45.4977617" lon="11.0150333"><ele>127.0</ele><time>2026-05-03T12:18:14.758Z</time></trkpt><trkpt lat="45.49788" lon="11.015025"><ele>127.0</ele><time>2026-05-03T12:18:15.756Z</time></trkpt><trkpt lat="45.4979867" lon="11.0150183"><ele>127.0</ele><time>2026-05-03T12:18:16.755Z</time></trkpt><trkpt lat="45.49808" lon="11.0150117"><ele>126.99999999999999</ele><time>2026-05-03T12:18:17.752Z</time></trkpt><trkpt lat="45.4981583" lon="11.0150017"><ele>126.99999999999999</ele><time>2026-05-03T12:18:18.756Z</time></trkpt><trkpt lat="45.4982533" lon="11.0149933"><ele>127.0</ele><time>2026-05-03T12:18:20.763Z</time></trkpt><trkpt lat="45.49835" lon="11.015065"><ele>127.0</ele><time>2026-05-03T12:18:22.761Z</time></trkpt><trkpt lat="45.498415" lon="11.0151167"><ele>127.0</ele><time>2026-05-03T12:18:23.756Z</time></trkpt><trkpt lat="45.4984933" lon="11.0151567"><ele>126.99999999999999</ele><time>2026-05-03T12:18:24.759Z</time></trkpt><trkpt lat="45.4985817" lon="11.0151817"><ele>126.99999999999999</ele><time>2026-05-03T12:18:25.757Z</time></trkpt><trkpt lat="45.4986933" lon="11.015185"><ele>127.0</ele><time>2026-05-03T12:18:26.756Z</time></trkpt><trkpt lat="45.4988" lon="11.01515"><ele>127.0</ele><time>2026-05-03T12:18:27.755Z</time></trkpt><trkpt lat="45.4988867" lon="11.0151317"><ele>127.75</ele><time>2026-05-03T12:18:28.761Z</time></trkpt><trkpt lat="45.4989917" lon="11.01516"><ele>128.5</ele><time>2026-05-03T12:18:30.756Z</time></trkpt><trkpt lat="45.49904" lon="11.01535"><ele>129.25</ele><time>2026-05-03T12:18:32.76Z</time></trkpt><trkpt lat="45.4990517" lon="11.0154967"><ele>130.0</ele><time>2026-05-03T12:18:33.759Z</time></trkpt><trkpt lat="45.4990717" lon="11.015665"><ele>129.5</ele><time>2026-05-03T12:18:34.763Z</time></trkpt><trkpt lat="45.4991" lon="11.015835"><ele>129.0</ele><time>2026-05-03T12:18:35.761Z</time></trkpt><trkpt lat="45.49913" lon="11.016005"><ele>128.5</ele><time>2026-05-03T12:18:36.757Z</time></trkpt><trkpt lat="45.4991583" lon="11.0161717"><ele>128.0</ele><time>2026-05-03T12:18:37.757Z</time></trkpt><trkpt lat="45.4991867" lon="11.0163417"><ele>128.0</ele><time>2026-05-03T12:18:38.76Z</time></trkpt><trkpt lat="45.49922" lon="11.0165017"><ele>128.0</ele><time>2026-05-03T12:18:39.759Z</time></trkpt><trkpt lat="45.499245" lon="11.0166467"><ele>128.0</ele><time>2026-05-03T12:18:40.757Z</time></trkpt><trkpt lat="45.49927" lon="11.0167767"><ele>128.0</ele><time>2026-05-03T12:18:41.759Z</time></trkpt><trkpt lat="45.4992883" lon="11.0168917"><ele>128.0</ele><time>2026-05-03T12:18:42.756Z</time></trkpt><trkpt lat="45.4993067" lon="11.0170083"><ele>127.99999999999999</ele><time>2026-05-03T12:18:43.755Z</time></trkpt><trkpt lat="45.4993167" lon="11.0171217"><ele>128.0</ele><time>2026-05-03T12:18:44.755Z</time></trkpt><trkpt lat="45.499325" lon="11.0172167"><ele>128.0</ele><time>2026-05-03T12:18:45.76Z</time></trkpt><trkpt lat="45.4993317" lon="11.01735"><ele>128.0</ele><time>2026-05-03T12:18:47.753Z</time></trkpt><trkpt lat="45.49942" lon="11.0174217"><ele>127.99999999999999</ele><time>2026-05-03T12:18:54.761Z</time></trkpt><trkpt lat="45.4995117" lon="11.0174233"><ele>128.0</ele><time>2026-05-03T12:18:55.757Z</time></trkpt><trkpt lat="45.4996767" lon="11.017395"><ele>128.0</ele><time>2026-05-03T12:18:56.762Z</time></trkpt><trkpt lat="45.499835" lon="11.01735"><ele>128.0</ele><time>2026-05-03T12:18:57.759Z</time></trkpt><trkpt lat="45.4999983" lon="11.0172967"><ele>128.0</ele><time>2026-05-03T12:18:58.758Z</time></trkpt><trkpt lat="45.50018" lon="11.017245"><ele>128.0</ele><time>2026-05-03T12:18:59.754Z</time></trkpt><trkpt lat="45.5003533" lon="11.017195"><ele>128.0</ele><time>2026-05-03T12:19:00.758Z</time></trkpt><trkpt lat="45.5005233" lon="11.0171583"><ele>128.0</ele><time>2026-05-03T12:19:01.758Z</time></trkpt><trkpt lat="45.500685" lon="11.0171367"><ele>128.66666666666666</ele><time>2026-05-03T12:19:02.764Z</time></trkpt><trkpt lat="45.5008533" lon="11.017135"><ele>129.33333333333334</ele><time>2026-05-03T12:19:03.758Z</time></trkpt><trkpt lat="45.5010233" lon="11.0171417"><ele>130.0</ele><time>2026-05-03T12:19:04.759Z</time></trkpt><trkpt lat="45.5011967" lon="11.0171633"><ele>130.66666666666669</ele><time>2026-05-03T12:19:05.754Z</time></trkpt><trkpt lat="45.5013767" lon="11.01718"><ele>131.33333333333334</ele><time>2026-05-03T12:19:06.759Z</time></trkpt><trkpt lat="45.50156" lon="11.01719"><ele>132.0</ele><time>2026-05-03T12:19:07.754Z</time></trkpt><trkpt lat="45.5017367" lon="11.0171883"><ele>132.0</ele><time>2026-05-03T12:19:08.761Z</time></trkpt><trkpt lat="45.501915" lon="11.0171867"><ele>132.0</ele><time>2026-05-03T12:19:09.752Z</time></trkpt><trkpt lat="45.5020883" lon="11.0171867"><ele>132.0</ele><time>2026-05-03T12:19:10.755Z</time></trkpt><trkpt lat="45.5022633" lon="11.0171833"><ele>132.33333333333334</ele><time>2026-05-03T12:19:11.756Z</time></trkpt><trkpt lat="45.50244" lon="11.0171817"><ele>132.66666666666669</ele><time>2026-05-03T12:19:12.758Z</time></trkpt><trkpt lat="45.5026133" lon="11.017175"><ele>133.0</ele><time>2026-05-03T12:19:13.759Z</time></trkpt><trkpt lat="45.5027833" lon="11.0171667"><ele>133.33333333333334</ele><time>2026-05-03T12:19:14.755Z</time></trkpt><trkpt lat="45.5029567" lon="11.01716"><ele>133.66666666666666</ele><time>2026-05-03T12:19:15.758Z</time></trkpt><trkpt lat="45.5031317" lon="11.0171567"><ele>134.0</ele><time>2026-05-03T12:19:16.769Z</time></trkpt><trkpt lat="45.5033033" lon="11.0171517"><ele>134.0</ele><time>2026-05-03T12:19:17.76Z</time></trkpt><trkpt lat="45.50347" lon="11.0171467"><ele>134.0</ele><time>2026-05-03T12:19:18.759Z</time></trkpt><trkpt lat="45.5036233" lon="11.017145"><ele>134.0</ele><time>2026-05-03T12:19:19.762Z</time></trkpt><trkpt lat="45.5037583" lon="11.01714"><ele>134.4</ele><time>2026-05-03T12:19:20.761Z</time></trkpt><trkpt lat="45.5038733" lon="11.0171317"><ele>134.8</ele><time>2026-05-03T12:19:21.759Z</time></trkpt><trkpt lat="45.5039767" lon="11.0171283"><ele>135.2</ele><time>2026-05-03T12:19:22.756Z</time></trkpt><trkpt lat="45.5040817" lon="11.017125"><ele>135.6</ele><time>2026-05-03T12:19:23.756Z</time></trkpt><trkpt lat="45.5042" lon="11.0171167"><ele>136.0</ele><time>2026-05-03T12:19:24.761Z</time></trkpt><trkpt lat="45.5043367" lon="11.017105"><ele>136.0</ele><time>2026-05-03T12:19:25.761Z</time></trkpt><trkpt lat="45.5044883" lon="11.01709"><ele>136.0</ele><time>2026-05-03T12:19:26.753Z</time></trkpt><trkpt lat="45.504655" lon="11.0170617"><ele>136.0</ele><time>2026-05-03T12:19:27.755Z</time></trkpt><trkpt lat="45.5048283" lon="11.017025"><ele>136.0</ele><time>2026-05-03T12:19:28.762Z</time></trkpt><trkpt lat="45.5049967" lon="11.016985"><ele>136.0</ele><time>2026-05-03T12:19:29.759Z</time></trkpt><trkpt lat="45.5051617" lon="11.0169417"><ele>136.0</ele><time>2026-05-03T12:19:30.765Z</time></trkpt><trkpt lat="45.5053383" lon="11.01689"><ele>136.66666666666669</ele><time>2026-05-03T12:19:31.76Z</time></trkpt><trkpt lat="45.5055233" lon="11.0168367"><ele>137.33333333333334</ele><time>2026-05-03T12:19:32.76Z</time></trkpt><trkpt lat="45.50572" lon="11.016805"><ele>138.0</ele><time>2026-05-03T12:19:33.756Z</time></trkpt><trkpt lat="45.5059317" lon="11.01679"><ele>138.0</ele><time>2026-05-03T12:19:34.759Z</time></trkpt><trkpt lat="45.5061517" lon="11.0168"><ele>138.0</ele><time>2026-05-03T12:19:35.761Z</time></trkpt><trkpt lat="45.5063733" lon="11.0168283"><ele>138.0</ele><time>2026-05-03T12:19:36.766Z</time></trkpt><trkpt lat="45.5065933" lon="11.0168617"><ele>138.66666666666666</ele><time>2026-05-03T12:19:37.764Z</time></trkpt><trkpt lat="45.5068033" lon="11.0168933"><ele>139.33333333333331</ele><time>2026-05-03T12:19:38.767Z</time></trkpt><trkpt lat="45.5070067" lon="11.0169217"><ele>140.0</ele><time>2026-05-03T12:19:39.76Z</time></trkpt><trkpt lat="45.5072067" lon="11.016945"><ele>140.66666666666666</ele><time>2026-05-03T12:19:40.764Z</time></trkpt><trkpt lat="45.5074067" lon="11.016965"><ele>141.33333333333334</ele><time>2026-05-03T12:19:41.763Z</time></trkpt><trkpt lat="45.5076017" lon="11.0169767"><ele>142.0</ele><time>2026-05-03T12:19:42.759Z</time></trkpt><trkpt lat="45.5078" lon="11.01698"><ele>142.33333333333334</ele><time>2026-05-03T12:19:43.758Z</time></trkpt><trkpt lat="45.5079917" lon="11.016975"><ele>142.66666666666666</ele><time>2026-05-03T12:19:44.76Z</time></trkpt><trkpt lat="45.5081833" lon="11.0169633"><ele>143.0</ele><time>2026-05-03T12:19:45.757Z</time></trkpt><trkpt lat="45.508385" lon="11.016955"><ele>143.0</ele><time>2026-05-03T12:19:46.763Z</time></trkpt><trkpt lat="45.5085883" lon="11.0169433"><ele>143.0</ele><time>2026-05-03T12:19:47.763Z</time></trkpt><trkpt lat="45.508795" lon="11.0169267"><ele>143.0</ele><time>2026-05-03T12:19:48.758Z</time></trkpt><trkpt lat="45.5090033" lon="11.0169067"><ele>143.33333333333331</ele><time>2026-05-03T12:19:49.753Z</time></trkpt><trkpt lat="45.5092133" lon="11.0168883"><ele>143.66666666666666</ele><time>2026-05-03T12:19:50.76Z</time></trkpt><trkpt lat="45.5094267" lon="11.0168683"><ele>144.0</ele><time>2026-05-03T12:19:51.765Z</time></trkpt><trkpt lat="45.50964" lon="11.0168483"><ele>145.0</ele><time>2026-05-03T12:19:52.755Z</time></trkpt><trkpt lat="45.509855" lon="11.01683"><ele>146.0</ele><time>2026-05-03T12:19:53.764Z</time></trkpt><trkpt lat="45.5100717" lon="11.01681"><ele>147.0</ele><time>2026-05-03T12:19:54.759Z</time></trkpt><trkpt lat="45.51029" lon="11.01679"><ele>147.66666666666666</ele><time>2026-05-03T12:19:55.757Z</time></trkpt><trkpt lat="45.5105083" lon="11.0167667"><ele>148.33333333333331</ele><time>2026-05-03T12:19:56.764Z</time></trkpt><trkpt lat="45.5107283" lon="11.01674"><ele>149.0</ele><time>2026-05-03T12:19:57.762Z</time></trkpt><trkpt lat="45.5109433" lon="11.01671"><ele>149.0</ele><time>2026-05-03T12:19:58.758Z</time></trkpt><trkpt lat="45.5111583" lon="11.0166783"><ele>149.0</ele><time>2026-05-03T12:19:59.76Z</time></trkpt><trkpt lat="45.51137" lon="11.0166433"><ele>149.0</ele><time>2026-05-03T12:20:00.769Z</time></trkpt><trkpt lat="45.5115833" lon="11.016605"><ele>150.33333333333331</ele><time>2026-05-03T12:20:01.757Z</time></trkpt><trkpt lat="45.511795" lon="11.0165633"><ele>151.66666666666666</ele><time>2026-05-03T12:20:02.759Z</time></trkpt><trkpt lat="45.512005" lon="11.016515"><ele>153.0</ele><time>2026-05-03T12:20:03.754Z</time></trkpt><trkpt lat="45.512205" lon="11.0164583"><ele>154.0</ele><time>2026-05-03T12:20:04.756Z</time></trkpt><trkpt lat="45.5123967" lon="11.0164067"><ele>155.0</ele><time>2026-05-03T12:20:05.756Z</time></trkpt><trkpt lat="45.5125733" lon="11.0163617"><ele>156.0</ele><time>2026-05-03T12:20:06.764Z</time></trkpt><trkpt lat="45.5127383" lon="11.01632"><ele>156.0</ele><time>2026-05-03T12:20:07.756Z</time></trkpt><trkpt lat="45.5128967" lon="11.0162817"><ele>156.0</ele><time>2026-05-03T12:20:08.759Z</time></trkpt><trkpt lat="45.51306" lon="11.01625"><ele>156.0</ele><time>2026-05-03T12:20:09.768Z</time></trkpt><trkpt lat="45.5132317" lon="11.0162233"><ele>156.66666666666666</ele><time>2026-05-03T12:20:10.759Z</time></trkpt><trkpt lat="45.5134067" lon="11.0161967"><ele>157.33333333333331</ele><time>2026-05-03T12:20:11.76Z</time></trkpt><trkpt lat="45.5135833" lon="11.0161717"><ele>158.0</ele><time>2026-05-03T12:20:12.765Z</time></trkpt><trkpt lat="45.51376" lon="11.0161533"><ele>159.0</ele><time>2026-05-03T12:20:13.753Z</time></trkpt><trkpt lat="45.513935" lon="11.01614"><ele>160.0</ele><time>2026-05-03T12:20:14.755Z</time></trkpt><trkpt lat="45.5141083" lon="11.0161317"><ele>161.0</ele><time>2026-05-03T12:20:15.762Z</time></trkpt><trkpt lat="45.514285" lon="11.01613"><ele>161.0</ele><time>2026-05-03T12:20:16.755Z</time></trkpt><trkpt lat="45.5144617" lon="11.0161333"><ele>161.0</ele><time>2026-05-03T12:20:17.757Z</time></trkpt><trkpt lat="45.5146367" lon="11.0161317"><ele>161.0</ele><time>2026-05-03T12:20:18.757Z</time></trkpt><trkpt lat="45.5148133" lon="11.0161333"><ele>162.66666666666666</ele><time>2026-05-03T12:20:19.769Z</time></trkpt><trkpt lat="45.514985" lon="11.0161367"><ele>164.33333333333334</ele><time>2026-05-03T12:20:20.755Z</time></trkpt><trkpt lat="45.5151483" lon="11.0161433"><ele>166.0</ele><time>2026-05-03T12:20:21.759Z</time></trkpt><trkpt lat="45.5152883" lon="11.016155"><ele>166.4</ele><time>2026-05-03T12:20:22.758Z</time></trkpt><trkpt lat="45.5154067" lon="11.01617"><ele>166.8</ele><time>2026-05-03T12:20:23.754Z</time></trkpt><trkpt lat="45.5155067" lon="11.016185"><ele>167.20000000000002</ele><time>2026-05-03T12:20:24.762Z</time></trkpt><trkpt lat="45.5155967" lon="11.0161983"><ele>167.60000000000002</ele><time>2026-05-03T12:20:25.76Z</time></trkpt><trkpt lat="45.51567" lon="11.0162117"><ele>168.0</ele><time>2026-05-03T12:20:26.757Z</time></trkpt><trkpt lat="45.5157717" lon="11.0162317"><ele>168.0</ele><time>2026-05-03T12:20:28.759Z</time></trkpt><trkpt lat="45.5158517" lon="11.0162333"><ele>168.0</ele><time>2026-05-03T12:21:08.755Z</time></trkpt><trkpt lat="45.5159217" lon="11.016245"><ele>168.0</ele><time>2026-05-03T12:21:09.756Z</time></trkpt><trkpt lat="45.5160283" lon="11.016265"><ele>168.0</ele><time>2026-05-03T12:21:10.756Z</time></trkpt><trkpt lat="45.5161533" lon="11.016275"><ele>168.0</ele><time>2026-05-03T12:21:11.758Z</time></trkpt><trkpt lat="45.51629" lon="11.0162817"><ele>169.0</ele><time>2026-05-03T12:21:12.756Z</time></trkpt><trkpt lat="45.5164267" lon="11.0162917"><ele>170.0</ele><time>2026-05-03T12:21:13.762Z</time></trkpt><trkpt lat="45.5165617" lon="11.0162967"><ele>171.0</ele><time>2026-05-03T12:21:14.765Z</time></trkpt><trkpt lat="45.5166933" lon="11.016305"><ele>172.0</ele><time>2026-05-03T12:21:15.756Z</time></trkpt><trkpt lat="45.5168367" lon="11.0163117"><ele>172.0</ele><time>2026-05-03T12:21:16.759Z</time></trkpt><trkpt lat="45.5169817" lon="11.016315"><ele>172.0</ele><time>2026-05-03T12:21:17.754Z</time></trkpt><trkpt lat="45.5171383" lon="11.0163167"><ele>172.0</ele><time>2026-05-03T12:21:18.759Z</time></trkpt><trkpt lat="45.5173067" lon="11.0163233"><ele>172.0</ele><time>2026-05-03T12:21:19.763Z</time></trkpt><trkpt lat="45.517465" lon="11.0163367"><ele>172.0</ele><time>2026-05-03T12:21:20.752Z</time></trkpt><trkpt lat="45.5176217" lon="11.016355"><ele>172.0</ele><time>2026-05-03T12:21:21.758Z</time></trkpt><trkpt lat="45.51777" lon="11.0163633"><ele>172.25</ele><time>2026-05-03T12:21:22.758Z</time></trkpt><trkpt lat="45.5179133" lon="11.0163717"><ele>172.5</ele><time>2026-05-03T12:21:23.761Z</time></trkpt><trkpt lat="45.5180533" lon="11.0163817"><ele>172.75</ele><time>2026-05-03T12:21:24.763Z</time></trkpt><trkpt lat="45.5181917" lon="11.0164"><ele>173.0</ele><time>2026-05-03T12:21:25.759Z</time></trkpt><trkpt lat="45.5183117" lon="11.0164217"><ele>173.0</ele><time>2026-05-03T12:21:26.758Z</time></trkpt><trkpt lat="45.518415" lon="11.0164383"><ele>173.0</ele><time>2026-05-03T12:21:27.756Z</time></trkpt><trkpt lat="45.51851" lon="11.0164483"><ele>173.0</ele><time>2026-05-03T12:21:28.76Z</time></trkpt><trkpt lat="45.5186117" lon="11.01646"><ele>173.0</ele><time>2026-05-03T12:21:29.755Z</time></trkpt><trkpt lat="45.5187183" lon="11.0164733"><ele>173.0</ele><time>2026-05-03T12:21:30.757Z</time></trkpt><trkpt lat="45.5188267" lon="11.01648"><ele>173.0</ele><time>2026-05-03T12:21:31.755Z</time></trkpt><trkpt lat="45.5189467" lon="11.0164983"><ele>173.0</ele><time>2026-05-03T12:21:32.763Z</time></trkpt><trkpt lat="45.5190567" lon="11.0165167"><ele>173.0</ele><time>2026-05-03T12:21:33.759Z</time></trkpt><trkpt lat="45.5191733" lon="11.0165267"><ele>173.0</ele><time>2026-05-03T12:21:34.765Z</time></trkpt><trkpt lat="45.519295" lon="11.01654"><ele>173.0</ele><time>2026-05-03T12:21:35.763Z</time></trkpt><trkpt lat="45.5194167" lon="11.0165617"><ele>173.0</ele><time>2026-05-03T12:21:36.763Z</time></trkpt><trkpt lat="45.519525" lon="11.01658"><ele>173.0</ele><time>2026-05-03T12:21:37.76Z</time></trkpt><trkpt lat="45.519635" lon="11.0166067"><ele>173.0</ele><time>2026-05-03T12:21:38.761Z</time></trkpt><trkpt lat="45.5197417" lon="11.0166317"><ele>172.8</ele><time>2026-05-03T12:21:39.758Z</time></trkpt><trkpt lat="45.5198267" lon="11.01666"><ele>172.60000000000002</ele><time>2026-05-03T12:21:40.756Z</time></trkpt><trkpt lat="45.5198917" lon="11.0166783"><ele>172.39999999999998</ele><time>2026-05-03T12:21:41.758Z</time></trkpt><trkpt lat="45.5199967" lon="11.0166983"><ele>172.2</ele><time>2026-05-03T12:21:43.751Z</time></trkpt><trkpt lat="45.520035" lon="11.016605"><ele>172.0</ele><time>2026-05-03T12:21:45.76Z</time></trkpt><trkpt lat="45.5200217" lon="11.0164017"><ele>172.5</ele><time>2026-05-03T12:21:47.764Z</time></trkpt><trkpt lat="45.5199983" lon="11.0162717"><ele>173.0</ele><time>2026-05-03T12:21:48.76Z</time></trkpt><trkpt lat="45.51998" lon="11.0161467"><ele>173.5</ele><time>2026-05-03T12:21:49.762Z</time></trkpt><trkpt lat="45.5199633" lon="11.0160367"><ele>174.0</ele><time>2026-05-03T12:21:50.762Z</time></trkpt><trkpt lat="45.51995" lon="11.0159483"><ele>174.5</ele><time>2026-05-03T12:21:51.764Z</time></trkpt><trkpt lat="45.5198783" lon="11.0158167"><ele>175.0</ele><time>2026-05-03T12:21:53.762Z</time></trkpt><trkpt lat="45.5198067" lon="11.01579"><ele>176.66666666666669</ele><time>2026-05-03T12:21:54.752Z</time></trkpt><trkpt lat="45.5197217" lon="11.0157667"><ele>178.33333333333334</ele><time>2026-05-03T12:21:55.76Z</time></trkpt><trkpt lat="45.519645" lon="11.0157483"><ele>180.0</ele><time>2026-05-03T12:21:56.763Z</time></trkpt><trkpt lat="45.51958" lon="11.0157317"><ele>181.66666666666666</ele><time>2026-05-03T12:21:57.758Z</time></trkpt><trkpt lat="45.5194917" lon="11.0156933"><ele>183.33333333333331</ele><time>2026-05-03T12:21:59.757Z</time></trkpt><trkpt lat="45.519525" lon="11.0155633"><ele>185.0</ele><time>2026-05-03T12:22:02.761Z</time></trkpt><trkpt lat="45.519645" lon="11.0155117"><ele>185.2</ele><time>2026-05-03T12:22:04.76Z</time></trkpt><trkpt lat="45.5197417" lon="11.0154933"><ele>185.4</ele><time>2026-05-03T12:22:05.751Z</time></trkpt><trkpt lat="45.5198567" lon="11.015465"><ele>185.60000000000002</ele><time>2026-05-03T12:22:06.754Z</time></trkpt><trkpt lat="45.519965" lon="11.0154417"><ele>185.8</ele><time>2026-05-03T12:22:07.756Z</time></trkpt><trkpt lat="45.52006" lon="11.0154067"><ele>186.0</ele><time>2026-05-03T12:22:08.763Z</time></trkpt><trkpt lat="45.5201283" lon="11.01534"><ele>186.0</ele><time>2026-05-03T12:22:09.766Z</time></trkpt><trkpt lat="45.5201783" lon="11.01526"><ele>186.0</ele><time>2026-05-03T12:22:10.76Z</time></trkpt><trkpt lat="45.52021" lon="11.0151467"><ele>186.0</ele><time>2026-05-03T12:22:11.761Z</time></trkpt><trkpt lat="45.5202283" lon="11.0150267"><ele>186.0</ele><time>2026-05-03T12:22:12.756Z</time></trkpt><trkpt lat="45.52026" lon="11.01492"><ele>186.0</ele><time>2026-05-03T12:22:13.759Z</time></trkpt><trkpt lat="45.5203133" lon="11.0148167"><ele>186.0</ele><time>2026-05-03T12:22:14.761Z</time></trkpt><trkpt lat="45.5203617" lon="11.01472"><ele>189.8</ele><time>2026-05-03T12:22:15.757Z</time></trkpt><trkpt lat="45.5203883" lon="11.014635"><ele>193.60000000000002</ele><time>2026-05-03T12:22:16.758Z</time></trkpt><trkpt lat="45.52031" lon="11.014505"><ele>197.4</ele><time>2026-05-03T12:22:18.759Z</time></trkpt><trkpt lat="45.5202183" lon="11.0144933"><ele>201.2</ele><time>2026-05-03T12:22:19.758Z</time></trkpt><trkpt lat="45.5201167" lon="11.0144983"><ele>205.0</ele><time>2026-05-03T12:22:20.763Z</time></trkpt><trkpt lat="45.520015" lon="11.01449"><ele>205.0</ele><time>2026-05-03T12:22:21.757Z</time></trkpt><trkpt lat="45.519905" lon="11.0144633"><ele>205.0</ele><time>2026-05-03T12:22:22.757Z</time></trkpt><trkpt lat="45.5197867" lon="11.0144183"><ele>205.0</ele><time>2026-05-03T12:22:23.757Z</time></trkpt><trkpt lat="45.5196617" lon="11.014355"><ele>205.0</ele><time>2026-05-03T12:22:24.755Z</time></trkpt><trkpt lat="45.51953" lon="11.014275"><ele>206.66666666666666</ele><time>2026-05-03T12:22:25.754Z</time></trkpt><trkpt lat="45.51939" lon="11.014195"><ele>208.33333333333331</ele><time>2026-05-03T12:22:26.757Z</time></trkpt><trkpt lat="45.51924" lon="11.014135"><ele>210.0</ele><time>2026-05-03T12:22:27.772Z</time></trkpt><trkpt lat="45.5190817" lon="11.01408"><ele>218.0</ele><time>2026-05-03T12:22:28.753Z</time></trkpt><trkpt lat="45.5189217" lon="11.01402"><ele>226.0</ele><time>2026-05-03T12:22:29.754Z</time></trkpt><trkpt lat="45.5187783" lon="11.0139483"><ele>234.0</ele><time>2026-05-03T12:22:30.756Z</time></trkpt><trkpt lat="45.51865" lon="11.0138583"><ele>234.0</ele><time>2026-05-03T12:22:31.764Z</time></trkpt><trkpt lat="45.5185233" lon="11.013755"><ele>234.0</ele><time>2026-05-03T12:22:32.759Z</time></trkpt><trkpt lat="45.518405" lon="11.0136567"><ele>234.0</ele><time>2026-05-03T12:22:33.759Z</time></trkpt><trkpt lat="45.518285" lon="11.0135817"><ele>234.0</ele><time>2026-05-03T12:22:34.754Z</time></trkpt><trkpt lat="45.5181667" lon="11.0135283"><ele>234.0</ele><time>2026-05-03T12:22:35.76Z</time></trkpt><trkpt lat="45.518065" lon="11.0134833"><ele>234.0</ele><time>2026-05-03T12:22:36.758Z</time></trkpt><trkpt lat="45.5179883" lon="11.0134467"><ele>234.0</ele><time>2026-05-03T12:22:37.753Z</time></trkpt><trkpt lat="45.51793" lon="11.0133967"><ele>234.0</ele><time>2026-05-03T12:22:38.759Z</time></trkpt><trkpt lat="45.5178817" lon="11.01325"><ele>234.0</ele><time>2026-05-03T12:22:40.755Z</time></trkpt><trkpt lat="45.5179333" lon="11.01318"><ele>234.0</ele><time>2026-05-03T12:22:41.755Z</time></trkpt><trkpt lat="45.5179983" lon="11.0130983"><ele>236.0</ele><time>2026-05-03T12:22:42.757Z</time></trkpt><trkpt lat="45.5180667" lon="11.0129883"><ele>238.0</ele><time>2026-05-03T12:22:43.759Z</time></trkpt><trkpt lat="45.51812" lon="11.012845"><ele>240.0</ele><time>2026-05-03T12:22:44.756Z</time></trkpt><trkpt lat="45.5181367" lon="11.0126717"><ele>242.0</ele><time>2026-05-03T12:22:45.756Z</time></trkpt><trkpt lat="45.5181367" lon="11.0124883"><ele>242.75</ele><time>2026-05-03T12:22:46.756Z</time></trkpt><trkpt lat="45.5181317" lon="11.0123083"><ele>243.5</ele><time>2026-05-03T12:22:47.755Z</time></trkpt><trkpt lat="45.5181467" lon="11.01212"><ele>244.25</ele><time>2026-05-03T12:22:48.769Z</time></trkpt><trkpt lat="45.51818" lon="11.01193"><ele>245.0</ele><time>2026-05-03T12:22:49.757Z</time></trkpt><trkpt lat="45.5182183" lon="11.0117383"><ele>246.8</ele><time>2026-05-03T12:22:50.756Z</time></trkpt><trkpt lat="45.5182583" lon="11.011555"><ele>248.6</ele><time>2026-05-03T12:22:51.756Z</time></trkpt><trkpt lat="45.51829" lon="11.0113967"><ele>250.39999999999998</ele><time>2026-05-03T12:22:52.757Z</time></trkpt><trkpt lat="45.518295" lon="11.0112617"><ele>252.2</ele><time>2026-05-03T12:22:53.756Z</time></trkpt><trkpt lat="45.5182767" lon="11.011115"><ele>254.0</ele><time>2026-05-03T12:22:54.757Z</time></trkpt><trkpt lat="45.5182233" lon="11.0109717"><ele>256.5</ele><time>2026-05-03T12:22:55.759Z</time></trkpt><trkpt lat="45.51815" lon="11.0108183"><ele>259.0</ele><time>2026-05-03T12:22:56.758Z</time></trkpt><trkpt lat="45.51807" lon="11.01066"><ele>261.5</ele><time>2026-05-03T12:22:57.755Z</time></trkpt><trkpt lat="45.5179783" lon="11.010505"><ele>264.0</ele><time>2026-05-03T12:22:58.756Z</time></trkpt><trkpt lat="45.517875" lon="11.01036"><ele>264.0</ele><time>2026-05-03T12:22:59.76Z</time></trkpt><trkpt lat="45.5177683" lon="11.0102467"><ele>264.0</ele><time>2026-05-03T12:23:00.757Z</time></trkpt><trkpt lat="45.5176667" lon="11.010175"><ele>264.0</ele><time>2026-05-03T12:23:01.766Z</time></trkpt><trkpt lat="45.5175817" lon="11.0101283"><ele>264.0</ele><time>2026-05-03T12:23:02.767Z</time></trkpt><trkpt lat="45.5175133" lon="11.0100867"><ele>264.0</ele><time>2026-05-03T12:23:03.762Z</time></trkpt><trkpt lat="45.51749" lon="11.0099683"><ele>267.75</ele><time>2026-05-03T12:23:05.76Z</time></trkpt><trkpt lat="45.5175783" lon="11.00987"><ele>271.5</ele><time>2026-05-03T12:23:07.758Z</time></trkpt><trkpt lat="45.5176833" lon="11.00983"><ele>275.25</ele><time>2026-05-03T12:23:08.758Z</time></trkpt><trkpt lat="45.5177967" lon="11.0097783"><ele>279.0</ele><time>2026-05-03T12:23:09.76Z</time></trkpt><trkpt lat="45.5179283" lon="11.0097267"><ele>279.0</ele><time>2026-05-03T12:23:10.761Z</time></trkpt><trkpt lat="45.51807" lon="11.0096683"><ele>279.0</ele><time>2026-05-03T12:23:11.757Z</time></trkpt><trkpt lat="45.5182217" lon="11.009615"><ele>279.0</ele><time>2026-05-03T12:23:12.751Z</time></trkpt><trkpt lat="45.5183867" lon="11.009555"><ele>279.0</ele><time>2026-05-03T12:23:13.758Z</time></trkpt><trkpt lat="45.5185517" lon="11.0094917"><ele>279.0</ele><time>2026-05-03T12:23:14.767Z</time></trkpt><trkpt lat="45.51871" lon="11.009435"><ele>279.0</ele><time>2026-05-03T12:23:15.753Z</time></trkpt><trkpt lat="45.5188417" lon="11.0093933"><ele>279.3333333333333</ele><time>2026-05-03T12:23:16.755Z</time></trkpt><trkpt lat="45.518945" lon="11.0093617"><ele>279.6666666666667</ele><time>2026-05-03T12:23:17.757Z</time></trkpt><trkpt lat="45.519025" lon="11.0093233"><ele>280.0</ele><time>2026-05-03T12:23:18.758Z</time></trkpt><trkpt lat="45.5190933" lon="11.009275"><ele>280.33333333333337</ele><time>2026-05-03T12:23:19.756Z</time></trkpt><trkpt lat="45.5191217" lon="11.009175"><ele>280.6666666666667</ele><time>2026-05-03T12:23:20.757Z</time></trkpt><trkpt lat="45.5191167" lon="11.0090667"><ele>281.0</ele><time>2026-05-03T12:23:21.754Z</time></trkpt><trkpt lat="45.519085" lon="11.008965"><ele>283.1666666666667</ele><time>2026-05-03T12:23:22.754Z</time></trkpt><trkpt lat="45.519015" lon="11.0088967"><ele>285.33333333333337</ele><time>2026-05-03T12:23:23.757Z</time></trkpt><trkpt lat="45.5189467" lon="11.0088683"><ele>287.5</ele><time>2026-05-03T12:23:24.771Z</time></trkpt><trkpt lat="45.51887" lon="11.008785"><ele>289.6666666666667</ele><time>2026-05-03T12:23:26.756Z</time></trkpt><trkpt lat="45.5189367" lon="11.00867"><ele>291.8333333333333</ele><time>2026-05-03T12:23:28.758Z</time></trkpt><trkpt lat="45.5190083" lon="11.0085967"><ele>294.0</ele><time>2026-05-03T12:23:29.764Z</time></trkpt><trkpt lat="45.5190917" lon="11.0085083"><ele>294.0</ele><time>2026-05-03T12:23:30.758Z</time></trkpt><trkpt lat="45.5191833" lon="11.008405"><ele>294.0</ele><time>2026-05-03T12:23:31.754Z</time></trkpt><trkpt lat="45.5192817" lon="11.0083033"><ele>294.0</ele><time>2026-05-03T12:23:32.757Z</time></trkpt><trkpt lat="45.5193833" lon="11.00822"><ele>294.0</ele><time>2026-05-03T12:23:33.755Z</time></trkpt><trkpt lat="45.51949" lon="11.00815"><ele>299.0</ele><time>2026-05-03T12:23:34.762Z</time></trkpt><trkpt lat="45.5196" lon="11.008085"><ele>304.0</ele><time>2026-05-03T12:23:35.756Z</time></trkpt><trkpt lat="45.5197067" lon="11.008015"><ele>309.0</ele><time>2026-05-03T12:23:36.763Z</time></trkpt><trkpt lat="45.51981" lon="11.0079317"><ele>314.0</ele><time>2026-05-03T12:23:37.757Z</time></trkpt><trkpt lat="45.5199083" lon="11.0078517"><ele>314.0</ele><time>2026-05-03T12:23:38.758Z</time></trkpt><trkpt lat="45.52" lon="11.007775"><ele>314.0</ele><time>2026-05-03T12:23:39.757Z</time></trkpt><trkpt lat="45.52008" lon="11.0077033"><ele>314.0</ele><time>2026-05-03T12:23:40.76Z</time></trkpt><trkpt lat="45.5201433" lon="11.00764"><ele>314.0</ele><time>2026-05-03T12:23:41.765Z</time></trkpt><trkpt lat="45.52019" lon="11.0075783"><ele>314.0</ele><time>2026-05-03T12:23:42.758Z</time></trkpt><trkpt lat="45.5201617" lon="11.00746"><ele>314.0</ele><time>2026-05-03T12:23:44.755Z</time></trkpt><trkpt lat="45.5200983" lon="11.007445"><ele>314.0</ele><time>2026-05-03T12:23:45.762Z</time></trkpt><trkpt lat="45.5200283" lon="11.0074917"><ele>314.0</ele><time>2026-05-03T12:23:46.766Z</time></trkpt><trkpt lat="45.519935" lon="11.0075383"><ele>314.0</ele><time>2026-05-03T12:23:48.76Z</time></trkpt><trkpt lat="45.5199667" lon="11.0074217"><ele>314.0</ele><time>2026-05-03T12:23:52.752Z</time></trkpt><trkpt lat="45.52004" lon="11.007365"><ele>314.0</ele><time>2026-05-03T12:23:53.757Z</time></trkpt><trkpt lat="45.5201283" lon="11.007315"><ele>314.0</ele><time>2026-05-03T12:23:54.753Z</time></trkpt><trkpt lat="45.52023" lon="11.0073033"><ele>320.75</ele><time>2026-05-03T12:23:55.761Z</time></trkpt><trkpt lat="45.5203433" lon="11.0073317"><ele>327.5</ele><time>2026-05-03T12:23:56.76Z</time></trkpt><trkpt lat="45.5204633" lon="11.007375"><ele>334.25</ele><time>2026-05-03T12:23:57.754Z</time></trkpt><trkpt lat="45.5205933" lon="11.0074117"><ele>341.0</ele><time>2026-05-03T12:23:58.758Z</time></trkpt><trkpt lat="45.5207183" lon="11.0074367"><ele>341.0</ele><time>2026-05-03T12:23:59.754Z</time></trkpt><trkpt lat="45.5208367" lon="11.0074533"><ele>341.0</ele><time>2026-05-03T12:24:00.757Z</time></trkpt><trkpt lat="45.520955" lon="11.0074667"><ele>341.0</ele><time>2026-05-03T12:24:01.758Z</time></trkpt><trkpt lat="45.521075" lon="11.007475"><ele>341.0</ele><time>2026-05-03T12:24:02.756Z</time></trkpt><trkpt lat="45.5211967" lon="11.0074817"><ele>341.5</ele><time>2026-05-03T12:24:03.757Z</time></trkpt><trkpt lat="45.5213183" lon="11.0074867"><ele>342.0</ele><time>2026-05-03T12:24:04.752Z</time></trkpt><trkpt lat="45.52144" lon="11.0074867"><ele>342.5</ele><time>2026-05-03T12:24:05.761Z</time></trkpt><trkpt lat="45.52156" lon="11.0074883"><ele>343.0</ele><time>2026-05-03T12:24:06.758Z</time></trkpt><trkpt lat="45.5216783" lon="11.0074933"><ele>343.0</ele><time>2026-05-03T12:24:07.755Z</time></trkpt><trkpt lat="45.5218" lon="11.0074933"><ele>343.0</ele><time>2026-05-03T12:24:08.76Z</time></trkpt><trkpt lat="45.5219267" lon="11.0074883"><ele>343.0</ele><time>2026-05-03T12:24:09.756Z</time></trkpt><trkpt lat="45.522055" lon="11.00749"><ele>343.0</ele><time>2026-05-03T12:24:10.758Z</time></trkpt><trkpt lat="45.5221833" lon="11.007495"><ele>345.0</ele><time>2026-05-03T12:24:11.754Z</time></trkpt><trkpt lat="45.5223133" lon="11.0074883"><ele>347.0</ele><time>2026-05-03T12:24:12.756Z</time></trkpt><trkpt lat="45.5224367" lon="11.0074667"><ele>349.0</ele><time>2026-05-03T12:24:13.767Z</time></trkpt><trkpt lat="45.5225483" lon="11.0074333"><ele>351.0</ele><time>2026-05-03T12:24:14.758Z</time></trkpt><trkpt lat="45.5226467" lon="11.007395"><ele>351.0</ele><time>2026-05-03T12:24:15.762Z</time></trkpt><trkpt lat="45.5227333" lon="11.0073567"><ele>351.0</ele><time>2026-05-03T12:24:16.761Z</time></trkpt><trkpt lat="45.522805" lon="11.0073217"><ele>351.0</ele><time>2026-05-03T12:24:17.759Z</time></trkpt><trkpt lat="45.522895" lon="11.007235"><ele>351.0</ele><time>2026-05-03T12:24:19.758Z</time></trkpt><trkpt lat="45.5228283" lon="11.0071517"><ele>351.0</ele><time>2026-05-03T12:24:21.758Z</time></trkpt><trkpt lat="45.5227483" lon="11.0071233"><ele>351.0</ele><time>2026-05-03T12:24:22.759Z</time></trkpt><trkpt lat="45.5226517" lon="11.0070767"><ele>351.0</ele><time>2026-05-03T12:24:23.757Z</time></trkpt><trkpt lat="45.5225283" lon="11.0070267"><ele>351.0</ele><time>2026-05-03T12:24:24.76Z</time></trkpt><trkpt lat="45.522395" lon="11.00698"><ele>351.0</ele><time>2026-05-03T12:24:25.756Z</time></trkpt><trkpt lat="45.5222667" lon="11.0069433"><ele>351.0</ele><time>2026-05-03T12:24:26.762Z</time></trkpt><trkpt lat="45.5221667" lon="11.006925"><ele>351.0</ele><time>2026-05-03T12:24:27.759Z</time></trkpt><trkpt lat="45.5220933" lon="11.0069117"><ele>351.0</ele><time>2026-05-03T12:24:28.754Z</time></trkpt><trkpt lat="45.5219983" lon="11.0068433"><ele>351.0</ele><time>2026-05-03T12:24:30.753Z</time></trkpt><trkpt lat="45.5219483" lon="11.006665"><ele>351.0</ele><time>2026-05-03T12:24:32.758Z</time></trkpt><trkpt lat="45.5219133" lon="11.0065283"><ele>351.0</ele><time>2026-05-03T12:24:33.753Z</time></trkpt><trkpt lat="45.52188" lon="11.0064117"><ele>354.3333333333333</ele><time>2026-05-03T12:24:34.76Z</time></trkpt><trkpt lat="45.5218383" lon="11.0063133"><ele>357.6666666666667</ele><time>2026-05-03T12:24:35.757Z</time></trkpt><trkpt lat="45.5217833" lon="11.00624"><ele>361.0</ele><time>2026-05-03T12:24:36.761Z</time></trkpt><trkpt lat="45.5217233" lon="11.006195"><ele>364.33333333333337</ele><time>2026-05-03T12:24:37.758Z</time></trkpt><trkpt lat="45.5216183" lon="11.00616"><ele>367.6666666666667</ele><time>2026-05-03T12:24:39.754Z</time></trkpt><trkpt lat="45.5215283" lon="11.00616"><ele>371.0</ele><time>2026-05-03T12:24:41.759Z</time></trkpt><trkpt lat="45.5214567" lon="11.00615"><ele>371.0</ele><time>2026-05-03T12:24:42.756Z</time></trkpt><trkpt lat="45.5213667" lon="11.0061333"><ele>371.0</ele><time>2026-05-03T12:24:43.762Z</time></trkpt><trkpt lat="45.5212567" lon="11.0061133"><ele>371.0</ele><time>2026-05-03T12:24:44.765Z</time></trkpt><trkpt lat="45.521135" lon="11.0061"><ele>371.0</ele><time>2026-05-03T12:24:45.764Z</time></trkpt><trkpt lat="45.5210017" lon="11.0061033"><ele>371.75</ele><time>2026-05-03T12:24:46.758Z</time></trkpt><trkpt lat="45.5208583" lon="11.0061183"><ele>372.5</ele><time>2026-05-03T12:24:47.754Z</time></trkpt><trkpt lat="45.5207133" lon="11.0061417"><ele>373.25</ele><time>2026-05-03T12:24:48.761Z</time></trkpt><trkpt lat="45.52057" lon="11.0061767"><ele>374.0</ele><time>2026-05-03T12:24:49.758Z</time></trkpt><trkpt lat="45.5204467" lon="11.00621"><ele>373.4</ele><time>2026-05-03T12:24:50.762Z</time></trkpt><trkpt lat="45.5203283" lon="11.0062267"><ele>372.79999999999995</ele><time>2026-05-03T12:24:51.758Z</time></trkpt><trkpt lat="45.5202183" lon="11.0062217"><ele>372.20000000000005</ele><time>2026-05-03T12:24:52.757Z</time></trkpt><trkpt lat="45.5201083" lon="11.0062017"><ele>371.6</ele><time>2026-05-03T12:24:53.756Z</time></trkpt><trkpt lat="45.5200017" lon="11.0061717"><ele>371.0</ele><time>2026-05-03T12:24:54.751Z</time></trkpt><trkpt lat="45.5198967" lon="11.00613"><ele>371.0</ele><time>2026-05-03T12:24:55.753Z</time></trkpt><trkpt lat="45.5197933" lon="11.0060767"><ele>371.0</ele><time>2026-05-03T12:24:56.763Z</time></trkpt><trkpt lat="45.5196883" lon="11.0060217"><ele>371.0</ele><time>2026-05-03T12:24:57.752Z</time></trkpt><trkpt lat="45.5195783" lon="11.0059617"><ele>371.0</ele><time>2026-05-03T12:24:58.756Z</time></trkpt><trkpt lat="45.51947" lon="11.0059"><ele>370.25</ele><time>2026-05-03T12:24:59.757Z</time></trkpt><trkpt lat="45.5193533" lon="11.0058433"><ele>369.5</ele><time>2026-05-03T12:25:00.752Z</time></trkpt><trkpt lat="45.5192367" lon="11.0058"><ele>368.75</ele><time>2026-05-03T12:25:01.76Z</time></trkpt><trkpt lat="45.5191283" lon="11.005775"><ele>368.0</ele><time>2026-05-03T12:25:02.76Z</time></trkpt><trkpt lat="45.5190217" lon="11.0057717"><ele>369.2</ele><time>2026-05-03T12:25:03.753Z</time></trkpt><trkpt lat="45.518915" lon="11.00578"><ele>370.4</ele><time>2026-05-03T12:25:04.759Z</time></trkpt><trkpt lat="45.51881" lon="11.0058217"><ele>371.59999999999997</ele><time>2026-05-03T12:25:05.761Z</time></trkpt><trkpt lat="45.5187117" lon="11.005895"><ele>372.79999999999995</ele><time>2026-05-03T12:25:06.764Z</time></trkpt><trkpt lat="45.518625" lon="11.005975"><ele>374.0</ele><time>2026-05-03T12:25:07.759Z</time></trkpt><trkpt lat="45.51855" lon="11.00604"><ele>374.0</ele><time>2026-05-03T12:25:08.768Z</time></trkpt><trkpt lat="45.5184867" lon="11.0060933"><ele>374.0</ele><time>2026-05-03T12:25:09.763Z</time></trkpt><trkpt lat="45.518425" lon="11.006125"><ele>374.0</ele><time>2026-05-03T12:25:10.758Z</time></trkpt><trkpt lat="45.51836" lon="11.0061167"><ele>374.0</ele><time>2026-05-03T12:25:11.763Z</time></trkpt><trkpt lat="45.5182483" lon="11.00605"><ele>374.0</ele><time>2026-05-03T12:25:13.755Z</time></trkpt><trkpt lat="45.5182167" lon="11.005935"><ele>374.0</ele><time>2026-05-03T12:25:15.753Z</time></trkpt><trkpt lat="45.5183283" lon="11.005825"><ele>378.6</ele><time>2026-05-03T12:25:17.761Z</time></trkpt><trkpt lat="45.51841" lon="11.0057633"><ele>383.2</ele><time>2026-05-03T12:25:18.758Z</time></trkpt><trkpt lat="45.5185" lon="11.0056933"><ele>387.8</ele><time>2026-05-03T12:25:19.755Z</time></trkpt><trkpt lat="45.518595" lon="11.0056033"><ele>392.40000000000003</ele><time>2026-05-03T12:25:20.762Z</time></trkpt><trkpt lat="45.5186983" lon="11.0054933"><ele>397.0</ele><time>2026-05-03T12:25:21.756Z</time></trkpt><trkpt lat="45.5188033" lon="11.0053817"><ele>397.0</ele><time>2026-05-03T12:25:22.759Z</time></trkpt><trkpt lat="45.5189067" lon="11.0052867"><ele>397.0</ele><time>2026-05-03T12:25:23.763Z</time></trkpt><trkpt lat="45.5190083" lon="11.0052133"><ele>397.0</ele><time>2026-05-03T12:25:24.761Z</time></trkpt><trkpt lat="45.5191117" lon="11.0051467"><ele>397.0</ele><time>2026-05-03T12:25:25.753Z</time></trkpt><trkpt lat="45.5192183" lon="11.0050967"><ele>397.0</ele><time>2026-05-03T12:25:26.762Z</time></trkpt><trkpt lat="45.5193267" lon="11.0050633"><ele>397.0</ele><time>2026-05-03T12:25:27.759Z</time></trkpt><trkpt lat="45.5194417" lon="11.005045"><ele>397.0</ele><time>2026-05-03T12:25:28.762Z</time></trkpt><trkpt lat="45.51956" lon="11.0050333"><ele>397.0</ele><time>2026-05-03T12:25:29.757Z</time></trkpt><trkpt lat="45.5196817" lon="11.0050183"><ele>397.5</ele><time>2026-05-03T12:25:30.76Z</time></trkpt><trkpt lat="45.5198017" lon="11.00501"><ele>398.0</ele><time>2026-05-03T12:25:31.756Z</time></trkpt><trkpt lat="45.5199217" lon="11.0050117"><ele>398.5</ele><time>2026-05-03T12:25:32.76Z</time></trkpt><trkpt lat="45.52004" lon="11.0050283"><ele>399.0</ele><time>2026-05-03T12:25:33.759Z</time></trkpt><trkpt lat="45.5201517" lon="11.0050483"><ele>399.0</ele><time>2026-05-03T12:25:34.758Z</time></trkpt><trkpt lat="45.5202583" lon="11.0050717"><ele>399.0</ele><time>2026-05-03T12:25:35.754Z</time></trkpt><trkpt lat="45.5203533" lon="11.0051083"><ele>399.0</ele><time>2026-05-03T12:25:36.761Z</time></trkpt><trkpt lat="45.52045" lon="11.0051167"><ele>399.0</ele><time>2026-05-03T12:25:37.757Z</time></trkpt><trkpt lat="45.5205533" lon="11.0050933"><ele>399.0</ele><time>2026-05-03T12:25:38.757Z</time></trkpt><trkpt lat="45.52066" lon="11.0050383"><ele>405.79999999999995</ele><time>2026-05-03T12:25:39.758Z</time></trkpt><trkpt lat="45.5207667" lon="11.0049833"><ele>412.59999999999997</ele><time>2026-05-03T12:25:40.76Z</time></trkpt><trkpt lat="45.5208667" lon="11.0049333"><ele>419.4</ele><time>2026-05-03T12:25:41.756Z</time></trkpt><trkpt lat="45.5209717" lon="11.0048817"><ele>426.2</ele><time>2026-05-03T12:25:42.756Z</time></trkpt><trkpt lat="45.5210783" lon="11.00484"><ele>433.0</ele><time>2026-05-03T12:25:43.758Z</time></trkpt><trkpt lat="45.52119" lon="11.0048"><ele>430.0</ele><time>2026-05-03T12:25:44.762Z</time></trkpt><trkpt lat="45.5213017" lon="11.0047633"><ele>427.0</ele><time>2026-05-03T12:25:45.755Z</time></trkpt><trkpt lat="45.521415" lon="11.0047233"><ele>424.0</ele><time>2026-05-03T12:25:46.756Z</time></trkpt><trkpt lat="45.5215267" lon="11.004685"><ele>421.0</ele><time>2026-05-03T12:25:47.765Z</time></trkpt><trkpt lat="45.521635" lon="11.0046483"><ele>421.0</ele><time>2026-05-03T12:25:48.757Z</time></trkpt><trkpt lat="45.5217367" lon="11.004595"><ele>421.0</ele><time>2026-05-03T12:25:49.758Z</time></trkpt><trkpt lat="45.5218117" lon="11.0045517"><ele>421.0</ele><time>2026-05-03T12:25:50.756Z</time></trkpt><trkpt lat="45.5218683" lon="11.0045017"><ele>421.0</ele><time>2026-05-03T12:25:51.757Z</time></trkpt><trkpt lat="45.5219333" lon="11.0043967"><ele>421.0</ele><time>2026-05-03T12:25:53.758Z</time></trkpt><trkpt lat="45.5218417" lon="11.0043233"><ele>421.0</ele><time>2026-05-03T12:25:56.766Z</time></trkpt><trkpt lat="45.5217" lon="11.0043817"><ele>421.0</ele><time>2026-05-03T12:26:03.756Z</time></trkpt><trkpt lat="45.521655" lon="11.0042817"><ele>421.0</ele><time>2026-05-03T12:26:06.753Z</time></trkpt><trkpt lat="45.5217217" lon="11.0041617"><ele>421.0</ele><time>2026-05-03T12:26:08.754Z</time></trkpt><trkpt lat="45.521785" lon="11.0040533"><ele>421.0</ele><time>2026-05-03T12:26:09.756Z</time></trkpt><trkpt lat="45.52186" lon="11.00393"><ele>423.75</ele><time>2026-05-03T12:26:10.756Z</time></trkpt><trkpt lat="45.521945" lon="11.0038083"><ele>426.5</ele><time>2026-05-03T12:26:11.755Z</time></trkpt><trkpt lat="45.522035" lon="11.003695"><ele>429.25</ele><time>2026-05-03T12:26:12.755Z</time></trkpt><trkpt lat="45.5221317" lon="11.0035917"><ele>432.0</ele><time>2026-05-03T12:26:13.752Z</time></trkpt><trkpt lat="45.5222267" lon="11.0035017"><ele>432.0</ele><time>2026-05-03T12:26:14.758Z</time></trkpt><trkpt lat="45.522325" lon="11.0034167"><ele>432.0</ele><time>2026-05-03T12:26:15.756Z</time></trkpt><trkpt lat="45.5224267" lon="11.003345"><ele>432.0</ele><time>2026-05-03T12:26:16.755Z</time></trkpt><trkpt lat="45.52253" lon="11.0032867"><ele>432.0</ele><time>2026-05-03T12:26:17.757Z</time></trkpt><trkpt lat="45.522635" lon="11.0032283"><ele>436.6</ele><time>2026-05-03T12:26:18.759Z</time></trkpt><trkpt lat="45.522735" lon="11.00317"><ele>441.20000000000005</ele><time>2026-05-03T12:26:19.755Z</time></trkpt><trkpt lat="45.5228333" lon="11.00311"><ele>445.8</ele><time>2026-05-03T12:26:20.763Z</time></trkpt><trkpt lat="45.522935" lon="11.0030633"><ele>450.4</ele><time>2026-05-03T12:26:21.757Z</time></trkpt><trkpt lat="45.5230367" lon="11.0030267"><ele>455.0</ele><time>2026-05-03T12:26:22.754Z</time></trkpt><trkpt lat="45.5231417" lon="11.0029967"><ele>455.0</ele><time>2026-05-03T12:26:23.755Z</time></trkpt><trkpt lat="45.52325" lon="11.0029783"><ele>455.0</ele><time>2026-05-03T12:26:24.753Z</time></trkpt><trkpt lat="45.5233617" lon="11.0029717"><ele>455.0</ele><time>2026-05-03T12:26:25.759Z</time></trkpt><trkpt lat="45.5234733" lon="11.0029683"><ele>455.0</ele><time>2026-05-03T12:26:26.756Z</time></trkpt><trkpt lat="45.5235767" lon="11.0029683"><ele>455.0</ele><time>2026-05-03T12:26:27.751Z</time></trkpt><trkpt lat="45.5236733" lon="11.0029617"><ele>454.99999999999994</ele><time>2026-05-03T12:26:28.758Z</time></trkpt><trkpt lat="45.5237517" lon="11.0029433"><ele>455.0</ele><time>2026-05-03T12:26:29.753Z</time></trkpt><trkpt lat="45.52385" lon="11.0028783"><ele>455.0</ele><time>2026-05-03T12:26:31.758Z</time></trkpt><trkpt lat="45.5238483" lon="11.0027883"><ele>455.0</ele><time>2026-05-03T12:26:33.761Z</time></trkpt><trkpt lat="45.5237367" lon="11.0027933"><ele>454.99999999999994</ele><time>2026-05-03T12:26:35.764Z</time></trkpt><trkpt lat="45.5236633" lon="11.00281"><ele>455.0</ele><time>2026-05-03T12:26:36.758Z</time></trkpt><trkpt lat="45.5235983" lon="11.002815"><ele>454.99999999999994</ele><time>2026-05-03T12:26:37.752Z</time></trkpt><trkpt lat="45.5235467" lon="11.0027467"><ele>455.0</ele><time>2026-05-03T12:26:40.757Z</time></trkpt><trkpt lat="45.5236367" lon="11.0027133"><ele>455.0</ele><time>2026-05-03T12:26:42.755Z</time></trkpt><trkpt lat="45.523715" lon="11.0026867"><ele>455.0</ele><time>2026-05-03T12:26:43.754Z</time></trkpt><trkpt lat="45.5237983" lon="11.002635"><ele>454.99999999999994</ele><time>2026-05-03T12:26:44.757Z</time></trkpt><trkpt lat="45.5238783" lon="11.002565"><ele>455.0</ele><time>2026-05-03T12:26:45.752Z</time></trkpt><trkpt lat="45.5239433" lon="11.002485"><ele>455.0</ele><time>2026-05-03T12:26:46.752Z</time></trkpt><trkpt lat="45.5239883" lon="11.0023933"><ele>455.0</ele><time>2026-05-03T12:26:47.756Z</time></trkpt><trkpt lat="45.524015" lon="11.002275"><ele>455.0</ele><time>2026-05-03T12:26:48.754Z</time></trkpt><trkpt lat="45.5240267" lon="11.002135"><ele>455.0</ele><time>2026-05-03T12:26:49.752Z</time></trkpt><trkpt lat="45.5240433" lon="11.0019733"><ele>455.0</ele><time>2026-05-03T12:26:50.755Z</time></trkpt><trkpt lat="45.5240683" lon="11.0018133"><ele>459.5</ele><time>2026-05-03T12:26:51.759Z</time></trkpt><trkpt lat="45.5241083" lon="11.0016583"><ele>464.0</ele><time>2026-05-03T12:26:52.758Z</time></trkpt><trkpt lat="45.5241617" lon="11.0015067"><ele>468.5</ele><time>2026-05-03T12:26:53.753Z</time></trkpt><trkpt lat="45.5242233" lon="11.001365"><ele>473.0</ele><time>2026-05-03T12:26:54.752Z</time></trkpt><trkpt lat="45.5242883" lon="11.00123"><ele>473.0</ele><time>2026-05-03T12:26:55.762Z</time></trkpt><trkpt lat="45.5243533" lon="11.0010983"><ele>473.0</ele><time>2026-05-03T12:26:56.755Z</time></trkpt><trkpt lat="45.5244133" lon="11.00096"><ele>473.0</ele><time>2026-05-03T12:26:57.755Z</time></trkpt><trkpt lat="45.52447" lon="11.000815"><ele>473.0</ele><time>2026-05-03T12:26:58.755Z</time></trkpt><trkpt lat="45.5245283" lon="11.0006633"><ele>472.0</ele><time>2026-05-03T12:26:59.754Z</time></trkpt><trkpt lat="45.5245867" lon="11.0005217"><ele>471.0</ele><time>2026-05-03T12:27:00.754Z</time></trkpt><trkpt lat="45.5246517" lon="11.0003833"><ele>470.0</ele><time>2026-05-03T12:27:01.755Z</time></trkpt><trkpt lat="45.5247183" lon="11.00025"><ele>469.0</ele><time>2026-05-03T12:27:02.757Z</time></trkpt><trkpt lat="45.5247833" lon="11.00012"><ele>469.0</ele><time>2026-05-03T12:27:03.753Z</time></trkpt><trkpt lat="45.5248483" lon="10.9999967"><ele>469.0</ele><time>2026-05-03T12:27:04.751Z</time></trkpt><trkpt lat="45.524925" lon="10.9998867"><ele>469.0</ele><time>2026-05-03T12:27:05.755Z</time></trkpt><trkpt lat="45.5250133" lon="10.9997983"><ele>469.0</ele><time>2026-05-03T12:27:06.755Z</time></trkpt><trkpt lat="45.5251083" lon="10.9997217"><ele>469.0</ele><time>2026-05-03T12:27:07.759Z</time></trkpt><trkpt lat="45.5252083" lon="10.9996317"><ele>469.0</ele><time>2026-05-03T12:27:08.758Z</time></trkpt><trkpt lat="45.525305" lon="10.999515"><ele>469.0</ele><time>2026-05-03T12:27:09.755Z</time></trkpt><trkpt lat="45.5253917" lon="10.999405"><ele>469.0</ele><time>2026-05-03T12:27:10.755Z</time></trkpt><trkpt lat="45.5254767" lon="10.99931"><ele>469.0</ele><time>2026-05-03T12:27:11.754Z</time></trkpt><trkpt lat="45.5255517" lon="10.99923"><ele>469.0</ele><time>2026-05-03T12:27:12.753Z</time></trkpt><trkpt lat="45.52561" lon="10.99917"><ele>469.79999999999995</ele><time>2026-05-03T12:27:13.752Z</time></trkpt><trkpt lat="45.52569" lon="10.9990533"><ele>470.59999999999997</ele><time>2026-05-03T12:27:15.762Z</time></trkpt><trkpt lat="45.5256017" lon="10.9990033"><ele>471.4</ele><time>2026-05-03T12:27:18.759Z</time></trkpt><trkpt lat="45.525525" lon="10.999055"><ele>472.2</ele><time>2026-05-03T12:27:19.755Z</time></trkpt><trkpt lat="45.52542" lon="10.9991067"><ele>473.0</ele><time>2026-05-03T12:27:20.755Z</time></trkpt><trkpt lat="45.5253133" lon="10.999145"><ele>472.2</ele><time>2026-05-03T12:27:21.759Z</time></trkpt><trkpt lat="45.525195" lon="10.99919"><ele>471.4</ele><time>2026-05-03T12:27:22.753Z</time></trkpt><trkpt lat="45.5250783" lon="10.9992283"><ele>470.59999999999997</ele><time>2026-05-03T12:27:23.756Z</time></trkpt><trkpt lat="45.52497" lon="10.9992667"><ele>469.79999999999995</ele><time>2026-05-03T12:27:24.756Z</time></trkpt><trkpt lat="45.524885" lon="10.999295"><ele>469.0</ele><time>2026-05-03T12:27:25.754Z</time></trkpt><trkpt lat="45.5248183" lon="10.999315"><ele>469.0</ele><time>2026-05-03T12:27:26.757Z</time></trkpt><trkpt lat="45.52475" lon="10.9992867"><ele>469.0</ele><time>2026-05-03T12:27:28.756Z</time></trkpt><trkpt lat="45.5247833" lon="10.999205"><ele>469.0</ele><time>2026-05-03T12:27:30.755Z</time></trkpt><trkpt lat="45.5249083" lon="10.9991133"><ele>469.0</ele><time>2026-05-03T12:27:32.762Z</time></trkpt><trkpt lat="45.525005" lon="10.9990483"><ele>469.0</ele><time>2026-05-03T12:27:33.761Z</time></trkpt><trkpt lat="45.5251267" lon="10.9989717"><ele>470.0</ele><time>2026-05-03T12:27:34.754Z</time></trkpt><trkpt lat="45.52525" lon="10.9988917"><ele>471.0</ele><time>2026-05-03T12:27:35.755Z</time></trkpt><trkpt lat="45.52538" lon="10.9987983"><ele>472.0</ele><time>2026-05-03T12:27:36.762Z</time></trkpt><trkpt lat="45.5255133" lon="10.9986983"><ele>473.0</ele><time>2026-05-03T12:27:37.757Z</time></trkpt><trkpt lat="45.525645" lon="10.9986067"><ele>473.0</ele><time>2026-05-03T12:27:38.752Z</time></trkpt><trkpt lat="45.5257633" lon="10.998525"><ele>473.0</ele><time>2026-05-03T12:27:39.758Z</time></trkpt><trkpt lat="45.52587" lon="10.99844"><ele>473.0</ele><time>2026-05-03T12:27:40.755Z</time></trkpt><trkpt lat="45.525965" lon="10.9983383"><ele>473.0</ele><time>2026-05-03T12:27:41.762Z</time></trkpt><trkpt lat="45.5260467" lon="10.99822"><ele>472.75</ele><time>2026-05-03T12:27:42.758Z</time></trkpt><trkpt lat="45.52611" lon="10.998085"><ele>472.5</ele><time>2026-05-03T12:27:43.759Z</time></trkpt><trkpt lat="45.5261683" lon="10.99792"><ele>472.25</ele><time>2026-05-03T12:27:44.755Z</time></trkpt><trkpt lat="45.526225" lon="10.9977367"><ele>472.0</ele><time>2026-05-03T12:27:45.759Z</time></trkpt><trkpt lat="45.5262867" lon="10.9975417"><ele>478.33333333333337</ele><time>2026-05-03T12:27:46.757Z</time></trkpt><trkpt lat="45.5263617" lon="10.997345"><ele>484.66666666666663</ele><time>2026-05-03T12:27:47.756Z</time></trkpt><trkpt lat="45.5264533" lon="10.9971483"><ele>491.0</ele><time>2026-05-03T12:27:48.764Z</time></trkpt><trkpt lat="45.5265467" lon="10.9969633"><ele>491.0</ele><time>2026-05-03T12:27:49.767Z</time></trkpt><trkpt lat="45.526645" lon="10.9967967"><ele>491.0</ele><time>2026-05-03T12:27:50.762Z</time></trkpt><trkpt lat="45.52675" lon="10.99664"><ele>491.0</ele><time>2026-05-03T12:27:51.755Z</time></trkpt><trkpt lat="45.52685" lon="10.9964917"><ele>491.0</ele><time>2026-05-03T12:27:52.756Z</time></trkpt><trkpt lat="45.52694" lon="10.9963567"><ele>491.25</ele><time>2026-05-03T12:27:53.757Z</time></trkpt><trkpt lat="45.52704" lon="10.996235"><ele>491.5</ele><time>2026-05-03T12:27:54.76Z</time></trkpt><trkpt lat="45.5271567" lon="10.9961467"><ele>491.75</ele><time>2026-05-03T12:27:55.754Z</time></trkpt><trkpt lat="45.527265" lon="10.99609"><ele>492.0</ele><time>2026-05-03T12:27:56.76Z</time></trkpt><trkpt lat="45.5273433" lon="10.9960517"><ele>492.0</ele><time>2026-05-03T12:27:57.759Z</time></trkpt><trkpt lat="45.527405" lon="10.9960167"><ele>492.00000000000006</ele><time>2026-05-03T12:27:58.757Z</time></trkpt><trkpt lat="45.5274217" lon="10.99581"><ele>492.00000000000006</ele><time>2026-05-03T12:28:00.755Z</time></trkpt><trkpt lat="45.5274117" lon="10.9956683"><ele>492.0</ele><time>2026-05-03T12:28:01.754Z</time></trkpt><trkpt lat="45.5274133" lon="10.9955283"><ele>492.0</ele><time>2026-05-03T12:28:02.758Z</time></trkpt><trkpt lat="45.5274433" lon="10.99538"><ele>497.0</ele><time>2026-05-03T12:28:03.755Z</time></trkpt><trkpt lat="45.5274817" lon="10.9952183"><ele>502.0</ele><time>2026-05-03T12:28:04.754Z</time></trkpt><trkpt lat="45.5275333" lon="10.9950383"><ele>507.0</ele><time>2026-05-03T12:28:05.757Z</time></trkpt><trkpt lat="45.52759" lon="10.99488"><ele>512.0</ele><time>2026-05-03T12:28:06.756Z</time></trkpt><trkpt lat="45.527645" lon="10.9947433"><ele>512.5</ele><time>2026-05-03T12:28:07.756Z</time></trkpt><trkpt lat="45.5276967" lon="10.9946283"><ele>513.0</ele><time>2026-05-03T12:28:08.755Z</time></trkpt><trkpt lat="45.52774" lon="10.9945233"><ele>513.5</ele><time>2026-05-03T12:28:09.758Z</time></trkpt><trkpt lat="45.527765" lon="10.9944267"><ele>514.0</ele><time>2026-05-03T12:28:10.766Z</time></trkpt><trkpt lat="45.5277633" lon="10.9943317"><ele>514.5</ele><time>2026-05-03T12:28:11.753Z</time></trkpt><trkpt lat="45.5277183" lon="10.9942383"><ele>515.0</ele><time>2026-05-03T12:28:12.751Z</time></trkpt><trkpt lat="45.5276567" lon="10.9941567"><ele>515.75</ele><time>2026-05-03T12:28:13.752Z</time></trkpt><trkpt lat="45.527565" lon="10.9940833"><ele>516.5</ele><time>2026-05-03T12:28:14.754Z</time></trkpt><trkpt lat="45.5274383" lon="10.9940033"><ele>517.25</ele><time>2026-05-03T12:28:15.756Z</time></trkpt><trkpt lat="45.5273067" lon="10.9939067"><ele>518.0</ele><time>2026-05-03T12:28:16.757Z</time></trkpt><trkpt lat="45.527165" lon="10.9938017"><ele>514.25</ele><time>2026-05-03T12:28:17.756Z</time></trkpt><trkpt lat="45.5270333" lon="10.9937033"><ele>510.5</ele><time>2026-05-03T12:28:18.754Z</time></trkpt><trkpt lat="45.5269167" lon="10.9936183"><ele>506.75</ele><time>2026-05-03T12:28:19.759Z</time></trkpt><trkpt lat="45.52683" lon="10.9935417"><ele>503.0</ele><time>2026-05-03T12:28:20.757Z</time></trkpt><trkpt lat="45.5267517" lon="10.9934783"><ele>503.0</ele><time>2026-05-03T12:28:21.761Z</time></trkpt><trkpt lat="45.5266617" lon="10.993425"><ele>502.99999999999994</ele><time>2026-05-03T12:28:22.758Z</time></trkpt><trkpt lat="45.526555" lon="10.9933783"><ele>502.99999999999994</ele><time>2026-05-03T12:28:23.754Z</time></trkpt><trkpt lat="45.52644" lon="10.9933467"><ele>503.0</ele><time>2026-05-03T12:28:24.754Z</time></trkpt><trkpt lat="45.52633" lon="10.9933167"><ele>503.0</ele><time>2026-05-03T12:28:25.759Z</time></trkpt><trkpt lat="45.5262267" lon="10.9932767"><ele>503.8333333333333</ele><time>2026-05-03T12:28:26.759Z</time></trkpt><trkpt lat="45.5261367" lon="10.99323"><ele>504.66666666666663</ele><time>2026-05-03T12:28:27.754Z</time></trkpt><trkpt lat="45.52607" lon="10.9931767"><ele>505.5</ele><time>2026-05-03T12:28:28.753Z</time></trkpt><trkpt lat="45.526005" lon="10.99312"><ele>506.33333333333337</ele><time>2026-05-03T12:28:29.755Z</time></trkpt><trkpt lat="45.5259517" lon="10.9930533"><ele>507.1666666666667</ele><time>2026-05-03T12:28:30.752Z</time></trkpt><trkpt lat="45.5259217" lon="10.9929667"><ele>508.0</ele><time>2026-05-03T12:28:31.755Z</time></trkpt><trkpt lat="45.525955" lon="10.99286"><ele>508.0</ele><time>2026-05-03T12:28:32.756Z</time></trkpt><trkpt lat="45.526" lon="10.9927483"><ele>508.0</ele><time>2026-05-03T12:28:33.764Z</time></trkpt><trkpt lat="45.5260633" lon="10.9926217"><ele>508.0</ele><time>2026-05-03T12:28:34.754Z</time></trkpt><trkpt lat="45.5261633" lon="10.9924683"><ele>508.0</ele><time>2026-05-03T12:28:35.759Z</time></trkpt><trkpt lat="45.52627" lon="10.9923017"><ele>512.0</ele><time>2026-05-03T12:28:36.759Z</time></trkpt><trkpt lat="45.5263733" lon="10.99214"><ele>516.0</ele><time>2026-05-03T12:28:37.754Z</time></trkpt><trkpt lat="45.5264633" lon="10.991985"><ele>520.0</ele><time>2026-05-03T12:28:38.754Z</time></trkpt><trkpt lat="45.5265417" lon="10.99185"><ele>524.0</ele><time>2026-05-03T12:28:39.755Z</time></trkpt><trkpt lat="45.5266167" lon="10.9917433"><ele>521.75</ele><time>2026-05-03T12:28:40.786Z</time></trkpt><trkpt lat="45.5266983" lon="10.991655"><ele>519.5</ele><time>2026-05-03T12:28:41.759Z</time></trkpt><trkpt lat="45.5268" lon="10.9915833"><ele>517.25</ele><time>2026-05-03T12:28:42.752Z</time></trkpt><trkpt lat="45.526905" lon="10.9915"><ele>515.0</ele><time>2026-05-03T12:28:43.754Z</time></trkpt><trkpt lat="45.5270117" lon="10.9914233"><ele>517.6</ele><time>2026-05-03T12:28:44.753Z</time></trkpt><trkpt lat="45.5271133" lon="10.9913483"><ele>520.2</ele><time>2026-05-03T12:28:45.757Z</time></trkpt><trkpt lat="45.5272083" lon="10.99127"><ele>522.8</ele><time>2026-05-03T12:28:46.754Z</time></trkpt><trkpt lat="45.5272917" lon="10.991215"><ele>525.4</ele><time>2026-05-03T12:28:47.761Z</time></trkpt><trkpt lat="45.52736" lon="10.9911733"><ele>528.0</ele><time>2026-05-03T12:28:48.754Z</time></trkpt><trkpt lat="45.5274183" lon="10.9911367"><ele>528.0</ele><time>2026-05-03T12:28:49.759Z</time></trkpt><trkpt lat="45.5274533" lon="10.9910567"><ele>528.0</ele><time>2026-05-03T12:28:50.762Z</time></trkpt><trkpt lat="45.52741" lon="10.9909717"><ele>528.0</ele><time>2026-05-03T12:28:51.756Z</time></trkpt><trkpt lat="45.5273383" lon="10.9908817"><ele>528.0</ele><time>2026-05-03T12:28:53.763Z</time></trkpt><trkpt lat="45.5272733" lon="10.9908783"><ele>528.0</ele><time>2026-05-03T12:28:54.754Z</time></trkpt><trkpt lat="45.5271417" lon="10.990915"><ele>528.0</ele><time>2026-05-03T12:28:55.753Z</time></trkpt><trkpt lat="45.5269967" lon="10.99095"><ele>525.4</ele><time>2026-05-03T12:28:56.761Z</time></trkpt><trkpt lat="45.526885" lon="10.990955"><ele>522.8</ele><time>2026-05-03T12:28:57.759Z</time></trkpt><trkpt lat="45.526775" lon="10.9909783"><ele>520.2</ele><time>2026-05-03T12:28:58.753Z</time></trkpt><trkpt lat="45.52667" lon="10.991015"><ele>517.6</ele><time>2026-05-03T12:28:59.754Z</time></trkpt><trkpt lat="45.526565" lon="10.9910617"><ele>515.0</ele><time>2026-05-03T12:29:00.756Z</time></trkpt><trkpt lat="45.5264533" lon="10.9911183"><ele>515.0</ele><time>2026-05-03T12:29:01.754Z</time></trkpt><trkpt lat="45.5263383" lon="10.9911833"><ele>515.0</ele><time>2026-05-03T12:29:02.758Z</time></trkpt><trkpt lat="45.5262267" lon="10.9912383"><ele>515.0</ele><time>2026-05-03T12:29:03.765Z</time></trkpt><trkpt lat="45.5261133" lon="10.9912733"><ele>515.0</ele><time>2026-05-03T12:29:04.751Z</time></trkpt><trkpt lat="45.525995" lon="10.9912967"><ele>512.75</ele><time>2026-05-03T12:29:05.762Z</time></trkpt><trkpt lat="45.5258733" lon="10.9913017"><ele>510.5</ele><time>2026-05-03T12:29:06.759Z</time></trkpt><trkpt lat="45.5257483" lon="10.9913233"><ele>508.25</ele><time>2026-05-03T12:29:07.759Z</time></trkpt><trkpt lat="45.52563" lon="10.99134"><ele>506.0</ele><time>2026-05-03T12:29:08.757Z</time></trkpt><trkpt lat="45.52553" lon="10.9913633"><ele>506.0</ele><time>2026-05-03T12:29:09.761Z</time></trkpt><trkpt lat="45.5254417" lon="10.9913733"><ele>506.0</ele><time>2026-05-03T12:29:10.756Z</time></trkpt><trkpt lat="45.52536" lon="10.9913633"><ele>506.0</ele><time>2026-05-03T12:29:11.754Z</time></trkpt><trkpt lat="45.5252733" lon="10.9913417"><ele>506.0</ele><time>2026-05-03T12:29:12.756Z</time></trkpt><trkpt lat="45.5251733" lon="10.991325"><ele>506.0</ele><time>2026-05-03T12:29:13.756Z</time></trkpt><trkpt lat="45.5250667" lon="10.9913267"><ele>504.25</ele><time>2026-05-03T12:29:14.761Z</time></trkpt><trkpt lat="45.5249517" lon="10.9913517"><ele>502.5</ele><time>2026-05-03T12:29:15.758Z</time></trkpt><trkpt lat="45.5248283" lon="10.9913717"><ele>500.75</ele><time>2026-05-03T12:29:16.76Z</time></trkpt><trkpt lat="45.52471" lon="10.9913967"><ele>499.0</ele><time>2026-05-03T12:29:17.759Z</time></trkpt><trkpt lat="45.5245967" lon="10.9914233"><ele>499.6</ele><time>2026-05-03T12:29:18.76Z</time></trkpt><trkpt lat="45.5244867" lon="10.99146"><ele>500.2</ele><time>2026-05-03T12:29:19.756Z</time></trkpt><trkpt lat="45.5243867" lon="10.9914883"><ele>500.80000000000007</ele><time>2026-05-03T12:29:20.756Z</time></trkpt><trkpt lat="45.524285" lon="10.9914883"><ele>501.40000000000003</ele><time>2026-05-03T12:29:21.753Z</time></trkpt><trkpt lat="45.5241783" lon="10.9914833"><ele>502.0</ele><time>2026-05-03T12:29:22.754Z</time></trkpt><trkpt lat="45.5240667" lon="10.9914567"><ele>502.0</ele><time>2026-05-03T12:29:23.757Z</time></trkpt><trkpt lat="45.5239533" lon="10.9914233"><ele>502.0</ele><time>2026-05-03T12:29:24.753Z</time></trkpt><trkpt lat="45.5238367" lon="10.9913667"><ele>502.0</ele><time>2026-05-03T12:29:25.753Z</time></trkpt><trkpt lat="45.5237083" lon="10.9912867"><ele>502.0</ele><time>2026-05-03T12:29:26.754Z</time></trkpt><trkpt lat="45.5235783" lon="10.9911867"><ele>500.0</ele><time>2026-05-03T12:29:27.753Z</time></trkpt><trkpt lat="45.52344" lon="10.9910767"><ele>498.0</ele><time>2026-05-03T12:29:28.753Z</time></trkpt><trkpt lat="45.5232883" lon="10.9909767"><ele>496.0</ele><time>2026-05-03T12:29:29.759Z</time></trkpt><trkpt lat="45.52313" lon="10.9909017"><ele>496.0</ele><time>2026-05-03T12:29:30.758Z</time></trkpt><trkpt lat="45.52298" lon="10.990865"><ele>496.0</ele><time>2026-05-03T12:29:31.753Z</time></trkpt><trkpt lat="45.522835" lon="10.9908383"><ele>496.0</ele><time>2026-05-03T12:29:32.756Z</time></trkpt><trkpt lat="45.522695" lon="10.9907817"><ele>496.0</ele><time>2026-05-03T12:29:33.753Z</time></trkpt><trkpt lat="45.522555" lon="10.9907117"><ele>498.0</ele><time>2026-05-03T12:29:34.758Z</time></trkpt><trkpt lat="45.5224233" lon="10.9906317"><ele>500.0</ele><time>2026-05-03T12:29:35.753Z</time></trkpt><trkpt lat="45.5222883" lon="10.9905583"><ele>502.0</ele><time>2026-05-03T12:29:36.757Z</time></trkpt><trkpt lat="45.522135" lon="10.9904983"><ele>504.0</ele><time>2026-05-03T12:29:37.756Z</time></trkpt><trkpt lat="45.5219683" lon="10.990435"><ele>504.0</ele><time>2026-05-03T12:29:38.757Z</time></trkpt><trkpt lat="45.5218" lon="10.99036"><ele>504.0</ele><time>2026-05-03T12:29:39.756Z</time></trkpt><trkpt lat="45.521645" lon="10.9902883"><ele>504.0</ele><time>2026-05-03T12:29:40.756Z</time></trkpt><trkpt lat="45.5215117" lon="10.99021"><ele>504.0</ele><time>2026-05-03T12:29:41.752Z</time></trkpt><trkpt lat="45.5214033" lon="10.9901183"><ele>504.0</ele><time>2026-05-03T12:29:42.758Z</time></trkpt><trkpt lat="45.5213217" lon="10.9900017"><ele>504.0</ele><time>2026-05-03T12:29:43.754Z</time></trkpt><trkpt lat="45.521265" lon="10.9898383"><ele>504.0</ele><time>2026-05-03T12:29:44.756Z</time></trkpt><trkpt lat="45.521215" lon="10.98964"><ele>505.0</ele><time>2026-05-03T12:29:45.757Z</time></trkpt><trkpt lat="45.52117" lon="10.98942"><ele>506.0</ele><time>2026-05-03T12:29:46.791Z</time></trkpt><trkpt lat="45.5211233" lon="10.9891783"><ele>507.0</ele><time>2026-05-03T12:29:47.761Z</time></trkpt><trkpt lat="45.521075" lon="10.9889267"><ele>508.0</ele><time>2026-05-03T12:29:48.76Z</time></trkpt><trkpt lat="45.5210283" lon="10.9886683"><ele>509.0</ele><time>2026-05-03T12:29:49.758Z</time></trkpt><trkpt lat="45.5209933" lon="10.9884267"><ele>510.0</ele><time>2026-05-03T12:29:50.756Z</time></trkpt><trkpt lat="45.5209767" lon="10.988205"><ele>510.66666666666663</ele><time>2026-05-03T12:29:51.756Z</time></trkpt><trkpt lat="45.5209967" lon="10.9879967"><ele>511.3333333333333</ele><time>2026-05-03T12:29:52.755Z</time></trkpt><trkpt lat="45.521055" lon="10.9878017"><ele>512.0</ele><time>2026-05-03T12:29:53.755Z</time></trkpt><trkpt lat="45.5211467" lon="10.9876233"><ele>512.75</ele><time>2026-05-03T12:29:54.754Z</time></trkpt><trkpt lat="45.521265" lon="10.9874683"><ele>513.5</ele><time>2026-05-03T12:29:55.756Z</time></trkpt><trkpt lat="45.521385" lon="10.98734"><ele>514.25</ele><time>2026-05-03T12:29:56.759Z</time></trkpt><trkpt lat="45.5214983" lon="10.9872467"><ele>515.0</ele><time>2026-05-03T12:29:57.76Z</time></trkpt><trkpt lat="45.5216217" lon="10.9872067"><ele>515.0</ele><time>2026-05-03T12:29:58.759Z</time></trkpt><trkpt lat="45.52176" lon="10.9871983"><ele>515.0</ele><time>2026-05-03T12:29:59.752Z</time></trkpt><trkpt lat="45.521905" lon="10.9871933"><ele>515.0</ele><time>2026-05-03T12:30:00.756Z</time></trkpt><trkpt lat="45.52205" lon="10.9871683"><ele>515.0</ele><time>2026-05-03T12:30:01.756Z</time></trkpt><trkpt lat="45.522205" lon="10.9870933"><ele>519.6666666666666</ele><time>2026-05-03T12:30:02.766Z</time></trkpt><trkpt lat="45.5223617" lon="10.9869783"><ele>524.3333333333334</ele><time>2026-05-03T12:30:03.754Z</time></trkpt><trkpt lat="45.5225233" lon="10.986845"><ele>529.0</ele><time>2026-05-03T12:30:04.758Z</time></trkpt><trkpt lat="45.52269" lon="10.9866917"><ele>527.6666666666667</ele><time>2026-05-03T12:30:05.756Z</time></trkpt><trkpt lat="45.522855" lon="10.986525"><ele>526.3333333333334</ele><time>2026-05-03T12:30:06.758Z</time></trkpt><trkpt lat="45.5230067" lon="10.9863733"><ele>525.0</ele><time>2026-05-03T12:30:07.753Z</time></trkpt><trkpt lat="45.52314" lon="10.98624"><ele>525.0</ele><time>2026-05-03T12:30:08.759Z</time></trkpt><trkpt lat="45.5232617" lon="10.98615"><ele>525.0</ele><time>2026-05-03T12:30:09.759Z</time></trkpt><trkpt lat="45.5233783" lon="10.9860817"><ele>525.0</ele><time>2026-05-03T12:30:10.76Z</time></trkpt><trkpt lat="45.523475" lon="10.9860067"><ele>525.0</ele><time>2026-05-03T12:30:11.757Z</time></trkpt><trkpt lat="45.5235517" lon="10.98592"><ele>522.6</ele><time>2026-05-03T12:30:12.76Z</time></trkpt><trkpt lat="45.523605" lon="10.9858267"><ele>520.2</ele><time>2026-05-03T12:30:13.754Z</time></trkpt><trkpt lat="45.5236483" lon="10.98574"><ele>517.8</ele><time>2026-05-03T12:30:14.755Z</time></trkpt><trkpt lat="45.5236367" lon="10.985635"><ele>515.4</ele><time>2026-05-03T12:30:15.76Z</time></trkpt><trkpt lat="45.5235167" lon="10.985535"><ele>513.0</ele><time>2026-05-03T12:30:16.756Z</time></trkpt><trkpt lat="45.523415" lon="10.9854467"><ele>513.0</ele><time>2026-05-03T12:30:17.761Z</time></trkpt><trkpt lat="45.52331" lon="10.9853367"><ele>513.0</ele><time>2026-05-03T12:30:18.758Z</time></trkpt><trkpt lat="45.52322" lon="10.9852167"><ele>513.0</ele><time>2026-05-03T12:30:19.753Z</time></trkpt><trkpt lat="45.5231383" lon="10.9850917"><ele>513.0</ele><time>2026-05-03T12:30:20.753Z</time></trkpt><trkpt lat="45.5230417" lon="10.9849883"><ele>513.25</ele><time>2026-05-03T12:30:21.756Z</time></trkpt><trkpt lat="45.5229217" lon="10.984935"><ele>513.5</ele><time>2026-05-03T12:30:22.765Z</time></trkpt><trkpt lat="45.5227817" lon="10.9849233"><ele>513.75</ele><time>2026-05-03T12:30:23.755Z</time></trkpt><trkpt lat="45.5226267" lon="10.9849267"><ele>514.0</ele><time>2026-05-03T12:30:24.756Z</time></trkpt><trkpt lat="45.522465" lon="10.9849083"><ele>514.0</ele><time>2026-05-03T12:30:25.764Z</time></trkpt><trkpt lat="45.5222983" lon="10.9848617"><ele>514.0</ele><time>2026-05-03T12:30:26.758Z</time></trkpt><trkpt lat="45.5221233" lon="10.9848"><ele>514.0</ele><time>2026-05-03T12:30:27.756Z</time></trkpt><trkpt lat="45.5219383" lon="10.9847483"><ele>511.6666666666667</ele><time>2026-05-03T12:30:28.752Z</time></trkpt><trkpt lat="45.5217617" lon="10.9847117"><ele>509.33333333333337</ele><time>2026-05-03T12:30:29.756Z</time></trkpt><trkpt lat="45.5215983" lon="10.9846867"><ele>507.0</ele><time>2026-05-03T12:30:30.761Z</time></trkpt><trkpt lat="45.52145" lon="10.9846633"><ele>507.0</ele><time>2026-05-03T12:30:31.755Z</time></trkpt><trkpt lat="45.5213183" lon="10.9846433"><ele>507.00000000000006</ele><time>2026-05-03T12:30:32.762Z</time></trkpt><trkpt lat="45.5212083" lon="10.9846333"><ele>507.00000000000006</ele><time>2026-05-03T12:30:33.753Z</time></trkpt><trkpt lat="45.52112" lon="10.9846133"><ele>507.0</ele><time>2026-05-03T12:30:34.753Z</time></trkpt><trkpt lat="45.521045" lon="10.9845683"><ele>507.0</ele><time>2026-05-03T12:30:35.755Z</time></trkpt><trkpt lat="45.5209833" lon="10.9844883"><ele>507.5</ele><time>2026-05-03T12:30:36.755Z</time></trkpt><trkpt lat="45.5209717" lon="10.9843383"><ele>508.0</ele><time>2026-05-03T12:30:37.76Z</time></trkpt><trkpt lat="45.5209667" lon="10.9841667"><ele>508.5</ele><time>2026-05-03T12:30:38.758Z</time></trkpt><trkpt lat="45.5209767" lon="10.9839917"><ele>509.0</ele><time>2026-05-03T12:30:39.753Z</time></trkpt><trkpt lat="45.5210233" lon="10.9838217"><ele>509.0</ele><time>2026-05-03T12:30:40.758Z</time></trkpt><trkpt lat="45.52111" lon="10.9836633"><ele>509.0</ele><time>2026-05-03T12:30:41.754Z</time></trkpt><trkpt lat="45.5212217" lon="10.9835367"><ele>509.0</ele><time>2026-05-03T12:30:42.757Z</time></trkpt><trkpt lat="45.5213433" lon="10.9834483"><ele>509.0</ele><time>2026-05-03T12:30:43.76Z</time></trkpt><trkpt lat="45.5214833" lon="10.983385"><ele>507.75</ele><time>2026-05-03T12:30:44.758Z</time></trkpt><trkpt lat="45.5216317" lon="10.9833383"><ele>506.5</ele><time>2026-05-03T12:30:45.755Z</time></trkpt><trkpt lat="45.5217633" lon="10.9832967"><ele>505.25</ele><time>2026-05-03T12:30:46.762Z</time></trkpt><trkpt lat="45.5218783" lon="10.98325"><ele>504.0</ele><time>2026-05-03T12:30:47.76Z</time></trkpt><trkpt lat="45.521965" lon="10.9831817"><ele>504.0</ele><time>2026-05-03T12:30:48.753Z</time></trkpt><trkpt lat="45.52203" lon="10.98309"><ele>504.0</ele><time>2026-05-03T12:30:49.764Z</time></trkpt><trkpt lat="45.5220783" lon="10.9829833"><ele>504.0</ele><time>2026-05-03T12:30:50.763Z</time></trkpt><trkpt lat="45.5220883" lon="10.9828367"><ele>504.0</ele><time>2026-05-03T12:30:51.757Z</time></trkpt><trkpt lat="45.5219417" lon="10.9826"><ele>503.33333333333337</ele><time>2026-05-03T12:30:52.756Z</time></trkpt><trkpt lat="45.521825" lon="10.9824133"><ele>502.6666666666667</ele><time>2026-05-03T12:30:53.756Z</time></trkpt><trkpt lat="45.5217233" lon="10.9822417"><ele>502.0</ele><time>2026-05-03T12:30:54.756Z</time></trkpt><trkpt lat="45.5216217" lon="10.982085"><ele>502.0</ele><time>2026-05-03T12:30:55.757Z</time></trkpt><trkpt lat="45.5215317" lon="10.9819533"><ele>502.0</ele><time>2026-05-03T12:30:56.758Z</time></trkpt><trkpt lat="45.5214533" lon="10.9818233"><ele>502.0</ele><time>2026-05-03T12:30:57.762Z</time></trkpt><trkpt lat="45.5213883" lon="10.98169"><ele>502.0</ele><time>2026-05-03T12:30:58.761Z</time></trkpt><trkpt lat="45.5213333" lon="10.9815617"><ele>503.0</ele><time>2026-05-03T12:30:59.758Z</time></trkpt><trkpt lat="45.521295" lon="10.98142"><ele>504.0</ele><time>2026-05-03T12:31:00.76Z</time></trkpt><trkpt lat="45.5212783" lon="10.9812583"><ele>505.0</ele><time>2026-05-03T12:31:01.754Z</time></trkpt><trkpt lat="45.5212883" lon="10.9810617"><ele>506.0</ele><time>2026-05-03T12:31:02.756Z</time></trkpt><trkpt lat="45.5213217" lon="10.9808533"><ele>505.75</ele><time>2026-05-03T12:31:03.753Z</time></trkpt><trkpt lat="45.5213583" lon="10.9806417"><ele>505.5</ele><time>2026-05-03T12:31:04.76Z</time></trkpt><trkpt lat="45.52138" lon="10.9804383"><ele>505.25</ele><time>2026-05-03T12:31:05.761Z</time></trkpt><trkpt lat="45.5213867" lon="10.9802633"><ele>505.0</ele><time>2026-05-03T12:31:06.76Z</time></trkpt><trkpt lat="45.5213783" lon="10.9800967"><ele>504.33333333333337</ele><time>2026-05-03T12:31:07.755Z</time></trkpt><trkpt lat="45.5213617" lon="10.9799467"><ele>503.6666666666667</ele><time>2026-05-03T12:31:08.763Z</time></trkpt><trkpt lat="45.5213583" lon="10.9798267"><ele>503.0</ele><time>2026-05-03T12:31:09.758Z</time></trkpt><trkpt lat="45.5213733" lon="10.979725"><ele>502.33333333333337</ele><time>2026-05-03T12:31:10.756Z</time></trkpt><trkpt lat="45.5214117" lon="10.9796383"><ele>501.6666666666667</ele><time>2026-05-03T12:31:11.763Z</time></trkpt><trkpt lat="45.521495" lon="10.9795867"><ele>501.0</ele><time>2026-05-03T12:31:12.762Z</time></trkpt><trkpt lat="45.52161" lon="10.9795733"><ele>501.0</ele><time>2026-05-03T12:31:13.766Z</time></trkpt><trkpt lat="45.5217467" lon="10.9795717"><ele>501.0</ele><time>2026-05-03T12:31:14.757Z</time></trkpt><trkpt lat="45.521905" lon="10.9795833"><ele>501.0</ele><time>2026-05-03T12:31:15.754Z</time></trkpt><trkpt lat="45.5220767" lon="10.9795933"><ele>503.33333333333337</ele><time>2026-05-03T12:31:16.754Z</time></trkpt><trkpt lat="45.5222433" lon="10.9795967"><ele>505.6666666666667</ele><time>2026-05-03T12:31:17.76Z</time></trkpt><trkpt lat="45.5224083" lon="10.9796"><ele>508.0</ele><time>2026-05-03T12:31:18.758Z</time></trkpt><trkpt lat="45.52256" lon="10.979595"><ele>508.0</ele><time>2026-05-03T12:31:19.756Z</time></trkpt><trkpt lat="45.522705" lon="10.9795667"><ele>508.0</ele><time>2026-05-03T12:31:20.755Z</time></trkpt><trkpt lat="45.5228533" lon="10.979515"><ele>508.0</ele><time>2026-05-03T12:31:21.756Z</time></trkpt><trkpt lat="45.52298" lon="10.9794417"><ele>508.0</ele><time>2026-05-03T12:31:22.756Z</time></trkpt><trkpt lat="45.5230833" lon="10.9793567"><ele>507.75</ele><time>2026-05-03T12:31:23.758Z</time></trkpt><trkpt lat="45.5231633" lon="10.97924"><ele>507.5</ele><time>2026-05-03T12:31:24.76Z</time></trkpt><trkpt lat="45.523205" lon="10.979095"><ele>507.25</ele><time>2026-05-03T12:31:25.756Z</time></trkpt><trkpt lat="45.52322" lon="10.9789233"><ele>507.0</ele><time>2026-05-03T12:31:26.757Z</time></trkpt><trkpt lat="45.5232117" lon="10.9787467"><ele>505.40000000000003</ele><time>2026-05-03T12:31:27.753Z</time></trkpt><trkpt lat="45.5231717" lon="10.978575"><ele>503.80000000000007</ele><time>2026-05-03T12:31:28.766Z</time></trkpt><trkpt lat="45.52311" lon="10.9784367"><ele>502.2</ele><time>2026-05-03T12:31:29.76Z</time></trkpt><trkpt lat="45.5230267" lon="10.9783483"><ele>500.6</ele><time>2026-05-03T12:31:30.755Z</time></trkpt><trkpt lat="45.5229333" lon="10.978335"><ele>499.0</ele><time>2026-05-03T12:31:31.758Z</time></trkpt><trkpt lat="45.5228217" lon="10.9783667"><ele>497.0</ele><time>2026-05-03T12:31:32.757Z</time></trkpt><trkpt lat="45.52271" lon="10.978405"><ele>495.0</ele><time>2026-05-03T12:31:33.766Z</time></trkpt><trkpt lat="45.5225967" lon="10.978425"><ele>493.0</ele><time>2026-05-03T12:31:34.759Z</time></trkpt><trkpt lat="45.522485" lon="10.9784033"><ele>491.0</ele><time>2026-05-03T12:31:35.758Z</time></trkpt><trkpt lat="45.5223733" lon="10.97834"><ele>491.0</ele><time>2026-05-03T12:31:36.762Z</time></trkpt><trkpt lat="45.5222583" lon="10.9782183"><ele>491.0</ele><time>2026-05-03T12:31:37.761Z</time></trkpt><trkpt lat="45.5221467" lon="10.9780767"><ele>491.0</ele><time>2026-05-03T12:31:38.756Z</time></trkpt><trkpt lat="45.522055" lon="10.9778933"><ele>490.3333333333333</ele><time>2026-05-03T12:31:39.753Z</time></trkpt><trkpt lat="45.52198" lon="10.97768"><ele>489.66666666666663</ele><time>2026-05-03T12:31:40.762Z</time></trkpt><trkpt lat="45.521905" lon="10.97744"><ele>489.0</ele><time>2026-05-03T12:31:41.752Z</time></trkpt><trkpt lat="45.5218267" lon="10.977195"><ele>489.0</ele><time>2026-05-03T12:31:42.759Z</time></trkpt><trkpt lat="45.5217417" lon="10.9769483"><ele>489.0</ele><time>2026-05-03T12:31:43.756Z</time></trkpt><trkpt lat="45.5216467" lon="10.976695"><ele>489.0</ele><time>2026-05-03T12:31:44.761Z</time></trkpt><trkpt lat="45.5215483" lon="10.9764333"><ele>491.0</ele><time>2026-05-03T12:31:45.758Z</time></trkpt><trkpt lat="45.5214517" lon="10.976185"><ele>493.0</ele><time>2026-05-03T12:31:46.755Z</time></trkpt><trkpt lat="45.521345" lon="10.9759633"><ele>495.0</ele><time>2026-05-03T12:31:47.758Z</time></trkpt><trkpt lat="45.521225" lon="10.975765"><ele>495.0</ele><time>2026-05-03T12:31:48.756Z</time></trkpt><trkpt lat="45.5211" lon="10.9755817"><ele>495.0</ele><time>2026-05-03T12:31:49.76Z</time></trkpt><trkpt lat="45.5209783" lon="10.975425"><ele>495.0</ele><time>2026-05-03T12:31:50.755Z</time></trkpt><trkpt lat="45.5208583" lon="10.9753067"><ele>495.0</ele><time>2026-05-03T12:31:51.754Z</time></trkpt><trkpt lat="45.5207433" lon="10.9752167"><ele>495.0</ele><time>2026-05-03T12:31:52.759Z</time></trkpt><trkpt lat="45.5206333" lon="10.9751367"><ele>495.0</ele><time>2026-05-03T12:31:53.754Z</time></trkpt><trkpt lat="45.5205283" lon="10.97507"><ele>495.0</ele><time>2026-05-03T12:31:54.753Z</time></trkpt><trkpt lat="45.52044" lon="10.9750183"><ele>496.8333333333333</ele><time>2026-05-03T12:31:55.758Z</time></trkpt><trkpt lat="45.520365" lon="10.9749883"><ele>498.66666666666663</ele><time>2026-05-03T12:31:56.755Z</time></trkpt><trkpt lat="45.5202767" lon="10.9749367"><ele>500.5</ele><time>2026-05-03T12:31:58.758Z</time></trkpt><trkpt lat="45.5203233" lon="10.974845"><ele>502.3333333333333</ele><time>2026-05-03T12:32:01.76Z</time></trkpt><trkpt lat="45.5203867" lon="10.974855"><ele>504.16666666666663</ele><time>2026-05-03T12:32:02.764Z</time></trkpt><trkpt lat="45.520475" lon="10.9748817"><ele>506.0</ele><time>2026-05-03T12:32:03.758Z</time></trkpt><trkpt lat="45.5205833" lon="10.9749267"><ele>506.75</ele><time>2026-05-03T12:32:04.756Z</time></trkpt><trkpt lat="45.52072" lon="10.9750067"><ele>507.5</ele><time>2026-05-03T12:32:05.757Z</time></trkpt><trkpt lat="45.5208517" lon="10.975095"><ele>508.25</ele><time>2026-05-03T12:32:06.759Z</time></trkpt><trkpt lat="45.5209883" lon="10.9751933"><ele>509.0</ele><time>2026-05-03T12:32:07.758Z</time></trkpt><trkpt lat="45.521135" lon="10.9753067"><ele>509.3333333333333</ele><time>2026-05-03T12:32:08.76Z</time></trkpt><trkpt lat="45.5212917" lon="10.9754267"><ele>509.66666666666663</ele><time>2026-05-03T12:32:09.762Z</time></trkpt><trkpt lat="45.52145" lon="10.9755433"><ele>510.0</ele><time>2026-05-03T12:32:10.758Z</time></trkpt><trkpt lat="45.521615" lon="10.9756683"><ele>510.0</ele><time>2026-05-03T12:32:11.753Z</time></trkpt><trkpt lat="45.5217833" lon="10.9758017"><ele>510.0</ele><time>2026-05-03T12:32:12.759Z</time></trkpt><trkpt lat="45.5219533" lon="10.9759317"><ele>510.0</ele><time>2026-05-03T12:32:13.764Z</time></trkpt><trkpt lat="45.5221283" lon="10.9760517"><ele>510.33333333333337</ele><time>2026-05-03T12:32:14.765Z</time></trkpt><trkpt lat="45.522305" lon="10.9761533"><ele>510.6666666666667</ele><time>2026-05-03T12:32:15.762Z</time></trkpt><trkpt lat="45.5224833" lon="10.9762367"><ele>511.0</ele><time>2026-05-03T12:32:16.757Z</time></trkpt><trkpt lat="45.52265" lon="10.9763267"><ele>511.0</ele><time>2026-05-03T12:32:17.755Z</time></trkpt><trkpt lat="45.5228033" lon="10.9764433"><ele>511.0</ele><time>2026-05-03T12:32:18.754Z</time></trkpt><trkpt lat="45.5229433" lon="10.9765717"><ele>511.0</ele><time>2026-05-03T12:32:19.756Z</time></trkpt><trkpt lat="45.5230933" lon="10.97668"><ele>510.0</ele><time>2026-05-03T12:32:20.756Z</time></trkpt><trkpt lat="45.5232567" lon="10.9767417"><ele>509.0</ele><time>2026-05-03T12:32:21.755Z</time></trkpt><trkpt lat="45.5234267" lon="10.97678"><ele>508.0</ele><time>2026-05-03T12:32:22.753Z</time></trkpt><trkpt lat="45.5235917" lon="10.9768083"><ele>507.6666666666667</ele><time>2026-05-03T12:32:23.754Z</time></trkpt><trkpt lat="45.52375" lon="10.9768183"><ele>507.33333333333337</ele><time>2026-05-03T12:32:24.757Z</time></trkpt><trkpt lat="45.5239083" lon="10.9768067"><ele>507.0</ele><time>2026-05-03T12:32:25.757Z</time></trkpt><trkpt lat="45.5240783" lon="10.9767583"><ele>507.0</ele><time>2026-05-03T12:32:26.752Z</time></trkpt><trkpt lat="45.524255" lon="10.9766883"><ele>507.0</ele><time>2026-05-03T12:32:27.755Z</time></trkpt><trkpt lat="45.5244417" lon="10.9766"><ele>507.0</ele><time>2026-05-03T12:32:28.761Z</time></trkpt><trkpt lat="45.5246233" lon="10.976515"><ele>512.6666666666666</ele><time>2026-05-03T12:32:29.756Z</time></trkpt><trkpt lat="45.5247867" lon="10.976445"><ele>518.3333333333333</ele><time>2026-05-03T12:32:30.759Z</time></trkpt><trkpt lat="45.524935" lon="10.976385"><ele>524.0</ele><time>2026-05-03T12:32:31.756Z</time></trkpt><trkpt lat="45.525075" lon="10.9763433"><ele>524.0</ele><time>2026-05-03T12:32:32.753Z</time></trkpt><trkpt lat="45.5252117" lon="10.9763267"><ele>524.0</ele><time>2026-05-03T12:32:33.757Z</time></trkpt><trkpt lat="45.5253517" lon="10.976345"><ele>524.0</ele><time>2026-05-03T12:32:34.761Z</time></trkpt><trkpt lat="45.525495" lon="10.9764117"><ele>524.0</ele><time>2026-05-03T12:32:35.755Z</time></trkpt><trkpt lat="45.5256433" lon="10.9765083"><ele>525.25</ele><time>2026-05-03T12:32:36.758Z</time></trkpt><trkpt lat="45.525785" lon="10.9765883"><ele>526.5</ele><time>2026-05-03T12:32:37.756Z</time></trkpt><trkpt lat="45.5259233" lon="10.9766583"><ele>527.75</ele><time>2026-05-03T12:32:38.755Z</time></trkpt><trkpt lat="45.52607" lon="10.9766983"><ele>529.0</ele><time>2026-05-03T12:32:39.756Z</time></trkpt><trkpt lat="45.5262267" lon="10.97671"><ele>528.0</ele><time>2026-05-03T12:32:40.757Z</time></trkpt><trkpt lat="45.5263917" lon="10.9767033"><ele>527.0</ele><time>2026-05-03T12:32:41.756Z</time></trkpt><trkpt lat="45.526565" lon="10.97669"><ele>526.0</ele><time>2026-05-03T12:32:42.755Z</time></trkpt><trkpt lat="45.5267417" lon="10.9766733"><ele>529.0</ele><time>2026-05-03T12:32:43.751Z</time></trkpt><trkpt lat="45.52692" lon="10.9766517"><ele>532.0</ele><time>2026-05-03T12:32:44.759Z</time></trkpt><trkpt lat="45.5270933" lon="10.9766283"><ele>535.0</ele><time>2026-05-03T12:32:45.755Z</time></trkpt><trkpt lat="45.5272467" lon="10.9766083"><ele>536.2</ele><time>2026-05-03T12:32:46.753Z</time></trkpt><trkpt lat="45.5273717" lon="10.9766167"><ele>537.4</ele><time>2026-05-03T12:32:47.752Z</time></trkpt><trkpt lat="45.52747" lon="10.976635"><ele>538.6</ele><time>2026-05-03T12:32:48.752Z</time></trkpt><trkpt lat="45.5275433" lon="10.9766667"><ele>539.8</ele><time>2026-05-03T12:32:49.755Z</time></trkpt><trkpt lat="45.5276383" lon="10.9767683"><ele>541.0</ele><time>2026-05-03T12:32:51.757Z</time></trkpt><trkpt lat="45.5276283" lon="10.9769617"><ele>541.25</ele><time>2026-05-03T12:32:53.757Z</time></trkpt><trkpt lat="45.5276083" lon="10.977095"><ele>541.5</ele><time>2026-05-03T12:32:54.758Z</time></trkpt><trkpt lat="45.5275517" lon="10.9772533"><ele>541.75</ele><time>2026-05-03T12:32:55.755Z</time></trkpt><trkpt lat="45.527485" lon="10.9774367"><ele>542.0</ele><time>2026-05-03T12:32:56.757Z</time></trkpt><trkpt lat="45.527425" lon="10.9776167"><ele>543.8000000000001</ele><time>2026-05-03T12:32:57.752Z</time></trkpt><trkpt lat="45.5273733" lon="10.9777783"><ele>545.6</ele><time>2026-05-03T12:32:58.752Z</time></trkpt><trkpt lat="45.52733" lon="10.977905"><ele>547.4000000000001</ele><time>2026-05-03T12:32:59.755Z</time></trkpt><trkpt lat="45.527295" lon="10.97801"><ele>549.2</ele><time>2026-05-03T12:33:00.756Z</time></trkpt><trkpt lat="45.52734" lon="10.97808"><ele>551.0</ele><time>2026-05-03T12:33:02.758Z</time></trkpt><trkpt lat="45.5274617" lon="10.977985"><ele>551.0</ele><time>2026-05-03T12:33:04.758Z</time></trkpt><trkpt lat="45.5275317" lon="10.97789"><ele>551.0</ele><time>2026-05-03T12:33:05.759Z</time></trkpt><trkpt lat="45.5275917" lon="10.9778"><ele>551.0</ele><time>2026-05-03T12:33:06.76Z</time></trkpt><trkpt lat="45.5276433" lon="10.9777233"><ele>551.0</ele><time>2026-05-03T12:33:07.756Z</time></trkpt><trkpt lat="45.5277283" lon="10.9776483"><ele>551.0</ele><time>2026-05-03T12:33:09.755Z</time></trkpt><trkpt lat="45.5277383" lon="10.9777517"><ele>551.0</ele><time>2026-05-03T12:33:11.753Z</time></trkpt><trkpt lat="45.5277133" lon="10.97786"><ele>551.0</ele><time>2026-05-03T12:33:12.759Z</time></trkpt><trkpt lat="45.5276633" lon="10.9780117"><ele>551.0</ele><time>2026-05-03T12:33:13.757Z</time></trkpt><trkpt lat="45.527625" lon="10.9781833"><ele>551.0</ele><time>2026-05-03T12:33:14.756Z</time></trkpt><trkpt lat="45.5275783" lon="10.9783717"><ele>551.0</ele><time>2026-05-03T12:33:15.787Z</time></trkpt><trkpt lat="45.52753" lon="10.9785717"><ele>552.4</ele><time>2026-05-03T12:33:16.757Z</time></trkpt><trkpt lat="45.527485" lon="10.978755"><ele>553.8</ele><time>2026-05-03T12:33:17.754Z</time></trkpt><trkpt lat="45.5274483" lon="10.9789"><ele>555.1999999999999</ele><time>2026-05-03T12:33:18.756Z</time></trkpt><trkpt lat="45.5274183" lon="10.9790183"><ele>556.6</ele><time>2026-05-03T12:33:19.76Z</time></trkpt><trkpt lat="45.5273983" lon="10.979115"><ele>558.0</ele><time>2026-05-03T12:33:20.757Z</time></trkpt><trkpt lat="45.5274683" lon="10.9791667"><ele>558.0</ele><time>2026-05-03T12:33:22.757Z</time></trkpt><trkpt lat="45.527545" lon="10.97909"><ele>558.0</ele><time>2026-05-03T12:33:23.762Z</time></trkpt><trkpt lat="45.527625" lon="10.9789933"><ele>558.0</ele><time>2026-05-03T12:33:24.758Z</time></trkpt><trkpt lat="45.5277117" lon="10.9788883"><ele>558.0</ele><time>2026-05-03T12:33:25.753Z</time></trkpt><trkpt lat="45.5278133" lon="10.9787933"><ele>558.0</ele><time>2026-05-03T12:33:26.759Z</time></trkpt><trkpt lat="45.5279283" lon="10.9787117"><ele>560.8</ele><time>2026-05-03T12:33:27.755Z</time></trkpt><trkpt lat="45.5280383" lon="10.97864"><ele>563.5999999999999</ele><time>2026-05-03T12:33:28.76Z</time></trkpt><trkpt lat="45.52814" lon="10.978565"><ele>566.4000000000001</ele><time>2026-05-03T12:33:29.756Z</time></trkpt><trkpt lat="45.52823" lon="10.9784933"><ele>569.2</ele><time>2026-05-03T12:33:30.76Z</time></trkpt><trkpt lat="45.528295" lon="10.9784217"><ele>572.0</ele><time>2026-05-03T12:33:31.759Z</time></trkpt><trkpt lat="45.52837" lon="10.978335"><ele>574.2</ele><time>2026-05-03T12:33:33.753Z</time></trkpt><trkpt lat="45.528405" lon="10.9784583"><ele>576.4000000000001</ele><time>2026-05-03T12:33:36.756Z</time></trkpt><trkpt lat="45.52837" lon="10.9785517"><ele>578.5999999999999</ele><time>2026-05-03T12:33:37.757Z</time></trkpt><trkpt lat="45.5283083" lon="10.9787117"><ele>580.8</ele><time>2026-05-03T12:33:38.761Z</time></trkpt><trkpt lat="45.5282533" lon="10.97887"><ele>583.0</ele><time>2026-05-03T12:33:39.752Z</time></trkpt><trkpt lat="45.5282083" lon="10.97902"><ele>583.0</ele><time>2026-05-03T12:33:40.76Z</time></trkpt><trkpt lat="45.5281717" lon="10.9791383"><ele>583.0</ele><time>2026-05-03T12:33:41.761Z</time></trkpt><trkpt lat="45.5281333" lon="10.9792367"><ele>583.0</ele><time>2026-05-03T12:33:42.755Z</time></trkpt><trkpt lat="45.5281717" lon="10.9793467"><ele>583.0</ele><time>2026-05-03T12:33:44.757Z</time></trkpt><trkpt lat="45.5282333" lon="10.97932"><ele>583.0</ele><time>2026-05-03T12:33:45.753Z</time></trkpt><trkpt lat="45.528305" lon="10.9792633"><ele>583.0</ele><time>2026-05-03T12:33:46.762Z</time></trkpt><trkpt lat="45.52839" lon="10.979175"><ele>583.0</ele><time>2026-05-03T12:33:47.757Z</time></trkpt><trkpt lat="45.5284717" lon="10.9790583"><ele>583.0</ele><time>2026-05-03T12:33:48.761Z</time></trkpt><trkpt lat="45.5285433" lon="10.978955"><ele>583.0</ele><time>2026-05-03T12:33:49.758Z</time></trkpt><trkpt lat="45.5285983" lon="10.9788767"><ele>583.0</ele><time>2026-05-03T12:33:50.762Z</time></trkpt><trkpt lat="45.5286717" lon="10.9788583"><ele>583.0</ele><time>2026-05-03T12:33:52.758Z</time></trkpt><trkpt lat="45.5286733" lon="10.97896"><ele>583.0</ele><time>2026-05-03T12:33:54.755Z</time></trkpt><trkpt lat="45.528625" lon="10.9790367"><ele>583.0</ele><time>2026-05-03T12:33:55.756Z</time></trkpt><trkpt lat="45.5285683" lon="10.9791083"><ele>583.0</ele><time>2026-05-03T12:33:56.755Z</time></trkpt><trkpt lat="45.5285283" lon="10.97918"><ele>583.0</ele><time>2026-05-03T12:33:57.756Z</time></trkpt><trkpt lat="45.528525" lon="10.9792883"><ele>583.0</ele><time>2026-05-03T12:33:59.753Z</time></trkpt><trkpt lat="45.52864" lon="10.9791983"><ele>583.0</ele><time>2026-05-03T12:34:01.757Z</time></trkpt><trkpt lat="45.5287033" lon="10.9790983"><ele>583.0</ele><time>2026-05-03T12:34:02.757Z</time></trkpt><trkpt lat="45.5287583" lon="10.9790067"><ele>587.0</ele><time>2026-05-03T12:34:03.763Z</time></trkpt><trkpt lat="45.528805" lon="10.978935"><ele>591.0</ele><time>2026-05-03T12:34:04.756Z</time></trkpt><trkpt lat="45.52888" lon="10.9789017"><ele>595.0</ele><time>2026-05-03T12:34:06.758Z</time></trkpt><trkpt lat="45.5288767" lon="10.9790933"><ele>599.0</ele><time>2026-05-03T12:34:09.758Z</time></trkpt><trkpt lat="45.52887" lon="10.9792217"><ele>603.0</ele><time>2026-05-03T12:34:10.754Z</time></trkpt><trkpt lat="45.52888" lon="10.9793683"><ele>603.25</ele><time>2026-05-03T12:34:11.756Z</time></trkpt><trkpt lat="45.5289283" lon="10.97952"><ele>603.5</ele><time>2026-05-03T12:34:12.754Z</time></trkpt><trkpt lat="45.5289967" lon="10.9796667"><ele>603.75</ele><time>2026-05-03T12:34:13.756Z</time></trkpt><trkpt lat="45.5290767" lon="10.9798133"><ele>604.0</ele><time>2026-05-03T12:34:14.757Z</time></trkpt><trkpt lat="45.5291567" lon="10.979945"><ele>602.5</ele><time>2026-05-03T12:34:15.755Z</time></trkpt><trkpt lat="45.5292317" lon="10.98006"><ele>601.0</ele><time>2026-05-03T12:34:16.756Z</time></trkpt><trkpt lat="45.5292983" lon="10.9801717"><ele>599.5</ele><time>2026-05-03T12:34:17.754Z</time></trkpt><trkpt lat="45.52936" lon="10.980275"><ele>598.0</ele><time>2026-05-03T12:34:18.754Z</time></trkpt><trkpt lat="45.5294083" lon="10.9803583"><ele>596.5</ele><time>2026-05-03T12:34:19.761Z</time></trkpt><trkpt lat="45.5294517" lon="10.9804267"><ele>595.0</ele><time>2026-05-03T12:34:20.757Z</time></trkpt><trkpt lat="45.5295017" lon="10.98031"><ele>595.0</ele><time>2026-05-03T12:34:23.759Z</time></trkpt><trkpt lat="45.5294883" lon="10.9801967"><ele>595.0</ele><time>2026-05-03T12:34:24.765Z</time></trkpt><trkpt lat="45.529475" lon="10.9800417"><ele>595.0</ele><time>2026-05-03T12:34:25.758Z</time></trkpt><trkpt lat="45.52947" lon="10.9798617"><ele>595.0</ele><time>2026-05-03T12:34:26.759Z</time></trkpt><trkpt lat="45.5294767" lon="10.9796933"><ele>595.0</ele><time>2026-05-03T12:34:27.757Z</time></trkpt><trkpt lat="45.529495" lon="10.9795367"><ele>596.8</ele><time>2026-05-03T12:34:28.761Z</time></trkpt><trkpt lat="45.5295317" lon="10.9794"><ele>598.6</ele><time>2026-05-03T12:34:29.756Z</time></trkpt><trkpt lat="45.5295933" lon="10.9792817"><ele>600.4</ele><time>2026-05-03T12:34:30.756Z</time></trkpt><trkpt lat="45.5296633" lon="10.9791933"><ele>602.2</ele><time>2026-05-03T12:34:31.755Z</time></trkpt><trkpt lat="45.5297417" lon="10.9791317"><ele>604.0</ele><time>2026-05-03T12:34:32.761Z</time></trkpt><trkpt lat="45.5298433" lon="10.97909"><ele>607.0</ele><time>2026-05-03T12:34:33.755Z</time></trkpt><trkpt lat="45.5299517" lon="10.9790767"><ele>610.0</ele><time>2026-05-03T12:34:34.76Z</time></trkpt><trkpt lat="45.53006" lon="10.97907"><ele>613.0</ele><time>2026-05-03T12:34:35.762Z</time></trkpt><trkpt lat="45.5301783" lon="10.9790533"><ele>616.0</ele><time>2026-05-03T12:34:36.757Z</time></trkpt><trkpt lat="45.5302917" lon="10.9790233"><ele>619.0</ele><time>2026-05-03T12:34:37.758Z</time></trkpt><trkpt lat="45.5304067" lon="10.9789883"><ele>622.0</ele><time>2026-05-03T12:34:38.762Z</time></trkpt><trkpt lat="45.5305167" lon="10.9789617"><ele>625.0</ele><time>2026-05-03T12:34:39.754Z</time></trkpt><trkpt lat="45.5306267" lon="10.9789483"><ele>628.0</ele><time>2026-05-03T12:34:40.758Z</time></trkpt><trkpt lat="45.530735" lon="10.9789533"><ele>631.0</ele><time>2026-05-03T12:34:41.756Z</time></trkpt><trkpt lat="45.5308417" lon="10.97896"><ele>631.0</ele><time>2026-05-03T12:34:42.757Z</time></trkpt><trkpt lat="45.5309517" lon="10.978955"><ele>631.0</ele><time>2026-05-03T12:34:43.758Z</time></trkpt><trkpt lat="45.53106" lon="10.9789317"><ele>631.0</ele><time>2026-05-03T12:34:44.766Z</time></trkpt><trkpt lat="45.531165" lon="10.978895"><ele>631.0</ele><time>2026-05-03T12:34:45.755Z</time></trkpt><trkpt lat="45.5312717" lon="10.9788483"><ele>631.0</ele><time>2026-05-03T12:34:46.761Z</time></trkpt><trkpt lat="45.5313733" lon="10.9787967"><ele>635.5</ele><time>2026-05-03T12:34:47.755Z</time></trkpt><trkpt lat="45.5314667" lon="10.97871"><ele>640.0</ele><time>2026-05-03T12:34:48.758Z</time></trkpt><trkpt lat="45.53157" lon="10.9786117"><ele>644.5</ele><time>2026-05-03T12:34:49.753Z</time></trkpt><trkpt lat="45.5316867" lon="10.978495"><ele>649.0</ele><time>2026-05-03T12:34:50.758Z</time></trkpt><trkpt lat="45.5318167" lon="10.9783567"><ele>650.3333333333334</ele><time>2026-05-03T12:34:51.756Z</time></trkpt><trkpt lat="45.53196" lon="10.978215"><ele>651.6666666666666</ele><time>2026-05-03T12:34:52.754Z</time></trkpt><trkpt lat="45.53211" lon="10.9780733"><ele>653.0</ele><time>2026-05-03T12:34:53.758Z</time></trkpt><trkpt lat="45.5322567" lon="10.977945"><ele>653.0</ele><time>2026-05-03T12:34:54.756Z</time></trkpt><trkpt lat="45.53238" lon="10.977825"><ele>653.0</ele><time>2026-05-03T12:34:55.752Z</time></trkpt><trkpt lat="45.5324817" lon="10.9777167"><ele>653.0</ele><time>2026-05-03T12:34:56.761Z</time></trkpt><trkpt lat="45.5325617" lon="10.9776217"><ele>653.0</ele><time>2026-05-03T12:34:57.759Z</time></trkpt><trkpt lat="45.5326517" lon="10.9775617"><ele>653.0</ele><time>2026-05-03T12:34:58.762Z</time></trkpt><trkpt lat="45.53275" lon="10.9775433"><ele>653.0</ele><time>2026-05-03T12:34:59.757Z</time></trkpt><trkpt lat="45.53285" lon="10.977545"><ele>653.0</ele><time>2026-05-03T12:35:00.755Z</time></trkpt><trkpt lat="45.532955" lon="10.9775467"><ele>653.0</ele><time>2026-05-03T12:35:01.756Z</time></trkpt><trkpt lat="45.5330667" lon="10.977535"><ele>653.0</ele><time>2026-05-03T12:35:02.756Z</time></trkpt><trkpt lat="45.53318" lon="10.9774483"><ele>649.6</ele><time>2026-05-03T12:35:03.755Z</time></trkpt><trkpt lat="45.5332867" lon="10.9773867"><ele>646.1999999999999</ele><time>2026-05-03T12:35:04.762Z</time></trkpt><trkpt lat="45.5333883" lon="10.977345"><ele>642.8</ele><time>2026-05-03T12:35:05.759Z</time></trkpt><trkpt lat="45.5334783" lon="10.9773433"><ele>639.4</ele><time>2026-05-03T12:35:06.756Z</time></trkpt><trkpt lat="45.53358" lon="10.9773867"><ele>636.0</ele><time>2026-05-03T12:35:07.757Z</time></trkpt><trkpt lat="45.5336883" lon="10.9774467"><ele>637.3333333333334</ele><time>2026-05-03T12:35:08.755Z</time></trkpt><trkpt lat="45.53383" lon="10.9774767"><ele>638.6666666666667</ele><time>2026-05-03T12:35:09.756Z</time></trkpt><trkpt lat="45.5339867" lon="10.9774667"><ele>640.0</ele><time>2026-05-03T12:35:10.755Z</time></trkpt><trkpt lat="45.5341367" lon="10.9773967"><ele>640.0</ele><time>2026-05-03T12:35:11.753Z</time></trkpt><trkpt lat="45.53429" lon="10.9772917"><ele>640.0</ele><time>2026-05-03T12:35:12.765Z</time></trkpt><trkpt lat="45.53441" lon="10.9771533"><ele>640.0</ele><time>2026-05-03T12:35:13.756Z</time></trkpt><trkpt lat="45.53449" lon="10.977"><ele>640.0</ele><time>2026-05-03T12:35:14.761Z</time></trkpt><trkpt lat="45.534535" lon="10.9768517"><ele>640.0</ele><time>2026-05-03T12:35:15.752Z</time></trkpt><trkpt lat="45.5345333" lon="10.9766933"><ele>640.0</ele><time>2026-05-03T12:35:16.76Z</time></trkpt><trkpt lat="45.5345283" lon="10.9765617"><ele>640.0</ele><time>2026-05-03T12:35:17.76Z</time></trkpt><trkpt lat="45.5345467" lon="10.9764383"><ele>640.0</ele><time>2026-05-03T12:35:18.761Z</time></trkpt><trkpt lat="45.5345983" lon="10.9763117"><ele>640.0</ele><time>2026-05-03T12:35:19.762Z</time></trkpt><trkpt lat="45.53468" lon="10.9761717"><ele>640.0</ele><time>2026-05-03T12:35:20.762Z</time></trkpt><trkpt lat="45.53478" lon="10.9760133"><ele>640.0</ele><time>2026-05-03T12:35:21.761Z</time></trkpt><trkpt lat="45.53489" lon="10.9758417"><ele>640.0</ele><time>2026-05-03T12:35:22.754Z</time></trkpt><trkpt lat="45.5350033" lon="10.975665"><ele>640.0</ele><time>2026-05-03T12:35:23.765Z</time></trkpt><trkpt lat="45.535105" lon="10.9755033"><ele>640.0</ele><time>2026-05-03T12:35:24.759Z</time></trkpt><trkpt lat="45.5351917" lon="10.9753433"><ele>640.0</ele><time>2026-05-03T12:35:25.758Z</time></trkpt><trkpt lat="45.5352367" lon="10.9751783"><ele>640.0</ele><time>2026-05-03T12:35:26.76Z</time></trkpt><trkpt lat="45.5352383" lon="10.97504"><ele>641.0</ele><time>2026-05-03T12:35:27.76Z</time></trkpt><trkpt lat="45.535245" lon="10.9749067"><ele>642.0</ele><time>2026-05-03T12:35:28.764Z</time></trkpt><trkpt lat="45.5352617" lon="10.9747867"><ele>643.0</ele><time>2026-05-03T12:35:29.76Z</time></trkpt><trkpt lat="45.5353267" lon="10.9746983"><ele>644.0</ele><time>2026-05-03T12:35:30.757Z</time></trkpt><trkpt lat="45.5354133" lon="10.9746317"><ele>645.0</ele><time>2026-05-03T12:35:31.762Z</time></trkpt><trkpt lat="45.535505" lon="10.9745433"><ele>645.0</ele><time>2026-05-03T12:35:32.756Z</time></trkpt><trkpt lat="45.53558" lon="10.9744083"><ele>645.0</ele><time>2026-05-03T12:35:33.756Z</time></trkpt><trkpt lat="45.5356383" lon="10.9742617"><ele>645.0</ele><time>2026-05-03T12:35:34.76Z</time></trkpt><trkpt lat="45.5357083" lon="10.97415"><ele>645.0</ele><time>2026-05-03T12:35:35.758Z</time></trkpt><trkpt lat="45.5358083" lon="10.974075"><ele>644.25</ele><time>2026-05-03T12:35:36.758Z</time></trkpt><trkpt lat="45.5359317" lon="10.973995"><ele>643.5</ele><time>2026-05-03T12:35:37.758Z</time></trkpt><trkpt lat="45.53607" lon="10.9739133"><ele>642.75</ele><time>2026-05-03T12:35:38.768Z</time></trkpt><trkpt lat="45.5362067" lon="10.97384"><ele>642.0</ele><time>2026-05-03T12:35:39.765Z</time></trkpt><trkpt lat="45.5363383" lon="10.9737817"><ele>642.0</ele><time>2026-05-03T12:35:40.76Z</time></trkpt><trkpt lat="45.5364767" lon="10.9737033"><ele>642.0</ele><time>2026-05-03T12:35:41.76Z</time></trkpt><trkpt lat="45.5366217" lon="10.9735967"><ele>642.0</ele><time>2026-05-03T12:35:42.753Z</time></trkpt><trkpt lat="45.53677" lon="10.9734933"><ele>642.0</ele><time>2026-05-03T12:35:43.756Z</time></trkpt><trkpt lat="45.5369083" lon="10.9733833"><ele>642.0</ele><time>2026-05-03T12:35:44.756Z</time></trkpt><trkpt lat="45.537045" lon="10.9732833"><ele>642.0</ele><time>2026-05-03T12:35:45.758Z</time></trkpt><trkpt lat="45.537175" lon="10.9732"><ele>639.2</ele><time>2026-05-03T12:35:46.757Z</time></trkpt><trkpt lat="45.5372883" lon="10.9731167"><ele>636.4000000000001</ele><time>2026-05-03T12:35:47.765Z</time></trkpt><trkpt lat="45.5373867" lon="10.9730417"><ele>633.5999999999999</ele><time>2026-05-03T12:35:48.758Z</time></trkpt><trkpt lat="45.5374767" lon="10.9729883"><ele>630.8</ele><time>2026-05-03T12:35:49.762Z</time></trkpt><trkpt lat="45.5375633" lon="10.9729683"><ele>628.0</ele><time>2026-05-03T12:35:50.755Z</time></trkpt><trkpt lat="45.537645" lon="10.9729783"><ele>628.0</ele><time>2026-05-03T12:35:51.752Z</time></trkpt><trkpt lat="45.5377267" lon="10.9730283"><ele>628.0</ele><time>2026-05-03T12:35:52.758Z</time></trkpt><trkpt lat="45.53782" lon="10.9731817"><ele>628.0</ele><time>2026-05-03T12:35:53.754Z</time></trkpt><trkpt lat="45.537915" lon="10.973335"><ele>628.0</ele><time>2026-05-03T12:35:54.764Z</time></trkpt><trkpt lat="45.5380033" lon="10.9734917"><ele>625.75</ele><time>2026-05-03T12:35:55.758Z</time></trkpt><trkpt lat="45.53808" lon="10.9736567"><ele>623.5</ele><time>2026-05-03T12:35:56.767Z</time></trkpt><trkpt lat="45.5381417" lon="10.9738233"><ele>621.25</ele><time>2026-05-03T12:35:57.757Z</time></trkpt><trkpt lat="45.538185" lon="10.97399"><ele>619.0</ele><time>2026-05-03T12:35:58.753Z</time></trkpt><trkpt lat="45.5382317" lon="10.97414"><ele>623.25</ele><time>2026-05-03T12:35:59.756Z</time></trkpt><trkpt lat="45.5383033" lon="10.974275"><ele>627.5</ele><time>2026-05-03T12:36:00.758Z</time></trkpt><trkpt lat="45.5384017" lon="10.974385"><ele>631.75</ele><time>2026-05-03T12:36:01.755Z</time></trkpt><trkpt lat="45.5385333" lon="10.9744967"><ele>636.0</ele><time>2026-05-03T12:36:02.755Z</time></trkpt><trkpt lat="45.538675" lon="10.9746117"><ele>631.0</ele><time>2026-05-03T12:36:03.753Z</time></trkpt><trkpt lat="45.5388233" lon="10.9747167"><ele>626.0</ele><time>2026-05-03T12:36:04.757Z</time></trkpt><trkpt lat="45.5389817" lon="10.97478"><ele>621.0</ele><time>2026-05-03T12:36:05.755Z</time></trkpt><trkpt lat="45.5391417" lon="10.9748"><ele>621.0</ele><time>2026-05-03T12:36:06.757Z</time></trkpt><trkpt lat="45.5393033" lon="10.97482"><ele>621.0</ele><time>2026-05-03T12:36:07.753Z</time></trkpt><trkpt lat="45.5394633" lon="10.97486"><ele>621.0</ele><time>2026-05-03T12:36:08.758Z</time></trkpt><trkpt lat="45.539625" lon="10.9749217"><ele>620.3333333333334</ele><time>2026-05-03T12:36:09.764Z</time></trkpt><trkpt lat="45.5397717" lon="10.9749717"><ele>619.6666666666667</ele><time>2026-05-03T12:36:10.76Z</time></trkpt><trkpt lat="45.5399167" lon="10.9750017"><ele>619.0</ele><time>2026-05-03T12:36:11.756Z</time></trkpt><trkpt lat="45.5400783" lon="10.9750117"><ele>619.0</ele><time>2026-05-03T12:36:12.759Z</time></trkpt><trkpt lat="45.5402467" lon="10.9749983"><ele>619.0</ele><time>2026-05-03T12:36:13.754Z</time></trkpt><trkpt lat="45.5404033" lon="10.974955"><ele>619.0</ele><time>2026-05-03T12:36:14.759Z</time></trkpt><trkpt lat="45.540525" lon="10.9748733"><ele>619.5</ele><time>2026-05-03T12:36:15.758Z</time></trkpt><trkpt lat="45.5406317" lon="10.974755"><ele>620.0</ele><time>2026-05-03T12:36:16.757Z</time></trkpt><trkpt lat="45.5407217" lon="10.974595"><ele>620.5</ele><time>2026-05-03T12:36:17.761Z</time></trkpt><trkpt lat="45.5408133" lon="10.9744033"><ele>621.0</ele><time>2026-05-03T12:36:18.756Z</time></trkpt><trkpt lat="45.5409083" lon="10.9741967"><ele>621.0</ele><time>2026-05-03T12:36:19.755Z</time></trkpt><trkpt lat="45.5409917" lon="10.973995"><ele>621.0</ele><time>2026-05-03T12:36:20.756Z</time></trkpt><trkpt lat="45.5410667" lon="10.9738"><ele>621.0</ele><time>2026-05-03T12:36:21.755Z</time></trkpt><trkpt lat="45.54114" lon="10.9736333"><ele>624.25</ele><time>2026-05-03T12:36:22.755Z</time></trkpt><trkpt lat="45.5412217" lon="10.97348"><ele>627.5</ele><time>2026-05-03T12:36:23.76Z</time></trkpt><trkpt lat="45.5413183" lon="10.9733333"><ele>630.75</ele><time>2026-05-03T12:36:24.754Z</time></trkpt><trkpt lat="45.54143" lon="10.9731967"><ele>634.0</ele><time>2026-05-03T12:36:25.765Z</time></trkpt><trkpt lat="45.5415433" lon="10.9730817"><ele>634.0</ele><time>2026-05-03T12:36:26.756Z</time></trkpt><trkpt lat="45.5416417" lon="10.9729783"><ele>634.0</ele><time>2026-05-03T12:36:27.753Z</time></trkpt><trkpt lat="45.5417667" lon="10.9729033"><ele>634.0</ele><time>2026-05-03T12:36:28.759Z</time></trkpt><trkpt lat="45.5419" lon="10.9728267"><ele>634.0</ele><time>2026-05-03T12:36:29.755Z</time></trkpt><trkpt lat="45.5420517" lon="10.9727567"><ele>637.0</ele><time>2026-05-03T12:36:30.755Z</time></trkpt><trkpt lat="45.542205" lon="10.9726983"><ele>640.0</ele><time>2026-05-03T12:36:31.755Z</time></trkpt><trkpt lat="45.5423483" lon="10.97265"><ele>643.0</ele><time>2026-05-03T12:36:32.765Z</time></trkpt><trkpt lat="45.54248" lon="10.9726183"><ele>646.0</ele><time>2026-05-03T12:36:33.753Z</time></trkpt><trkpt lat="45.542595" lon="10.972615"><ele>646.0</ele><time>2026-05-03T12:36:34.759Z</time></trkpt><trkpt lat="45.542705" lon="10.9726467"><ele>646.0</ele><time>2026-05-03T12:36:35.757Z</time></trkpt><trkpt lat="45.5428417" lon="10.97272"><ele>646.0</ele><time>2026-05-03T12:36:36.76Z</time></trkpt><trkpt lat="45.5429933" lon="10.972785"><ele>646.0</ele><time>2026-05-03T12:36:37.766Z</time></trkpt><trkpt lat="45.5431417" lon="10.9728283"><ele>645.6666666666667</ele><time>2026-05-03T12:36:38.762Z</time></trkpt><trkpt lat="45.5432633" lon="10.97285"><ele>645.3333333333334</ele><time>2026-05-03T12:36:39.757Z</time></trkpt><trkpt lat="45.5433683" lon="10.972855"><ele>645.0</ele><time>2026-05-03T12:36:40.757Z</time></trkpt><trkpt lat="45.5434333" lon="10.9728367"><ele>644.6666666666666</ele><time>2026-05-03T12:36:42.756Z</time></trkpt><trkpt lat="45.5434517" lon="10.9727367"><ele>644.3333333333333</ele><time>2026-05-03T12:36:44.758Z</time></trkpt><trkpt lat="45.54345" lon="10.9726467"><ele>644.0</ele><time>2026-05-03T12:36:45.759Z</time></trkpt><trkpt lat="45.543445" lon="10.9725267"><ele>643.4000000000001</ele><time>2026-05-03T12:36:46.756Z</time></trkpt><trkpt lat="45.543435" lon="10.9723917"><ele>642.8</ele><time>2026-05-03T12:36:47.755Z</time></trkpt><trkpt lat="45.543415" lon="10.9722333"><ele>642.2</ele><time>2026-05-03T12:36:48.758Z</time></trkpt><trkpt lat="45.543385" lon="10.9720733"><ele>641.5999999999999</ele><time>2026-05-03T12:36:49.754Z</time></trkpt><trkpt lat="45.5433517" lon="10.9719217"><ele>641.0</ele><time>2026-05-03T12:36:50.759Z</time></trkpt><trkpt lat="45.5433183" lon="10.971795"><ele>641.6666666666666</ele><time>2026-05-03T12:36:51.759Z</time></trkpt><trkpt lat="45.5432917" lon="10.9716867"><ele>642.3333333333333</ele><time>2026-05-03T12:36:52.756Z</time></trkpt><trkpt lat="45.5432683" lon="10.971595"><ele>643.0</ele><time>2026-05-03T12:36:53.771Z</time></trkpt><trkpt lat="45.5432383" lon="10.97145"><ele>643.6666666666666</ele><time>2026-05-03T12:36:55.758Z</time></trkpt><trkpt lat="45.5432483" lon="10.9713517"><ele>644.3333333333334</ele><time>2026-05-03T12:36:57.758Z</time></trkpt><trkpt lat="45.5431933" lon="10.9714133"><ele>645.0</ele><time>2026-05-03T12:37:02.763Z</time></trkpt><trkpt lat="45.54322" lon="10.9715733"><ele>645.0</ele><time>2026-05-03T12:37:04.764Z</time></trkpt><trkpt lat="45.5432483" lon="10.971685"><ele>645.0</ele><time>2026-05-03T12:37:05.755Z</time></trkpt><trkpt lat="45.5432833" lon="10.971835"><ele>645.0</ele><time>2026-05-03T12:37:06.764Z</time></trkpt><trkpt lat="45.543325" lon="10.972005"><ele>645.0</ele><time>2026-05-03T12:37:07.756Z</time></trkpt><trkpt lat="45.5433617" lon="10.9721717"><ele>645.0</ele><time>2026-05-03T12:37:08.76Z</time></trkpt><trkpt lat="45.5433917" lon="10.97232"><ele>644.8333333333334</ele><time>2026-05-03T12:37:09.757Z</time></trkpt><trkpt lat="45.54341" lon="10.9724417"><ele>644.6666666666666</ele><time>2026-05-03T12:37:10.762Z</time></trkpt><trkpt lat="45.5434217" lon="10.9725617"><ele>644.5</ele><time>2026-05-03T12:37:11.759Z</time></trkpt><trkpt lat="45.5434283" lon="10.9726667"><ele>644.3333333333333</ele><time>2026-05-03T12:37:12.759Z</time></trkpt><trkpt lat="45.5434333" lon="10.9727617"><ele>644.1666666666666</ele><time>2026-05-03T12:37:13.763Z</time></trkpt><trkpt lat="45.5434583" lon="10.9728517"><ele>644.0</ele><time>2026-05-03T12:37:14.758Z</time></trkpt><trkpt lat="45.5435083" lon="10.9729383"><ele>644.0</ele><time>2026-05-03T12:37:15.755Z</time></trkpt><trkpt lat="45.5435783" lon="10.973025"><ele>644.0</ele><time>2026-05-03T12:37:16.757Z</time></trkpt><trkpt lat="45.5436767" lon="10.9730933"><ele>644.0</ele><time>2026-05-03T12:37:17.757Z</time></trkpt><trkpt lat="45.5437883" lon="10.9731567"><ele>644.0</ele><time>2026-05-03T12:37:18.762Z</time></trkpt><trkpt lat="45.54388" lon="10.97323"><ele>644.0</ele><time>2026-05-03T12:37:19.757Z</time></trkpt><trkpt lat="45.54395" lon="10.973315"><ele>643.4000000000001</ele><time>2026-05-03T12:37:20.759Z</time></trkpt><trkpt lat="45.543995" lon="10.97341"><ele>642.8</ele><time>2026-05-03T12:37:21.757Z</time></trkpt><trkpt lat="45.5440267" lon="10.9735267"><ele>642.2</ele><time>2026-05-03T12:37:22.755Z</time></trkpt><trkpt lat="45.5440233" lon="10.9736633"><ele>641.5999999999999</ele><time>2026-05-03T12:37:23.755Z</time></trkpt><trkpt lat="45.5439733" lon="10.9738267"><ele>641.0</ele><time>2026-05-03T12:37:24.759Z</time></trkpt><trkpt lat="45.5439467" lon="10.9739983"><ele>641.0</ele><time>2026-05-03T12:37:25.758Z</time></trkpt><trkpt lat="45.543945" lon="10.9741683"><ele>641.0</ele><time>2026-05-03T12:37:26.762Z</time></trkpt><trkpt lat="45.5439617" lon="10.9743383"><ele>641.0</ele><time>2026-05-03T12:37:27.761Z</time></trkpt><trkpt lat="45.5440033" lon="10.9745017"><ele>641.0</ele><time>2026-05-03T12:37:28.756Z</time></trkpt><trkpt lat="45.544085" lon="10.9746733"><ele>634.6666666666666</ele><time>2026-05-03T12:37:29.757Z</time></trkpt><trkpt lat="45.5441867" lon="10.9748533"><ele>628.3333333333334</ele><time>2026-05-03T12:37:30.755Z</time></trkpt><trkpt lat="45.5443" lon="10.9750417"><ele>622.0</ele><time>2026-05-03T12:37:31.76Z</time></trkpt><trkpt lat="45.5444167" lon="10.97522"><ele>620.6666666666667</ele><time>2026-05-03T12:37:32.758Z</time></trkpt><trkpt lat="45.544525" lon="10.9753883"><ele>619.3333333333334</ele><time>2026-05-03T12:37:33.764Z</time></trkpt><trkpt lat="45.54463" lon="10.975535"><ele>618.0</ele><time>2026-05-03T12:37:34.765Z</time></trkpt><trkpt lat="45.5447417" lon="10.97567"><ele>618.0</ele><time>2026-05-03T12:37:35.76Z</time></trkpt><trkpt lat="45.5448683" lon="10.9757917"><ele>618.0</ele><time>2026-05-03T12:37:36.758Z</time></trkpt><trkpt lat="45.5450067" lon="10.97591"><ele>618.0</ele><time>2026-05-03T12:37:37.756Z</time></trkpt><trkpt lat="45.545145" lon="10.97601"><ele>613.0</ele><time>2026-05-03T12:37:38.765Z</time></trkpt><trkpt lat="45.5452833" lon="10.976095"><ele>608.0</ele><time>2026-05-03T12:37:39.757Z</time></trkpt><trkpt lat="45.5454267" lon="10.97617"><ele>603.0</ele><time>2026-05-03T12:37:40.754Z</time></trkpt><trkpt lat="45.5455717" lon="10.9762483"><ele>603.0</ele><time>2026-05-03T12:37:41.759Z</time></trkpt><trkpt lat="45.5457133" lon="10.9763367"><ele>603.0</ele><time>2026-05-03T12:37:42.756Z</time></trkpt><trkpt lat="45.545845" lon="10.9764183"><ele>603.0</ele><time>2026-05-03T12:37:43.754Z</time></trkpt><trkpt lat="45.54597" lon="10.9764833"><ele>603.0</ele><time>2026-05-03T12:37:44.762Z</time></trkpt><trkpt lat="45.5460767" lon="10.9765467"><ele>603.0</ele><time>2026-05-03T12:37:45.759Z</time></trkpt><trkpt lat="45.5461667" lon="10.976625"><ele>603.0</ele><time>2026-05-03T12:37:46.76Z</time></trkpt><trkpt lat="45.546255" lon="10.9767133"><ele>603.0</ele><time>2026-05-03T12:37:47.759Z</time></trkpt><trkpt lat="45.546345" lon="10.9768217"><ele>603.0</ele><time>2026-05-03T12:37:48.76Z</time></trkpt><trkpt lat="45.5464367" lon="10.9769317"><ele>601.1999999999999</ele><time>2026-05-03T12:37:49.756Z</time></trkpt><trkpt lat="45.5465283" lon="10.9770367"><ele>599.4</ele><time>2026-05-03T12:37:50.764Z</time></trkpt><trkpt lat="45.5466183" lon="10.9771383"><ele>597.5999999999999</ele><time>2026-05-03T12:37:51.761Z</time></trkpt><trkpt lat="45.5467" lon="10.9772333"><ele>595.8</ele><time>2026-05-03T12:37:52.76Z</time></trkpt><trkpt lat="45.5467767" lon="10.97734"><ele>594.0</ele><time>2026-05-03T12:37:53.759Z</time></trkpt><trkpt lat="45.5468533" lon="10.9774483"><ele>596.4</ele><time>2026-05-03T12:37:54.754Z</time></trkpt><trkpt lat="45.5469317" lon="10.9775683"><ele>598.8</ele><time>2026-05-03T12:37:55.757Z</time></trkpt><trkpt lat="45.5469967" lon="10.9776883"><ele>601.2</ele><time>2026-05-03T12:37:56.762Z</time></trkpt><trkpt lat="45.5470617" lon="10.9778133"><ele>603.6</ele><time>2026-05-03T12:37:57.76Z</time></trkpt><trkpt lat="45.5471133" lon="10.9779467"><ele>606.0</ele><time>2026-05-03T12:37:58.753Z</time></trkpt><trkpt lat="45.5471583" lon="10.9780783"><ele>606.0</ele><time>2026-05-03T12:37:59.755Z</time></trkpt><trkpt lat="45.5471967" lon="10.9782233"><ele>606.0</ele><time>2026-05-03T12:38:00.753Z</time></trkpt><trkpt lat="45.547225" lon="10.978365"><ele>606.0</ele><time>2026-05-03T12:38:01.754Z</time></trkpt><trkpt lat="45.5472433" lon="10.9785033"><ele>606.0</ele><time>2026-05-03T12:38:02.759Z</time></trkpt><trkpt lat="45.54725" lon="10.9786383"><ele>606.0</ele><time>2026-05-03T12:38:03.76Z</time></trkpt><trkpt lat="45.5472583" lon="10.97878"><ele>603.4</ele><time>2026-05-03T12:38:04.757Z</time></trkpt><trkpt lat="45.547275" lon="10.9789033"><ele>600.8</ele><time>2026-05-03T12:38:05.753Z</time></trkpt><trkpt lat="45.5473117" lon="10.9790083"><ele>598.1999999999999</ele><time>2026-05-03T12:38:06.757Z</time></trkpt><trkpt lat="45.54737" lon="10.9791"><ele>595.6</ele><time>2026-05-03T12:38:07.758Z</time></trkpt><trkpt lat="45.5474467" lon="10.9791917"><ele>593.0</ele><time>2026-05-03T12:38:08.758Z</time></trkpt><trkpt lat="45.5475317" lon="10.9792733"><ele>595.4</ele><time>2026-05-03T12:38:09.755Z</time></trkpt><trkpt lat="45.5476067" lon="10.9793567"><ele>597.8</ele><time>2026-05-03T12:38:10.758Z</time></trkpt><trkpt lat="45.5476783" lon="10.9794483"><ele>600.2</ele><time>2026-05-03T12:38:11.755Z</time></trkpt><trkpt lat="45.54776" lon="10.979545"><ele>602.6</ele><time>2026-05-03T12:38:12.759Z</time></trkpt><trkpt lat="45.5478433" lon="10.9796417"><ele>605.0</ele><time>2026-05-03T12:38:13.759Z</time></trkpt><trkpt lat="45.54792" lon="10.97975"><ele>605.0</ele><time>2026-05-03T12:38:14.76Z</time></trkpt><trkpt lat="45.547985" lon="10.97989"><ele>605.0</ele><time>2026-05-03T12:38:15.753Z</time></trkpt><trkpt lat="45.5480533" lon="10.9800617"><ele>605.0</ele><time>2026-05-03T12:38:16.759Z</time></trkpt><trkpt lat="45.54813" lon="10.9802333"><ele>605.0</ele><time>2026-05-03T12:38:17.761Z</time></trkpt><trkpt lat="45.5481983" lon="10.9804017"><ele>598.3333333333333</ele><time>2026-05-03T12:38:18.759Z</time></trkpt><trkpt lat="45.5482467" lon="10.980585"><ele>591.6666666666666</ele><time>2026-05-03T12:38:19.755Z</time></trkpt><trkpt lat="45.54829" lon="10.9807933"><ele>585.0</ele><time>2026-05-03T12:38:20.758Z</time></trkpt><trkpt lat="45.548335" lon="10.98102"><ele>580.3333333333334</ele><time>2026-05-03T12:38:21.767Z</time></trkpt><trkpt lat="45.548385" lon="10.981245"><ele>575.6666666666667</ele><time>2026-05-03T12:38:22.759Z</time></trkpt><trkpt lat="45.5484333" lon="10.9814567"><ele>571.0</ele><time>2026-05-03T12:38:23.752Z</time></trkpt><trkpt lat="45.5484783" lon="10.9816533"><ele>568.75</ele><time>2026-05-03T12:38:24.764Z</time></trkpt><trkpt lat="45.5485283" lon="10.98183"><ele>566.5</ele><time>2026-05-03T12:38:25.757Z</time></trkpt><trkpt lat="45.548595" lon="10.9819833"><ele>564.25</ele><time>2026-05-03T12:38:26.766Z</time></trkpt><trkpt lat="45.5486817" lon="10.9821083"><ele>562.0</ele><time>2026-05-03T12:38:27.761Z</time></trkpt><trkpt lat="45.5487933" lon="10.982205"><ele>562.0</ele><time>2026-05-03T12:38:28.759Z</time></trkpt><trkpt lat="45.5489083" lon="10.9822633"><ele>562.0</ele><time>2026-05-03T12:38:29.757Z</time></trkpt><trkpt lat="45.5490267" lon="10.9822817"><ele>562.0</ele><time>2026-05-03T12:38:30.76Z</time></trkpt><trkpt lat="45.549145" lon="10.98225"><ele>562.0</ele><time>2026-05-03T12:38:31.764Z</time></trkpt><trkpt lat="45.549255" lon="10.9822067"><ele>562.0</ele><time>2026-05-03T12:38:32.757Z</time></trkpt><trkpt lat="45.5493617" lon="10.98219"><ele>562.0</ele><time>2026-05-03T12:38:33.758Z</time></trkpt><trkpt lat="45.5494667" lon="10.9822267"><ele>562.0</ele><time>2026-05-03T12:38:34.756Z</time></trkpt><trkpt lat="45.5495633" lon="10.9823033"><ele>562.0</ele><time>2026-05-03T12:38:35.752Z</time></trkpt><trkpt lat="45.5496333" lon="10.9824133"><ele>562.0</ele><time>2026-05-03T12:38:36.759Z</time></trkpt><trkpt lat="45.5496833" lon="10.9825583"><ele>559.0</ele><time>2026-05-03T12:38:37.757Z</time></trkpt><trkpt lat="45.5497317" lon="10.9827233"><ele>556.0</ele><time>2026-05-03T12:38:38.758Z</time></trkpt><trkpt lat="45.5498017" lon="10.9828717"><ele>553.0</ele><time>2026-05-03T12:38:39.759Z</time></trkpt><trkpt lat="45.5498983" lon="10.9830183"><ele>550.0</ele><time>2026-05-03T12:38:40.754Z</time></trkpt><trkpt lat="45.5500033" lon="10.9831567"><ele>550.0</ele><time>2026-05-03T12:38:41.755Z</time></trkpt><trkpt lat="45.5501017" lon="10.9832783"><ele>550.0</ele><time>2026-05-03T12:38:42.762Z</time></trkpt><trkpt lat="45.5501983" lon="10.983375"><ele>550.0</ele><time>2026-05-03T12:38:43.761Z</time></trkpt><trkpt lat="45.5503017" lon="10.9834367"><ele>550.0</ele><time>2026-05-03T12:38:44.757Z</time></trkpt><trkpt lat="45.5504217" lon="10.9834717"><ele>546.5</ele><time>2026-05-03T12:38:45.759Z</time></trkpt><trkpt lat="45.55055" lon="10.9834867"><ele>543.0</ele><time>2026-05-03T12:38:46.755Z</time></trkpt><trkpt lat="45.5506733" lon="10.983495"><ele>539.5</ele><time>2026-05-03T12:38:47.756Z</time></trkpt><trkpt lat="45.5507867" lon="10.9835283"><ele>536.0</ele><time>2026-05-03T12:38:48.753Z</time></trkpt><trkpt lat="45.550895" lon="10.9835867"><ele>536.0</ele><time>2026-05-03T12:38:49.758Z</time></trkpt><trkpt lat="45.5510133" lon="10.9836867"><ele>536.0</ele><time>2026-05-03T12:38:50.753Z</time></trkpt><trkpt lat="45.5511417" lon="10.9838067"><ele>536.0</ele><time>2026-05-03T12:38:51.756Z</time></trkpt><trkpt lat="45.55127" lon="10.9839583"><ele>536.0</ele><time>2026-05-03T12:38:52.755Z</time></trkpt><trkpt lat="45.5513867" lon="10.98412"><ele>536.0</ele><time>2026-05-03T12:38:53.757Z</time></trkpt><trkpt lat="45.5514833" lon="10.9842983"><ele>536.0</ele><time>2026-05-03T12:38:54.759Z</time></trkpt><trkpt lat="45.55156" lon="10.984495"><ele>536.0</ele><time>2026-05-03T12:38:55.755Z</time></trkpt><trkpt lat="45.5516167" lon="10.9847133"><ele>536.0</ele><time>2026-05-03T12:38:56.76Z</time></trkpt><trkpt lat="45.5516617" lon="10.98495"><ele>536.0</ele><time>2026-05-03T12:38:57.757Z</time></trkpt><trkpt lat="45.55171" lon="10.9851917"><ele>533.3333333333333</ele><time>2026-05-03T12:38:58.756Z</time></trkpt><trkpt lat="45.5517583" lon="10.9854267"><ele>530.6666666666666</ele><time>2026-05-03T12:38:59.757Z</time></trkpt><trkpt lat="45.5518017" lon="10.9856483"><ele>528.0</ele><time>2026-05-03T12:39:00.754Z</time></trkpt><trkpt lat="45.5518417" lon="10.9858533"><ele>529.5</ele><time>2026-05-03T12:39:01.759Z</time></trkpt><trkpt lat="45.551885" lon="10.986045"><ele>531.0</ele><time>2026-05-03T12:39:02.762Z</time></trkpt><trkpt lat="45.5519417" lon="10.9862317"><ele>532.5</ele><time>2026-05-03T12:39:03.754Z</time></trkpt><trkpt lat="45.552025" lon="10.9864133"><ele>534.0</ele><time>2026-05-03T12:39:04.758Z</time></trkpt><trkpt lat="45.5521317" lon="10.9865883"><ele>529.3333333333334</ele><time>2026-05-03T12:39:05.753Z</time></trkpt><trkpt lat="45.5522517" lon="10.9867517"><ele>524.6666666666667</ele><time>2026-05-03T12:39:06.755Z</time></trkpt><trkpt lat="45.552375" lon="10.9869067"><ele>520.0</ele><time>2026-05-03T12:39:07.754Z</time></trkpt><trkpt lat="45.5524983" lon="10.98706"><ele>520.0</ele><time>2026-05-03T12:39:08.755Z</time></trkpt><trkpt lat="45.552615" lon="10.9872133"><ele>520.0</ele><time>2026-05-03T12:39:09.755Z</time></trkpt><trkpt lat="45.5527283" lon="10.9873683"><ele>520.0</ele><time>2026-05-03T12:39:10.757Z</time></trkpt><trkpt lat="45.5528317" lon="10.9875183"><ele>519.0</ele><time>2026-05-03T12:39:11.755Z</time></trkpt><trkpt lat="45.55293" lon="10.9876617"><ele>518.0</ele><time>2026-05-03T12:39:12.756Z</time></trkpt><trkpt lat="45.5530183" lon="10.9877917"><ele>517.0</ele><time>2026-05-03T12:39:13.755Z</time></trkpt><trkpt lat="45.553105" lon="10.9879083"><ele>516.0</ele><time>2026-05-03T12:39:14.762Z</time></trkpt><trkpt lat="45.55318" lon="10.9880117"><ele>516.0</ele><time>2026-05-03T12:39:15.761Z</time></trkpt><trkpt lat="45.55324" lon="10.9880983"><ele>516.0</ele><time>2026-05-03T12:39:16.752Z</time></trkpt><trkpt lat="45.5532833" lon="10.9881833"><ele>516.0</ele><time>2026-05-03T12:39:17.755Z</time></trkpt><trkpt lat="45.5533067" lon="10.9882683"><ele>516.0</ele><time>2026-05-03T12:39:18.758Z</time></trkpt><trkpt lat="45.553295" lon="10.9883683"><ele>516.0</ele><time>2026-05-03T12:39:19.752Z</time></trkpt><trkpt lat="45.553235" lon="10.98844"><ele>516.0</ele><time>2026-05-03T12:39:20.757Z</time></trkpt><trkpt lat="45.5531633" lon="10.988485"><ele>513.3333333333334</ele><time>2026-05-03T12:39:21.755Z</time></trkpt><trkpt lat="45.5530717" lon="10.9885033"><ele>510.66666666666663</ele><time>2026-05-03T12:39:22.755Z</time></trkpt><trkpt lat="45.5529717" lon="10.9884983"><ele>508.0</ele><time>2026-05-03T12:39:23.759Z</time></trkpt><trkpt lat="45.55289" lon="10.9884867"><ele>505.3333333333333</ele><time>2026-05-03T12:39:24.755Z</time></trkpt><trkpt lat="45.55282" lon="10.9884833"><ele>502.66666666666663</ele><time>2026-05-03T12:39:25.758Z</time></trkpt><trkpt lat="45.5527267" lon="10.9885083"><ele>500.0</ele><time>2026-05-03T12:39:27.755Z</time></trkpt><trkpt lat="45.5526983" lon="10.98859"><ele>500.0</ele><time>2026-05-03T12:39:30.753Z</time></trkpt><trkpt lat="45.5528067" lon="10.988645"><ele>500.0</ele><time>2026-05-03T12:39:32.755Z</time></trkpt><trkpt lat="45.5529083" lon="10.9886567"><ele>500.0</ele><time>2026-05-03T12:39:33.757Z</time></trkpt><trkpt lat="45.55304" lon="10.9886617"><ele>500.0</ele><time>2026-05-03T12:39:34.756Z</time></trkpt><trkpt lat="45.553195" lon="10.988645"><ele>499.3333333333333</ele><time>2026-05-03T12:39:35.759Z</time></trkpt><trkpt lat="45.5533467" lon="10.9886167"><ele>498.66666666666663</ele><time>2026-05-03T12:39:36.753Z</time></trkpt><trkpt lat="45.5535083" lon="10.9885767"><ele>498.0</ele><time>2026-05-03T12:39:37.757Z</time></trkpt><trkpt lat="45.5536817" lon="10.9885333"><ele>494.66666666666663</ele><time>2026-05-03T12:39:38.761Z</time></trkpt><trkpt lat="45.55385" lon="10.988485"><ele>491.3333333333333</ele><time>2026-05-03T12:39:39.761Z</time></trkpt><trkpt lat="45.5540083" lon="10.9884383"><ele>488.0</ele><time>2026-05-03T12:39:40.752Z</time></trkpt><trkpt lat="45.5541583" lon="10.9883817"><ele>488.3333333333333</ele><time>2026-05-03T12:39:41.756Z</time></trkpt><trkpt lat="45.5543017" lon="10.98829"><ele>488.66666666666663</ele><time>2026-05-03T12:39:42.756Z</time></trkpt><trkpt lat="45.5544383" lon="10.9881483"><ele>489.0</ele><time>2026-05-03T12:39:43.758Z</time></trkpt><trkpt lat="45.5545717" lon="10.9879733"><ele>489.0</ele><time>2026-05-03T12:39:44.766Z</time></trkpt><trkpt lat="45.5547" lon="10.9877817"><ele>489.0</ele><time>2026-05-03T12:39:45.754Z</time></trkpt><trkpt lat="45.5548233" lon="10.9875917"><ele>489.0</ele><time>2026-05-03T12:39:46.761Z</time></trkpt><trkpt lat="45.554945" lon="10.9874117"><ele>495.33333333333337</ele><time>2026-05-03T12:39:47.754Z</time></trkpt><trkpt lat="45.5550717" lon="10.9872533"><ele>501.6666666666667</ele><time>2026-05-03T12:39:48.754Z</time></trkpt><trkpt lat="45.5552117" lon="10.9871167"><ele>508.0</ele><time>2026-05-03T12:39:49.757Z</time></trkpt><trkpt lat="45.5553667" lon="10.9870083"><ele>503.6666666666667</ele><time>2026-05-03T12:39:50.755Z</time></trkpt><trkpt lat="45.55553" lon="10.986925"><ele>499.33333333333337</ele><time>2026-05-03T12:39:51.755Z</time></trkpt><trkpt lat="45.5557017" lon="10.98687"><ele>495.0</ele><time>2026-05-03T12:39:52.768Z</time></trkpt><trkpt lat="45.5558783" lon="10.9868283"><ele>495.0</ele><time>2026-05-03T12:39:53.762Z</time></trkpt><trkpt lat="45.556055" lon="10.9867983"><ele>495.0</ele><time>2026-05-03T12:39:54.76Z</time></trkpt><trkpt lat="45.556235" lon="10.9867683"><ele>495.0</ele><time>2026-05-03T12:39:55.759Z</time></trkpt><trkpt lat="45.5564183" lon="10.9867367"><ele>494.66666666666663</ele><time>2026-05-03T12:39:56.76Z</time></trkpt><trkpt lat="45.5566017" lon="10.9867067"><ele>494.3333333333333</ele><time>2026-05-03T12:39:57.755Z</time></trkpt><trkpt lat="45.5567883" lon="10.9866783"><ele>494.0</ele><time>2026-05-03T12:39:58.764Z</time></trkpt><trkpt lat="45.556975" lon="10.986655"><ele>503.0</ele><time>2026-05-03T12:39:59.764Z</time></trkpt><trkpt lat="45.5571617" lon="10.986635"><ele>512.0</ele><time>2026-05-03T12:40:00.76Z</time></trkpt><trkpt lat="45.5573483" lon="10.98662"><ele>521.0</ele><time>2026-05-03T12:40:01.762Z</time></trkpt><trkpt lat="45.557535" lon="10.9866133"><ele>521.0</ele><time>2026-05-03T12:40:02.757Z</time></trkpt><trkpt lat="45.5577167" lon="10.9866183"><ele>521.0</ele><time>2026-05-03T12:40:03.753Z</time></trkpt><trkpt lat="45.5578933" lon="10.9866283"><ele>521.0</ele><time>2026-05-03T12:40:04.757Z</time></trkpt><trkpt lat="45.55807" lon="10.9866317"><ele>521.6666666666666</ele><time>2026-05-03T12:40:05.763Z</time></trkpt><trkpt lat="45.55825" lon="10.986615"><ele>522.3333333333334</ele><time>2026-05-03T12:40:06.764Z</time></trkpt><trkpt lat="45.5584317" lon="10.9865783"><ele>523.0</ele><time>2026-05-03T12:40:07.757Z</time></trkpt><trkpt lat="45.5586067" lon="10.9865283"><ele>524.6666666666667</ele><time>2026-05-03T12:40:08.756Z</time></trkpt><trkpt lat="45.558775" lon="10.98648"><ele>526.3333333333334</ele><time>2026-05-03T12:40:09.752Z</time></trkpt><trkpt lat="45.5589367" lon="10.98645"><ele>528.0</ele><time>2026-05-03T12:40:10.758Z</time></trkpt><trkpt lat="45.5591" lon="10.9864567"><ele>528.0</ele><time>2026-05-03T12:40:11.755Z</time></trkpt><trkpt lat="45.55926" lon="10.9865183"><ele>528.0</ele><time>2026-05-03T12:40:12.752Z</time></trkpt><trkpt lat="45.5594183" lon="10.9866183"><ele>528.0</ele><time>2026-05-03T12:40:13.76Z</time></trkpt><trkpt lat="45.5595733" lon="10.9867367"><ele>530.0</ele><time>2026-05-03T12:40:14.757Z</time></trkpt><trkpt lat="45.5597233" lon="10.9868733"><ele>532.0</ele><time>2026-05-03T12:40:15.753Z</time></trkpt><trkpt lat="45.559865" lon="10.9870267"><ele>534.0</ele><time>2026-05-03T12:40:16.754Z</time></trkpt><trkpt lat="45.5599933" lon="10.9871817"><ele>534.0</ele><time>2026-05-03T12:40:17.756Z</time></trkpt><trkpt lat="45.5601033" lon="10.98733"><ele>534.0</ele><time>2026-05-03T12:40:18.754Z</time></trkpt><trkpt lat="45.560195" lon="10.9874633"><ele>534.0</ele><time>2026-05-03T12:40:19.754Z</time></trkpt><trkpt lat="45.5602717" lon="10.9875817"><ele>534.0</ele><time>2026-05-03T12:40:20.757Z</time></trkpt><trkpt lat="45.56034" lon="10.9876717"><ele>533.4</ele><time>2026-05-03T12:40:21.761Z</time></trkpt><trkpt lat="45.5604167" lon="10.987735"><ele>532.8</ele><time>2026-05-03T12:40:22.754Z</time></trkpt><trkpt lat="45.5605" lon="10.98772"><ele>532.2</ele><time>2026-05-03T12:40:23.765Z</time></trkpt><trkpt lat="45.5605767" lon="10.987635"><ele>531.6</ele><time>2026-05-03T12:40:24.759Z</time></trkpt><trkpt lat="45.5606267" lon="10.987495"><ele>531.0</ele><time>2026-05-03T12:40:25.755Z</time></trkpt><trkpt lat="45.5606483" lon="10.9872983"><ele>531.0</ele><time>2026-05-03T12:40:26.758Z</time></trkpt><trkpt lat="45.5606717" lon="10.9870917"><ele>531.0</ele><time>2026-05-03T12:40:27.757Z</time></trkpt><trkpt lat="45.560715" lon="10.9868867"><ele>531.0</ele><time>2026-05-03T12:40:28.764Z</time></trkpt><trkpt lat="45.5607767" lon="10.9866767"><ele>534.0</ele><time>2026-05-03T12:40:29.757Z</time></trkpt><trkpt lat="45.56085" lon="10.986485"><ele>537.0</ele><time>2026-05-03T12:40:30.754Z</time></trkpt><trkpt lat="45.5609383" lon="10.9863333"><ele>540.0</ele><time>2026-05-03T12:40:31.752Z</time></trkpt><trkpt lat="45.5610517" lon="10.9862317"><ele>543.0</ele><time>2026-05-03T12:40:32.759Z</time></trkpt><trkpt lat="45.5611767" lon="10.9861717"><ele>539.3333333333334</ele><time>2026-05-03T12:40:33.758Z</time></trkpt><trkpt lat="45.561325" lon="10.9861633"><ele>535.6666666666667</ele><time>2026-05-03T12:40:34.758Z</time></trkpt><trkpt lat="45.5614783" lon="10.9861483"><ele>532.0</ele><time>2026-05-03T12:40:35.753Z</time></trkpt><trkpt lat="45.5616417" lon="10.9861133"><ele>532.0</ele><time>2026-05-03T12:40:36.76Z</time></trkpt><trkpt lat="45.561785" lon="10.9860483"><ele>532.0</ele><time>2026-05-03T12:40:37.755Z</time></trkpt><trkpt lat="45.5619117" lon="10.9859633"><ele>532.0</ele><time>2026-05-03T12:40:38.767Z</time></trkpt><trkpt lat="45.5620267" lon="10.9858383"><ele>532.0</ele><time>2026-05-03T12:40:39.755Z</time></trkpt><trkpt lat="45.562135" lon="10.985685"><ele>536.0</ele><time>2026-05-03T12:40:40.759Z</time></trkpt><trkpt lat="45.5622467" lon="10.985525"><ele>540.0</ele><time>2026-05-03T12:40:41.762Z</time></trkpt><trkpt lat="45.5623583" lon="10.9853567"><ele>544.0</ele><time>2026-05-03T12:40:42.756Z</time></trkpt><trkpt lat="45.5624617" lon="10.9851867"><ele>549.6666666666667</ele><time>2026-05-03T12:40:43.759Z</time></trkpt><trkpt lat="45.56255" lon="10.9850117"><ele>555.3333333333334</ele><time>2026-05-03T12:40:44.758Z</time></trkpt><trkpt lat="45.5626267" lon="10.9848217"><ele>561.0</ele><time>2026-05-03T12:40:45.755Z</time></trkpt><trkpt lat="45.5627067" lon="10.98464"><ele>561.0</ele><time>2026-05-03T12:40:46.759Z</time></trkpt><trkpt lat="45.562805" lon="10.9844833"><ele>561.0</ele><time>2026-05-03T12:40:47.756Z</time></trkpt><trkpt lat="45.5629267" lon="10.984365"><ele>561.0</ele><time>2026-05-03T12:40:48.762Z</time></trkpt><trkpt lat="45.56306" lon="10.9842667"><ele>561.0</ele><time>2026-05-03T12:40:49.756Z</time></trkpt><trkpt lat="45.5632" lon="10.984165"><ele>563.25</ele><time>2026-05-03T12:40:50.758Z</time></trkpt><trkpt lat="45.5633417" lon="10.9840667"><ele>565.5</ele><time>2026-05-03T12:40:51.757Z</time></trkpt><trkpt lat="45.5634783" lon="10.9839867"><ele>567.75</ele><time>2026-05-03T12:40:52.753Z</time></trkpt><trkpt lat="45.5636167" lon="10.9839283"><ele>570.0</ele><time>2026-05-03T12:40:53.76Z</time></trkpt><trkpt lat="45.5637483" lon="10.98387"><ele>570.0</ele><time>2026-05-03T12:40:54.755Z</time></trkpt><trkpt lat="45.5638783" lon="10.9838"><ele>570.0</ele><time>2026-05-03T12:40:55.759Z</time></trkpt><trkpt lat="45.56401" lon="10.9837217"><ele>570.0</ele><time>2026-05-03T12:40:56.761Z</time></trkpt><trkpt lat="45.56413" lon="10.9836633"><ele>570.0</ele><time>2026-05-03T12:40:57.755Z</time></trkpt><trkpt lat="45.5642417" lon="10.98364"><ele>570.0</ele><time>2026-05-03T12:40:58.755Z</time></trkpt><trkpt lat="45.5643467" lon="10.9836617"><ele>570.0</ele><time>2026-05-03T12:40:59.755Z</time></trkpt><trkpt lat="45.5644383" lon="10.9836983"><ele>570.0</ele><time>2026-05-03T12:41:00.762Z</time></trkpt><trkpt lat="45.5645117" lon="10.983735"><ele>570.0</ele><time>2026-05-03T12:41:01.757Z</time></trkpt><trkpt lat="45.5646083" lon="10.9837783"><ele>570.0</ele><time>2026-05-03T12:41:03.761Z</time></trkpt><trkpt lat="45.5647033" lon="10.9837817"><ele>568.8</ele><time>2026-05-03T12:41:05.765Z</time></trkpt><trkpt lat="45.564775" lon="10.9837467"><ele>567.6</ele><time>2026-05-03T12:41:06.766Z</time></trkpt><trkpt lat="45.56486" lon="10.98368"><ele>566.4</ele><time>2026-05-03T12:41:07.761Z</time></trkpt><trkpt lat="45.5649567" lon="10.9835917"><ele>565.2</ele><time>2026-05-03T12:41:08.759Z</time></trkpt><trkpt lat="45.565065" lon="10.9834933"><ele>564.0</ele><time>2026-05-03T12:41:09.753Z</time></trkpt><trkpt lat="45.5651783" lon="10.98338"><ele>565.3333333333334</ele><time>2026-05-03T12:41:10.753Z</time></trkpt><trkpt lat="45.5652917" lon="10.9832467"><ele>566.6666666666667</ele><time>2026-05-03T12:41:11.755Z</time></trkpt><trkpt lat="45.5654017" lon="10.9830917"><ele>568.0</ele><time>2026-05-03T12:41:12.763Z</time></trkpt><trkpt lat="45.5655017" lon="10.9829133"><ele>568.0</ele><time>2026-05-03T12:41:13.758Z</time></trkpt><trkpt lat="45.5655933" lon="10.982715"><ele>568.0</ele><time>2026-05-03T12:41:14.759Z</time></trkpt><trkpt lat="45.5656817" lon="10.9824983"><ele>568.0</ele><time>2026-05-03T12:41:15.752Z</time></trkpt><trkpt lat="45.5657767" lon="10.982285"><ele>573.6666666666667</ele><time>2026-05-03T12:41:16.755Z</time></trkpt><trkpt lat="45.5658883" lon="10.982095"><ele>579.3333333333334</ele><time>2026-05-03T12:41:17.757Z</time></trkpt><trkpt lat="45.5660033" lon="10.9819183"><ele>585.0</ele><time>2026-05-03T12:41:18.756Z</time></trkpt><trkpt lat="45.56611" lon="10.981735"><ele>583.6666666666666</ele><time>2026-05-03T12:41:19.757Z</time></trkpt><trkpt lat="45.5661933" lon="10.981535"><ele>582.3333333333333</ele><time>2026-05-03T12:41:20.763Z</time></trkpt><trkpt lat="45.566265" lon="10.9813267"><ele>581.0</ele><time>2026-05-03T12:41:21.76Z</time></trkpt><trkpt lat="45.5663367" lon="10.9811433"><ele>581.0</ele><time>2026-05-03T12:41:22.76Z</time></trkpt><trkpt lat="45.566425" lon="10.980985"><ele>581.0</ele><time>2026-05-03T12:41:23.759Z</time></trkpt><trkpt lat="45.5665367" lon="10.9808633"><ele>581.0</ele><time>2026-05-03T12:41:24.756Z</time></trkpt><trkpt lat="45.5666683" lon="10.9807583"><ele>581.0</ele><time>2026-05-03T12:41:25.752Z</time></trkpt><trkpt lat="45.5668033" lon="10.98064"><ele>583.0</ele><time>2026-05-03T12:41:26.763Z</time></trkpt><trkpt lat="45.566935" lon="10.980495"><ele>585.0</ele><time>2026-05-03T12:41:27.758Z</time></trkpt><trkpt lat="45.567065" lon="10.98034"><ele>587.0</ele><time>2026-05-03T12:41:28.754Z</time></trkpt><trkpt lat="45.5671883" lon="10.9801717"><ele>594.0</ele><time>2026-05-03T12:41:29.756Z</time></trkpt><trkpt lat="45.5673017" lon="10.9799967"><ele>601.0</ele><time>2026-05-03T12:41:30.757Z</time></trkpt><trkpt lat="45.56742" lon="10.97984"><ele>608.0</ele><time>2026-05-03T12:41:31.755Z</time></trkpt><trkpt lat="45.5675433" lon="10.979705"><ele>608.0</ele><time>2026-05-03T12:41:32.757Z</time></trkpt><trkpt lat="45.5676633" lon="10.9795767"><ele>608.0</ele><time>2026-05-03T12:41:33.759Z</time></trkpt><trkpt lat="45.56777" lon="10.9794383"><ele>608.0</ele><time>2026-05-03T12:41:34.754Z</time></trkpt><trkpt lat="45.56786" lon="10.97927"><ele>608.0</ele><time>2026-05-03T12:41:35.757Z</time></trkpt><trkpt lat="45.567945" lon="10.979105"><ele>609.5</ele><time>2026-05-03T12:41:36.761Z</time></trkpt><trkpt lat="45.568035" lon="10.97896"><ele>611.0</ele><time>2026-05-03T12:41:37.754Z</time></trkpt><trkpt lat="45.5681383" lon="10.97885"><ele>612.5</ele><time>2026-05-03T12:41:38.755Z</time></trkpt><trkpt lat="45.5682533" lon="10.978765"><ele>614.0</ele><time>2026-05-03T12:41:39.756Z</time></trkpt><trkpt lat="45.5683783" lon="10.978695"><ele>614.0</ele><time>2026-05-03T12:41:40.761Z</time></trkpt><trkpt lat="45.56852" lon="10.97863"><ele>614.0</ele><time>2026-05-03T12:41:41.754Z</time></trkpt><trkpt lat="45.568675" lon="10.9785633"><ele>614.0</ele><time>2026-05-03T12:41:42.755Z</time></trkpt><trkpt lat="45.5688417" lon="10.9784867"><ele>609.6666666666666</ele><time>2026-05-03T12:41:43.761Z</time></trkpt><trkpt lat="45.5690017" lon="10.9784033"><ele>605.3333333333334</ele><time>2026-05-03T12:41:44.757Z</time></trkpt><trkpt lat="45.569155" lon="10.9783367"><ele>601.0</ele><time>2026-05-03T12:41:45.754Z</time></trkpt><trkpt lat="45.569305" lon="10.97828"><ele>607.5</ele><time>2026-05-03T12:41:46.756Z</time></trkpt><trkpt lat="45.56945" lon="10.9782217"><ele>614.0</ele><time>2026-05-03T12:41:47.752Z</time></trkpt><trkpt lat="45.56958" lon="10.9781717"><ele>620.5</ele><time>2026-05-03T12:41:48.753Z</time></trkpt><trkpt lat="45.5696867" lon="10.9781333"><ele>627.0</ele><time>2026-05-03T12:41:49.759Z</time></trkpt><trkpt lat="45.569775" lon="10.9780983"><ele>627.0</ele><time>2026-05-03T12:41:50.758Z</time></trkpt><trkpt lat="45.5698467" lon="10.9780617"><ele>627.0</ele><time>2026-05-03T12:41:51.755Z</time></trkpt><trkpt lat="45.5699" lon="10.9780083"><ele>627.0</ele><time>2026-05-03T12:41:52.759Z</time></trkpt><trkpt lat="45.5698183" lon="10.977895"><ele>627.0</ele><time>2026-05-03T12:41:54.76Z</time></trkpt><trkpt lat="45.56971" lon="10.9779067"><ele>627.0</ele><time>2026-05-03T12:41:55.758Z</time></trkpt><trkpt lat="45.5695883" lon="10.977925"><ele>628.25</ele><time>2026-05-03T12:41:56.757Z</time></trkpt><trkpt lat="45.5694517" lon="10.9779383"><ele>629.5</ele><time>2026-05-03T12:41:57.754Z</time></trkpt><trkpt lat="45.5693183" lon="10.977955"><ele>630.75</ele><time>2026-05-03T12:41:58.756Z</time></trkpt><trkpt lat="45.5692017" lon="10.97796"><ele>632.0</ele><time>2026-05-03T12:41:59.756Z</time></trkpt><trkpt lat="45.5691167" lon="10.9779533"><ele>632.0</ele><time>2026-05-03T12:42:00.761Z</time></trkpt><trkpt lat="45.5690417" lon="10.9778733"><ele>632.0</ele><time>2026-05-03T12:42:02.761Z</time></trkpt><trkpt lat="45.569115" lon="10.9778133"><ele>632.0</ele><time>2026-05-03T12:42:04.759Z</time></trkpt><trkpt lat="45.5691867" lon="10.9778267"><ele>632.0</ele><time>2026-05-03T12:42:05.756Z</time></trkpt><trkpt lat="45.5692767" lon="10.9778333"><ele>632.0</ele><time>2026-05-03T12:42:06.755Z</time></trkpt><trkpt lat="45.5693917" lon="10.977805"><ele>632.0</ele><time>2026-05-03T12:42:07.758Z</time></trkpt><trkpt lat="45.5695133" lon="10.977755"><ele>632.0</ele><time>2026-05-03T12:42:08.758Z</time></trkpt><trkpt lat="45.5696483" lon="10.9776933"><ele>632.0</ele><time>2026-05-03T12:42:09.759Z</time></trkpt><trkpt lat="45.5697917" lon="10.97762"><ele>632.0</ele><time>2026-05-03T12:42:10.758Z</time></trkpt><trkpt lat="45.5699417" lon="10.97753"><ele>635.3333333333333</ele><time>2026-05-03T12:42:11.758Z</time></trkpt><trkpt lat="45.5700967" lon="10.9774117"><ele>638.6666666666666</ele><time>2026-05-03T12:42:12.759Z</time></trkpt><trkpt lat="45.5702433" lon="10.977275"><ele>642.0</ele><time>2026-05-03T12:42:13.756Z</time></trkpt><trkpt lat="45.570385" lon="10.9770967"><ele>642.0</ele><time>2026-05-03T12:42:14.759Z</time></trkpt><trkpt lat="45.5705217" lon="10.9769"><ele>642.0</ele><time>2026-05-03T12:42:15.758Z</time></trkpt><trkpt lat="45.5706617" lon="10.9767033"><ele>642.0</ele><time>2026-05-03T12:42:16.758Z</time></trkpt><trkpt lat="45.5708083" lon="10.9765083"><ele>645.0</ele><time>2026-05-03T12:42:17.755Z</time></trkpt><trkpt lat="45.5709583" lon="10.976315"><ele>648.0</ele><time>2026-05-03T12:42:18.763Z</time></trkpt><trkpt lat="45.5711067" lon="10.9761417"><ele>651.0</ele><time>2026-05-03T12:42:19.76Z</time></trkpt><trkpt lat="45.5712533" lon="10.9759767"><ele>657.0</ele><time>2026-05-03T12:42:20.758Z</time></trkpt><trkpt lat="45.5713967" lon="10.9758167"><ele>663.0</ele><time>2026-05-03T12:42:21.76Z</time></trkpt><trkpt lat="45.5715383" lon="10.97566"><ele>669.0</ele><time>2026-05-03T12:42:22.761Z</time></trkpt><trkpt lat="45.57168" lon="10.97551"><ele>669.0</ele><time>2026-05-03T12:42:23.756Z</time></trkpt><trkpt lat="45.57183" lon="10.9753767"><ele>669.0</ele><time>2026-05-03T12:42:24.761Z</time></trkpt><trkpt lat="45.5719933" lon="10.9752617"><ele>669.0</ele><time>2026-05-03T12:42:25.756Z</time></trkpt><trkpt lat="45.57217" lon="10.9751583"><ele>668.0</ele><time>2026-05-03T12:42:26.755Z</time></trkpt><trkpt lat="45.572355" lon="10.9750567"><ele>667.0</ele><time>2026-05-03T12:42:27.753Z</time></trkpt><trkpt lat="45.5725483" lon="10.9749617"><ele>666.0</ele><time>2026-05-03T12:42:28.757Z</time></trkpt><trkpt lat="45.572745" lon="10.97488"><ele>671.3333333333334</ele><time>2026-05-03T12:42:29.761Z</time></trkpt><trkpt lat="45.5729433" lon="10.9748033"><ele>676.6666666666667</ele><time>2026-05-03T12:42:30.76Z</time></trkpt><trkpt lat="45.5731433" lon="10.9747183"><ele>682.0</ele><time>2026-05-03T12:42:31.763Z</time></trkpt><trkpt lat="45.5733417" lon="10.9746167"><ele>682.0</ele><time>2026-05-03T12:42:32.763Z</time></trkpt><trkpt lat="45.57354" lon="10.9745"><ele>682.0</ele><time>2026-05-03T12:42:33.762Z</time></trkpt><trkpt lat="45.5737433" lon="10.9743917"><ele>682.0</ele><time>2026-05-03T12:42:34.755Z</time></trkpt><trkpt lat="45.5739533" lon="10.9742983"><ele>683.5</ele><time>2026-05-03T12:42:35.763Z</time></trkpt><trkpt lat="45.5741683" lon="10.974205"><ele>685.0</ele><time>2026-05-03T12:42:36.76Z</time></trkpt><trkpt lat="45.574385" lon="10.9741117"><ele>691.5</ele><time>2026-05-03T12:42:37.761Z</time></trkpt><trkpt lat="45.5746083" lon="10.974025"><ele>698.0</ele><time>2026-05-03T12:42:38.76Z</time></trkpt><trkpt lat="45.574835" lon="10.9739467"><ele>698.0</ele><time>2026-05-03T12:42:39.756Z</time></trkpt><trkpt lat="45.575055" lon="10.973875"><ele>698.0</ele><time>2026-05-03T12:42:40.758Z</time></trkpt><trkpt lat="45.5752667" lon="10.97381"><ele>698.0</ele><time>2026-05-03T12:42:41.759Z</time></trkpt><trkpt lat="45.5754767" lon="10.9737633"><ele>699.3333333333333</ele><time>2026-05-03T12:42:42.755Z</time></trkpt><trkpt lat="45.575685" lon="10.973725"><ele>700.6666666666666</ele><time>2026-05-03T12:42:43.755Z</time></trkpt><trkpt lat="45.5758917" lon="10.9736767"><ele>702.0</ele><time>2026-05-03T12:42:44.756Z</time></trkpt><trkpt lat="45.5760917" lon="10.9736017"><ele>702.3333333333334</ele><time>2026-05-03T12:42:45.755Z</time></trkpt><trkpt lat="45.57629" lon="10.9734933"><ele>702.6666666666667</ele><time>2026-05-03T12:42:46.762Z</time></trkpt><trkpt lat="45.576485" lon="10.9733683"><ele>703.0</ele><time>2026-05-03T12:42:47.759Z</time></trkpt><trkpt lat="45.5766867" lon="10.97324"><ele>703.0</ele><time>2026-05-03T12:42:48.762Z</time></trkpt><trkpt lat="45.5768883" lon="10.9731117"><ele>703.0</ele><time>2026-05-03T12:42:49.758Z</time></trkpt><trkpt lat="45.5770817" lon="10.9729917"><ele>703.0</ele><time>2026-05-03T12:42:50.76Z</time></trkpt><trkpt lat="45.5772633" lon="10.9728817"><ele>703.6666666666667</ele><time>2026-05-03T12:42:51.755Z</time></trkpt><trkpt lat="45.577435" lon="10.9727867"><ele>704.3333333333334</ele><time>2026-05-03T12:42:52.759Z</time></trkpt><trkpt lat="45.5775933" lon="10.9727117"><ele>705.0</ele><time>2026-05-03T12:42:53.753Z</time></trkpt><trkpt lat="45.5777367" lon="10.97267"><ele>706.25</ele><time>2026-05-03T12:42:54.759Z</time></trkpt><trkpt lat="45.5778817" lon="10.97267"><ele>707.5</ele><time>2026-05-03T12:42:55.756Z</time></trkpt><trkpt lat="45.578025" lon="10.972705"><ele>708.75</ele><time>2026-05-03T12:42:56.758Z</time></trkpt><trkpt lat="45.57817" lon="10.972725"><ele>710.0</ele><time>2026-05-03T12:42:57.755Z</time></trkpt><trkpt lat="45.57832" lon="10.9726833"><ele>710.0</ele><time>2026-05-03T12:42:58.754Z</time></trkpt><trkpt lat="45.5784733" lon="10.97258"><ele>710.0</ele><time>2026-05-03T12:42:59.756Z</time></trkpt><trkpt lat="45.5786317" lon="10.97245"><ele>710.0</ele><time>2026-05-03T12:43:00.754Z</time></trkpt><trkpt lat="45.5787983" lon="10.9723283"><ele>711.0</ele><time>2026-05-03T12:43:01.758Z</time></trkpt><trkpt lat="45.5789733" lon="10.9722217"><ele>712.0</ele><time>2026-05-03T12:43:02.759Z</time></trkpt><trkpt lat="45.57916" lon="10.9721167"><ele>713.0</ele><time>2026-05-03T12:43:03.758Z</time></trkpt><trkpt lat="45.5793467" lon="10.971995"><ele>714.0</ele><time>2026-05-03T12:43:04.754Z</time></trkpt><trkpt lat="45.579525" lon="10.9718567"><ele>715.0</ele><time>2026-05-03T12:43:05.759Z</time></trkpt><trkpt lat="45.57969" lon="10.9717333"><ele>716.0</ele><time>2026-05-03T12:43:06.754Z</time></trkpt><trkpt lat="45.5798467" lon="10.97164"><ele>716.0</ele><time>2026-05-03T12:43:07.757Z</time></trkpt><trkpt lat="45.579995" lon="10.9715817"><ele>716.0</ele><time>2026-05-03T12:43:08.772Z</time></trkpt><trkpt lat="45.58014" lon="10.9715533"><ele>716.0</ele><time>2026-05-03T12:43:09.757Z</time></trkpt><trkpt lat="45.5802867" lon="10.9715283"><ele>716.0</ele><time>2026-05-03T12:43:10.761Z</time></trkpt><trkpt lat="45.5804333" lon="10.9714817"><ele>719.25</ele><time>2026-05-03T12:43:11.757Z</time></trkpt><trkpt lat="45.5805633" lon="10.9714267"><ele>722.5</ele><time>2026-05-03T12:43:12.763Z</time></trkpt><trkpt lat="45.5806733" lon="10.9713617"><ele>725.75</ele><time>2026-05-03T12:43:13.766Z</time></trkpt><trkpt lat="45.580765" lon="10.97128"><ele>729.0</ele><time>2026-05-03T12:43:14.764Z</time></trkpt><trkpt lat="45.5808367" lon="10.9711683"><ele>729.0</ele><time>2026-05-03T12:43:15.756Z</time></trkpt><trkpt lat="45.5808917" lon="10.9710183"><ele>729.0</ele><time>2026-05-03T12:43:16.756Z</time></trkpt><trkpt lat="45.5809283" lon="10.97085"><ele>729.0</ele><time>2026-05-03T12:43:17.757Z</time></trkpt><trkpt lat="45.5809433" lon="10.97068"><ele>729.0</ele><time>2026-05-03T12:43:18.758Z</time></trkpt><trkpt lat="45.5809333" lon="10.9705033"><ele>726.25</ele><time>2026-05-03T12:43:19.754Z</time></trkpt><trkpt lat="45.5809033" lon="10.9703217"><ele>723.5</ele><time>2026-05-03T12:43:20.755Z</time></trkpt><trkpt lat="45.58084" lon="10.97013"><ele>720.75</ele><time>2026-05-03T12:43:21.755Z</time></trkpt><trkpt lat="45.5807417" lon="10.9699417"><ele>718.0</ele><time>2026-05-03T12:43:22.754Z</time></trkpt><trkpt lat="45.58062" lon="10.9697617"><ele>716.6666666666667</ele><time>2026-05-03T12:43:23.755Z</time></trkpt><trkpt lat="45.580475" lon="10.969575"><ele>715.3333333333334</ele><time>2026-05-03T12:43:24.756Z</time></trkpt><trkpt lat="45.5803167" lon="10.9693933"><ele>714.0</ele><time>2026-05-03T12:43:25.757Z</time></trkpt><trkpt lat="45.5801483" lon="10.9692267"><ele>708.6666666666666</ele><time>2026-05-03T12:43:26.757Z</time></trkpt><trkpt lat="45.5799783" lon="10.9690683"><ele>703.3333333333333</ele><time>2026-05-03T12:43:27.756Z</time></trkpt><trkpt lat="45.5798217" lon="10.9689167"><ele>698.0</ele><time>2026-05-03T12:43:28.756Z</time></trkpt><trkpt lat="45.5796833" lon="10.9687817"><ele>698.0</ele><time>2026-05-03T12:43:29.758Z</time></trkpt><trkpt lat="45.579565" lon="10.96866"><ele>698.0</ele><time>2026-05-03T12:43:30.756Z</time></trkpt><trkpt lat="45.5794633" lon="10.968555"><ele>698.0</ele><time>2026-05-03T12:43:31.758Z</time></trkpt><trkpt lat="45.57937" lon="10.9684783"><ele>698.0</ele><time>2026-05-03T12:43:32.754Z</time></trkpt><trkpt lat="45.5792783" lon="10.9684467"><ele>695.6666666666666</ele><time>2026-05-03T12:43:33.756Z</time></trkpt><trkpt lat="45.57918" lon="10.9684517"><ele>693.3333333333333</ele><time>2026-05-03T12:43:34.757Z</time></trkpt><trkpt lat="45.579085" lon="10.9684717"><ele>691.0</ele><time>2026-05-03T12:43:35.757Z</time></trkpt><trkpt lat="45.5789917" lon="10.96847"><ele>688.6666666666666</ele><time>2026-05-03T12:43:36.763Z</time></trkpt><trkpt lat="45.57891" lon="10.9684383"><ele>686.3333333333334</ele><time>2026-05-03T12:43:37.76Z</time></trkpt><trkpt lat="45.5788433" lon="10.9683883"><ele>684.0</ele><time>2026-05-03T12:43:38.76Z</time></trkpt><trkpt lat="45.578795" lon="10.9683217"><ele>684.0</ele><time>2026-05-03T12:43:39.757Z</time></trkpt><trkpt lat="45.5787983" lon="10.96823"><ele>684.0</ele><time>2026-05-03T12:43:40.754Z</time></trkpt><trkpt lat="45.57884" lon="10.9681467"><ele>684.0</ele><time>2026-05-03T12:43:41.753Z</time></trkpt><trkpt lat="45.578905" lon="10.9680617"><ele>684.0</ele><time>2026-05-03T12:43:42.755Z</time></trkpt><trkpt lat="45.5789867" lon="10.967985"><ele>684.0</ele><time>2026-05-03T12:43:43.754Z</time></trkpt><trkpt lat="45.5790767" lon="10.9679133"><ele>684.0</ele><time>2026-05-03T12:43:44.76Z</time></trkpt><trkpt lat="45.5791283" lon="10.96784"><ele>684.0</ele><time>2026-05-03T12:43:45.754Z</time></trkpt><trkpt lat="45.57917" lon="10.96775"><ele>684.0</ele><time>2026-05-03T12:43:47.755Z</time></trkpt><trkpt lat="45.5792383" lon="10.9676533"><ele>684.0</ele><time>2026-05-03T12:43:49.758Z</time></trkpt><trkpt lat="45.579305" lon="10.9675833"><ele>684.0</ele><time>2026-05-03T12:43:50.756Z</time></trkpt><trkpt lat="45.5794" lon="10.9675033"><ele>684.0</ele><time>2026-05-03T12:43:51.759Z</time></trkpt><trkpt lat="45.5795133" lon="10.9674283"><ele>686.5</ele><time>2026-05-03T12:43:52.755Z</time></trkpt><trkpt lat="45.579635" lon="10.9673383"><ele>689.0</ele><time>2026-05-03T12:43:53.758Z</time></trkpt><trkpt lat="45.57977" lon="10.96724"><ele>691.5</ele><time>2026-05-03T12:43:54.754Z</time></trkpt><trkpt lat="45.5799117" lon="10.9671417"><ele>694.0</ele><time>2026-05-03T12:43:55.756Z</time></trkpt><trkpt lat="45.5800617" lon="10.9670317"><ele>694.0</ele><time>2026-05-03T12:43:56.757Z</time></trkpt><trkpt lat="45.5802217" lon="10.9669267"><ele>694.0</ele><time>2026-05-03T12:43:57.762Z</time></trkpt><trkpt lat="45.5803733" lon="10.9668317"><ele>694.0</ele><time>2026-05-03T12:43:58.759Z</time></trkpt><trkpt lat="45.5805317" lon="10.966775"><ele>694.5</ele><time>2026-05-03T12:43:59.758Z</time></trkpt><trkpt lat="45.5806783" lon="10.9667233"><ele>695.0</ele><time>2026-05-03T12:44:00.757Z</time></trkpt><trkpt lat="45.5808033" lon="10.9666217"><ele>695.5</ele><time>2026-05-03T12:44:01.755Z</time></trkpt><trkpt lat="45.5809017" lon="10.9664567"><ele>696.0</ele><time>2026-05-03T12:44:02.759Z</time></trkpt><trkpt lat="45.5809883" lon="10.96627"><ele>696.0</ele><time>2026-05-03T12:44:03.762Z</time></trkpt><trkpt lat="45.5810817" lon="10.9661067"><ele>696.0</ele><time>2026-05-03T12:44:04.757Z</time></trkpt><trkpt lat="45.5812017" lon="10.9659833"><ele>696.0</ele><time>2026-05-03T12:44:05.758Z</time></trkpt><trkpt lat="45.5813433" lon="10.9658717"><ele>697.0</ele><time>2026-05-03T12:44:06.759Z</time></trkpt><trkpt lat="45.581495" lon="10.965755"><ele>698.0</ele><time>2026-05-03T12:44:07.759Z</time></trkpt><trkpt lat="45.5816467" lon="10.9656217"><ele>699.0</ele><time>2026-05-03T12:44:08.757Z</time></trkpt><trkpt lat="45.5818117" lon="10.9654967"><ele>699.0</ele><time>2026-05-03T12:44:09.763Z</time></trkpt><trkpt lat="45.5819783" lon="10.965375"><ele>699.0</ele><time>2026-05-03T12:44:10.756Z</time></trkpt><trkpt lat="45.5821267" lon="10.9652617"><ele>699.0</ele><time>2026-05-03T12:44:11.754Z</time></trkpt><trkpt lat="45.582265" lon="10.9651683"><ele>704.0</ele><time>2026-05-03T12:44:12.754Z</time></trkpt><trkpt lat="45.5824017" lon="10.9650967"><ele>709.0</ele><time>2026-05-03T12:44:13.76Z</time></trkpt><trkpt lat="45.5825533" lon="10.9650733"><ele>714.0</ele><time>2026-05-03T12:44:14.769Z</time></trkpt><trkpt lat="45.5827133" lon="10.9650817"><ele>719.0</ele><time>2026-05-03T12:44:15.754Z</time></trkpt><trkpt lat="45.582885" lon="10.965105"><ele>724.0</ele><time>2026-05-03T12:44:16.757Z</time></trkpt><trkpt lat="45.5830483" lon="10.9651417"><ele>729.0</ele><time>2026-05-03T12:44:17.759Z</time></trkpt><trkpt lat="45.5831983" lon="10.9652033"><ele>729.0</ele><time>2026-05-03T12:44:18.756Z</time></trkpt><trkpt lat="45.583325" lon="10.96528"><ele>729.0</ele><time>2026-05-03T12:44:19.759Z</time></trkpt><trkpt lat="45.5834383" lon="10.96533"><ele>729.0</ele><time>2026-05-03T12:44:20.756Z</time></trkpt><trkpt lat="45.5835517" lon="10.9653217"><ele>729.0</ele><time>2026-05-03T12:44:21.758Z</time></trkpt><trkpt lat="45.5836667" lon="10.9652483"><ele>726.6666666666666</ele><time>2026-05-03T12:44:22.756Z</time></trkpt><trkpt lat="45.5837817" lon="10.9651233"><ele>724.3333333333333</ele><time>2026-05-03T12:44:23.756Z</time></trkpt><trkpt lat="45.583905" lon="10.9649933"><ele>722.0</ele><time>2026-05-03T12:44:24.759Z</time></trkpt><trkpt lat="45.58404" lon="10.964865"><ele>722.0</ele><time>2026-05-03T12:44:25.76Z</time></trkpt><trkpt lat="45.5841883" lon="10.9647483"><ele>722.0</ele><time>2026-05-03T12:44:26.758Z</time></trkpt><trkpt lat="45.584335" lon="10.96466"><ele>722.0</ele><time>2026-05-03T12:44:27.76Z</time></trkpt><trkpt lat="45.58449" lon="10.9646017"><ele>728.3333333333333</ele><time>2026-05-03T12:44:28.753Z</time></trkpt><trkpt lat="45.58466" lon="10.9645733"><ele>734.6666666666666</ele><time>2026-05-03T12:44:29.756Z</time></trkpt><trkpt lat="45.5848367" lon="10.9645533"><ele>741.0</ele><time>2026-05-03T12:44:30.753Z</time></trkpt><trkpt lat="45.5850183" lon="10.9645217"><ele>741.0</ele><time>2026-05-03T12:44:31.757Z</time></trkpt><trkpt lat="45.5851967" lon="10.9644667"><ele>741.0</ele><time>2026-05-03T12:44:32.761Z</time></trkpt><trkpt lat="45.5853535" lon="10.9643899"><ele>741.0</ele><time>2026-05-03T12:44:33.757Z</time></trkpt><trkpt lat="45.5854925" lon="10.9642897"><ele>740.5</ele><time>2026-05-03T12:44:34.762Z</time></trkpt><trkpt lat="45.5856072" lon="10.9641508"><ele>740.0</ele><time>2026-05-03T12:44:35.756Z</time></trkpt><trkpt lat="45.5857041" lon="10.9640081"><ele>739.5</ele><time>2026-05-03T12:44:36.756Z</time></trkpt><trkpt lat="45.5858109" lon="10.9638894"><ele>739.0</ele><time>2026-05-03T12:44:37.76Z</time></trkpt><trkpt lat="45.5859419" lon="10.9638129"><ele>739.0</ele><time>2026-05-03T12:44:38.758Z</time></trkpt><trkpt lat="45.5860895" lon="10.9637775"><ele>739.0</ele><time>2026-05-03T12:44:39.755Z</time></trkpt><trkpt lat="45.5862516" lon="10.9637999"><ele>739.0</ele><time>2026-05-03T12:44:40.756Z</time></trkpt><trkpt lat="45.5864023" lon="10.9638698"><ele>741.25</ele><time>2026-05-03T12:44:41.753Z</time></trkpt><trkpt lat="45.5865324" lon="10.9639417"><ele>743.5</ele><time>2026-05-03T12:44:42.753Z</time></trkpt><trkpt lat="45.5866533" lon="10.9639533"><ele>745.75</ele><time>2026-05-03T12:44:43.754Z</time></trkpt><trkpt lat="45.5867717" lon="10.96387"><ele>748.0</ele><time>2026-05-03T12:44:44.751Z</time></trkpt><trkpt lat="45.5868917" lon="10.9637683"><ele>750.3333333333334</ele><time>2026-05-03T12:44:45.762Z</time></trkpt><trkpt lat="45.5870183" lon="10.9636917"><ele>752.6666666666666</ele><time>2026-05-03T12:44:46.758Z</time></trkpt><trkpt lat="45.5871717" lon="10.96367"><ele>755.0</ele><time>2026-05-03T12:44:47.752Z</time></trkpt><trkpt lat="45.587345" lon="10.9637017"><ele>755.0</ele><time>2026-05-03T12:44:48.755Z</time></trkpt><trkpt lat="45.5875283" lon="10.9637333"><ele>755.0</ele><time>2026-05-03T12:44:49.754Z</time></trkpt><trkpt lat="45.5877183" lon="10.96376"><ele>755.0</ele><time>2026-05-03T12:44:50.765Z</time></trkpt><trkpt lat="45.5879117" lon="10.9637983"><ele>753.6666666666666</ele><time>2026-05-03T12:44:51.756Z</time></trkpt><trkpt lat="45.588105" lon="10.9638617"><ele>752.3333333333334</ele><time>2026-05-03T12:44:52.758Z</time></trkpt><trkpt lat="45.5883" lon="10.9639533"><ele>751.0</ele><time>2026-05-03T12:44:53.759Z</time></trkpt><trkpt lat="45.5884967" lon="10.9640617"><ele>751.0</ele><time>2026-05-03T12:44:54.759Z</time></trkpt><trkpt lat="45.588685" lon="10.96417"><ele>751.0</ele><time>2026-05-03T12:44:55.762Z</time></trkpt><trkpt lat="45.5888617" lon="10.964275"><ele>751.0</ele><time>2026-05-03T12:44:56.76Z</time></trkpt><trkpt lat="45.5890317" lon="10.9643683"><ele>751.0</ele><time>2026-05-03T12:44:57.762Z</time></trkpt><trkpt lat="45.5892" lon="10.964445"><ele>751.0</ele><time>2026-05-03T12:44:58.767Z</time></trkpt><trkpt lat="45.58938" lon="10.96448"><ele>751.0</ele><time>2026-05-03T12:44:59.756Z</time></trkpt><trkpt lat="45.5895617" lon="10.9644567"><ele>751.3333333333334</ele><time>2026-05-03T12:45:00.759Z</time></trkpt><trkpt lat="45.5897433" lon="10.9643733"><ele>751.6666666666666</ele><time>2026-05-03T12:45:01.759Z</time></trkpt><trkpt lat="45.5899217" lon="10.964255"><ele>752.0</ele><time>2026-05-03T12:45:02.76Z</time></trkpt><trkpt lat="45.5901067" lon="10.9641233"><ele>752.6666666666666</ele><time>2026-05-03T12:45:03.759Z</time></trkpt><trkpt lat="45.5902933" lon="10.9639867"><ele>753.3333333333334</ele><time>2026-05-03T12:45:04.759Z</time></trkpt><trkpt lat="45.5904817" lon="10.9638467"><ele>754.0</ele><time>2026-05-03T12:45:05.762Z</time></trkpt><trkpt lat="45.590675" lon="10.9637017"><ele>756.3333333333334</ele><time>2026-05-03T12:45:06.762Z</time></trkpt><trkpt lat="45.5908683" lon="10.9635567"><ele>758.6666666666666</ele><time>2026-05-03T12:45:07.755Z</time></trkpt><trkpt lat="45.5910617" lon="10.9634117"><ele>761.0</ele><time>2026-05-03T12:45:08.759Z</time></trkpt><trkpt lat="45.591255" lon="10.9632667"><ele>763.0</ele><time>2026-05-03T12:45:09.759Z</time></trkpt><trkpt lat="45.5914517" lon="10.96312"><ele>765.0</ele><time>2026-05-03T12:45:10.762Z</time></trkpt><trkpt lat="45.59165" lon="10.9629717"><ele>767.0</ele><time>2026-05-03T12:45:11.756Z</time></trkpt><trkpt lat="45.5918483" lon="10.962825"><ele>769.3333333333333</ele><time>2026-05-03T12:45:12.754Z</time></trkpt><trkpt lat="45.59204" lon="10.9626867"><ele>771.6666666666666</ele><time>2026-05-03T12:45:13.757Z</time></trkpt><trkpt lat="45.592215" lon="10.9625717"><ele>774.0</ele><time>2026-05-03T12:45:14.758Z</time></trkpt><trkpt lat="45.5923833" lon="10.9624833"><ele>774.0</ele><time>2026-05-03T12:45:15.765Z</time></trkpt><trkpt lat="45.59256" lon="10.9624317"><ele>774.0</ele><time>2026-05-03T12:45:16.76Z</time></trkpt><trkpt lat="45.5927417" lon="10.9624083"><ele>774.0</ele><time>2026-05-03T12:45:17.756Z</time></trkpt><trkpt lat="45.592915" lon="10.96239"><ele>778.75</ele><time>2026-05-03T12:45:18.761Z</time></trkpt><trkpt lat="45.593065" lon="10.9623567"><ele>783.5</ele><time>2026-05-03T12:45:19.757Z</time></trkpt><trkpt lat="45.59319" lon="10.9622767"><ele>788.25</ele><time>2026-05-03T12:45:20.764Z</time></trkpt><trkpt lat="45.5932883" lon="10.96215"><ele>793.0</ele><time>2026-05-03T12:45:21.76Z</time></trkpt><trkpt lat="45.5933333" lon="10.9619317"><ele>791.3333333333333</ele><time>2026-05-03T12:45:22.757Z</time></trkpt><trkpt lat="45.593375" lon="10.9616967"><ele>789.6666666666667</ele><time>2026-05-03T12:45:23.754Z</time></trkpt><trkpt lat="45.5934233" lon="10.9614467"><ele>788.0</ele><time>2026-05-03T12:45:24.764Z</time></trkpt><trkpt lat="45.5934717" lon="10.9612117"><ele>788.0</ele><time>2026-05-03T12:45:25.754Z</time></trkpt><trkpt lat="45.5935217" lon="10.9610067"><ele>788.0</ele><time>2026-05-03T12:45:26.755Z</time></trkpt><trkpt lat="45.5935917" lon="10.9608467"><ele>788.0</ele><time>2026-05-03T12:45:27.751Z</time></trkpt><trkpt lat="45.593695" lon="10.9607333"><ele>788.0</ele><time>2026-05-03T12:45:28.755Z</time></trkpt><trkpt lat="45.5938233" lon="10.9606417"><ele>792.6666666666667</ele><time>2026-05-03T12:45:29.757Z</time></trkpt><trkpt lat="45.59397" lon="10.9605533"><ele>797.3333333333333</ele><time>2026-05-03T12:45:30.757Z</time></trkpt><trkpt lat="45.594135" lon="10.9604517"><ele>802.0</ele><time>2026-05-03T12:45:31.753Z</time></trkpt><trkpt lat="45.5942983" lon="10.960325"><ele>802.0</ele><time>2026-05-03T12:45:32.755Z</time></trkpt><trkpt lat="45.5944517" lon="10.9601833"><ele>802.0</ele><time>2026-05-03T12:45:33.755Z</time></trkpt><trkpt lat="45.5945883" lon="10.9600367"><ele>802.0</ele><time>2026-05-03T12:45:34.756Z</time></trkpt><trkpt lat="45.5947067" lon="10.9598967"><ele>803.25</ele><time>2026-05-03T12:45:35.754Z</time></trkpt><trkpt lat="45.5948217" lon="10.9597833"><ele>804.5</ele><time>2026-05-03T12:45:36.756Z</time></trkpt><trkpt lat="45.5949333" lon="10.9596967"><ele>805.75</ele><time>2026-05-03T12:45:37.758Z</time></trkpt><trkpt lat="45.595055" lon="10.959635"><ele>807.0</ele><time>2026-05-03T12:45:38.756Z</time></trkpt><trkpt lat="45.59519" lon="10.9595767"><ele>811.3333333333333</ele><time>2026-05-03T12:45:39.755Z</time></trkpt><trkpt lat="45.595345" lon="10.9595167"><ele>815.6666666666666</ele><time>2026-05-03T12:45:40.758Z</time></trkpt><trkpt lat="45.595515" lon="10.9594483"><ele>820.0</ele><time>2026-05-03T12:45:41.759Z</time></trkpt><trkpt lat="45.595685" lon="10.9593733"><ele>820.0</ele><time>2026-05-03T12:45:42.757Z</time></trkpt><trkpt lat="45.5958433" lon="10.959285"><ele>820.0</ele><time>2026-05-03T12:45:43.76Z</time></trkpt><trkpt lat="45.59598" lon="10.9591633"><ele>820.0</ele><time>2026-05-03T12:45:44.756Z</time></trkpt><trkpt lat="45.5961017" lon="10.9589933"><ele>816.0</ele><time>2026-05-03T12:45:45.757Z</time></trkpt><trkpt lat="45.5962117" lon="10.9587817"><ele>812.0</ele><time>2026-05-03T12:45:46.757Z</time></trkpt><trkpt lat="45.5963217" lon="10.9585633"><ele>808.0</ele><time>2026-05-03T12:45:47.756Z</time></trkpt><trkpt lat="45.5964367" lon="10.958315"><ele>803.6666666666666</ele><time>2026-05-03T12:45:48.756Z</time></trkpt><trkpt lat="45.596555" lon="10.958055"><ele>799.3333333333333</ele><time>2026-05-03T12:45:49.758Z</time></trkpt><trkpt lat="45.5966783" lon="10.957795"><ele>795.0</ele><time>2026-05-03T12:45:50.758Z</time></trkpt><trkpt lat="45.596795" lon="10.9575417"><ele>794.0</ele><time>2026-05-03T12:45:51.759Z</time></trkpt><trkpt lat="45.5969017" lon="10.9573183"><ele>793.0</ele><time>2026-05-03T12:45:52.757Z</time></trkpt><trkpt lat="45.5969967" lon="10.9571233"><ele>792.0</ele><time>2026-05-03T12:45:53.753Z</time></trkpt><trkpt lat="45.597085" lon="10.9569617"><ele>792.0</ele><time>2026-05-03T12:45:54.756Z</time></trkpt><trkpt lat="45.5971833" lon="10.9568417"><ele>792.0</ele><time>2026-05-03T12:45:55.762Z</time></trkpt><trkpt lat="45.5973067" lon="10.956775"><ele>792.0</ele><time>2026-05-03T12:45:56.753Z</time></trkpt><trkpt lat="45.59745" lon="10.9567517"><ele>792.0</ele><time>2026-05-03T12:45:57.753Z</time></trkpt><trkpt lat="45.5976" lon="10.9567383"><ele>792.0</ele><time>2026-05-03T12:45:58.752Z</time></trkpt><trkpt lat="45.5977333" lon="10.9567067"><ele>792.0</ele><time>2026-05-03T12:45:59.754Z</time></trkpt><trkpt lat="45.5978533" lon="10.9566467"><ele>792.0</ele><time>2026-05-03T12:46:00.762Z</time></trkpt><trkpt lat="45.5979583" lon="10.956575"><ele>792.0</ele><time>2026-05-03T12:46:01.759Z</time></trkpt><trkpt lat="45.598055" lon="10.9564967"><ele>789.75</ele><time>2026-05-03T12:46:02.764Z</time></trkpt><trkpt lat="45.5981417" lon="10.9564067"><ele>787.5</ele><time>2026-05-03T12:46:03.756Z</time></trkpt><trkpt lat="45.59823" lon="10.956305"><ele>785.25</ele><time>2026-05-03T12:46:04.757Z</time></trkpt><trkpt lat="45.59832" lon="10.9561983"><ele>783.0</ele><time>2026-05-03T12:46:05.762Z</time></trkpt><trkpt lat="45.5984133" lon="10.956085"><ele>783.0</ele><time>2026-05-03T12:46:06.758Z</time></trkpt><trkpt lat="45.59851" lon="10.955965"><ele>783.0</ele><time>2026-05-03T12:46:07.758Z</time></trkpt><trkpt lat="45.5986117" lon="10.9558417"><ele>783.0</ele><time>2026-05-03T12:46:08.762Z</time></trkpt><trkpt lat="45.5987233" lon="10.9557067"><ele>783.0</ele><time>2026-05-03T12:46:09.76Z</time></trkpt><trkpt lat="45.598835" lon="10.955565"><ele>782.25</ele><time>2026-05-03T12:46:10.756Z</time></trkpt><trkpt lat="45.5989367" lon="10.955415"><ele>781.5</ele><time>2026-05-03T12:46:11.751Z</time></trkpt><trkpt lat="45.5990217" lon="10.95525"><ele>780.75</ele><time>2026-05-03T12:46:12.757Z</time></trkpt><trkpt lat="45.5990967" lon="10.9550767"><ele>780.0</ele><time>2026-05-03T12:46:13.757Z</time></trkpt><trkpt lat="45.59917" lon="10.954895"><ele>780.0</ele><time>2026-05-03T12:46:14.757Z</time></trkpt><trkpt lat="45.5992467" lon="10.9547183"><ele>780.0</ele><time>2026-05-03T12:46:15.754Z</time></trkpt><trkpt lat="45.5993217" lon="10.9545517"><ele>780.0</ele><time>2026-05-03T12:46:16.755Z</time></trkpt><trkpt lat="45.59939" lon="10.9543967"><ele>780.0</ele><time>2026-05-03T12:46:17.754Z</time></trkpt><trkpt lat="45.5994483" lon="10.95426"><ele>781.5</ele><time>2026-05-03T12:46:18.756Z</time></trkpt><trkpt lat="45.5994933" lon="10.9541217"><ele>783.0</ele><time>2026-05-03T12:46:19.758Z</time></trkpt><trkpt lat="45.5995267" lon="10.95397"><ele>784.5</ele><time>2026-05-03T12:46:20.757Z</time></trkpt><trkpt lat="45.5995467" lon="10.9538033"><ele>786.0</ele><time>2026-05-03T12:46:21.758Z</time></trkpt><trkpt lat="45.5995517" lon="10.9536283"><ele>787.25</ele><time>2026-05-03T12:46:22.757Z</time></trkpt><trkpt lat="45.5995333" lon="10.95345"><ele>788.5</ele><time>2026-05-03T12:46:23.756Z</time></trkpt><trkpt lat="45.5994933" lon="10.9532767"><ele>789.75</ele><time>2026-05-03T12:46:24.759Z</time></trkpt><trkpt lat="45.5994333" lon="10.9531167"><ele>791.0</ele><time>2026-05-03T12:46:25.752Z</time></trkpt><trkpt lat="45.59936" lon="10.9529633"><ele>791.0</ele><time>2026-05-03T12:46:26.756Z</time></trkpt><trkpt lat="45.5992883" lon="10.9528167"><ele>791.0</ele><time>2026-05-03T12:46:27.755Z</time></trkpt><trkpt lat="45.5992233" lon="10.9526783"><ele>791.0</ele><time>2026-05-03T12:46:28.752Z</time></trkpt><trkpt lat="45.5991667" lon="10.9525367"><ele>791.0</ele><time>2026-05-03T12:46:29.753Z</time></trkpt><trkpt lat="45.5991317" lon="10.952385"><ele>789.5</ele><time>2026-05-03T12:46:30.753Z</time></trkpt><trkpt lat="45.5991233" lon="10.9522217"><ele>788.0</ele><time>2026-05-03T12:46:31.753Z</time></trkpt><trkpt lat="45.59915" lon="10.9520583"><ele>786.5</ele><time>2026-05-03T12:46:32.755Z</time></trkpt><trkpt lat="45.599215" lon="10.9518933"><ele>785.0</ele><time>2026-05-03T12:46:33.76Z</time></trkpt><trkpt lat="45.5993167" lon="10.9517333"><ele>787.0</ele><time>2026-05-03T12:46:34.754Z</time></trkpt><trkpt lat="45.599415" lon="10.9515667"><ele>789.0</ele><time>2026-05-03T12:46:35.757Z</time></trkpt><trkpt lat="45.5994933" lon="10.9514067"><ele>791.0</ele><time>2026-05-03T12:46:36.76Z</time></trkpt><trkpt lat="45.5995533" lon="10.951245"><ele>793.0</ele><time>2026-05-03T12:46:37.765Z</time></trkpt><trkpt lat="45.5996033" lon="10.9510917"><ele>792.0</ele><time>2026-05-03T12:46:38.758Z</time></trkpt><trkpt lat="45.5996517" lon="10.9509583"><ele>791.0</ele><time>2026-05-03T12:46:39.755Z</time></trkpt><trkpt lat="45.5997083" lon="10.9508533"><ele>790.0</ele><time>2026-05-03T12:46:40.757Z</time></trkpt><trkpt lat="45.59978" lon="10.9507783"><ele>789.0</ele><time>2026-05-03T12:46:41.754Z</time></trkpt><trkpt lat="45.5998633" lon="10.95075"><ele>788.0</ele><time>2026-05-03T12:46:42.754Z</time></trkpt><trkpt lat="45.599955" lon="10.9507717"><ele>788.0</ele><time>2026-05-03T12:46:43.766Z</time></trkpt><trkpt lat="45.6000567" lon="10.950845"><ele>788.0</ele><time>2026-05-03T12:46:44.759Z</time></trkpt><trkpt lat="45.600165" lon="10.9509283"><ele>788.0</ele><time>2026-05-03T12:46:45.755Z</time></trkpt><trkpt lat="45.6002917" lon="10.9510083"><ele>788.0</ele><time>2026-05-03T12:46:46.754Z</time></trkpt><trkpt lat="45.60045" lon="10.9510583"><ele>779.0</ele><time>2026-05-03T12:46:47.761Z</time></trkpt><trkpt lat="45.6006283" lon="10.9510783"><ele>770.0</ele><time>2026-05-03T12:46:48.755Z</time></trkpt><trkpt lat="45.6008217" lon="10.95108"><ele>761.0</ele><time>2026-05-03T12:46:49.761Z</time></trkpt><trkpt lat="45.6010133" lon="10.9510933"><ele>757.6666666666666</ele><time>2026-05-03T12:46:50.757Z</time></trkpt><trkpt lat="45.6011867" lon="10.9511183"><ele>754.3333333333334</ele><time>2026-05-03T12:46:51.76Z</time></trkpt><trkpt lat="45.601345" lon="10.9511283"><ele>751.0</ele><time>2026-05-03T12:46:52.755Z</time></trkpt><trkpt lat="45.601505" lon="10.9510767"><ele>751.0</ele><time>2026-05-03T12:46:53.754Z</time></trkpt><trkpt lat="45.6016567" lon="10.95095"><ele>751.0</ele><time>2026-05-03T12:46:54.758Z</time></trkpt><trkpt lat="45.6017917" lon="10.9507567"><ele>751.0</ele><time>2026-05-03T12:46:55.763Z</time></trkpt><trkpt lat="45.60193" lon="10.9505483"><ele>752.0</ele><time>2026-05-03T12:46:56.76Z</time></trkpt><trkpt lat="45.602065" lon="10.9503383"><ele>753.0</ele><time>2026-05-03T12:46:57.756Z</time></trkpt><trkpt lat="45.602185" lon="10.95014"><ele>754.0</ele><time>2026-05-03T12:46:58.753Z</time></trkpt><trkpt lat="45.602285" lon="10.949955"><ele>759.5</ele><time>2026-05-03T12:46:59.759Z</time></trkpt><trkpt lat="45.6023817" lon="10.9498017"><ele>765.0</ele><time>2026-05-03T12:47:00.758Z</time></trkpt><trkpt lat="45.6025" lon="10.9496933"><ele>770.5</ele><time>2026-05-03T12:47:01.759Z</time></trkpt><trkpt lat="45.602645" lon="10.94965"><ele>776.0</ele><time>2026-05-03T12:47:02.752Z</time></trkpt><trkpt lat="45.6028167" lon="10.9496517"><ele>773.0</ele><time>2026-05-03T12:47:03.765Z</time></trkpt><trkpt lat="45.6030033" lon="10.9496467"><ele>770.0</ele><time>2026-05-03T12:47:04.756Z</time></trkpt><trkpt lat="45.6032017" lon="10.94964"><ele>767.0</ele><time>2026-05-03T12:47:05.759Z</time></trkpt><trkpt lat="45.603405" lon="10.949625"><ele>767.0</ele><time>2026-05-03T12:47:06.759Z</time></trkpt><trkpt lat="45.6036" lon="10.9495983"><ele>767.0</ele><time>2026-05-03T12:47:07.753Z</time></trkpt><trkpt lat="45.6037883" lon="10.94955"><ele>767.0</ele><time>2026-05-03T12:47:08.768Z</time></trkpt><trkpt lat="45.603975" lon="10.9494833"><ele>767.0</ele><time>2026-05-03T12:47:09.76Z</time></trkpt><trkpt lat="45.6041683" lon="10.9493833"><ele>767.0</ele><time>2026-05-03T12:47:10.761Z</time></trkpt><trkpt lat="45.604365" lon="10.9492517"><ele>767.0</ele><time>2026-05-03T12:47:11.754Z</time></trkpt><trkpt lat="45.6045633" lon="10.9491083"><ele>767.0</ele><time>2026-05-03T12:47:12.76Z</time></trkpt><trkpt lat="45.604755" lon="10.9489583"><ele>767.0</ele><time>2026-05-03T12:47:13.754Z</time></trkpt><trkpt lat="45.6049333" lon="10.9488217"><ele>767.0</ele><time>2026-05-03T12:47:14.759Z</time></trkpt><trkpt lat="45.6051017" lon="10.9487"><ele>767.0</ele><time>2026-05-03T12:47:15.753Z</time></trkpt><trkpt lat="45.60526" lon="10.948605"><ele>767.0</ele><time>2026-05-03T12:47:16.752Z</time></trkpt><trkpt lat="45.605425" lon="10.94855"><ele>767.0</ele><time>2026-05-03T12:47:17.755Z</time></trkpt><trkpt lat="45.6055967" lon="10.94856"><ele>766.0</ele><time>2026-05-03T12:47:18.759Z</time></trkpt><trkpt lat="45.6057717" lon="10.94863"><ele>765.0</ele><time>2026-05-03T12:47:19.754Z</time></trkpt><trkpt lat="45.6059483" lon="10.9487283"><ele>764.0</ele><time>2026-05-03T12:47:20.765Z</time></trkpt><trkpt lat="45.6061233" lon="10.948825"><ele>765.3333333333333</ele><time>2026-05-03T12:47:21.756Z</time></trkpt><trkpt lat="45.6063033" lon="10.9488967"><ele>766.6666666666666</ele><time>2026-05-03T12:47:22.753Z</time></trkpt><trkpt lat="45.6064917" lon="10.9489267"><ele>768.0</ele><time>2026-05-03T12:47:23.756Z</time></trkpt><trkpt lat="45.6066917" lon="10.9489167"><ele>768.0</ele><time>2026-05-03T12:47:24.764Z</time></trkpt><trkpt lat="45.6069017" lon="10.9488867"><ele>768.0</ele><time>2026-05-03T12:47:25.756Z</time></trkpt><trkpt lat="45.6071117" lon="10.94885"><ele>768.0</ele><time>2026-05-03T12:47:26.757Z</time></trkpt><trkpt lat="45.6073083" lon="10.9488217"><ele>769.0</ele><time>2026-05-03T12:47:27.761Z</time></trkpt><trkpt lat="45.6074883" lon="10.948815"><ele>770.0</ele><time>2026-05-03T12:47:28.758Z</time></trkpt><trkpt lat="45.6076517" lon="10.948855"><ele>771.0</ele><time>2026-05-03T12:47:29.754Z</time></trkpt><trkpt lat="45.6078" lon="10.9489517"><ele>770.0</ele><time>2026-05-03T12:47:30.757Z</time></trkpt><trkpt lat="45.6079333" lon="10.9491117"><ele>769.0</ele><time>2026-05-03T12:47:31.754Z</time></trkpt><trkpt lat="45.6080633" lon="10.9493033"><ele>768.0</ele><time>2026-05-03T12:47:32.759Z</time></trkpt><trkpt lat="45.6082017" lon="10.9495083"><ele>768.0</ele><time>2026-05-03T12:47:33.759Z</time></trkpt><trkpt lat="45.6083383" lon="10.9497117"><ele>768.0</ele><time>2026-05-03T12:47:34.753Z</time></trkpt><trkpt lat="45.608475" lon="10.9498983"><ele>768.0</ele><time>2026-05-03T12:47:35.762Z</time></trkpt><trkpt lat="45.6086083" lon="10.9500483"><ele>766.6666666666666</ele><time>2026-05-03T12:47:36.755Z</time></trkpt><trkpt lat="45.608755" lon="10.9501633"><ele>765.3333333333333</ele><time>2026-05-03T12:47:37.752Z</time></trkpt><trkpt lat="45.6089183" lon="10.9502517"><ele>764.0</ele><time>2026-05-03T12:47:38.759Z</time></trkpt><trkpt lat="45.6091017" lon="10.9503083"><ele>764.0</ele><time>2026-05-03T12:47:39.759Z</time></trkpt><trkpt lat="45.6092933" lon="10.9503533"><ele>764.0</ele><time>2026-05-03T12:47:40.762Z</time></trkpt><trkpt lat="45.6094883" lon="10.9503917"><ele>764.0</ele><time>2026-05-03T12:47:41.758Z</time></trkpt><trkpt lat="45.6096867" lon="10.950435"><ele>766.3333333333333</ele><time>2026-05-03T12:47:42.758Z</time></trkpt><trkpt lat="45.6098833" lon="10.9504783"><ele>768.6666666666666</ele><time>2026-05-03T12:47:43.753Z</time></trkpt><trkpt lat="45.6100717" lon="10.95052"><ele>771.0</ele><time>2026-05-03T12:47:44.762Z</time></trkpt><trkpt lat="45.6102567" lon="10.9505567"><ele>774.6666666666667</ele><time>2026-05-03T12:47:45.756Z</time></trkpt><trkpt lat="45.6104467" lon="10.9505883"><ele>778.3333333333334</ele><time>2026-05-03T12:47:46.756Z</time></trkpt><trkpt lat="45.6106467" lon="10.9506083"><ele>782.0</ele><time>2026-05-03T12:47:47.76Z</time></trkpt><trkpt lat="45.610855" lon="10.9506083"><ele>782.0</ele><time>2026-05-03T12:47:48.755Z</time></trkpt><trkpt lat="45.611055" lon="10.9505867"><ele>782.0</ele><time>2026-05-03T12:47:49.756Z</time></trkpt><trkpt lat="45.611235" lon="10.9505283"><ele>782.0</ele><time>2026-05-03T12:47:50.756Z</time></trkpt><trkpt lat="45.6113933" lon="10.95043"><ele>780.6666666666667</ele><time>2026-05-03T12:47:51.758Z</time></trkpt><trkpt lat="45.6115233" lon="10.9502833"><ele>779.3333333333333</ele><time>2026-05-03T12:47:52.753Z</time></trkpt><trkpt lat="45.61162" lon="10.9500883"><ele>778.0</ele><time>2026-05-03T12:47:53.758Z</time></trkpt><trkpt lat="45.611675" lon="10.9498533"><ele>782.3333333333333</ele><time>2026-05-03T12:47:54.755Z</time></trkpt><trkpt lat="45.6116967" lon="10.9495933"><ele>786.6666666666667</ele><time>2026-05-03T12:47:55.757Z</time></trkpt><trkpt lat="45.611695" lon="10.9493183"><ele>791.0</ele><time>2026-05-03T12:47:56.762Z</time></trkpt><trkpt lat="45.6116917" lon="10.9490433"><ele>795.6666666666667</ele><time>2026-05-03T12:47:57.753Z</time></trkpt><trkpt lat="45.61169" lon="10.9487917"><ele>800.3333333333333</ele><time>2026-05-03T12:47:58.752Z</time></trkpt><trkpt lat="45.611695" lon="10.9485683"><ele>805.0</ele><time>2026-05-03T12:47:59.753Z</time></trkpt><trkpt lat="45.6117133" lon="10.948375"><ele>804.75</ele><time>2026-05-03T12:48:00.757Z</time></trkpt><trkpt lat="45.6117633" lon="10.9482067"><ele>804.5</ele><time>2026-05-03T12:48:01.758Z</time></trkpt><trkpt lat="45.61185" lon="10.94807"><ele>804.25</ele><time>2026-05-03T12:48:02.759Z</time></trkpt><trkpt lat="45.6119733" lon="10.947985"><ele>804.0</ele><time>2026-05-03T12:48:03.752Z</time></trkpt><trkpt lat="45.6121233" lon="10.9479533"><ele>804.0</ele><time>2026-05-03T12:48:04.768Z</time></trkpt><trkpt lat="45.6122883" lon="10.94798"><ele>804.0</ele><time>2026-05-03T12:48:05.758Z</time></trkpt><trkpt lat="45.61246" lon="10.9480117"><ele>804.0</ele><time>2026-05-03T12:48:06.758Z</time></trkpt><trkpt lat="45.61264" lon="10.9480333"><ele>804.0</ele><time>2026-05-03T12:48:07.757Z</time></trkpt><trkpt lat="45.6128183" lon="10.9480417"><ele>804.0</ele><time>2026-05-03T12:48:08.756Z</time></trkpt><trkpt lat="45.6129917" lon="10.9480417"><ele>804.0</ele><time>2026-05-03T12:48:09.76Z</time></trkpt><trkpt lat="45.6131633" lon="10.94803"><ele>804.0</ele><time>2026-05-03T12:48:10.758Z</time></trkpt><trkpt lat="45.6133417" lon="10.9480017"><ele>804.0</ele><time>2026-05-03T12:48:11.766Z</time></trkpt><trkpt lat="45.6135283" lon="10.9479533"><ele>804.0</ele><time>2026-05-03T12:48:12.76Z</time></trkpt><trkpt lat="45.61372" lon="10.9478883"><ele>804.6666666666667</ele><time>2026-05-03T12:48:13.754Z</time></trkpt><trkpt lat="45.613915" lon="10.94781"><ele>805.3333333333334</ele><time>2026-05-03T12:48:14.754Z</time></trkpt><trkpt lat="45.614115" lon="10.9477367"><ele>806.0</ele><time>2026-05-03T12:48:15.755Z</time></trkpt><trkpt lat="45.614325" lon="10.947675"><ele>808.3333333333334</ele><time>2026-05-03T12:48:16.757Z</time></trkpt><trkpt lat="45.6145383" lon="10.9476333"><ele>810.6666666666667</ele><time>2026-05-03T12:48:17.759Z</time></trkpt><trkpt lat="45.6147533" lon="10.9476117"><ele>813.0</ele><time>2026-05-03T12:48:18.765Z</time></trkpt><trkpt lat="45.6149733" lon="10.9475933"><ele>813.0</ele><time>2026-05-03T12:48:19.758Z</time></trkpt><trkpt lat="45.6151983" lon="10.9475767"><ele>813.0</ele><time>2026-05-03T12:48:20.756Z</time></trkpt><trkpt lat="45.6154167" lon="10.9475717"><ele>813.0</ele><time>2026-05-03T12:48:21.758Z</time></trkpt><trkpt lat="45.6156217" lon="10.947585"><ele>819.3333333333333</ele><time>2026-05-03T12:48:22.753Z</time></trkpt><trkpt lat="45.615805" lon="10.9476183"><ele>825.6666666666666</ele><time>2026-05-03T12:48:23.754Z</time></trkpt><trkpt lat="45.6159633" lon="10.9476733"><ele>832.0</ele><time>2026-05-03T12:48:24.752Z</time></trkpt><trkpt lat="45.6160967" lon="10.9477633"><ele>835.25</ele><time>2026-05-03T12:48:25.756Z</time></trkpt><trkpt lat="45.6162067" lon="10.9478917"><ele>838.5</ele><time>2026-05-03T12:48:26.756Z</time></trkpt><trkpt lat="45.6162833" lon="10.9480617"><ele>841.75</ele><time>2026-05-03T12:48:27.76Z</time></trkpt><trkpt lat="45.61631" lon="10.948255"><ele>845.0</ele><time>2026-05-03T12:48:28.756Z</time></trkpt><trkpt lat="45.6163117" lon="10.9484467"><ele>845.0</ele><time>2026-05-03T12:48:29.752Z</time></trkpt><trkpt lat="45.616325" lon="10.9486217"><ele>845.0</ele><time>2026-05-03T12:48:30.755Z</time></trkpt><trkpt lat="45.6163733" lon="10.9487833"><ele>845.0</ele><time>2026-05-03T12:48:31.754Z</time></trkpt><trkpt lat="45.6164583" lon="10.9489183"><ele>845.0</ele><time>2026-05-03T12:48:32.754Z</time></trkpt><trkpt lat="45.61659" lon="10.948985"><ele>845.0</ele><time>2026-05-03T12:48:33.759Z</time></trkpt><trkpt lat="45.616755" lon="10.9489983"><ele>845.0</ele><time>2026-05-03T12:48:34.757Z</time></trkpt><trkpt lat="45.6169267" lon="10.9490067"><ele>845.0</ele><time>2026-05-03T12:48:35.758Z</time></trkpt><trkpt lat="45.6171117" lon="10.94902"><ele>847.3333333333334</ele><time>2026-05-03T12:48:36.754Z</time></trkpt><trkpt lat="45.617305" lon="10.9490317"><ele>849.6666666666667</ele><time>2026-05-03T12:48:37.755Z</time></trkpt><trkpt lat="45.6174967" lon="10.949045"><ele>852.0</ele><time>2026-05-03T12:48:38.763Z</time></trkpt><trkpt lat="45.61768" lon="10.9490517"><ele>850.6666666666667</ele><time>2026-05-03T12:48:39.758Z</time></trkpt><trkpt lat="45.6178583" lon="10.9490483"><ele>849.3333333333334</ele><time>2026-05-03T12:48:40.759Z</time></trkpt><trkpt lat="45.6180367" lon="10.94903"><ele>848.0</ele><time>2026-05-03T12:48:41.753Z</time></trkpt><trkpt lat="45.6182217" lon="10.949005"><ele>848.0</ele><time>2026-05-03T12:48:42.757Z</time></trkpt><trkpt lat="45.6184183" lon="10.9489533"><ele>848.0</ele><time>2026-05-03T12:48:43.763Z</time></trkpt><trkpt lat="45.6186233" lon="10.9488783"><ele>848.0</ele><time>2026-05-03T12:48:44.758Z</time></trkpt><trkpt lat="45.618835" lon="10.948785"><ele>845.5</ele><time>2026-05-03T12:48:45.762Z</time></trkpt><trkpt lat="45.619045" lon="10.9486717"><ele>843.0</ele><time>2026-05-03T12:48:46.755Z</time></trkpt><trkpt lat="45.6192567" lon="10.948545"><ele>843.0</ele><time>2026-05-03T12:48:47.755Z</time></trkpt><trkpt lat="45.6194733" lon="10.9484117"><ele>843.0</ele><time>2026-05-03T12:48:48.76Z</time></trkpt><trkpt lat="45.619695" lon="10.948275"><ele>846.5</ele><time>2026-05-03T12:48:49.76Z</time></trkpt><trkpt lat="45.6199283" lon="10.9481567"><ele>850.0</ele><time>2026-05-03T12:48:50.767Z</time></trkpt><trkpt lat="45.62017" lon="10.948075"><ele>852.0</ele><time>2026-05-03T12:48:51.758Z</time></trkpt><trkpt lat="45.6204217" lon="10.94803"><ele>854.0</ele><time>2026-05-03T12:48:52.757Z</time></trkpt><trkpt lat="45.6206733" lon="10.947995"><ele>854.0</ele><time>2026-05-03T12:48:53.755Z</time></trkpt><trkpt lat="45.6209283" lon="10.94796"><ele>854.0</ele><time>2026-05-03T12:48:54.755Z</time></trkpt><trkpt lat="45.621175" lon="10.9479267"><ele>857.0</ele><time>2026-05-03T12:48:55.761Z</time></trkpt><trkpt lat="45.621405" lon="10.9478983"><ele>860.0</ele><time>2026-05-03T12:48:56.758Z</time></trkpt><trkpt lat="45.6216117" lon="10.9478667"><ele>863.0</ele><time>2026-05-03T12:48:57.753Z</time></trkpt><trkpt lat="45.6218" lon="10.9478167"><ele>863.0</ele><time>2026-05-03T12:48:58.755Z</time></trkpt><trkpt lat="45.6219733" lon="10.947715"><ele>863.0</ele><time>2026-05-03T12:48:59.762Z</time></trkpt><trkpt lat="45.622125" lon="10.9475533"><ele>863.0</ele><time>2026-05-03T12:49:00.759Z</time></trkpt><trkpt lat="45.622245" lon="10.947335"><ele>865.6666666666667</ele><time>2026-05-03T12:49:01.758Z</time></trkpt><trkpt lat="45.6223283" lon="10.9470733"><ele>868.3333333333333</ele><time>2026-05-03T12:49:02.755Z</time></trkpt><trkpt lat="45.6223867" lon="10.94679"><ele>871.0</ele><time>2026-05-03T12:49:03.762Z</time></trkpt><trkpt lat="45.6224183" lon="10.9464917"><ele>871.0</ele><time>2026-05-03T12:49:04.759Z</time></trkpt><trkpt lat="45.6224167" lon="10.9461833"><ele>871.0</ele><time>2026-05-03T12:49:05.766Z</time></trkpt><trkpt lat="45.6224017" lon="10.9458917"><ele>871.0</ele><time>2026-05-03T12:49:06.758Z</time></trkpt><trkpt lat="45.6224" lon="10.94562"><ele>872.3333333333333</ele><time>2026-05-03T12:49:07.753Z</time></trkpt><trkpt lat="45.6224133" lon="10.94535"><ele>873.6666666666667</ele><time>2026-05-03T12:49:08.755Z</time></trkpt><trkpt lat="45.6224317" lon="10.9450767"><ele>875.0</ele><time>2026-05-03T12:49:09.754Z</time></trkpt><trkpt lat="45.6224583" lon="10.94481"><ele>875.3333333333334</ele><time>2026-05-03T12:49:10.758Z</time></trkpt><trkpt lat="45.6224983" lon="10.94455"><ele>875.6666666666667</ele><time>2026-05-03T12:49:11.763Z</time></trkpt><trkpt lat="45.62256" lon="10.9442967"><ele>876.0</ele><time>2026-05-03T12:49:12.758Z</time></trkpt><trkpt lat="45.6226467" lon="10.9440517"><ele>875.3333333333333</ele><time>2026-05-03T12:49:13.759Z</time></trkpt><trkpt lat="45.6227483" lon="10.9438117"><ele>874.6666666666666</ele><time>2026-05-03T12:49:14.755Z</time></trkpt><trkpt lat="45.6228483" lon="10.943585"><ele>874.0</ele><time>2026-05-03T12:49:15.758Z</time></trkpt><trkpt lat="45.6229483" lon="10.9433717"><ele>876.75</ele><time>2026-05-03T12:49:16.762Z</time></trkpt><trkpt lat="45.6230383" lon="10.94318"><ele>879.5</ele><time>2026-05-03T12:49:17.76Z</time></trkpt><trkpt lat="45.6231167" lon="10.94302"><ele>882.25</ele><time>2026-05-03T12:49:18.759Z</time></trkpt><trkpt lat="45.623185" lon="10.942895"><ele>885.0</ele><time>2026-05-03T12:49:19.76Z</time></trkpt><trkpt lat="45.6232483" lon="10.94282"><ele>885.0</ele><time>2026-05-03T12:49:20.761Z</time></trkpt><trkpt lat="45.6233133" lon="10.9428033"><ele>885.0</ele><time>2026-05-03T12:49:21.76Z</time></trkpt><trkpt lat="45.6233667" lon="10.9428617"><ele>885.0</ele><time>2026-05-03T12:49:22.756Z</time></trkpt><trkpt lat="45.6233817" lon="10.94298"><ele>885.0</ele><time>2026-05-03T12:49:23.757Z</time></trkpt><trkpt lat="45.6233617" lon="10.9431517"><ele>885.0</ele><time>2026-05-03T12:49:24.756Z</time></trkpt><trkpt lat="45.6233283" lon="10.94335"><ele>886.3333333333333</ele><time>2026-05-03T12:49:25.761Z</time></trkpt><trkpt lat="45.62329" lon="10.9435767"><ele>887.6666666666666</ele><time>2026-05-03T12:49:26.765Z</time></trkpt><trkpt lat="45.6232617" lon="10.943815"><ele>889.0</ele><time>2026-05-03T12:49:27.755Z</time></trkpt><trkpt lat="45.62325" lon="10.9440783"><ele>889.3333333333333</ele><time>2026-05-03T12:49:28.755Z</time></trkpt><trkpt lat="45.6232483" lon="10.944355"><ele>889.6666666666667</ele><time>2026-05-03T12:49:29.757Z</time></trkpt><trkpt lat="45.6232533" lon="10.9446417"><ele>890.0</ele><time>2026-05-03T12:49:30.759Z</time></trkpt><trkpt lat="45.6232667" lon="10.9449383"><ele>890.6666666666667</ele><time>2026-05-03T12:49:31.756Z</time></trkpt><trkpt lat="45.62329" lon="10.9452433"><ele>891.3333333333333</ele><time>2026-05-03T12:49:32.759Z</time></trkpt><trkpt lat="45.6233217" lon="10.94555"><ele>892.0</ele><time>2026-05-03T12:49:33.759Z</time></trkpt><trkpt lat="45.6233567" lon="10.94586"><ele>892.5</ele><time>2026-05-03T12:49:34.752Z</time></trkpt><trkpt lat="45.623395" lon="10.9461783"><ele>893.0</ele><time>2026-05-03T12:49:35.757Z</time></trkpt><trkpt lat="45.6234317" lon="10.9465033"><ele>894.0</ele><time>2026-05-03T12:49:36.754Z</time></trkpt><trkpt lat="45.6234683" lon="10.9468317"><ele>895.0</ele><time>2026-05-03T12:49:37.761Z</time></trkpt><trkpt lat="45.623505" lon="10.9471667"><ele>895.0</ele><time>2026-05-03T12:49:38.757Z</time></trkpt><trkpt lat="45.623545" lon="10.9475083"><ele>895.0</ele><time>2026-05-03T12:49:39.758Z</time></trkpt><trkpt lat="45.6235833" lon="10.94785"><ele>896.6666666666666</ele><time>2026-05-03T12:49:40.755Z</time></trkpt><trkpt lat="45.6236217" lon="10.9481733"><ele>898.3333333333333</ele><time>2026-05-03T12:49:41.761Z</time></trkpt><trkpt lat="45.6236567" lon="10.9484717"><ele>900.0</ele><time>2026-05-03T12:49:42.759Z</time></trkpt><trkpt lat="45.623685" lon="10.9487483"><ele>903.3333333333333</ele><time>2026-05-03T12:49:43.756Z</time></trkpt><trkpt lat="45.6236933" lon="10.949"><ele>906.6666666666666</ele><time>2026-05-03T12:49:44.766Z</time></trkpt><trkpt lat="45.6236633" lon="10.9492217"><ele>910.0</ele><time>2026-05-03T12:49:45.755Z</time></trkpt><trkpt lat="45.6235983" lon="10.9494333"><ele>910.0</ele><time>2026-05-03T12:49:46.758Z</time></trkpt><trkpt lat="45.6234983" lon="10.9496"><ele>910.0</ele><time>2026-05-03T12:49:47.754Z</time></trkpt><trkpt lat="45.62339" lon="10.949725"><ele>910.0</ele><time>2026-05-03T12:49:48.759Z</time></trkpt><trkpt lat="45.6233017" lon="10.9498483"><ele>910.0</ele><time>2026-05-03T12:49:49.759Z</time></trkpt><trkpt lat="45.6232417" lon="10.9499867"><ele>909.75</ele><time>2026-05-03T12:49:50.753Z</time></trkpt><trkpt lat="45.6232183" lon="10.9501333"><ele>909.5</ele><time>2026-05-03T12:49:51.759Z</time></trkpt><trkpt lat="45.62324" lon="10.9502717"><ele>909.25</ele><time>2026-05-03T12:49:52.755Z</time></trkpt><trkpt lat="45.6233117" lon="10.9503917"><ele>909.0</ele><time>2026-05-03T12:49:53.758Z</time></trkpt><trkpt lat="45.623435" lon="10.950485"><ele>909.0</ele><time>2026-05-03T12:49:54.755Z</time></trkpt><trkpt lat="45.6235933" lon="10.9505583"><ele>909.0</ele><time>2026-05-03T12:49:55.759Z</time></trkpt><trkpt lat="45.6237633" lon="10.95063"><ele>909.0</ele><time>2026-05-03T12:49:56.76Z</time></trkpt><trkpt lat="45.6239417" lon="10.9506983"><ele>912.3333333333333</ele><time>2026-05-03T12:49:57.754Z</time></trkpt><trkpt lat="45.6241283" lon="10.9507567"><ele>915.6666666666666</ele><time>2026-05-03T12:49:58.758Z</time></trkpt><trkpt lat="45.6243133" lon="10.9508117"><ele>919.0</ele><time>2026-05-03T12:49:59.758Z</time></trkpt><trkpt lat="45.6244833" lon="10.9508633"><ele>918.25</ele><time>2026-05-03T12:50:00.758Z</time></trkpt><trkpt lat="45.6246367" lon="10.9509083"><ele>917.5</ele><time>2026-05-03T12:50:01.755Z</time></trkpt><trkpt lat="45.6247717" lon="10.9509483"><ele>916.75</ele><time>2026-05-03T12:50:02.762Z</time></trkpt><trkpt lat="45.6248917" lon="10.9509833"><ele>916.0</ele><time>2026-05-03T12:50:03.76Z</time></trkpt><trkpt lat="45.6250017" lon="10.95101"><ele>916.0</ele><time>2026-05-03T12:50:04.762Z</time></trkpt><trkpt lat="45.6251183" lon="10.951035"><ele>916.0</ele><time>2026-05-03T12:50:05.758Z</time></trkpt><trkpt lat="45.625245" lon="10.951055"><ele>916.0</ele><time>2026-05-03T12:50:06.761Z</time></trkpt><trkpt lat="45.6253783" lon="10.9510733"><ele>916.0</ele><time>2026-05-03T12:50:07.761Z</time></trkpt><trkpt lat="45.6255083" lon="10.95108"><ele>917.5</ele><time>2026-05-03T12:50:08.761Z</time></trkpt><trkpt lat="45.6256283" lon="10.9510767"><ele>919.0</ele><time>2026-05-03T12:50:09.757Z</time></trkpt><trkpt lat="45.6257433" lon="10.9510617"><ele>920.5</ele><time>2026-05-03T12:50:10.767Z</time></trkpt><trkpt lat="45.6258717" lon="10.9510433"><ele>922.0</ele><time>2026-05-03T12:50:11.753Z</time></trkpt><trkpt lat="45.626015" lon="10.951025"><ele>923.6666666666666</ele><time>2026-05-03T12:50:12.764Z</time></trkpt><trkpt lat="45.626175" lon="10.9510083"><ele>925.3333333333333</ele><time>2026-05-03T12:50:13.755Z</time></trkpt><trkpt lat="45.626345" lon="10.9509933"><ele>927.0</ele><time>2026-05-03T12:50:14.756Z</time></trkpt><trkpt lat="45.6265183" lon="10.9509933"><ele>927.0</ele><time>2026-05-03T12:50:15.754Z</time></trkpt><trkpt lat="45.626665" lon="10.951"><ele>927.0</ele><time>2026-05-03T12:50:16.752Z</time></trkpt><trkpt lat="45.6267883" lon="10.95101"><ele>927.0</ele><time>2026-05-03T12:50:17.758Z</time></trkpt><trkpt lat="45.6268883" lon="10.9510183"><ele>927.0</ele><time>2026-05-03T12:50:18.755Z</time></trkpt><trkpt lat="45.6269717" lon="10.95103"><ele>929.5</ele><time>2026-05-03T12:50:19.755Z</time></trkpt><trkpt lat="45.6270433" lon="10.95105"><ele>932.0</ele><time>2026-05-03T12:50:20.756Z</time></trkpt><trkpt lat="45.627115" lon="10.951075"><ele>934.5</ele><time>2026-05-03T12:50:21.756Z</time></trkpt><trkpt lat="45.627185" lon="10.9511067"><ele>937.0</ele><time>2026-05-03T12:50:22.756Z</time></trkpt><trkpt lat="45.6272633" lon="10.95114"><ele>939.5</ele><time>2026-05-03T12:50:23.752Z</time></trkpt><trkpt lat="45.6273533" lon="10.9511867"><ele>942.0</ele><time>2026-05-03T12:50:24.755Z</time></trkpt><trkpt lat="45.62746" lon="10.95123"><ele>942.0</ele><time>2026-05-03T12:50:25.755Z</time></trkpt><trkpt lat="45.6275867" lon="10.9512533"><ele>942.0</ele><time>2026-05-03T12:50:26.755Z</time></trkpt><trkpt lat="45.62773" lon="10.9512483"><ele>942.0</ele><time>2026-05-03T12:50:27.759Z</time></trkpt><trkpt lat="45.627885" lon="10.95122"><ele>942.0</ele><time>2026-05-03T12:50:28.76Z</time></trkpt><trkpt lat="45.628055" lon="10.95118"><ele>942.0</ele><time>2026-05-03T12:50:29.752Z</time></trkpt><trkpt lat="45.6282317" lon="10.951135"><ele>942.0</ele><time>2026-05-03T12:50:30.756Z</time></trkpt><trkpt lat="45.6284133" lon="10.9510933"><ele>942.0</ele><time>2026-05-03T12:50:31.761Z</time></trkpt><trkpt lat="45.6286" lon="10.9510467"><ele>945.6666666666667</ele><time>2026-05-03T12:50:32.757Z</time></trkpt><trkpt lat="45.6287917" lon="10.9509883"><ele>949.3333333333334</ele><time>2026-05-03T12:50:33.76Z</time></trkpt><trkpt lat="45.628985" lon="10.9509"><ele>953.0</ele><time>2026-05-03T12:50:34.76Z</time></trkpt><trkpt lat="45.6291683" lon="10.9507683"><ele>953.0</ele><time>2026-05-03T12:50:35.757Z</time></trkpt><trkpt lat="45.6293417" lon="10.9506283"><ele>953.0</ele><time>2026-05-03T12:50:36.758Z</time></trkpt><trkpt lat="45.629495" lon="10.9504983"><ele>953.0</ele><time>2026-05-03T12:50:37.757Z</time></trkpt><trkpt lat="45.629625" lon="10.9503833"><ele>954.0</ele><time>2026-05-03T12:50:38.759Z</time></trkpt><trkpt lat="45.6297217" lon="10.9502717"><ele>955.0</ele><time>2026-05-03T12:50:39.758Z</time></trkpt><trkpt lat="45.6297817" lon="10.9501333"><ele>956.0</ele><time>2026-05-03T12:50:40.757Z</time></trkpt><trkpt lat="45.6297967" lon="10.9499567"><ele>957.0</ele><time>2026-05-03T12:50:41.758Z</time></trkpt><trkpt lat="45.629775" lon="10.9497633"><ele>957.0</ele><time>2026-05-03T12:50:42.753Z</time></trkpt><trkpt lat="45.6297333" lon="10.94956"><ele>957.0</ele><time>2026-05-03T12:50:43.76Z</time></trkpt><trkpt lat="45.629695" lon="10.9493417"><ele>957.0</ele><time>2026-05-03T12:50:44.757Z</time></trkpt><trkpt lat="45.629675" lon="10.9491083"><ele>959.3333333333333</ele><time>2026-05-03T12:50:45.753Z</time></trkpt><trkpt lat="45.629695" lon="10.94886"><ele>961.6666666666666</ele><time>2026-05-03T12:50:46.753Z</time></trkpt><trkpt lat="45.6297567" lon="10.948615"><ele>964.0</ele><time>2026-05-03T12:50:47.756Z</time></trkpt><trkpt lat="45.6298583" lon="10.9483867"><ele>966.6666666666666</ele><time>2026-05-03T12:50:48.756Z</time></trkpt><trkpt lat="45.6299817" lon="10.9481633"><ele>969.3333333333333</ele><time>2026-05-03T12:50:49.76Z</time></trkpt><trkpt lat="45.63012" lon="10.9479383"><ele>972.0</ele><time>2026-05-03T12:50:50.759Z</time></trkpt><trkpt lat="45.630275" lon="10.947725"><ele>972.0</ele><time>2026-05-03T12:50:51.757Z</time></trkpt><trkpt lat="45.6304367" lon="10.94751"><ele>972.0</ele><time>2026-05-03T12:50:52.759Z</time></trkpt><trkpt lat="45.6306017" lon="10.9472917"><ele>972.0</ele><time>2026-05-03T12:50:53.763Z</time></trkpt><trkpt lat="45.6307733" lon="10.94707"><ele>972.0</ele><time>2026-05-03T12:50:54.755Z</time></trkpt><trkpt lat="45.630955" lon="10.94685"><ele>972.0</ele><time>2026-05-03T12:50:55.754Z</time></trkpt><trkpt lat="45.6311467" lon="10.94664"><ele>974.0</ele><time>2026-05-03T12:50:56.759Z</time></trkpt><trkpt lat="45.631345" lon="10.9464533"><ele>976.0</ele><time>2026-05-03T12:50:57.754Z</time></trkpt><trkpt lat="45.6315417" lon="10.9463"><ele>976.0</ele><time>2026-05-03T12:50:58.757Z</time></trkpt><trkpt lat="45.6317433" lon="10.946155"><ele>976.0</ele><time>2026-05-03T12:50:59.764Z</time></trkpt><trkpt lat="45.631935" lon="10.9459917"><ele>976.0</ele><time>2026-05-03T12:51:00.762Z</time></trkpt><trkpt lat="45.6321067" lon="10.9458083"><ele>977.0</ele><time>2026-05-03T12:51:01.755Z</time></trkpt><trkpt lat="45.6322467" lon="10.9456217"><ele>978.0</ele><time>2026-05-03T12:51:02.757Z</time></trkpt><trkpt lat="45.6323533" lon="10.94544"><ele>979.0</ele><time>2026-05-03T12:51:03.754Z</time></trkpt><trkpt lat="45.6324217" lon="10.9452533"><ele>979.0</ele><time>2026-05-03T12:51:04.757Z</time></trkpt><trkpt lat="45.6324433" lon="10.945065"><ele>979.0</ele><time>2026-05-03T12:51:05.754Z</time></trkpt><trkpt lat="45.6324033" lon="10.9448733"><ele>979.0</ele><time>2026-05-03T12:51:06.757Z</time></trkpt><trkpt lat="45.6323117" lon="10.9446933"><ele>979.0</ele><time>2026-05-03T12:51:07.758Z</time></trkpt><trkpt lat="45.6322017" lon="10.94451"><ele>979.3333333333333</ele><time>2026-05-03T12:51:08.755Z</time></trkpt><trkpt lat="45.6321067" lon="10.9443033"><ele>979.6666666666667</ele><time>2026-05-03T12:51:09.759Z</time></trkpt><trkpt lat="45.632045" lon="10.9440817"><ele>980.0</ele><time>2026-05-03T12:51:10.755Z</time></trkpt><trkpt lat="45.6320233" lon="10.94386"><ele>978.6666666666667</ele><time>2026-05-03T12:51:11.752Z</time></trkpt><trkpt lat="45.6320367" lon="10.9436367"><ele>977.3333333333333</ele><time>2026-05-03T12:51:12.753Z</time></trkpt><trkpt lat="45.6320867" lon="10.9434133"><ele>976.0</ele><time>2026-05-03T12:51:13.754Z</time></trkpt><trkpt lat="45.6321733" lon="10.94321"><ele>976.0</ele><time>2026-05-03T12:51:14.76Z</time></trkpt><trkpt lat="45.6323033" lon="10.9430267"><ele>976.0</ele><time>2026-05-03T12:51:15.756Z</time></trkpt><trkpt lat="45.6324567" lon="10.9428533"><ele>976.0</ele><time>2026-05-03T12:51:16.755Z</time></trkpt><trkpt lat="45.6326267" lon="10.9426917"><ele>981.0</ele><time>2026-05-03T12:51:17.761Z</time></trkpt><trkpt lat="45.6328167" lon="10.9425533"><ele>986.0</ele><time>2026-05-03T12:51:18.757Z</time></trkpt><trkpt lat="45.6330133" lon="10.9424433"><ele>991.0</ele><time>2026-05-03T12:51:19.756Z</time></trkpt><trkpt lat="45.6332017" lon="10.9423733"><ele>991.0</ele><time>2026-05-03T12:51:20.761Z</time></trkpt><trkpt lat="45.6333767" lon="10.9423567"><ele>991.0</ele><time>2026-05-03T12:51:21.755Z</time></trkpt><trkpt lat="45.633545" lon="10.9423867"><ele>991.0</ele><time>2026-05-03T12:51:22.756Z</time></trkpt><trkpt lat="45.6337183" lon="10.9424833"><ele>981.6666666666666</ele><time>2026-05-03T12:51:23.759Z</time></trkpt><trkpt lat="45.63388" lon="10.9426333"><ele>972.3333333333333</ele><time>2026-05-03T12:51:24.757Z</time></trkpt><trkpt lat="45.63402" lon="10.9428"><ele>963.0</ele><time>2026-05-03T12:51:25.756Z</time></trkpt><trkpt lat="45.6341467" lon="10.9429417"><ele>963.0</ele><time>2026-05-03T12:51:26.76Z</time></trkpt><trkpt lat="45.6342867" lon="10.9430217"><ele>963.0</ele><time>2026-05-03T12:51:27.755Z</time></trkpt><trkpt lat="45.63445" lon="10.9430383"><ele>963.0</ele><time>2026-05-03T12:51:28.756Z</time></trkpt><trkpt lat="45.634635" lon="10.9430167"><ele>963.0</ele><time>2026-05-03T12:51:29.756Z</time></trkpt><trkpt lat="45.634835" lon="10.9429917"><ele>963.0</ele><time>2026-05-03T12:51:30.762Z</time></trkpt><trkpt lat="45.63505" lon="10.94297"><ele>963.0</ele><time>2026-05-03T12:51:31.756Z</time></trkpt><trkpt lat="45.635275" lon="10.9429367"><ele>962.0</ele><time>2026-05-03T12:51:32.762Z</time></trkpt><trkpt lat="45.6355067" lon="10.9428817"><ele>961.0</ele><time>2026-05-03T12:51:33.757Z</time></trkpt><trkpt lat="45.63574" lon="10.942815"><ele>961.0</ele><time>2026-05-03T12:51:34.755Z</time></trkpt><trkpt lat="45.63596" lon="10.942745"><ele>961.0</ele><time>2026-05-03T12:51:35.766Z</time></trkpt><trkpt lat="45.6361533" lon="10.9426817"><ele>961.0</ele><time>2026-05-03T12:51:36.756Z</time></trkpt><trkpt lat="45.636315" lon="10.942625"><ele>965.0</ele><time>2026-05-03T12:51:37.759Z</time></trkpt><trkpt lat="45.6364617" lon="10.94256"><ele>969.0</ele><time>2026-05-03T12:51:38.759Z</time></trkpt><trkpt lat="45.6365983" lon="10.9424467"><ele>973.0</ele><time>2026-05-03T12:51:39.76Z</time></trkpt><trkpt lat="45.6367317" lon="10.9422733"><ele>973.3333333333333</ele><time>2026-05-03T12:51:40.756Z</time></trkpt><trkpt lat="45.636865" lon="10.942065"><ele>973.6666666666667</ele><time>2026-05-03T12:51:41.758Z</time></trkpt><trkpt lat="45.63699" lon="10.94186"><ele>974.0</ele><time>2026-05-03T12:51:42.758Z</time></trkpt><trkpt lat="45.637095" lon="10.9416767"><ele>970.0</ele><time>2026-05-03T12:51:43.755Z</time></trkpt><trkpt lat="45.63716" lon="10.941495"><ele>966.0</ele><time>2026-05-03T12:51:44.757Z</time></trkpt><trkpt lat="45.637185" lon="10.9412883"><ele>962.0</ele><time>2026-05-03T12:51:45.756Z</time></trkpt><trkpt lat="45.63717" lon="10.94105"><ele>960.0</ele><time>2026-05-03T12:51:46.761Z</time></trkpt><trkpt lat="45.6371433" lon="10.9408133"><ele>958.0</ele><time>2026-05-03T12:51:47.755Z</time></trkpt><trkpt lat="45.6371283" lon="10.9406017"><ele>956.0</ele><time>2026-05-03T12:51:48.761Z</time></trkpt><trkpt lat="45.6371367" lon="10.9404017"><ele>956.0</ele><time>2026-05-03T12:51:49.757Z</time></trkpt><trkpt lat="45.63719" lon="10.9402183"><ele>956.0</ele><time>2026-05-03T12:51:50.761Z</time></trkpt><trkpt lat="45.6372933" lon="10.940075"><ele>956.0</ele><time>2026-05-03T12:51:51.756Z</time></trkpt><trkpt lat="45.6374383" lon="10.9399767"><ele>956.0</ele><time>2026-05-03T12:51:52.756Z</time></trkpt><trkpt lat="45.6376117" lon="10.939915"><ele>954.6666666666667</ele><time>2026-05-03T12:51:53.755Z</time></trkpt><trkpt lat="45.6377983" lon="10.9398483"><ele>953.3333333333333</ele><time>2026-05-03T12:51:54.759Z</time></trkpt><trkpt lat="45.6379983" lon="10.939785"><ele>952.0</ele><time>2026-05-03T12:51:55.76Z</time></trkpt><trkpt lat="45.638215" lon="10.9397583"><ele>952.0</ele><time>2026-05-03T12:51:56.754Z</time></trkpt><trkpt lat="45.6384467" lon="10.9397517"><ele>952.0</ele><time>2026-05-03T12:51:57.763Z</time></trkpt><trkpt lat="45.6386867" lon="10.9397283"><ele>949.0</ele><time>2026-05-03T12:51:58.762Z</time></trkpt><trkpt lat="45.6389333" lon="10.9396883"><ele>946.0</ele><time>2026-05-03T12:51:59.761Z</time></trkpt><trkpt lat="45.6391883" lon="10.93963"><ele>946.0</ele><time>2026-05-03T12:52:00.757Z</time></trkpt><trkpt lat="45.63944" lon="10.9395717"><ele>946.0</ele><time>2026-05-03T12:52:01.758Z</time></trkpt><trkpt lat="45.639675" lon="10.9395117"><ele>945.0</ele><time>2026-05-03T12:52:02.761Z</time></trkpt><trkpt lat="45.63989" lon="10.939455"><ele>944.0</ele><time>2026-05-03T12:52:03.755Z</time></trkpt><trkpt lat="45.6400733" lon="10.939395"><ele>943.0</ele><time>2026-05-03T12:52:04.752Z</time></trkpt><trkpt lat="45.6402283" lon="10.93932"><ele>943.75</ele><time>2026-05-03T12:52:05.758Z</time></trkpt><trkpt lat="45.64034" lon="10.9392067"><ele>944.5</ele><time>2026-05-03T12:52:06.758Z</time></trkpt><trkpt lat="45.6404167" lon="10.9390433"><ele>945.25</ele><time>2026-05-03T12:52:07.76Z</time></trkpt><trkpt lat="45.6404533" lon="10.93882"><ele>946.0</ele><time>2026-05-03T12:52:08.758Z</time></trkpt><trkpt lat="45.640465" lon="10.9385633"><ele>943.0</ele><time>2026-05-03T12:52:09.751Z</time></trkpt><trkpt lat="45.64048" lon="10.93829"><ele>940.0</ele><time>2026-05-03T12:52:10.758Z</time></trkpt><trkpt lat="45.6405117" lon="10.938025"><ele>937.0</ele><time>2026-05-03T12:52:11.76Z</time></trkpt><trkpt lat="45.64057" lon="10.9377883"><ele>937.0</ele><time>2026-05-03T12:52:12.758Z</time></trkpt><trkpt lat="45.6406617" lon="10.9375883"><ele>937.0</ele><time>2026-05-03T12:52:13.756Z</time></trkpt><trkpt lat="45.6407917" lon="10.9374267"><ele>937.0</ele><time>2026-05-03T12:52:14.757Z</time></trkpt><trkpt lat="45.6409533" lon="10.9373033"><ele>937.3333333333333</ele><time>2026-05-03T12:52:15.755Z</time></trkpt><trkpt lat="45.6411317" lon="10.9372233"><ele>937.6666666666667</ele><time>2026-05-03T12:52:16.752Z</time></trkpt><trkpt lat="45.6413" lon="10.9371833"><ele>938.0</ele><time>2026-05-03T12:52:17.758Z</time></trkpt><trkpt lat="45.6414533" lon="10.9371483"><ele>938.0</ele><time>2026-05-03T12:52:18.757Z</time></trkpt><trkpt lat="45.6416017" lon="10.93708"><ele>938.0</ele><time>2026-05-03T12:52:19.762Z</time></trkpt><trkpt lat="45.6417533" lon="10.936975"><ele>938.0</ele><time>2026-05-03T12:52:20.758Z</time></trkpt><trkpt lat="45.641895" lon="10.9368633"><ele>937.75</ele><time>2026-05-03T12:52:21.754Z</time></trkpt><trkpt lat="45.6420267" lon="10.93676"><ele>937.5</ele><time>2026-05-03T12:52:22.755Z</time></trkpt><trkpt lat="45.6421483" lon="10.936665"><ele>937.25</ele><time>2026-05-03T12:52:23.756Z</time></trkpt><trkpt lat="45.6422667" lon="10.9365767"><ele>937.0</ele><time>2026-05-03T12:52:24.756Z</time></trkpt><trkpt lat="45.6423833" lon="10.9364867"><ele>937.0</ele><time>2026-05-03T12:52:25.751Z</time></trkpt><trkpt lat="45.6424983" lon="10.9363967"><ele>937.0</ele><time>2026-05-03T12:52:26.757Z</time></trkpt><trkpt lat="45.6426067" lon="10.9363083"><ele>937.0</ele><time>2026-05-03T12:52:27.753Z</time></trkpt><trkpt lat="45.6427067" lon="10.9362383"><ele>937.0</ele><time>2026-05-03T12:52:28.753Z</time></trkpt><trkpt lat="45.6428017" lon="10.9361983"><ele>937.1666666666666</ele><time>2026-05-03T12:52:29.753Z</time></trkpt><trkpt lat="45.64289" lon="10.9361917"><ele>937.3333333333333</ele><time>2026-05-03T12:52:30.762Z</time></trkpt><trkpt lat="45.642975" lon="10.9362083"><ele>937.5</ele><time>2026-05-03T12:52:31.761Z</time></trkpt><trkpt lat="45.6430583" lon="10.9362433"><ele>937.6666666666667</ele><time>2026-05-03T12:52:32.754Z</time></trkpt><trkpt lat="45.6431367" lon="10.93627"><ele>937.8333333333334</ele><time>2026-05-03T12:52:33.753Z</time></trkpt><trkpt lat="45.64321" lon="10.9362967"><ele>938.0</ele><time>2026-05-03T12:52:34.762Z</time></trkpt><trkpt lat="45.6432817" lon="10.9363233"><ele>938.0</ele><time>2026-05-03T12:52:35.76Z</time></trkpt><trkpt lat="45.643345" lon="10.9363433"><ele>938.0</ele><time>2026-05-03T12:52:36.753Z</time></trkpt><trkpt lat="45.6434333" lon="10.93637"><ele>938.0</ele><time>2026-05-03T12:52:38.762Z</time></trkpt><trkpt lat="45.64351" lon="10.9363583"><ele>938.0</ele><time>2026-05-03T12:52:40.756Z</time></trkpt><trkpt lat="45.64355" lon="10.9362517"><ele>938.0</ele><time>2026-05-03T12:52:42.754Z</time></trkpt><trkpt lat="45.64357" lon="10.93606"><ele>938.0</ele><time>2026-05-03T12:52:44.76Z</time></trkpt><trkpt lat="45.6435933" lon="10.93593"><ele>938.0</ele><time>2026-05-03T12:52:45.753Z</time></trkpt><trkpt lat="45.6436433" lon="10.9357667"><ele>938.0</ele><time>2026-05-03T12:52:46.756Z</time></trkpt><trkpt lat="45.6437067" lon="10.93559"><ele>938.0</ele><time>2026-05-03T12:52:47.758Z</time></trkpt><trkpt lat="45.6437767" lon="10.9354117"><ele>937.75</ele><time>2026-05-03T12:52:48.756Z</time></trkpt><trkpt lat="45.6438517" lon="10.9352467"><ele>937.5</ele><time>2026-05-03T12:52:49.759Z</time></trkpt><trkpt lat="45.6439233" lon="10.9350817"><ele>937.25</ele><time>2026-05-03T12:52:50.763Z</time></trkpt><trkpt lat="45.64399" lon="10.93491"><ele>937.0</ele><time>2026-05-03T12:52:51.753Z</time></trkpt><trkpt lat="45.6440517" lon="10.9347317"><ele>937.0</ele><time>2026-05-03T12:52:52.757Z</time></trkpt><trkpt lat="45.6440917" lon="10.93455"><ele>937.0</ele><time>2026-05-03T12:52:53.755Z</time></trkpt><trkpt lat="45.6441083" lon="10.9343667"><ele>937.0</ele><time>2026-05-03T12:52:54.762Z</time></trkpt><trkpt lat="45.6441067" lon="10.9341883"><ele>937.0</ele><time>2026-05-03T12:52:55.759Z</time></trkpt><trkpt lat="45.644085" lon="10.9340083"><ele>938.25</ele><time>2026-05-03T12:52:56.756Z</time></trkpt><trkpt lat="45.6440533" lon="10.93383"><ele>939.5</ele><time>2026-05-03T12:52:57.756Z</time></trkpt><trkpt lat="45.64402" lon="10.93366"><ele>940.75</ele><time>2026-05-03T12:52:58.752Z</time></trkpt><trkpt lat="45.6439983" lon="10.933505"><ele>942.0</ele><time>2026-05-03T12:52:59.759Z</time></trkpt><trkpt lat="45.6440033" lon="10.93336"><ele>944.0</ele><time>2026-05-03T12:53:00.752Z</time></trkpt><trkpt lat="45.644045" lon="10.9332233"><ele>946.0</ele><time>2026-05-03T12:53:01.754Z</time></trkpt><trkpt lat="45.644135" lon="10.933105"><ele>948.0</ele><time>2026-05-03T12:53:02.758Z</time></trkpt><trkpt lat="45.6442517" lon="10.9329967"><ele>950.0</ele><time>2026-05-03T12:53:03.754Z</time></trkpt><trkpt lat="45.64438" lon="10.932905"><ele>945.25</ele><time>2026-05-03T12:53:04.757Z</time></trkpt><trkpt lat="45.6445033" lon="10.93282"><ele>940.5</ele><time>2026-05-03T12:53:05.755Z</time></trkpt><trkpt lat="45.6446283" lon="10.9327367"><ele>935.75</ele><time>2026-05-03T12:53:06.759Z</time></trkpt><trkpt lat="45.644755" lon="10.932655"><ele>931.0</ele><time>2026-05-03T12:53:07.761Z</time></trkpt><trkpt lat="45.6448817" lon="10.9325683"><ele>935.0</ele><time>2026-05-03T12:53:08.76Z</time></trkpt><trkpt lat="45.6449967" lon="10.9324783"><ele>939.0</ele><time>2026-05-03T12:53:09.752Z</time></trkpt><trkpt lat="45.645095" lon="10.9323817"><ele>943.0</ele><time>2026-05-03T12:53:10.764Z</time></trkpt><trkpt lat="45.645175" lon="10.9322583"><ele>947.0</ele><time>2026-05-03T12:53:11.76Z</time></trkpt><trkpt lat="45.645235" lon="10.932115"><ele>947.0</ele><time>2026-05-03T12:53:12.765Z</time></trkpt><trkpt lat="45.6452783" lon="10.9319433"><ele>947.0</ele><time>2026-05-03T12:53:13.757Z</time></trkpt><trkpt lat="45.6453133" lon="10.9317533"><ele>947.0</ele><time>2026-05-03T12:53:14.754Z</time></trkpt><trkpt lat="45.64534" lon="10.9315767"><ele>947.0</ele><time>2026-05-03T12:53:15.754Z</time></trkpt><trkpt lat="45.645355" lon="10.93141"><ele>943.75</ele><time>2026-05-03T12:53:16.759Z</time></trkpt><trkpt lat="45.645355" lon="10.931255"><ele>940.5</ele><time>2026-05-03T12:53:17.757Z</time></trkpt><trkpt lat="45.6453417" lon="10.9311017"><ele>937.25</ele><time>2026-05-03T12:53:18.757Z</time></trkpt><trkpt lat="45.6453083" lon="10.930935"><ele>934.0</ele><time>2026-05-03T12:53:19.753Z</time></trkpt><trkpt lat="45.6452483" lon="10.9307583"><ele>946.3333333333333</ele><time>2026-05-03T12:53:20.759Z</time></trkpt><trkpt lat="45.6451683" lon="10.9305683"><ele>958.6666666666667</ele><time>2026-05-03T12:53:21.756Z</time></trkpt><trkpt lat="45.64508" lon="10.9303633"><ele>971.0</ele><time>2026-05-03T12:53:22.755Z</time></trkpt><trkpt lat="45.6449883" lon="10.9301417"><ele>968.3333333333334</ele><time>2026-05-03T12:53:23.756Z</time></trkpt><trkpt lat="45.6449017" lon="10.92991"><ele>965.6666666666667</ele><time>2026-05-03T12:53:24.755Z</time></trkpt><trkpt lat="45.6448167" lon="10.9296667"><ele>963.0</ele><time>2026-05-03T12:53:25.756Z</time></trkpt><trkpt lat="45.6447383" lon="10.9294333"><ele>960.3333333333333</ele><time>2026-05-03T12:53:26.763Z</time></trkpt><trkpt lat="45.6446667" lon="10.9292217"><ele>957.6666666666666</ele><time>2026-05-03T12:53:27.754Z</time></trkpt><trkpt lat="45.6445967" lon="10.9290233"><ele>955.0</ele><time>2026-05-03T12:53:28.762Z</time></trkpt><trkpt lat="45.64453" lon="10.928835"><ele>961.0</ele><time>2026-05-03T12:53:29.756Z</time></trkpt><trkpt lat="45.64446" lon="10.9286567"><ele>967.0</ele><time>2026-05-03T12:53:30.754Z</time></trkpt><trkpt lat="45.6443867" lon="10.9285017"><ele>973.0</ele><time>2026-05-03T12:53:31.754Z</time></trkpt><trkpt lat="45.6442967" lon="10.9283533"><ele>979.0</ele><time>2026-05-03T12:53:32.757Z</time></trkpt><trkpt lat="45.6441933" lon="10.9281983"><ele>979.0</ele><time>2026-05-03T12:53:33.757Z</time></trkpt><trkpt lat="45.644075" lon="10.92803"><ele>979.0</ele><time>2026-05-03T12:53:34.755Z</time></trkpt><trkpt lat="45.643955" lon="10.9278567"><ele>979.0</ele><time>2026-05-03T12:53:35.756Z</time></trkpt><trkpt lat="45.6438383" lon="10.9276917"><ele>979.0</ele><time>2026-05-03T12:53:36.753Z</time></trkpt><trkpt lat="45.6437217" lon="10.92753"><ele>979.0</ele><time>2026-05-03T12:53:37.762Z</time></trkpt><trkpt lat="45.6436017" lon="10.9273767"><ele>979.0</ele><time>2026-05-03T12:53:38.753Z</time></trkpt><trkpt lat="45.64346" lon="10.92724"><ele>979.0</ele><time>2026-05-03T12:53:39.753Z</time></trkpt><trkpt lat="45.6433133" lon="10.927125"><ele>979.0</ele><time>2026-05-03T12:53:40.758Z</time></trkpt><trkpt lat="45.6431683" lon="10.9270233"><ele>979.0</ele><time>2026-05-03T12:53:41.757Z</time></trkpt><trkpt lat="45.64303" lon="10.9269283"><ele>979.0</ele><time>2026-05-03T12:53:42.754Z</time></trkpt><trkpt lat="45.6428933" lon="10.9268367"><ele>979.0</ele><time>2026-05-03T12:53:43.755Z</time></trkpt><trkpt lat="45.6427667" lon="10.9267433"><ele>979.0</ele><time>2026-05-03T12:53:44.756Z</time></trkpt><trkpt lat="45.642635" lon="10.9266467"><ele>979.0</ele><time>2026-05-03T12:53:45.764Z</time></trkpt><trkpt lat="45.642505" lon="10.9265517"><ele>978.25</ele><time>2026-05-03T12:53:46.758Z</time></trkpt><trkpt lat="45.6423717" lon="10.9264583"><ele>977.5</ele><time>2026-05-03T12:53:47.754Z</time></trkpt><trkpt lat="45.64224" lon="10.9263717"><ele>976.75</ele><time>2026-05-03T12:53:48.755Z</time></trkpt><trkpt lat="45.642105" lon="10.9262967"><ele>976.0</ele><time>2026-05-03T12:53:49.758Z</time></trkpt><trkpt lat="45.6419683" lon="10.9262483"><ele>975.75</ele><time>2026-05-03T12:53:50.757Z</time></trkpt><trkpt lat="45.641835" lon="10.9262467"><ele>975.5</ele><time>2026-05-03T12:53:51.754Z</time></trkpt><trkpt lat="45.6417167" lon="10.926295"><ele>975.25</ele><time>2026-05-03T12:53:52.754Z</time></trkpt><trkpt lat="45.6416117" lon="10.9263533"><ele>975.0</ele><time>2026-05-03T12:53:53.753Z</time></trkpt><trkpt lat="45.6415133" lon="10.92638"><ele>975.0</ele><time>2026-05-03T12:53:54.752Z</time></trkpt><trkpt lat="45.641415" lon="10.9263467"><ele>975.0</ele><time>2026-05-03T12:53:55.755Z</time></trkpt><trkpt lat="45.6413533" lon="10.9262517"><ele>975.0</ele><time>2026-05-03T12:53:56.754Z</time></trkpt><trkpt lat="45.6413117" lon="10.9261317"><ele>975.0</ele><time>2026-05-03T12:53:57.752Z</time></trkpt><trkpt lat="45.641285" lon="10.9259867"><ele>975.0</ele><time>2026-05-03T12:53:58.756Z</time></trkpt><trkpt lat="45.64126" lon="10.9258083"><ele>971.75</ele><time>2026-05-03T12:53:59.756Z</time></trkpt><trkpt lat="45.64124" lon="10.9256333"><ele>968.5</ele><time>2026-05-03T12:54:00.759Z</time></trkpt><trkpt lat="45.6412183" lon="10.9254667"><ele>965.25</ele><time>2026-05-03T12:54:01.751Z</time></trkpt><trkpt lat="45.6411933" lon="10.92531"><ele>962.0</ele><time>2026-05-03T12:54:02.756Z</time></trkpt><trkpt lat="45.6411517" lon="10.9251533"><ele>963.75</ele><time>2026-05-03T12:54:03.758Z</time></trkpt><trkpt lat="45.6410817" lon="10.925"><ele>965.5</ele><time>2026-05-03T12:54:04.757Z</time></trkpt><trkpt lat="45.640975" lon="10.9248517"><ele>967.25</ele><time>2026-05-03T12:54:05.752Z</time></trkpt><trkpt lat="45.6408467" lon="10.9247233"><ele>969.0</ele><time>2026-05-03T12:54:06.752Z</time></trkpt><trkpt lat="45.640695" lon="10.9245983"><ele>969.0</ele><time>2026-05-03T12:54:07.757Z</time></trkpt><trkpt lat="45.640525" lon="10.9244617"><ele>969.0</ele><time>2026-05-03T12:54:08.759Z</time></trkpt><trkpt lat="45.640345" lon="10.9243167"><ele>969.0</ele><time>2026-05-03T12:54:09.755Z</time></trkpt><trkpt lat="45.6401533" lon="10.9241633"><ele>965.0</ele><time>2026-05-03T12:54:10.756Z</time></trkpt><trkpt lat="45.63995" lon="10.924005"><ele>961.0</ele><time>2026-05-03T12:54:11.76Z</time></trkpt><trkpt lat="45.639735" lon="10.9238417"><ele>961.0</ele><time>2026-05-03T12:54:12.756Z</time></trkpt><trkpt lat="45.639515" lon="10.923675"><ele>961.0</ele><time>2026-05-03T12:54:13.755Z</time></trkpt><trkpt lat="45.63929" lon="10.9234967"><ele>957.5</ele><time>2026-05-03T12:54:14.765Z</time></trkpt><trkpt lat="45.6390617" lon="10.92331"><ele>954.0</ele><time>2026-05-03T12:54:15.761Z</time></trkpt><trkpt lat="45.63883" lon="10.9231217"><ele>956.0</ele><time>2026-05-03T12:54:16.756Z</time></trkpt><trkpt lat="45.6385917" lon="10.922935"><ele>958.0</ele><time>2026-05-03T12:54:17.765Z</time></trkpt><trkpt lat="45.63835" lon="10.9227483"><ele>956.0</ele><time>2026-05-03T12:54:18.755Z</time></trkpt><trkpt lat="45.6381067" lon="10.9225567"><ele>954.0</ele><time>2026-05-03T12:54:19.757Z</time></trkpt><trkpt lat="45.63786" lon="10.922375"><ele>954.5</ele><time>2026-05-03T12:54:20.755Z</time></trkpt><trkpt lat="45.63762" lon="10.9222267"><ele>955.0</ele><time>2026-05-03T12:54:21.758Z</time></trkpt><trkpt lat="45.6373833" lon="10.9221217"><ele>955.0</ele><time>2026-05-03T12:54:22.762Z</time></trkpt><trkpt lat="45.63714" lon="10.9220583"><ele>955.0</ele><time>2026-05-03T12:54:23.758Z</time></trkpt><trkpt lat="45.636885" lon="10.9220217"><ele>955.0</ele><time>2026-05-03T12:54:24.769Z</time></trkpt><trkpt lat="45.636625" lon="10.9219933"><ele>955.0</ele><time>2026-05-03T12:54:25.76Z</time></trkpt><trkpt lat="45.636375" lon="10.9219667"><ele>951.5</ele><time>2026-05-03T12:54:26.766Z</time></trkpt><trkpt lat="45.6361333" lon="10.92194"><ele>948.0</ele><time>2026-05-03T12:54:27.76Z</time></trkpt><trkpt lat="45.6358967" lon="10.9219067"><ele>948.0</ele><time>2026-05-03T12:54:28.758Z</time></trkpt><trkpt lat="45.6356617" lon="10.9218633"><ele>948.0</ele><time>2026-05-03T12:54:29.754Z</time></trkpt><trkpt lat="45.6354317" lon="10.9218067"><ele>946.6666666666667</ele><time>2026-05-03T12:54:30.76Z</time></trkpt><trkpt lat="45.6352117" lon="10.9217333"><ele>945.3333333333334</ele><time>2026-05-03T12:54:31.761Z</time></trkpt><trkpt lat="45.635015" lon="10.9216483"><ele>944.0</ele><time>2026-05-03T12:54:32.767Z</time></trkpt><trkpt lat="45.63484" lon="10.9215517"><ele>942.3333333333334</ele><time>2026-05-03T12:54:33.755Z</time></trkpt><trkpt lat="45.6346783" lon="10.9214483"><ele>940.6666666666667</ele><time>2026-05-03T12:54:34.757Z</time></trkpt><trkpt lat="45.6345283" lon="10.92134"><ele>939.0</ele><time>2026-05-03T12:54:35.756Z</time></trkpt><trkpt lat="45.634385" lon="10.9212217"><ele>938.6666666666667</ele><time>2026-05-03T12:54:36.761Z</time></trkpt><trkpt lat="45.6342383" lon="10.9210983"><ele>938.3333333333334</ele><time>2026-05-03T12:54:37.753Z</time></trkpt><trkpt lat="45.63409" lon="10.9209783"><ele>938.0</ele><time>2026-05-03T12:54:38.759Z</time></trkpt><trkpt lat="45.633945" lon="10.92086"><ele>937.0</ele><time>2026-05-03T12:54:39.757Z</time></trkpt><trkpt lat="45.6337983" lon="10.9207417"><ele>936.0</ele><time>2026-05-03T12:54:40.755Z</time></trkpt><trkpt lat="45.6336533" lon="10.9206233"><ele>935.0</ele><time>2026-05-03T12:54:41.761Z</time></trkpt><trkpt lat="45.6335117" lon="10.9205033"><ele>935.0</ele><time>2026-05-03T12:54:42.755Z</time></trkpt><trkpt lat="45.6333717" lon="10.9203617"><ele>935.0</ele><time>2026-05-03T12:54:43.761Z</time></trkpt><trkpt lat="45.6332283" lon="10.9201833"><ele>935.0</ele><time>2026-05-03T12:54:44.757Z</time></trkpt><trkpt lat="45.633075" lon="10.91998"><ele>932.3333333333334</ele><time>2026-05-03T12:54:45.753Z</time></trkpt><trkpt lat="45.6329233" lon="10.9197583"><ele>929.6666666666667</ele><time>2026-05-03T12:54:46.754Z</time></trkpt><trkpt lat="45.6327567" lon="10.9195267"><ele>927.0</ele><time>2026-05-03T12:54:47.764Z</time></trkpt><trkpt lat="45.63258" lon="10.91929"><ele>923.0</ele><time>2026-05-03T12:54:48.764Z</time></trkpt><trkpt lat="45.6323983" lon="10.91904"><ele>919.0</ele><time>2026-05-03T12:54:49.756Z</time></trkpt><trkpt lat="45.63221" lon="10.9187783"><ele>919.0</ele><time>2026-05-03T12:54:50.769Z</time></trkpt><trkpt lat="45.632015" lon="10.9185067"><ele>919.0</ele><time>2026-05-03T12:54:51.754Z</time></trkpt><trkpt lat="45.6318133" lon="10.9182317"><ele>915.5</ele><time>2026-05-03T12:54:52.76Z</time></trkpt><trkpt lat="45.6316117" lon="10.9179533"><ele>912.0</ele><time>2026-05-03T12:54:53.76Z</time></trkpt><trkpt lat="45.6314267" lon="10.9176733"><ele>909.5</ele><time>2026-05-03T12:54:54.758Z</time></trkpt><trkpt lat="45.6312583" lon="10.9173783"><ele>907.0</ele><time>2026-05-03T12:54:55.754Z</time></trkpt><trkpt lat="45.6311033" lon="10.91706"><ele>906.5</ele><time>2026-05-03T12:54:56.76Z</time></trkpt><trkpt lat="45.6309617" lon="10.9167183"><ele>906.0</ele><time>2026-05-03T12:54:57.758Z</time></trkpt><trkpt lat="45.6308317" lon="10.9163583"><ele>906.0</ele><time>2026-05-03T12:54:58.766Z</time></trkpt><trkpt lat="45.6307133" lon="10.9159917"><ele>906.0</ele><time>2026-05-03T12:54:59.757Z</time></trkpt><trkpt lat="45.6306033" lon="10.9156433"><ele>904.5</ele><time>2026-05-03T12:55:00.758Z</time></trkpt><trkpt lat="45.6305033" lon="10.91532"><ele>903.0</ele><time>2026-05-03T12:55:01.756Z</time></trkpt><trkpt lat="45.6304117" lon="10.9150317"><ele>904.3333333333333</ele><time>2026-05-03T12:55:02.756Z</time></trkpt><trkpt lat="45.63032" lon="10.9147883"><ele>905.6666666666666</ele><time>2026-05-03T12:55:03.756Z</time></trkpt><trkpt lat="45.6302133" lon="10.9145867"><ele>907.0</ele><time>2026-05-03T12:55:04.763Z</time></trkpt><trkpt lat="45.630075" lon="10.9144367"><ele>907.0</ele><time>2026-05-03T12:55:05.757Z</time></trkpt><trkpt lat="45.6299117" lon="10.9143283"><ele>907.0</ele><time>2026-05-03T12:55:06.756Z</time></trkpt><trkpt lat="45.6297467" lon="10.9142267"><ele>907.0</ele><time>2026-05-03T12:55:07.756Z</time></trkpt><trkpt lat="45.629595" lon="10.914085"><ele>905.6666666666666</ele><time>2026-05-03T12:55:08.757Z</time></trkpt><trkpt lat="45.6294567" lon="10.9138883"><ele>904.3333333333333</ele><time>2026-05-03T12:55:09.752Z</time></trkpt><trkpt lat="45.629325" lon="10.9136533"><ele>903.0</ele><time>2026-05-03T12:55:10.761Z</time></trkpt><trkpt lat="45.62919" lon="10.9134017"><ele>903.0</ele><time>2026-05-03T12:55:11.761Z</time></trkpt><trkpt lat="45.6290467" lon="10.9131383"><ele>903.0</ele><time>2026-05-03T12:55:12.757Z</time></trkpt><trkpt lat="45.6288967" lon="10.91286"><ele>903.0</ele><time>2026-05-03T12:55:13.755Z</time></trkpt><trkpt lat="45.6287417" lon="10.912575"><ele>903.0</ele><time>2026-05-03T12:55:14.756Z</time></trkpt><trkpt lat="45.6285917" lon="10.9122967"><ele>899.0</ele><time>2026-05-03T12:55:15.756Z</time></trkpt><trkpt lat="45.6284483" lon="10.9120433"><ele>895.0</ele><time>2026-05-03T12:55:16.758Z</time></trkpt><trkpt lat="45.6283083" lon="10.911815"><ele>891.0</ele><time>2026-05-03T12:55:17.756Z</time></trkpt><trkpt lat="45.6281667" lon="10.911615"><ele>891.0</ele><time>2026-05-03T12:55:18.758Z</time></trkpt><trkpt lat="45.6280217" lon="10.91144"><ele>891.0</ele><time>2026-05-03T12:55:19.758Z</time></trkpt><trkpt lat="45.6278583" lon="10.9112917"><ele>891.0</ele><time>2026-05-03T12:55:20.757Z</time></trkpt><trkpt lat="45.6276733" lon="10.91116"><ele>888.6666666666667</ele><time>2026-05-03T12:55:21.756Z</time></trkpt><trkpt lat="45.62749" lon="10.9110467"><ele>886.3333333333334</ele><time>2026-05-03T12:55:22.758Z</time></trkpt><trkpt lat="45.627325" lon="10.9109583"><ele>884.0</ele><time>2026-05-03T12:55:23.757Z</time></trkpt><trkpt lat="45.62716" lon="10.9109067"><ele>884.0</ele><time>2026-05-03T12:55:24.756Z</time></trkpt><trkpt lat="45.6269867" lon="10.9109067"><ele>884.0</ele><time>2026-05-03T12:55:25.759Z</time></trkpt><trkpt lat="45.62681" lon="10.910955"><ele>884.0</ele><time>2026-05-03T12:55:26.759Z</time></trkpt><trkpt lat="45.62662" lon="10.9110283"><ele>879.3333333333334</ele><time>2026-05-03T12:55:27.759Z</time></trkpt><trkpt lat="45.626415" lon="10.91111"><ele>874.6666666666667</ele><time>2026-05-03T12:55:28.754Z</time></trkpt><trkpt lat="45.6262133" lon="10.91118"><ele>870.0</ele><time>2026-05-03T12:55:29.76Z</time></trkpt><trkpt lat="45.626015" lon="10.9112233"><ele>869.6666666666667</ele><time>2026-05-03T12:55:30.755Z</time></trkpt><trkpt lat="45.6258117" lon="10.9112267"><ele>869.3333333333334</ele><time>2026-05-03T12:55:31.757Z</time></trkpt><trkpt lat="45.6255983" lon="10.9111983"><ele>869.0</ele><time>2026-05-03T12:55:32.759Z</time></trkpt><trkpt lat="45.6253733" lon="10.9111517"><ele>862.5</ele><time>2026-05-03T12:55:33.759Z</time></trkpt><trkpt lat="45.62515" lon="10.9110883"><ele>856.0</ele><time>2026-05-03T12:55:34.754Z</time></trkpt><trkpt lat="45.62493" lon="10.9109983"><ele>857.5</ele><time>2026-05-03T12:55:35.761Z</time></trkpt><trkpt lat="45.624705" lon="10.9108833"><ele>859.0</ele><time>2026-05-03T12:55:36.757Z</time></trkpt><trkpt lat="45.624475" lon="10.9107583"><ele>859.0</ele><time>2026-05-03T12:55:37.754Z</time></trkpt><trkpt lat="45.6242517" lon="10.9106383"><ele>859.0</ele><time>2026-05-03T12:55:38.759Z</time></trkpt><trkpt lat="45.624045" lon="10.9105317"><ele>859.0</ele><time>2026-05-03T12:55:39.756Z</time></trkpt><trkpt lat="45.623855" lon="10.91044"><ele>859.0</ele><time>2026-05-03T12:55:40.759Z</time></trkpt><trkpt lat="45.6236917" lon="10.910315"><ele>859.0</ele><time>2026-05-03T12:55:41.758Z</time></trkpt><trkpt lat="45.6235567" lon="10.91015"><ele>854.6666666666666</ele><time>2026-05-03T12:55:42.756Z</time></trkpt><trkpt lat="45.6234433" lon="10.9099383"><ele>850.3333333333333</ele><time>2026-05-03T12:55:43.758Z</time></trkpt><trkpt lat="45.62335" lon="10.9096833"><ele>846.0</ele><time>2026-05-03T12:55:44.76Z</time></trkpt><trkpt lat="45.6232567" lon="10.9093967"><ele>848.3333333333333</ele><time>2026-05-03T12:55:45.756Z</time></trkpt><trkpt lat="45.62316" lon="10.9091117"><ele>850.6666666666666</ele><time>2026-05-03T12:55:46.753Z</time></trkpt><trkpt lat="45.6230567" lon="10.90885"><ele>853.0</ele><time>2026-05-03T12:55:47.755Z</time></trkpt><trkpt lat="45.6229617" lon="10.9085967"><ele>855.0</ele><time>2026-05-03T12:55:48.755Z</time></trkpt><trkpt lat="45.6228833" lon="10.9083567"><ele>857.0</ele><time>2026-05-03T12:55:49.757Z</time></trkpt><trkpt lat="45.62284" lon="10.908115"><ele>859.0</ele><time>2026-05-03T12:55:50.757Z</time></trkpt><trkpt lat="45.6228317" lon="10.9078533"><ele>859.0</ele><time>2026-05-03T12:55:51.76Z</time></trkpt><trkpt lat="45.6228467" lon="10.9075583"><ele>859.0</ele><time>2026-05-03T12:55:52.759Z</time></trkpt><trkpt lat="45.62287" lon="10.9072467"><ele>859.0</ele><time>2026-05-03T12:55:53.76Z</time></trkpt><trkpt lat="45.622885" lon="10.9069267"><ele>855.5</ele><time>2026-05-03T12:55:54.757Z</time></trkpt><trkpt lat="45.6228733" lon="10.9065883"><ele>852.0</ele><time>2026-05-03T12:55:55.752Z</time></trkpt><trkpt lat="45.6228267" lon="10.9062417"><ele>843.0</ele><time>2026-05-03T12:55:56.756Z</time></trkpt><trkpt lat="45.6227733" lon="10.90589"><ele>834.0</ele><time>2026-05-03T12:55:57.753Z</time></trkpt><trkpt lat="45.6227183" lon="10.9055333"><ele>834.0</ele><time>2026-05-03T12:55:58.761Z</time></trkpt><trkpt lat="45.622665" lon="10.9051717"><ele>834.0</ele><time>2026-05-03T12:55:59.76Z</time></trkpt><trkpt lat="45.622615" lon="10.9048067"><ele>836.0</ele><time>2026-05-03T12:56:00.757Z</time></trkpt><trkpt lat="45.6225633" lon="10.9044383"><ele>838.0</ele><time>2026-05-03T12:56:01.762Z</time></trkpt><trkpt lat="45.6225117" lon="10.9040683"><ele>838.5</ele><time>2026-05-03T12:56:02.758Z</time></trkpt><trkpt lat="45.6224583" lon="10.903695"><ele>839.0</ele><time>2026-05-03T12:56:03.755Z</time></trkpt><trkpt lat="45.6224083" lon="10.9033317"><ele>840.0</ele><time>2026-05-03T12:56:04.757Z</time></trkpt><trkpt lat="45.62236" lon="10.9029917"><ele>841.0</ele><time>2026-05-03T12:56:05.755Z</time></trkpt><trkpt lat="45.622315" lon="10.9026717"><ele>843.0</ele><time>2026-05-03T12:56:06.754Z</time></trkpt><trkpt lat="45.62227" lon="10.9023667"><ele>845.0</ele><time>2026-05-03T12:56:07.756Z</time></trkpt><trkpt lat="45.6222117" lon="10.9020767"><ele>847.0</ele><time>2026-05-03T12:56:08.755Z</time></trkpt><trkpt lat="45.6221333" lon="10.9018083"><ele>845.6666666666666</ele><time>2026-05-03T12:56:09.752Z</time></trkpt><trkpt lat="45.6220283" lon="10.9015417"><ele>844.3333333333333</ele><time>2026-05-03T12:56:10.763Z</time></trkpt><trkpt lat="45.6219117" lon="10.90128"><ele>843.0</ele><time>2026-05-03T12:56:11.761Z</time></trkpt><trkpt lat="45.6218" lon="10.90103"><ele>844.6666666666667</ele><time>2026-05-03T12:56:12.755Z</time></trkpt><trkpt lat="45.621695" lon="10.9007867"><ele>846.3333333333334</ele><time>2026-05-03T12:56:13.759Z</time></trkpt><trkpt lat="45.6215983" lon="10.9005367"><ele>848.0</ele><time>2026-05-03T12:56:14.758Z</time></trkpt><trkpt lat="45.6215083" lon="10.9002767"><ele>848.3333333333334</ele><time>2026-05-03T12:56:15.757Z</time></trkpt><trkpt lat="45.6214217" lon="10.9000067"><ele>848.6666666666667</ele><time>2026-05-03T12:56:16.756Z</time></trkpt><trkpt lat="45.62133" lon="10.8997267"><ele>849.0</ele><time>2026-05-03T12:56:17.76Z</time></trkpt><trkpt lat="45.62123" lon="10.89944"><ele>846.5</ele><time>2026-05-03T12:56:18.754Z</time></trkpt><trkpt lat="45.6211217" lon="10.8991483"><ele>844.0</ele><time>2026-05-03T12:56:19.758Z</time></trkpt><trkpt lat="45.62101" lon="10.8988533"><ele>844.0</ele><time>2026-05-03T12:56:20.764Z</time></trkpt><trkpt lat="45.620885" lon="10.8985567"><ele>844.0</ele><time>2026-05-03T12:56:21.755Z</time></trkpt><trkpt lat="45.62075" lon="10.898265"><ele>845.5</ele><time>2026-05-03T12:56:22.761Z</time></trkpt><trkpt lat="45.6206067" lon="10.8979733"><ele>847.0</ele><time>2026-05-03T12:56:23.756Z</time></trkpt><trkpt lat="45.6204567" lon="10.8976833"><ele>847.0</ele><time>2026-05-03T12:56:24.751Z</time></trkpt><trkpt lat="45.6203017" lon="10.8973917"><ele>847.0</ele><time>2026-05-03T12:56:25.753Z</time></trkpt><trkpt lat="45.620155" lon="10.8971083"><ele>847.0</ele><time>2026-05-03T12:56:26.76Z</time></trkpt><trkpt lat="45.6200183" lon="10.8968483"><ele>847.0</ele><time>2026-05-03T12:56:27.759Z</time></trkpt><trkpt lat="45.6198917" lon="10.8966183"><ele>847.0</ele><time>2026-05-03T12:56:28.758Z</time></trkpt><trkpt lat="45.6197683" lon="10.896425"><ele>850.0</ele><time>2026-05-03T12:56:29.755Z</time></trkpt><trkpt lat="45.6196283" lon="10.896265"><ele>853.0</ele><time>2026-05-03T12:56:30.755Z</time></trkpt><trkpt lat="45.61947" lon="10.8961567"><ele>856.0</ele><time>2026-05-03T12:56:31.754Z</time></trkpt><trkpt lat="45.6192917" lon="10.8961083"><ele>856.0</ele><time>2026-05-03T12:56:32.759Z</time></trkpt><trkpt lat="45.6191067" lon="10.89613"><ele>856.0</ele><time>2026-05-03T12:56:33.758Z</time></trkpt><trkpt lat="45.6189283" lon="10.8961983"><ele>856.0</ele><time>2026-05-03T12:56:34.76Z</time></trkpt><trkpt lat="45.6187533" lon="10.8962933"><ele>857.6666666666666</ele><time>2026-05-03T12:56:35.757Z</time></trkpt><trkpt lat="45.6185917" lon="10.8964217"><ele>859.3333333333333</ele><time>2026-05-03T12:56:36.76Z</time></trkpt><trkpt lat="45.6184567" lon="10.8965917"><ele>861.0</ele><time>2026-05-03T12:56:37.761Z</time></trkpt><trkpt lat="45.6183383" lon="10.8967683"><ele>861.0</ele><time>2026-05-03T12:56:38.76Z</time></trkpt><trkpt lat="45.6182283" lon="10.896925"><ele>861.0</ele><time>2026-05-03T12:56:39.762Z</time></trkpt><trkpt lat="45.6181383" lon="10.8970517"><ele>861.0</ele><time>2026-05-03T12:56:40.76Z</time></trkpt><trkpt lat="45.6180433" lon="10.8971283"><ele>861.0</ele><time>2026-05-03T12:56:41.756Z</time></trkpt><trkpt lat="45.6179417" lon="10.89715"><ele>861.0</ele><time>2026-05-03T12:56:42.76Z</time></trkpt><trkpt lat="45.617825" lon="10.8971033"><ele>861.0</ele><time>2026-05-03T12:56:43.753Z</time></trkpt><trkpt lat="45.6177" lon="10.8970117"><ele>861.0</ele><time>2026-05-03T12:56:44.76Z</time></trkpt><trkpt lat="45.6175617" lon="10.89691"><ele>861.0</ele><time>2026-05-03T12:56:45.758Z</time></trkpt><trkpt lat="45.617415" lon="10.8967983"><ele>868.3333333333333</ele><time>2026-05-03T12:56:46.756Z</time></trkpt><trkpt lat="45.6172583" lon="10.8966783"><ele>875.6666666666666</ele><time>2026-05-03T12:56:47.764Z</time></trkpt><trkpt lat="45.6170933" lon="10.8965517"><ele>883.0</ele><time>2026-05-03T12:56:48.761Z</time></trkpt><trkpt lat="45.6169233" lon="10.8964267"><ele>884.6666666666666</ele><time>2026-05-03T12:56:49.755Z</time></trkpt><trkpt lat="45.61675" lon="10.8963"><ele>886.3333333333333</ele><time>2026-05-03T12:56:50.751Z</time></trkpt><trkpt lat="45.61657" lon="10.8961683"><ele>888.0</ele><time>2026-05-03T12:56:51.756Z</time></trkpt><trkpt lat="45.6163867" lon="10.896035"><ele>890.6666666666667</ele><time>2026-05-03T12:56:52.757Z</time></trkpt><trkpt lat="45.6162017" lon="10.8959033"><ele>893.3333333333334</ele><time>2026-05-03T12:56:53.757Z</time></trkpt><trkpt lat="45.6160083" lon="10.8957917"><ele>896.0</ele><time>2026-05-03T12:56:54.76Z</time></trkpt><trkpt lat="45.6158117" lon="10.8957083"><ele>896.0</ele><time>2026-05-03T12:56:55.756Z</time></trkpt><trkpt lat="45.61562" lon="10.8956417"><ele>896.0</ele><time>2026-05-03T12:56:56.757Z</time></trkpt><trkpt lat="45.61544" lon="10.89557"><ele>896.0</ele><time>2026-05-03T12:56:57.76Z</time></trkpt><trkpt lat="45.6152783" lon="10.8954667"><ele>898.3333333333334</ele><time>2026-05-03T12:56:58.752Z</time></trkpt><trkpt lat="45.6151317" lon="10.8953217"><ele>900.6666666666667</ele><time>2026-05-03T12:56:59.756Z</time></trkpt><trkpt lat="45.6149967" lon="10.8951417"><ele>903.0</ele><time>2026-05-03T12:57:00.76Z</time></trkpt><trkpt lat="45.6148633" lon="10.894945"><ele>904.0</ele><time>2026-05-03T12:57:01.765Z</time></trkpt><trkpt lat="45.6147367" lon="10.89473"><ele>905.0</ele><time>2026-05-03T12:57:02.759Z</time></trkpt><trkpt lat="45.6146183" lon="10.89449"><ele>906.0</ele><time>2026-05-03T12:57:03.758Z</time></trkpt><trkpt lat="45.6145117" lon="10.8942283"><ele>904.3333333333333</ele><time>2026-05-03T12:57:04.758Z</time></trkpt><trkpt lat="45.614425" lon="10.8939483"><ele>902.6666666666666</ele><time>2026-05-03T12:57:05.76Z</time></trkpt><trkpt lat="45.6143633" lon="10.8936533"><ele>901.0</ele><time>2026-05-03T12:57:06.756Z</time></trkpt><trkpt lat="45.6143217" lon="10.8933533"><ele>900.6666666666666</ele><time>2026-05-03T12:57:07.761Z</time></trkpt><trkpt lat="45.61429" lon="10.89306"><ele>900.3333333333333</ele><time>2026-05-03T12:57:08.759Z</time></trkpt><trkpt lat="45.614265" lon="10.8927817"><ele>900.0</ele><time>2026-05-03T12:57:09.756Z</time></trkpt><trkpt lat="45.6142333" lon="10.8925283"><ele>903.6666666666667</ele><time>2026-05-03T12:57:10.761Z</time></trkpt><trkpt lat="45.61418" lon="10.8923"><ele>907.3333333333334</ele><time>2026-05-03T12:57:11.757Z</time></trkpt><trkpt lat="45.6140967" lon="10.8920967"><ele>911.0</ele><time>2026-05-03T12:57:12.755Z</time></trkpt><trkpt lat="45.6139683" lon="10.8919233"><ele>911.0</ele><time>2026-05-03T12:57:13.753Z</time></trkpt><trkpt lat="45.61381" lon="10.8917767"><ele>911.0</ele><time>2026-05-03T12:57:14.758Z</time></trkpt><trkpt lat="45.6136433" lon="10.8916267"><ele>911.0</ele><time>2026-05-03T12:57:15.761Z</time></trkpt><trkpt lat="45.6134767" lon="10.8914683"><ele>910.6666666666667</ele><time>2026-05-03T12:57:16.761Z</time></trkpt><trkpt lat="45.6133233" lon="10.8912783"><ele>910.3333333333333</ele><time>2026-05-03T12:57:17.756Z</time></trkpt><trkpt lat="45.6131783" lon="10.891055"><ele>910.0</ele><time>2026-05-03T12:57:18.761Z</time></trkpt><trkpt lat="45.6130317" lon="10.890815"><ele>910.0</ele><time>2026-05-03T12:57:19.76Z</time></trkpt><trkpt lat="45.6128767" lon="10.8905667"><ele>910.0</ele><time>2026-05-03T12:57:20.752Z</time></trkpt><trkpt lat="45.6127183" lon="10.89032"><ele>905.0</ele><time>2026-05-03T12:57:21.769Z</time></trkpt><trkpt lat="45.6125667" lon="10.8900867"><ele>900.0</ele><time>2026-05-03T12:57:22.753Z</time></trkpt><trkpt lat="45.6124217" lon="10.8898633"><ele>895.0</ele><time>2026-05-03T12:57:23.761Z</time></trkpt><trkpt lat="45.6122717" lon="10.889655"><ele>895.0</ele><time>2026-05-03T12:57:24.756Z</time></trkpt><trkpt lat="45.6121117" lon="10.889475"><ele>895.0</ele><time>2026-05-03T12:57:25.756Z</time></trkpt><trkpt lat="45.6119467" lon="10.88931"><ele>895.0</ele><time>2026-05-03T12:57:26.762Z</time></trkpt><trkpt lat="45.6117883" lon="10.8891733"><ele>894.0</ele><time>2026-05-03T12:57:27.757Z</time></trkpt><trkpt lat="45.6116317" lon="10.8890767"><ele>893.0</ele><time>2026-05-03T12:57:28.757Z</time></trkpt><trkpt lat="45.611465" lon="10.8890117"><ele>892.0</ele><time>2026-05-03T12:57:29.761Z</time></trkpt><trkpt lat="45.6112817" lon="10.8889733"><ele>888.0</ele><time>2026-05-03T12:57:30.757Z</time></trkpt><trkpt lat="45.6110883" lon="10.888945"><ele>884.0</ele><time>2026-05-03T12:57:31.762Z</time></trkpt><trkpt lat="45.6108867" lon="10.8889167"><ele>880.0</ele><time>2026-05-03T12:57:32.762Z</time></trkpt><trkpt lat="45.610675" lon="10.8888817"><ele>880.0</ele><time>2026-05-03T12:57:33.758Z</time></trkpt><trkpt lat="45.6104583" lon="10.8888433"><ele>880.0</ele><time>2026-05-03T12:57:34.755Z</time></trkpt><trkpt lat="45.610235" lon="10.88881"><ele>880.0</ele><time>2026-05-03T12:57:35.756Z</time></trkpt><trkpt lat="45.610005" lon="10.888775"><ele>873.5</ele><time>2026-05-03T12:57:36.757Z</time></trkpt><trkpt lat="45.6097717" lon="10.88874"><ele>867.0</ele><time>2026-05-03T12:57:37.755Z</time></trkpt><trkpt lat="45.6095317" lon="10.888715"><ele>860.5</ele><time>2026-05-03T12:57:38.755Z</time></trkpt><trkpt lat="45.6092817" lon="10.8887117"><ele>854.0</ele><time>2026-05-03T12:57:39.759Z</time></trkpt><trkpt lat="45.6090333" lon="10.8887117"><ele>854.0</ele><time>2026-05-03T12:57:40.765Z</time></trkpt><trkpt lat="45.6087967" lon="10.88871"><ele>854.0</ele><time>2026-05-03T12:57:41.764Z</time></trkpt><trkpt lat="45.6085667" lon="10.8886983"><ele>851.0</ele><time>2026-05-03T12:57:42.761Z</time></trkpt><trkpt lat="45.6083333" lon="10.8886733"><ele>848.0</ele><time>2026-05-03T12:57:43.761Z</time></trkpt><trkpt lat="45.608095" lon="10.8886217"><ele>848.0</ele><time>2026-05-03T12:57:44.755Z</time></trkpt><trkpt lat="45.6078567" lon="10.8885433"><ele>848.0</ele><time>2026-05-03T12:57:45.758Z</time></trkpt><trkpt lat="45.60762" lon="10.8884717"><ele>861.5</ele><time>2026-05-03T12:57:46.759Z</time></trkpt><trkpt lat="45.6073867" lon="10.888425"><ele>875.0</ele><time>2026-05-03T12:57:47.759Z</time></trkpt><trkpt lat="45.6071533" lon="10.8884"><ele>869.3333333333334</ele><time>2026-05-03T12:57:48.757Z</time></trkpt><trkpt lat="45.606925" lon="10.88838"><ele>863.6666666666667</ele><time>2026-05-03T12:57:49.756Z</time></trkpt><trkpt lat="45.6067133" lon="10.888335"><ele>858.0</ele><time>2026-05-03T12:57:50.761Z</time></trkpt><trkpt lat="45.6065233" lon="10.8882433"><ele>858.0</ele><time>2026-05-03T12:57:51.76Z</time></trkpt><trkpt lat="45.60635" lon="10.8881283"><ele>858.0</ele><time>2026-05-03T12:57:52.759Z</time></trkpt><trkpt lat="45.6061767" lon="10.8880383"><ele>858.0</ele><time>2026-05-03T12:57:53.758Z</time></trkpt><trkpt lat="45.6060067" lon="10.887985"><ele>853.6666666666667</ele><time>2026-05-03T12:57:54.757Z</time></trkpt><trkpt lat="45.6058383" lon="10.8879683"><ele>849.3333333333334</ele><time>2026-05-03T12:57:55.768Z</time></trkpt><trkpt lat="45.605665" lon="10.888"><ele>845.0</ele><time>2026-05-03T12:57:56.756Z</time></trkpt><trkpt lat="45.6054883" lon="10.88807"><ele>844.6666666666667</ele><time>2026-05-03T12:57:57.755Z</time></trkpt><trkpt lat="45.6052967" lon="10.8881533"><ele>844.3333333333333</ele><time>2026-05-03T12:57:58.755Z</time></trkpt><trkpt lat="45.6050883" lon="10.8882233"><ele>844.0</ele><time>2026-05-03T12:57:59.762Z</time></trkpt><trkpt lat="45.60487" lon="10.8882583"><ele>844.0</ele><time>2026-05-03T12:58:00.757Z</time></trkpt><trkpt lat="45.6046467" lon="10.888275"><ele>844.0</ele><time>2026-05-03T12:58:01.756Z</time></trkpt><trkpt lat="45.6044317" lon="10.8882833"><ele>844.0</ele><time>2026-05-03T12:58:02.76Z</time></trkpt><trkpt lat="45.60423" lon="10.8882733"><ele>842.6666666666666</ele><time>2026-05-03T12:58:03.761Z</time></trkpt><trkpt lat="45.6040383" lon="10.8882333"><ele>841.3333333333333</ele><time>2026-05-03T12:58:04.765Z</time></trkpt><trkpt lat="45.6038583" lon="10.8881667"><ele>840.0</ele><time>2026-05-03T12:58:05.758Z</time></trkpt><trkpt lat="45.603695" lon="10.8880983"><ele>837.3333333333333</ele><time>2026-05-03T12:58:06.757Z</time></trkpt><trkpt lat="45.6035317" lon="10.8880567"><ele>834.6666666666666</ele><time>2026-05-03T12:58:07.756Z</time></trkpt><trkpt lat="45.6033567" lon="10.888075"><ele>832.0</ele><time>2026-05-03T12:58:08.765Z</time></trkpt><trkpt lat="45.6031767" lon="10.8881533"><ele>832.0</ele><time>2026-05-03T12:58:09.755Z</time></trkpt><trkpt lat="45.6029967" lon="10.88827"><ele>832.0</ele><time>2026-05-03T12:58:10.757Z</time></trkpt><trkpt lat="45.602805" lon="10.8883917"><ele>832.0</ele><time>2026-05-03T12:58:11.756Z</time></trkpt><trkpt lat="45.602595" lon="10.8884983"><ele>819.0</ele><time>2026-05-03T12:58:12.759Z</time></trkpt><trkpt lat="45.6023733" lon="10.8885883"><ele>806.0</ele><time>2026-05-03T12:58:13.755Z</time></trkpt><trkpt lat="45.6021433" lon="10.8886633"><ele>809.0</ele><time>2026-05-03T12:58:14.758Z</time></trkpt><trkpt lat="45.6019033" lon="10.888725"><ele>812.0</ele><time>2026-05-03T12:58:15.757Z</time></trkpt><trkpt lat="45.60165" lon="10.8887933"><ele>812.0</ele><time>2026-05-03T12:58:16.76Z</time></trkpt><trkpt lat="45.6013917" lon="10.8888717"><ele>812.0</ele><time>2026-05-03T12:58:17.762Z</time></trkpt><trkpt lat="45.6011283" lon="10.888975"><ele>815.0</ele><time>2026-05-03T12:58:18.757Z</time></trkpt><trkpt lat="45.6008667" lon="10.8890983"><ele>818.0</ele><time>2026-05-03T12:58:19.754Z</time></trkpt><trkpt lat="45.6006133" lon="10.8892267"><ele>809.5</ele><time>2026-05-03T12:58:20.758Z</time></trkpt><trkpt lat="45.6003733" lon="10.8893517"><ele>801.0</ele><time>2026-05-03T12:58:21.753Z</time></trkpt><trkpt lat="45.600145" lon="10.889475"><ele>801.0</ele><time>2026-05-03T12:58:22.758Z</time></trkpt><trkpt lat="45.599925" lon="10.8895917"><ele>801.0</ele><time>2026-05-03T12:58:23.757Z</time></trkpt><trkpt lat="45.5997067" lon="10.8896983"><ele>802.5</ele><time>2026-05-03T12:58:24.758Z</time></trkpt><trkpt lat="45.59949" lon="10.8898017"><ele>804.0</ele><time>2026-05-03T12:58:25.755Z</time></trkpt><trkpt lat="45.5992567" lon="10.8898733"><ele>804.0</ele><time>2026-05-03T12:58:26.758Z</time></trkpt><trkpt lat="45.5990167" lon="10.8899067"><ele>804.0</ele><time>2026-05-03T12:58:27.755Z</time></trkpt><trkpt lat="45.59877" lon="10.889915"><ele>805.0</ele><time>2026-05-03T12:58:28.757Z</time></trkpt><trkpt lat="45.5985183" lon="10.8899283"><ele>806.0</ele><time>2026-05-03T12:58:29.757Z</time></trkpt><trkpt lat="45.59826" lon="10.8899567"><ele>806.0</ele><time>2026-05-03T12:58:30.754Z</time></trkpt><trkpt lat="45.5979967" lon="10.89"><ele>806.0</ele><time>2026-05-03T12:58:31.755Z</time></trkpt><trkpt lat="45.597735" lon="10.89005"><ele>796.5</ele><time>2026-05-03T12:58:32.761Z</time></trkpt><trkpt lat="45.5974783" lon="10.8901017"><ele>787.0</ele><time>2026-05-03T12:58:33.757Z</time></trkpt><trkpt lat="45.5972383" lon="10.8901367"><ele>787.0</ele><time>2026-05-03T12:58:34.754Z</time></trkpt><trkpt lat="45.5970083" lon="10.890165"><ele>787.0</ele><time>2026-05-03T12:58:35.756Z</time></trkpt><trkpt lat="45.5967883" lon="10.8901933"><ele>787.6666666666666</ele><time>2026-05-03T12:58:36.759Z</time></trkpt><trkpt lat="45.5965683" lon="10.8902217"><ele>788.3333333333333</ele><time>2026-05-03T12:58:37.752Z</time></trkpt><trkpt lat="45.5963633" lon="10.89024"><ele>789.0</ele><time>2026-05-03T12:58:38.758Z</time></trkpt><trkpt lat="45.596175" lon="10.890265"><ele>788.75</ele><time>2026-05-03T12:58:39.754Z</time></trkpt><trkpt lat="45.5960133" lon="10.8902817"><ele>788.5</ele><time>2026-05-03T12:58:40.752Z</time></trkpt><trkpt lat="45.5958817" lon="10.8902883"><ele>788.25</ele><time>2026-05-03T12:58:41.762Z</time></trkpt><trkpt lat="45.595765" lon="10.8902933"><ele>788.0</ele><time>2026-05-03T12:58:42.758Z</time></trkpt><trkpt lat="45.5956683" lon="10.8902683"><ele>788.0</ele><time>2026-05-03T12:58:43.755Z</time></trkpt><trkpt lat="45.5955967" lon="10.8901967"><ele>788.0</ele><time>2026-05-03T12:58:44.761Z</time></trkpt><trkpt lat="45.5955667" lon="10.8900683"><ele>788.0</ele><time>2026-05-03T12:58:45.758Z</time></trkpt><trkpt lat="45.5955783" lon="10.889895"><ele>788.0</ele><time>2026-05-03T12:58:46.754Z</time></trkpt><trkpt lat="45.595625" lon="10.889705"><ele>788.0</ele><time>2026-05-03T12:58:47.756Z</time></trkpt><trkpt lat="45.5956833" lon="10.8894917"><ele>791.6666666666667</ele><time>2026-05-03T12:58:48.751Z</time></trkpt><trkpt lat="45.5957317" lon="10.88926"><ele>795.3333333333333</ele><time>2026-05-03T12:58:49.756Z</time></trkpt><trkpt lat="45.5957617" lon="10.8890283"><ele>799.0</ele><time>2026-05-03T12:58:50.757Z</time></trkpt><trkpt lat="45.59576" lon="10.8888033"><ele>800.3333333333333</ele><time>2026-05-03T12:58:51.761Z</time></trkpt><trkpt lat="45.5957233" lon="10.8885767"><ele>801.6666666666667</ele><time>2026-05-03T12:58:52.762Z</time></trkpt><trkpt lat="45.5956633" lon="10.8883583"><ele>803.0</ele><time>2026-05-03T12:58:53.758Z</time></trkpt><trkpt lat="45.59559" lon="10.8881717"><ele>801.25</ele><time>2026-05-03T12:58:54.765Z</time></trkpt><trkpt lat="45.5955033" lon="10.8880317"><ele>799.5</ele><time>2026-05-03T12:58:55.752Z</time></trkpt><trkpt lat="45.5953883" lon="10.8879617"><ele>797.75</ele><time>2026-05-03T12:58:56.756Z</time></trkpt><trkpt lat="45.5952533" lon="10.8879683"><ele>796.0</ele><time>2026-05-03T12:58:57.755Z</time></trkpt><trkpt lat="45.59511" lon="10.8880367"><ele>796.0</ele><time>2026-05-03T12:58:58.76Z</time></trkpt><trkpt lat="45.59496" lon="10.8881333"><ele>796.0</ele><time>2026-05-03T12:58:59.751Z</time></trkpt><trkpt lat="45.5947917" lon="10.8882317"><ele>796.0</ele><time>2026-05-03T12:59:00.752Z</time></trkpt><trkpt lat="45.5946067" lon="10.8883117"><ele>796.3333333333333</ele><time>2026-05-03T12:59:01.762Z</time></trkpt><trkpt lat="45.5944033" lon="10.8883633"><ele>796.6666666666667</ele><time>2026-05-03T12:59:02.758Z</time></trkpt><trkpt lat="45.5941867" lon="10.8884"><ele>797.0</ele><time>2026-05-03T12:59:03.755Z</time></trkpt><trkpt lat="45.5939633" lon="10.8884367"><ele>790.5</ele><time>2026-05-03T12:59:04.756Z</time></trkpt><trkpt lat="45.593735" lon="10.8884767"><ele>784.0</ele><time>2026-05-03T12:59:05.758Z</time></trkpt><trkpt lat="45.593505" lon="10.88852"><ele>784.0</ele><time>2026-05-03T12:59:06.757Z</time></trkpt><trkpt lat="45.5932683" lon="10.88857"><ele>784.0</ele><time>2026-05-03T12:59:07.751Z</time></trkpt><trkpt lat="45.5930283" lon="10.8886183"><ele>787.0</ele><time>2026-05-03T12:59:08.757Z</time></trkpt><trkpt lat="45.5927833" lon="10.8886617"><ele>790.0</ele><time>2026-05-03T12:59:09.755Z</time></trkpt><trkpt lat="45.5925517" lon="10.8887033"><ele>790.0</ele><time>2026-05-03T12:59:10.753Z</time></trkpt><trkpt lat="45.592335" lon="10.8887467"><ele>790.0</ele><time>2026-05-03T12:59:11.754Z</time></trkpt><trkpt lat="45.5921367" lon="10.8887833"><ele>790.0</ele><time>2026-05-03T12:59:12.761Z</time></trkpt><trkpt lat="45.5919533" lon="10.8888033"><ele>790.3333333333333</ele><time>2026-05-03T12:59:13.763Z</time></trkpt><trkpt lat="45.591775" lon="10.8887983"><ele>790.6666666666667</ele><time>2026-05-03T12:59:14.759Z</time></trkpt><trkpt lat="45.5916117" lon="10.888765"><ele>791.0</ele><time>2026-05-03T12:59:15.754Z</time></trkpt><trkpt lat="45.5914683" lon="10.8886983"><ele>791.0</ele><time>2026-05-03T12:59:16.753Z</time></trkpt><trkpt lat="45.5913383" lon="10.88859"><ele>791.0</ele><time>2026-05-03T12:59:17.753Z</time></trkpt><trkpt lat="45.5912233" lon="10.8884283"><ele>791.0</ele><time>2026-05-03T12:59:18.756Z</time></trkpt><trkpt lat="45.591125" lon="10.8882167"><ele>792.0</ele><time>2026-05-03T12:59:19.756Z</time></trkpt><trkpt lat="45.5910367" lon="10.8879783"><ele>793.0</ele><time>2026-05-03T12:59:20.755Z</time></trkpt><trkpt lat="45.590945" lon="10.8877233"><ele>794.0</ele><time>2026-05-03T12:59:21.757Z</time></trkpt><trkpt lat="45.5908467" lon="10.8874567"><ele>794.3333333333334</ele><time>2026-05-03T12:59:22.753Z</time></trkpt><trkpt lat="45.59075" lon="10.8872"><ele>794.6666666666667</ele><time>2026-05-03T12:59:23.757Z</time></trkpt><trkpt lat="45.5906667" lon="10.8869683"><ele>795.0</ele><time>2026-05-03T12:59:24.754Z</time></trkpt><trkpt lat="45.5906033" lon="10.8867583"><ele>795.75</ele><time>2026-05-03T12:59:25.752Z</time></trkpt><trkpt lat="45.5905783" lon="10.8865617"><ele>796.5</ele><time>2026-05-03T12:59:26.755Z</time></trkpt><trkpt lat="45.590605" lon="10.88637"><ele>797.25</ele><time>2026-05-03T12:59:27.755Z</time></trkpt><trkpt lat="45.5906733" lon="10.886175"><ele>798.0</ele><time>2026-05-03T12:59:28.755Z</time></trkpt><trkpt lat="45.5907617" lon="10.885965"><ele>796.0</ele><time>2026-05-03T12:59:29.753Z</time></trkpt><trkpt lat="45.5908517" lon="10.885735"><ele>794.0</ele><time>2026-05-03T12:59:30.754Z</time></trkpt><trkpt lat="45.5909367" lon="10.885505"><ele>792.0</ele><time>2026-05-03T12:59:31.756Z</time></trkpt><trkpt lat="45.5910033" lon="10.8852933"><ele>792.0</ele><time>2026-05-03T12:59:32.757Z</time></trkpt><trkpt lat="45.59106" lon="10.8850983"><ele>792.0</ele><time>2026-05-03T12:59:33.757Z</time></trkpt><trkpt lat="45.5911033" lon="10.8849217"><ele>792.0</ele><time>2026-05-03T12:59:34.758Z</time></trkpt><trkpt lat="45.591125" lon="10.8847617"><ele>792.0</ele><time>2026-05-03T12:59:35.758Z</time></trkpt><trkpt lat="45.5911217" lon="10.8846133"><ele>791.5</ele><time>2026-05-03T12:59:36.756Z</time></trkpt><trkpt lat="45.591085" lon="10.884475"><ele>791.0</ele><time>2026-05-03T12:59:37.753Z</time></trkpt><trkpt lat="45.59099" lon="10.8843683"><ele>790.5</ele><time>2026-05-03T12:59:38.754Z</time></trkpt><trkpt lat="45.590855" lon="10.8843233"><ele>790.0</ele><time>2026-05-03T12:59:39.757Z</time></trkpt><trkpt lat="45.5906983" lon="10.884335"><ele>790.0</ele><time>2026-05-03T12:59:40.754Z</time></trkpt><trkpt lat="45.5905217" lon="10.8843733"><ele>790.0</ele><time>2026-05-03T12:59:41.753Z</time></trkpt><trkpt lat="45.5903333" lon="10.8844167"><ele>790.0</ele><time>2026-05-03T12:59:42.754Z</time></trkpt><trkpt lat="45.5901383" lon="10.8844717"><ele>787.0</ele><time>2026-05-03T12:59:43.754Z</time></trkpt><trkpt lat="45.5899433" lon="10.8845633"><ele>784.0</ele><time>2026-05-03T12:59:44.755Z</time></trkpt><trkpt lat="45.58975" lon="10.8847"><ele>781.0</ele><time>2026-05-03T12:59:45.756Z</time></trkpt><trkpt lat="45.5895617" lon="10.8848767"><ele>780.3333333333333</ele><time>2026-05-03T12:59:46.763Z</time></trkpt><trkpt lat="45.589385" lon="10.8850617"><ele>779.6666666666667</ele><time>2026-05-03T12:59:47.754Z</time></trkpt><trkpt lat="45.58922" lon="10.8852283"><ele>779.0</ele><time>2026-05-03T12:59:48.754Z</time></trkpt><trkpt lat="45.58905" lon="10.8853683"><ele>774.6666666666667</ele><time>2026-05-03T12:59:49.753Z</time></trkpt><trkpt lat="45.5888617" lon="10.88549"><ele>770.3333333333334</ele><time>2026-05-03T12:59:50.754Z</time></trkpt><trkpt lat="45.5886567" lon="10.885595"><ele>766.0</ele><time>2026-05-03T12:59:51.755Z</time></trkpt><trkpt lat="45.5884367" lon="10.8856767"><ele>765.5</ele><time>2026-05-03T12:59:52.756Z</time></trkpt><trkpt lat="45.588205" lon="10.885735"><ele>765.0</ele><time>2026-05-03T12:59:53.788Z</time></trkpt><trkpt lat="45.58796" lon="10.8857683"><ele>763.0</ele><time>2026-05-03T12:59:54.768Z</time></trkpt><trkpt lat="45.5877017" lon="10.8857867"><ele>761.0</ele><time>2026-05-03T12:59:55.753Z</time></trkpt><trkpt lat="45.5874483" lon="10.885805"><ele>761.0</ele><time>2026-05-03T12:59:56.758Z</time></trkpt><trkpt lat="45.587205" lon="10.8858333"><ele>761.0</ele><time>2026-05-03T12:59:57.755Z</time></trkpt><trkpt lat="45.5869783" lon="10.8858617"><ele>759.3333333333333</ele><time>2026-05-03T12:59:58.756Z</time></trkpt><trkpt lat="45.586765" lon="10.8858783"><ele>757.6666666666666</ele><time>2026-05-03T12:59:59.758Z</time></trkpt><trkpt lat="45.58656" lon="10.88587"><ele>756.0</ele><time>2026-05-03T13:00:00.757Z</time></trkpt><trkpt lat="45.58637" lon="10.8858217"><ele>756.0</ele><time>2026-05-03T13:00:01.754Z</time></trkpt><trkpt lat="45.5861967" lon="10.8857233"><ele>756.0</ele><time>2026-05-03T13:00:02.757Z</time></trkpt><trkpt lat="45.5860333" lon="10.8855667"><ele>756.0</ele><time>2026-05-03T13:00:03.755Z</time></trkpt><trkpt lat="45.5858733" lon="10.885395"><ele>754.0</ele><time>2026-05-03T13:00:04.758Z</time></trkpt><trkpt lat="45.5857133" lon="10.88524"><ele>752.0</ele><time>2026-05-03T13:00:05.759Z</time></trkpt><trkpt lat="45.5855483" lon="10.885145"><ele>750.0</ele><time>2026-05-03T13:00:06.755Z</time></trkpt><trkpt lat="45.5853683" lon="10.8850933"><ele>744.6666666666666</ele><time>2026-05-03T13:00:07.759Z</time></trkpt><trkpt lat="45.5851717" lon="10.885105"><ele>739.3333333333333</ele><time>2026-05-03T13:00:08.755Z</time></trkpt><trkpt lat="45.5849667" lon="10.8851833"><ele>734.0</ele><time>2026-05-03T13:00:09.755Z</time></trkpt><trkpt lat="45.5847717" lon="10.8853267"><ele>734.0</ele><time>2026-05-03T13:00:10.757Z</time></trkpt><trkpt lat="45.584585" lon="10.8854883"><ele>734.0</ele><time>2026-05-03T13:00:11.756Z</time></trkpt><trkpt lat="45.584415" lon="10.885635"><ele>734.0</ele><time>2026-05-03T13:00:12.764Z</time></trkpt><trkpt lat="45.58426" lon="10.885765"><ele>731.0</ele><time>2026-05-03T13:00:13.757Z</time></trkpt><trkpt lat="45.5841083" lon="10.885865"><ele>728.0</ele><time>2026-05-03T13:00:14.755Z</time></trkpt><trkpt lat="45.5839567" lon="10.8859167"><ele>725.0</ele><time>2026-05-03T13:00:15.759Z</time></trkpt><trkpt lat="45.5837983" lon="10.8859083"><ele>722.3333333333333</ele><time>2026-05-03T13:00:16.754Z</time></trkpt><trkpt lat="45.58364" lon="10.8858467"><ele>719.6666666666666</ele><time>2026-05-03T13:00:17.761Z</time></trkpt><trkpt lat="45.5835" lon="10.885735"><ele>717.0</ele><time>2026-05-03T13:00:18.757Z</time></trkpt><trkpt lat="45.583385" lon="10.885585"><ele>717.0</ele><time>2026-05-03T13:00:19.754Z</time></trkpt><trkpt lat="45.5833017" lon="10.8853983"><ele>717.0</ele><time>2026-05-03T13:00:20.756Z</time></trkpt><trkpt lat="45.58325" lon="10.8851617"><ele>717.0</ele><time>2026-05-03T13:00:21.757Z</time></trkpt><trkpt lat="45.5832117" lon="10.8848967"><ele>717.0</ele><time>2026-05-03T13:00:22.756Z</time></trkpt><trkpt lat="45.583155" lon="10.8846217"><ele>717.0</ele><time>2026-05-03T13:00:23.754Z</time></trkpt><trkpt lat="45.583065" lon="10.8843517"><ele>717.0</ele><time>2026-05-03T13:00:24.756Z</time></trkpt><trkpt lat="45.5829483" lon="10.8840967"><ele>714.3333333333334</ele><time>2026-05-03T13:00:25.755Z</time></trkpt><trkpt lat="45.5828283" lon="10.8838683"><ele>711.6666666666667</ele><time>2026-05-03T13:00:26.759Z</time></trkpt><trkpt lat="45.5827183" lon="10.883655"><ele>709.0</ele><time>2026-05-03T13:00:27.758Z</time></trkpt><trkpt lat="45.5826183" lon="10.8834583"><ele>708.75</ele><time>2026-05-03T13:00:28.754Z</time></trkpt><trkpt lat="45.582535" lon="10.883275"><ele>708.5</ele><time>2026-05-03T13:00:29.757Z</time></trkpt><trkpt lat="45.58247" lon="10.883095"><ele>708.25</ele><time>2026-05-03T13:00:30.766Z</time></trkpt><trkpt lat="45.5824217" lon="10.8829"><ele>708.0</ele><time>2026-05-03T13:00:31.759Z</time></trkpt><trkpt lat="45.58237" lon="10.8826967"><ele>709.3333333333334</ele><time>2026-05-03T13:00:32.755Z</time></trkpt><trkpt lat="45.58229" lon="10.8825033"><ele>710.6666666666667</ele><time>2026-05-03T13:00:33.757Z</time></trkpt><trkpt lat="45.5821717" lon="10.8823267"><ele>712.0</ele><time>2026-05-03T13:00:34.758Z</time></trkpt><trkpt lat="45.5820383" lon="10.8821667"><ele>707.3333333333334</ele><time>2026-05-03T13:00:35.755Z</time></trkpt><trkpt lat="45.5819167" lon="10.8820017"><ele>702.6666666666666</ele><time>2026-05-03T13:00:36.756Z</time></trkpt><trkpt lat="45.5818217" lon="10.8818133"><ele>698.0</ele><time>2026-05-03T13:00:37.754Z</time></trkpt><trkpt lat="45.5817467" lon="10.8815917"><ele>698.0</ele><time>2026-05-03T13:00:38.758Z</time></trkpt><trkpt lat="45.5816833" lon="10.8813467"><ele>698.0</ele><time>2026-05-03T13:00:39.756Z</time></trkpt><trkpt lat="45.581615" lon="10.881085"><ele>698.0</ele><time>2026-05-03T13:00:40.754Z</time></trkpt><trkpt lat="45.581535" lon="10.8808117"><ele>698.6666666666666</ele><time>2026-05-03T13:00:41.753Z</time></trkpt><trkpt lat="45.581455" lon="10.880535"><ele>699.3333333333334</ele><time>2026-05-03T13:00:42.754Z</time></trkpt><trkpt lat="45.581385" lon="10.880275"><ele>700.0</ele><time>2026-05-03T13:00:43.762Z</time></trkpt><trkpt lat="45.5813317" lon="10.8800217"><ele>702.0</ele><time>2026-05-03T13:00:44.753Z</time></trkpt><trkpt lat="45.5813033" lon="10.8797767"><ele>704.0</ele><time>2026-05-03T13:00:45.759Z</time></trkpt><trkpt lat="45.581295" lon="10.8795533"><ele>706.0</ele><time>2026-05-03T13:00:46.758Z</time></trkpt><trkpt lat="45.5813183" lon="10.8793517"><ele>706.0</ele><time>2026-05-03T13:00:47.755Z</time></trkpt><trkpt lat="45.5813883" lon="10.8791583"><ele>706.0</ele><time>2026-05-03T13:00:48.756Z</time></trkpt><trkpt lat="45.5815" lon="10.878975"><ele>706.0</ele><time>2026-05-03T13:00:49.754Z</time></trkpt><trkpt lat="45.5816317" lon="10.8787933"><ele>706.0</ele><time>2026-05-03T13:00:50.758Z</time></trkpt><trkpt lat="45.5817667" lon="10.8786133"><ele>706.0</ele><time>2026-05-03T13:00:51.755Z</time></trkpt><trkpt lat="45.5818833" lon="10.8784167"><ele>706.0</ele><time>2026-05-03T13:00:52.755Z</time></trkpt><trkpt lat="45.5819783" lon="10.87823"><ele>709.25</ele><time>2026-05-03T13:00:53.755Z</time></trkpt><trkpt lat="45.5820683" lon="10.8780783"><ele>712.5</ele><time>2026-05-03T13:00:54.759Z</time></trkpt><trkpt lat="45.58214" lon="10.87795"><ele>715.75</ele><time>2026-05-03T13:00:55.754Z</time></trkpt><trkpt lat="45.58218" lon="10.8777983"><ele>719.0</ele><time>2026-05-03T13:00:56.752Z</time></trkpt><trkpt lat="45.58217" lon="10.87763"><ele>718.3333333333333</ele><time>2026-05-03T13:00:57.759Z</time></trkpt><trkpt lat="45.58211" lon="10.8774433"><ele>717.6666666666666</ele><time>2026-05-03T13:00:58.756Z</time></trkpt><trkpt lat="45.5820267" lon="10.87726"><ele>717.0</ele><time>2026-05-03T13:00:59.752Z</time></trkpt><trkpt lat="45.58193" lon="10.8770883"><ele>714.6666666666666</ele><time>2026-05-03T13:01:00.755Z</time></trkpt><trkpt lat="45.5818017" lon="10.8769417"><ele>712.3333333333333</ele><time>2026-05-03T13:01:01.753Z</time></trkpt><trkpt lat="45.5816483" lon="10.8768417"><ele>710.0</ele><time>2026-05-03T13:01:02.755Z</time></trkpt><trkpt lat="45.5814967" lon="10.8767417"><ele>710.0</ele><time>2026-05-03T13:01:03.755Z</time></trkpt><trkpt lat="45.5813517" lon="10.87662"><ele>710.0</ele><time>2026-05-03T13:01:04.753Z</time></trkpt><trkpt lat="45.5812217" lon="10.8764767"><ele>710.0</ele><time>2026-05-03T13:01:05.755Z</time></trkpt><trkpt lat="45.5811133" lon="10.8762967"><ele>707.3333333333333</ele><time>2026-05-03T13:01:06.756Z</time></trkpt><trkpt lat="45.5810283" lon="10.876085"><ele>704.6666666666666</ele><time>2026-05-03T13:01:07.752Z</time></trkpt><trkpt lat="45.5809333" lon="10.8758683"><ele>702.0</ele><time>2026-05-03T13:01:08.754Z</time></trkpt><trkpt lat="45.58081" lon="10.875655"><ele>702.0</ele><time>2026-05-03T13:01:09.757Z</time></trkpt><trkpt lat="45.5806683" lon="10.875445"><ele>702.0</ele><time>2026-05-03T13:01:10.757Z</time></trkpt><trkpt lat="45.5805233" lon="10.8752467"><ele>702.0</ele><time>2026-05-03T13:01:11.756Z</time></trkpt><trkpt lat="45.58038" lon="10.875065"><ele>698.3333333333334</ele><time>2026-05-03T13:01:12.758Z</time></trkpt><trkpt lat="45.5802333" lon="10.8748967"><ele>694.6666666666667</ele><time>2026-05-03T13:01:13.759Z</time></trkpt><trkpt lat="45.58007" lon="10.87474"><ele>691.0</ele><time>2026-05-03T13:01:14.755Z</time></trkpt><trkpt lat="45.5798883" lon="10.8745933"><ele>691.0</ele><time>2026-05-03T13:01:15.752Z</time></trkpt><trkpt lat="45.5797017" lon="10.87445"><ele>691.0</ele><time>2026-05-03T13:01:16.752Z</time></trkpt><trkpt lat="45.5795167" lon="10.8743183"><ele>691.0</ele><time>2026-05-03T13:01:17.756Z</time></trkpt><trkpt lat="45.5793367" lon="10.8742117"><ele>691.6666666666667</ele><time>2026-05-03T13:01:18.753Z</time></trkpt><trkpt lat="45.579155" lon="10.8741433"><ele>692.3333333333334</ele><time>2026-05-03T13:01:19.754Z</time></trkpt><trkpt lat="45.5789717" lon="10.8741167"><ele>693.0</ele><time>2026-05-03T13:01:20.751Z</time></trkpt><trkpt lat="45.578795" lon="10.8741133"><ele>686.3333333333334</ele><time>2026-05-03T13:01:21.757Z</time></trkpt><trkpt lat="45.5786283" lon="10.874095"><ele>679.6666666666667</ele><time>2026-05-03T13:01:22.761Z</time></trkpt><trkpt lat="45.5784733" lon="10.8740483"><ele>673.0</ele><time>2026-05-03T13:01:23.758Z</time></trkpt><trkpt lat="45.5783317" lon="10.8739717"><ele>673.0</ele><time>2026-05-03T13:01:24.764Z</time></trkpt><trkpt lat="45.5781983" lon="10.87389"><ele>673.0</ele><time>2026-05-03T13:01:25.752Z</time></trkpt><trkpt lat="45.57807" lon="10.8738067"><ele>673.0</ele><time>2026-05-03T13:01:26.755Z</time></trkpt><trkpt lat="45.5779517" lon="10.8737217"><ele>673.0</ele><time>2026-05-03T13:01:27.751Z</time></trkpt><trkpt lat="45.5778383" lon="10.8736283"><ele>673.25</ele><time>2026-05-03T13:01:28.759Z</time></trkpt><trkpt lat="45.57773" lon="10.8735233"><ele>673.5</ele><time>2026-05-03T13:01:29.757Z</time></trkpt><trkpt lat="45.5776367" lon="10.8734133"><ele>673.75</ele><time>2026-05-03T13:01:30.757Z</time></trkpt><trkpt lat="45.5775467" lon="10.8733033"><ele>674.0</ele><time>2026-05-03T13:01:31.759Z</time></trkpt><trkpt lat="45.57746" lon="10.8731883"><ele>674.0</ele><time>2026-05-03T13:01:32.757Z</time></trkpt><trkpt lat="45.5773767" lon="10.8730833"><ele>674.0</ele><time>2026-05-03T13:01:33.758Z</time></trkpt><trkpt lat="45.5772917" lon="10.8729883"><ele>674.0</ele><time>2026-05-03T13:01:34.754Z</time></trkpt><trkpt lat="45.5771983" lon="10.8728967"><ele>674.0</ele><time>2026-05-03T13:01:35.753Z</time></trkpt><trkpt lat="45.5771" lon="10.872815"><ele>674.0</ele><time>2026-05-03T13:01:36.76Z</time></trkpt><trkpt lat="45.5769983" lon="10.8727533"><ele>671.8000000000001</ele><time>2026-05-03T13:01:37.76Z</time></trkpt><trkpt lat="45.5768983" lon="10.8727267"><ele>669.6</ele><time>2026-05-03T13:01:38.757Z</time></trkpt><trkpt lat="45.5767983" lon="10.8727417"><ele>667.4</ele><time>2026-05-03T13:01:39.756Z</time></trkpt><trkpt lat="45.5766967" lon="10.872805"><ele>665.2</ele><time>2026-05-03T13:01:40.754Z</time></trkpt><trkpt lat="45.5766" lon="10.8729"><ele>663.0</ele><time>2026-05-03T13:01:41.755Z</time></trkpt><trkpt lat="45.5765017" lon="10.873"><ele>663.0</ele><time>2026-05-03T13:01:42.754Z</time></trkpt><trkpt lat="45.5764" lon="10.8730933"><ele>663.0</ele><time>2026-05-03T13:01:43.759Z</time></trkpt><trkpt lat="45.5762833" lon="10.8731683"><ele>663.0</ele><time>2026-05-03T13:01:44.753Z</time></trkpt><trkpt lat="45.57615" lon="10.8732217"><ele>663.0</ele><time>2026-05-03T13:01:45.754Z</time></trkpt><trkpt lat="45.5760167" lon="10.8732483"><ele>662.25</ele><time>2026-05-03T13:01:46.755Z</time></trkpt><trkpt lat="45.5758867" lon="10.8732533"><ele>661.5</ele><time>2026-05-03T13:01:47.756Z</time></trkpt><trkpt lat="45.5757583" lon="10.8732367"><ele>660.75</ele><time>2026-05-03T13:01:48.756Z</time></trkpt><trkpt lat="45.5756333" lon="10.8732017"><ele>660.0</ele><time>2026-05-03T13:01:49.755Z</time></trkpt><trkpt lat="45.57552" lon="10.8731583"><ele>660.0</ele><time>2026-05-03T13:01:50.756Z</time></trkpt><trkpt lat="45.5754117" lon="10.8731"><ele>660.0</ele><time>2026-05-03T13:01:51.754Z</time></trkpt><trkpt lat="45.57531" lon="10.8730267"><ele>660.0</ele><time>2026-05-03T13:01:52.757Z</time></trkpt><trkpt lat="45.5752067" lon="10.87293"><ele>660.0</ele><time>2026-05-03T13:01:53.752Z</time></trkpt><trkpt lat="45.5750917" lon="10.8727983"><ele>660.3333333333334</ele><time>2026-05-03T13:01:54.767Z</time></trkpt><trkpt lat="45.57498" lon="10.8726333"><ele>660.6666666666667</ele><time>2026-05-03T13:01:55.761Z</time></trkpt><trkpt lat="45.5748617" lon="10.8724567"><ele>661.0</ele><time>2026-05-03T13:01:56.756Z</time></trkpt><trkpt lat="45.57473" lon="10.8722883"><ele>661.0</ele><time>2026-05-03T13:01:57.758Z</time></trkpt><trkpt lat="45.57458" lon="10.8721367"><ele>661.0</ele><time>2026-05-03T13:01:58.753Z</time></trkpt><trkpt lat="45.5744167" lon="10.8719883"><ele>661.0</ele><time>2026-05-03T13:01:59.757Z</time></trkpt><trkpt lat="45.5742467" lon="10.8718417"><ele>660.6666666666667</ele><time>2026-05-03T13:02:00.754Z</time></trkpt><trkpt lat="45.5740733" lon="10.8716917"><ele>660.3333333333334</ele><time>2026-05-03T13:02:01.751Z</time></trkpt><trkpt lat="45.5738933" lon="10.871525"><ele>660.0</ele><time>2026-05-03T13:02:02.755Z</time></trkpt><trkpt lat="45.5737167" lon="10.8713333"><ele>660.3333333333334</ele><time>2026-05-03T13:02:03.755Z</time></trkpt><trkpt lat="45.57355" lon="10.8711333"><ele>660.6666666666667</ele><time>2026-05-03T13:02:04.754Z</time></trkpt><trkpt lat="45.5733983" lon="10.8709383"><ele>661.0</ele><time>2026-05-03T13:02:05.756Z</time></trkpt><trkpt lat="45.57326" lon="10.8707583"><ele>661.0</ele><time>2026-05-03T13:02:06.757Z</time></trkpt><trkpt lat="45.573135" lon="10.870595"><ele>661.0</ele><time>2026-05-03T13:02:07.76Z</time></trkpt><trkpt lat="45.573015" lon="10.8704433"><ele>661.0</ele><time>2026-05-03T13:02:08.76Z</time></trkpt><trkpt lat="45.572875" lon="10.870315"><ele>657.3333333333334</ele><time>2026-05-03T13:02:09.753Z</time></trkpt><trkpt lat="45.57271" lon="10.8702133"><ele>653.6666666666666</ele><time>2026-05-03T13:02:10.761Z</time></trkpt><trkpt lat="45.5725267" lon="10.8701517"><ele>650.0</ele><time>2026-05-03T13:02:11.754Z</time></trkpt><trkpt lat="45.5723367" lon="10.8701383"><ele>650.0</ele><time>2026-05-03T13:02:12.759Z</time></trkpt><trkpt lat="45.5721633" lon="10.8701733"><ele>650.0</ele><time>2026-05-03T13:02:13.762Z</time></trkpt><trkpt lat="45.5720117" lon="10.8702467"><ele>650.0</ele><time>2026-05-03T13:02:14.752Z</time></trkpt><trkpt lat="45.57187" lon="10.8703767"><ele>646.6666666666666</ele><time>2026-05-03T13:02:15.756Z</time></trkpt><trkpt lat="45.571755" lon="10.8705833"><ele>643.3333333333334</ele><time>2026-05-03T13:02:16.755Z</time></trkpt><trkpt lat="45.5716417" lon="10.87081"><ele>640.0</ele><time>2026-05-03T13:02:17.758Z</time></trkpt><trkpt lat="45.5715383" lon="10.8710283"><ele>640.0</ele><time>2026-05-03T13:02:18.76Z</time></trkpt><trkpt lat="45.5714483" lon="10.8712233"><ele>640.0</ele><time>2026-05-03T13:02:19.754Z</time></trkpt><trkpt lat="45.5713783" lon="10.871405"><ele>640.0</ele><time>2026-05-03T13:02:20.761Z</time></trkpt><trkpt lat="45.5713417" lon="10.8716033"><ele>637.3333333333334</ele><time>2026-05-03T13:02:21.757Z</time></trkpt><trkpt lat="45.57134" lon="10.8718267"><ele>634.6666666666666</ele><time>2026-05-03T13:02:22.758Z</time></trkpt><trkpt lat="45.5713667" lon="10.87207"><ele>632.0</ele><time>2026-05-03T13:02:23.758Z</time></trkpt><trkpt lat="45.5714067" lon="10.8723"><ele>632.0</ele><time>2026-05-03T13:02:24.757Z</time></trkpt><trkpt lat="45.571445" lon="10.8724933"><ele>632.0</ele><time>2026-05-03T13:02:25.756Z</time></trkpt><trkpt lat="45.57148" lon="10.87264"><ele>632.0</ele><time>2026-05-03T13:02:26.756Z</time></trkpt><trkpt lat="45.5714967" lon="10.8727517"><ele>632.0</ele><time>2026-05-03T13:02:27.759Z</time></trkpt><trkpt lat="45.5714533" lon="10.87285"><ele>632.0</ele><time>2026-05-03T13:02:29.759Z</time></trkpt><trkpt lat="45.5713983" lon="10.87279"><ele>632.0</ele><time>2026-05-03T13:02:30.756Z</time></trkpt><trkpt lat="45.5713417" lon="10.8727033"><ele>632.0</ele><time>2026-05-03T13:02:31.757Z</time></trkpt><trkpt lat="45.5712683" lon="10.8725783"><ele>632.0</ele><time>2026-05-03T13:02:32.758Z</time></trkpt><trkpt lat="45.571155" lon="10.87241"><ele>632.0</ele><time>2026-05-03T13:02:33.756Z</time></trkpt><trkpt lat="45.5710517" lon="10.8722617"><ele>627.0</ele><time>2026-05-03T13:02:34.761Z</time></trkpt><trkpt lat="45.57095" lon="10.8721517"><ele>622.0</ele><time>2026-05-03T13:02:35.751Z</time></trkpt><trkpt lat="45.5708467" lon="10.8721033"><ele>617.0</ele><time>2026-05-03T13:02:36.753Z</time></trkpt><trkpt lat="45.5707483" lon="10.872125"><ele>612.0</ele><time>2026-05-03T13:02:37.756Z</time></trkpt><trkpt lat="45.570665" lon="10.87222"><ele>607.0</ele><time>2026-05-03T13:02:38.757Z</time></trkpt><trkpt lat="45.5706" lon="10.8723667"><ele>607.0</ele><time>2026-05-03T13:02:39.756Z</time></trkpt><trkpt lat="45.5705633" lon="10.8725917"><ele>607.0</ele><time>2026-05-03T13:02:40.757Z</time></trkpt><trkpt lat="45.5705333" lon="10.872825"><ele>607.0</ele><time>2026-05-03T13:02:41.754Z</time></trkpt><trkpt lat="45.5705" lon="10.87305"><ele>605.25</ele><time>2026-05-03T13:02:42.76Z</time></trkpt><trkpt lat="45.5704617" lon="10.8732617"><ele>603.5</ele><time>2026-05-03T13:02:43.753Z</time></trkpt><trkpt lat="45.5704083" lon="10.8734533"><ele>601.75</ele><time>2026-05-03T13:02:44.755Z</time></trkpt><trkpt lat="45.5703317" lon="10.87362"><ele>600.0</ele><time>2026-05-03T13:02:45.753Z</time></trkpt><trkpt lat="45.5702317" lon="10.8737367"><ele>600.0</ele><time>2026-05-03T13:02:46.757Z</time></trkpt><trkpt lat="45.5700833" lon="10.8737917"><ele>600.0</ele><time>2026-05-03T13:02:47.752Z</time></trkpt><trkpt lat="45.569915" lon="10.8737933"><ele>600.0</ele><time>2026-05-03T13:02:48.756Z</time></trkpt><trkpt lat="45.5697433" lon="10.8737833"><ele>600.0</ele><time>2026-05-03T13:02:49.753Z</time></trkpt><trkpt lat="45.5695833" lon="10.8737817"><ele>600.0</ele><time>2026-05-03T13:02:50.757Z</time></trkpt><trkpt lat="45.5694333" lon="10.8738033"><ele>600.0</ele><time>2026-05-03T13:02:51.756Z</time></trkpt><trkpt lat="45.5692783" lon="10.8738433"><ele>601.0</ele><time>2026-05-03T13:02:52.753Z</time></trkpt><trkpt lat="45.5691083" lon="10.873905"><ele>602.0</ele><time>2026-05-03T13:02:53.756Z</time></trkpt><trkpt lat="45.568925" lon="10.873975"><ele>603.0</ele><time>2026-05-03T13:02:54.757Z</time></trkpt><trkpt lat="45.5687283" lon="10.8740517"><ele>603.0</ele><time>2026-05-03T13:02:55.756Z</time></trkpt><trkpt lat="45.5685183" lon="10.8741283"><ele>603.0</ele><time>2026-05-03T13:02:56.759Z</time></trkpt><trkpt lat="45.5683" lon="10.874215"><ele>603.0</ele><time>2026-05-03T13:02:57.758Z</time></trkpt><trkpt lat="45.568075" lon="10.8743083"><ele>599.5</ele><time>2026-05-03T13:02:58.754Z</time></trkpt><trkpt lat="45.5678417" lon="10.8744033"><ele>596.0</ele><time>2026-05-03T13:02:59.764Z</time></trkpt><trkpt lat="45.5676033" lon="10.874495"><ele>596.0</ele><time>2026-05-03T13:03:00.763Z</time></trkpt><trkpt lat="45.56736" lon="10.8745883"><ele>596.0</ele><time>2026-05-03T13:03:01.756Z</time></trkpt><trkpt lat="45.5671183" lon="10.874685"><ele>590.0</ele><time>2026-05-03T13:03:02.759Z</time></trkpt><trkpt lat="45.5668883" lon="10.87478"><ele>584.0</ele><time>2026-05-03T13:03:03.762Z</time></trkpt><trkpt lat="45.56668" lon="10.8748667"><ele>584.0</ele><time>2026-05-03T13:03:04.758Z</time></trkpt><trkpt lat="45.5664967" lon="10.8749417"><ele>584.0</ele><time>2026-05-03T13:03:05.756Z</time></trkpt><trkpt lat="45.5663317" lon="10.8750083"><ele>584.0</ele><time>2026-05-03T13:03:06.761Z</time></trkpt><trkpt lat="45.5661833" lon="10.8750667"><ele>585.4</ele><time>2026-05-03T13:03:07.755Z</time></trkpt><trkpt lat="45.5660533" lon="10.8751167"><ele>586.8</ele><time>2026-05-03T13:03:08.755Z</time></trkpt><trkpt lat="45.5659467" lon="10.8751517"><ele>588.2</ele><time>2026-05-03T13:03:09.763Z</time></trkpt><trkpt lat="45.56585" lon="10.87515"><ele>589.6</ele><time>2026-05-03T13:03:10.762Z</time></trkpt><trkpt lat="45.5657733" lon="10.8751067"><ele>591.0</ele><time>2026-05-03T13:03:11.757Z</time></trkpt><trkpt lat="45.56576" lon="10.8750167"><ele>589.6</ele><time>2026-05-03T13:03:12.755Z</time></trkpt><trkpt lat="45.565805" lon="10.8749267"><ele>588.2</ele><time>2026-05-03T13:03:13.757Z</time></trkpt><trkpt lat="45.5658883" lon="10.8748467"><ele>586.8</ele><time>2026-05-03T13:03:14.76Z</time></trkpt><trkpt lat="45.56601" lon="10.8748033"><ele>585.4</ele><time>2026-05-03T13:03:15.758Z</time></trkpt><trkpt lat="45.5661467" lon="10.8747533"><ele>584.0</ele><time>2026-05-03T13:03:16.756Z</time></trkpt><trkpt lat="45.5662883" lon="10.8746617"><ele>584.0</ele><time>2026-05-03T13:03:17.759Z</time></trkpt><trkpt lat="45.566415" lon="10.8745117"><ele>584.0</ele><time>2026-05-03T13:03:18.756Z</time></trkpt><trkpt lat="45.5665117" lon="10.8742983"><ele>584.0</ele><time>2026-05-03T13:03:19.759Z</time></trkpt><trkpt lat="45.5665867" lon="10.8740417"><ele>580.0</ele><time>2026-05-03T13:03:20.759Z</time></trkpt><trkpt lat="45.5666633" lon="10.8737733"><ele>576.0</ele><time>2026-05-03T13:03:21.759Z</time></trkpt><trkpt lat="45.566745" lon="10.873485"><ele>572.0</ele><time>2026-05-03T13:03:22.756Z</time></trkpt><trkpt lat="45.5668283" lon="10.873195"><ele>573.0</ele><time>2026-05-03T13:03:23.761Z</time></trkpt><trkpt lat="45.5669067" lon="10.8729183"><ele>574.0</ele><time>2026-05-03T13:03:24.757Z</time></trkpt><trkpt lat="45.5669817" lon="10.8726533"><ele>575.0</ele><time>2026-05-03T13:03:25.756Z</time></trkpt><trkpt lat="45.5670517" lon="10.8724033"><ele>575.0</ele><time>2026-05-03T13:03:26.754Z</time></trkpt><trkpt lat="45.567115" lon="10.8721633"><ele>575.0</ele><time>2026-05-03T13:03:27.755Z</time></trkpt><trkpt lat="45.5671717" lon="10.8719317"><ele>575.0</ele><time>2026-05-03T13:03:28.758Z</time></trkpt><trkpt lat="45.56721" lon="10.871705"><ele>573.3333333333333</ele><time>2026-05-03T13:03:29.76Z</time></trkpt><trkpt lat="45.5672117" lon="10.8714683"><ele>571.6666666666666</ele><time>2026-05-03T13:03:30.757Z</time></trkpt><trkpt lat="45.5671767" lon="10.8712217"><ele>570.0</ele><time>2026-05-03T13:03:31.751Z</time></trkpt><trkpt lat="45.567125" lon="10.8709633"><ele>569.3333333333334</ele><time>2026-05-03T13:03:32.762Z</time></trkpt><trkpt lat="45.5670733" lon="10.8707017"><ele>568.6666666666667</ele><time>2026-05-03T13:03:33.757Z</time></trkpt><trkpt lat="45.56703" lon="10.870445"><ele>568.0</ele><time>2026-05-03T13:03:34.757Z</time></trkpt><trkpt lat="45.56699" lon="10.870195"><ele>560.0</ele><time>2026-05-03T13:03:35.76Z</time></trkpt><trkpt lat="45.56695" lon="10.8699417"><ele>552.0</ele><time>2026-05-03T13:03:36.756Z</time></trkpt><trkpt lat="45.5669183" lon="10.8696933"><ele>544.0</ele><time>2026-05-03T13:03:37.756Z</time></trkpt><trkpt lat="45.566895" lon="10.8694633"><ele>543.75</ele><time>2026-05-03T13:03:38.754Z</time></trkpt><trkpt lat="45.56687" lon="10.869255"><ele>543.5</ele><time>2026-05-03T13:03:39.761Z</time></trkpt><trkpt lat="45.5668333" lon="10.8690717"><ele>543.25</ele><time>2026-05-03T13:03:40.759Z</time></trkpt><trkpt lat="45.566765" lon="10.8689233"><ele>543.0</ele><time>2026-05-03T13:03:41.754Z</time></trkpt><trkpt lat="45.5666717" lon="10.8688333"><ele>543.0</ele><time>2026-05-03T13:03:42.758Z</time></trkpt><trkpt lat="45.5665383" lon="10.8688467"><ele>543.0</ele><time>2026-05-03T13:03:43.759Z</time></trkpt><trkpt lat="45.566395" lon="10.86895"><ele>543.0</ele><time>2026-05-03T13:03:44.758Z</time></trkpt><trkpt lat="45.5662583" lon="10.8691"><ele>540.3333333333334</ele><time>2026-05-03T13:03:45.753Z</time></trkpt><trkpt lat="45.5661217" lon="10.8692267"><ele>537.6666666666667</ele><time>2026-05-03T13:03:46.755Z</time></trkpt><trkpt lat="45.5659817" lon="10.8692967"><ele>535.0</ele><time>2026-05-03T13:03:47.754Z</time></trkpt><trkpt lat="45.565835" lon="10.8692867"><ele>535.0</ele><time>2026-05-03T13:03:48.756Z</time></trkpt><trkpt lat="45.565675" lon="10.8692167"><ele>535.0</ele><time>2026-05-03T13:03:49.752Z</time></trkpt><trkpt lat="45.5655067" lon="10.8691117"><ele>535.0</ele><time>2026-05-03T13:03:50.759Z</time></trkpt><trkpt lat="45.565325" lon="10.8689967"><ele>531.3333333333334</ele><time>2026-05-03T13:03:51.756Z</time></trkpt><trkpt lat="45.565125" lon="10.8688817"><ele>527.6666666666666</ele><time>2026-05-03T13:03:52.756Z</time></trkpt><trkpt lat="45.564915" lon="10.8687883"><ele>524.0</ele><time>2026-05-03T13:03:53.755Z</time></trkpt><trkpt lat="45.564705" lon="10.8687333"><ele>520.3333333333333</ele><time>2026-05-03T13:03:54.757Z</time></trkpt><trkpt lat="45.5645033" lon="10.8687083"><ele>516.6666666666666</ele><time>2026-05-03T13:03:55.751Z</time></trkpt><trkpt lat="45.5643183" lon="10.8687067"><ele>513.0</ele><time>2026-05-03T13:03:56.759Z</time></trkpt><trkpt lat="45.5641533" lon="10.86871"><ele>513.0</ele><time>2026-05-03T13:03:57.756Z</time></trkpt><trkpt lat="45.5640117" lon="10.8687"><ele>513.0</ele><time>2026-05-03T13:03:58.756Z</time></trkpt><trkpt lat="45.5639" lon="10.868655"><ele>513.0</ele><time>2026-05-03T13:03:59.76Z</time></trkpt><trkpt lat="45.5638267" lon="10.8685783"><ele>513.0</ele><time>2026-05-03T13:04:00.757Z</time></trkpt><trkpt lat="45.5637883" lon="10.8684783"><ele>513.0</ele><time>2026-05-03T13:04:01.759Z</time></trkpt><trkpt lat="45.5638283" lon="10.8683583"><ele>513.5</ele><time>2026-05-03T13:04:02.765Z</time></trkpt><trkpt lat="45.563905" lon="10.86823"><ele>514.0</ele><time>2026-05-03T13:04:03.755Z</time></trkpt><trkpt lat="45.563995" lon="10.8680917"><ele>514.5</ele><time>2026-05-03T13:04:04.754Z</time></trkpt><trkpt lat="45.5640767" lon="10.8679533"><ele>515.0</ele><time>2026-05-03T13:04:05.755Z</time></trkpt><trkpt lat="45.5641283" lon="10.86782"><ele>515.0</ele><time>2026-05-03T13:04:06.754Z</time></trkpt><trkpt lat="45.5641467" lon="10.8676867"><ele>515.0</ele><time>2026-05-03T13:04:07.76Z</time></trkpt><trkpt lat="45.5641267" lon="10.8675567"><ele>515.0</ele><time>2026-05-03T13:04:08.756Z</time></trkpt><trkpt lat="45.5640567" lon="10.8674533"><ele>515.0</ele><time>2026-05-03T13:04:09.756Z</time></trkpt><trkpt lat="45.5639267" lon="10.867375"><ele>515.0</ele><time>2026-05-03T13:04:10.76Z</time></trkpt><trkpt lat="45.5637717" lon="10.8673067"><ele>511.0</ele><time>2026-05-03T13:04:11.757Z</time></trkpt><trkpt lat="45.5635967" lon="10.8672283"><ele>507.0</ele><time>2026-05-03T13:04:12.757Z</time></trkpt><trkpt lat="45.5634133" lon="10.8671217"><ele>503.0</ele><time>2026-05-03T13:04:13.761Z</time></trkpt><trkpt lat="45.56322" lon="10.867"><ele>503.0</ele><time>2026-05-03T13:04:14.758Z</time></trkpt><trkpt lat="45.5630167" lon="10.8668717"><ele>503.0</ele><time>2026-05-03T13:04:15.753Z</time></trkpt><trkpt lat="45.5628067" lon="10.8667383"><ele>501.5</ele><time>2026-05-03T13:04:16.755Z</time></trkpt><trkpt lat="45.5625867" lon="10.8666033"><ele>500.0</ele><time>2026-05-03T13:04:17.757Z</time></trkpt><trkpt lat="45.56237" lon="10.8664817"><ele>500.0</ele><time>2026-05-03T13:04:18.765Z</time></trkpt><trkpt lat="45.562155" lon="10.8663817"><ele>500.0</ele><time>2026-05-03T13:04:19.758Z</time></trkpt><trkpt lat="45.561935" lon="10.86631"><ele>497.0</ele><time>2026-05-03T13:04:20.755Z</time></trkpt><trkpt lat="45.5617133" lon="10.866275"><ele>494.0</ele><time>2026-05-03T13:04:21.761Z</time></trkpt><trkpt lat="45.561505" lon="10.8662833"><ele>491.0</ele><time>2026-05-03T13:04:22.757Z</time></trkpt><trkpt lat="45.5613117" lon="10.8663467"><ele>489.66666666666663</ele><time>2026-05-03T13:04:23.758Z</time></trkpt><trkpt lat="45.56114" lon="10.8664617"><ele>488.33333333333337</ele><time>2026-05-03T13:04:24.758Z</time></trkpt><trkpt lat="45.5609983" lon="10.8666"><ele>487.0</ele><time>2026-05-03T13:04:25.756Z</time></trkpt><trkpt lat="45.560875" lon="10.8667383"><ele>484.5</ele><time>2026-05-03T13:04:26.757Z</time></trkpt><trkpt lat="45.56076" lon="10.8668383"><ele>482.0</ele><time>2026-05-03T13:04:27.758Z</time></trkpt><trkpt lat="45.5606417" lon="10.8668983"><ele>479.5</ele><time>2026-05-03T13:04:28.754Z</time></trkpt><trkpt lat="45.5605117" lon="10.8668917"><ele>477.0</ele><time>2026-05-03T13:04:29.752Z</time></trkpt><trkpt lat="45.56037" lon="10.86682"><ele>477.66666666666663</ele><time>2026-05-03T13:04:30.76Z</time></trkpt><trkpt lat="45.5602133" lon="10.8667233"><ele>478.3333333333333</ele><time>2026-05-03T13:04:31.755Z</time></trkpt><trkpt lat="45.5600483" lon="10.8666067"><ele>479.0</ele><time>2026-05-03T13:04:32.755Z</time></trkpt><trkpt lat="45.5598717" lon="10.8664783"><ele>479.0</ele><time>2026-05-03T13:04:33.755Z</time></trkpt><trkpt lat="45.55968" lon="10.8663383"><ele>479.0</ele><time>2026-05-03T13:04:34.759Z</time></trkpt><trkpt lat="45.55948" lon="10.8661917"><ele>479.0</ele><time>2026-05-03T13:04:35.755Z</time></trkpt><trkpt lat="45.5592767" lon="10.8660417"><ele>480.3333333333333</ele><time>2026-05-03T13:04:36.752Z</time></trkpt><trkpt lat="45.5590783" lon="10.8659033"><ele>481.66666666666663</ele><time>2026-05-03T13:04:37.757Z</time></trkpt><trkpt lat="45.5588767" lon="10.8657833"><ele>483.0</ele><time>2026-05-03T13:04:38.759Z</time></trkpt><trkpt lat="45.5586717" lon="10.8656883"><ele>477.33333333333337</ele><time>2026-05-03T13:04:39.758Z</time></trkpt><trkpt lat="45.558475" lon="10.86561"><ele>471.6666666666667</ele><time>2026-05-03T13:04:40.76Z</time></trkpt><trkpt lat="45.558285" lon="10.8655533"><ele>466.0</ele><time>2026-05-03T13:04:41.757Z</time></trkpt><trkpt lat="45.5580967" lon="10.8655517"><ele>466.0</ele><time>2026-05-03T13:04:42.759Z</time></trkpt><trkpt lat="45.557905" lon="10.8656083"><ele>466.0</ele><time>2026-05-03T13:04:43.755Z</time></trkpt><trkpt lat="45.5577133" lon="10.86573"><ele>466.0</ele><time>2026-05-03T13:04:44.76Z</time></trkpt><trkpt lat="45.5575133" lon="10.8658767"><ele>462.6666666666667</ele><time>2026-05-03T13:04:45.758Z</time></trkpt><trkpt lat="45.557305" lon="10.8660083"><ele>459.33333333333337</ele><time>2026-05-03T13:04:46.752Z</time></trkpt><trkpt lat="45.557095" lon="10.866105"><ele>456.0</ele><time>2026-05-03T13:04:47.755Z</time></trkpt><trkpt lat="45.5568933" lon="10.8662017"><ele>456.0</ele><time>2026-05-03T13:04:48.754Z</time></trkpt><trkpt lat="45.5567067" lon="10.8663333"><ele>456.0</ele><time>2026-05-03T13:04:49.76Z</time></trkpt><trkpt lat="45.55655" lon="10.8664883"><ele>456.0</ele><time>2026-05-03T13:04:50.758Z</time></trkpt><trkpt lat="45.5564183" lon="10.8666367"><ele>456.0</ele><time>2026-05-03T13:04:51.767Z</time></trkpt><trkpt lat="45.5562867" lon="10.866755"><ele>456.0</ele><time>2026-05-03T13:04:52.757Z</time></trkpt><trkpt lat="45.5561367" lon="10.8668267"><ele>456.0</ele><time>2026-05-03T13:04:53.755Z</time></trkpt><trkpt lat="45.55597" lon="10.8668617"><ele>458.66666666666663</ele><time>2026-05-03T13:04:54.754Z</time></trkpt><trkpt lat="45.5557967" lon="10.8668617"><ele>461.3333333333333</ele><time>2026-05-03T13:04:55.755Z</time></trkpt><trkpt lat="45.555615" lon="10.8668033"><ele>464.0</ele><time>2026-05-03T13:04:56.76Z</time></trkpt><trkpt lat="45.5554517" lon="10.8666967"><ele>459.66666666666663</ele><time>2026-05-03T13:04:57.762Z</time></trkpt><trkpt lat="45.5553167" lon="10.8665283"><ele>455.33333333333337</ele><time>2026-05-03T13:04:58.756Z</time></trkpt><trkpt lat="45.5551883" lon="10.8663433"><ele>451.0</ele><time>2026-05-03T13:04:59.754Z</time></trkpt><trkpt lat="45.5550367" lon="10.8661833"><ele>451.0</ele><time>2026-05-03T13:05:00.755Z</time></trkpt><trkpt lat="45.5548567" lon="10.866075"><ele>451.0</ele><time>2026-05-03T13:05:01.758Z</time></trkpt><trkpt lat="45.5546583" lon="10.86602"><ele>451.0</ele><time>2026-05-03T13:05:02.755Z</time></trkpt><trkpt lat="45.55445" lon="10.866015"><ele>448.33333333333337</ele><time>2026-05-03T13:05:03.752Z</time></trkpt><trkpt lat="45.5542417" lon="10.8660383"><ele>445.66666666666663</ele><time>2026-05-03T13:05:04.76Z</time></trkpt><trkpt lat="45.5540467" lon="10.8660767"><ele>443.0</ele><time>2026-05-03T13:05:05.756Z</time></trkpt><trkpt lat="45.5538617" lon="10.86612"><ele>444.66666666666663</ele><time>2026-05-03T13:05:06.756Z</time></trkpt><trkpt lat="45.5536833" lon="10.8661783"><ele>446.33333333333337</ele><time>2026-05-03T13:05:07.756Z</time></trkpt><trkpt lat="45.553505" lon="10.866225"><ele>448.0</ele><time>2026-05-03T13:05:08.756Z</time></trkpt><trkpt lat="45.5533233" lon="10.8662517"><ele>448.0</ele><time>2026-05-03T13:05:09.755Z</time></trkpt><trkpt lat="45.5531333" lon="10.8662567"><ele>448.0</ele><time>2026-05-03T13:05:10.758Z</time></trkpt><trkpt lat="45.5529367" lon="10.8662433"><ele>448.0</ele><time>2026-05-03T13:05:11.762Z</time></trkpt><trkpt lat="45.5527333" lon="10.866205"><ele>447.6666666666667</ele><time>2026-05-03T13:05:12.751Z</time></trkpt><trkpt lat="45.552525" lon="10.8661583"><ele>447.33333333333337</ele><time>2026-05-03T13:05:13.758Z</time></trkpt><trkpt lat="45.55233" lon="10.86612"><ele>447.0</ele><time>2026-05-03T13:05:14.758Z</time></trkpt><trkpt lat="45.5521533" lon="10.8661083"><ele>448.33333333333337</ele><time>2026-05-03T13:05:15.758Z</time></trkpt><trkpt lat="45.55199" lon="10.8661283"><ele>449.6666666666667</ele><time>2026-05-03T13:05:16.757Z</time></trkpt><trkpt lat="45.5518383" lon="10.8661583"><ele>451.0</ele><time>2026-05-03T13:05:17.76Z</time></trkpt><trkpt lat="45.55169" lon="10.866195"><ele>451.0</ele><time>2026-05-03T13:05:18.759Z</time></trkpt><trkpt lat="45.5515317" lon="10.8661917"><ele>451.0</ele><time>2026-05-03T13:05:19.754Z</time></trkpt><trkpt lat="45.55136" lon="10.866135"><ele>451.0</ele><time>2026-05-03T13:05:20.757Z</time></trkpt><trkpt lat="45.551185" lon="10.8660283"><ele>451.33333333333337</ele><time>2026-05-03T13:05:21.755Z</time></trkpt><trkpt lat="45.5510033" lon="10.8659"><ele>451.66666666666663</ele><time>2026-05-03T13:05:22.756Z</time></trkpt><trkpt lat="45.5508217" lon="10.8657833"><ele>452.0</ele><time>2026-05-03T13:05:23.758Z</time></trkpt><trkpt lat="45.5506483" lon="10.865675"><ele>452.0</ele><time>2026-05-03T13:05:24.756Z</time></trkpt><trkpt lat="45.550485" lon="10.865575"><ele>452.0</ele><time>2026-05-03T13:05:25.755Z</time></trkpt><trkpt lat="45.5503233" lon="10.8654983"><ele>452.0</ele><time>2026-05-03T13:05:26.757Z</time></trkpt><trkpt lat="45.550155" lon="10.86547"><ele>450.66666666666663</ele><time>2026-05-03T13:05:27.757Z</time></trkpt><trkpt lat="45.54997" lon="10.8654967"><ele>449.33333333333337</ele><time>2026-05-03T13:05:28.766Z</time></trkpt><trkpt lat="45.549775" lon="10.8655767"><ele>448.0</ele><time>2026-05-03T13:05:29.76Z</time></trkpt><trkpt lat="45.549575" lon="10.8656767"><ele>448.33333333333337</ele><time>2026-05-03T13:05:30.759Z</time></trkpt><trkpt lat="45.5493683" lon="10.865785"><ele>448.66666666666663</ele><time>2026-05-03T13:05:31.757Z</time></trkpt><trkpt lat="45.5491583" lon="10.8658933"><ele>449.0</ele><time>2026-05-03T13:05:32.755Z</time></trkpt><trkpt lat="45.5489433" lon="10.866005"><ele>449.0</ele><time>2026-05-03T13:05:33.762Z</time></trkpt><trkpt lat="45.5487283" lon="10.86612"><ele>449.0</ele><time>2026-05-03T13:05:34.753Z</time></trkpt><trkpt lat="45.5485283" lon="10.866235"><ele>449.0</ele><time>2026-05-03T13:05:35.755Z</time></trkpt><trkpt lat="45.54835" lon="10.8663533"><ele>449.0</ele><time>2026-05-03T13:05:36.761Z</time></trkpt><trkpt lat="45.5481917" lon="10.8664817"><ele>449.0</ele><time>2026-05-03T13:05:37.757Z</time></trkpt><trkpt lat="45.54805" lon="10.8666217"><ele>449.0</ele><time>2026-05-03T13:05:38.756Z</time></trkpt><trkpt lat="45.5479233" lon="10.8667617"><ele>446.5</ele><time>2026-05-03T13:05:39.76Z</time></trkpt><trkpt lat="45.5478017" lon="10.8669"><ele>444.0</ele><time>2026-05-03T13:05:40.755Z</time></trkpt><trkpt lat="45.5476883" lon="10.8670167"><ele>441.5</ele><time>2026-05-03T13:05:41.757Z</time></trkpt><trkpt lat="45.5475817" lon="10.8670983"><ele>439.0</ele><time>2026-05-03T13:05:42.755Z</time></trkpt><trkpt lat="45.5474683" lon="10.8671517"><ele>439.0</ele><time>2026-05-03T13:05:43.757Z</time></trkpt><trkpt lat="45.54734" lon="10.8671617"><ele>439.0</ele><time>2026-05-03T13:05:44.754Z</time></trkpt><trkpt lat="45.5471917" lon="10.8671233"><ele>439.0</ele><time>2026-05-03T13:05:45.756Z</time></trkpt><trkpt lat="45.5470267" lon="10.867055"><ele>434.6666666666667</ele><time>2026-05-03T13:05:46.76Z</time></trkpt><trkpt lat="45.5468433" lon="10.86698"><ele>430.33333333333337</ele><time>2026-05-03T13:05:47.759Z</time></trkpt><trkpt lat="45.546655" lon="10.8669"><ele>426.0</ele><time>2026-05-03T13:05:48.754Z</time></trkpt><trkpt lat="45.546465" lon="10.8668"><ele>427.0</ele><time>2026-05-03T13:05:49.76Z</time></trkpt><trkpt lat="45.5462683" lon="10.8666717"><ele>428.0</ele><time>2026-05-03T13:05:50.754Z</time></trkpt><trkpt lat="45.5460667" lon="10.8665333"><ele>429.0</ele><time>2026-05-03T13:05:51.76Z</time></trkpt><trkpt lat="45.5458633" lon="10.866395"><ele>429.0</ele><time>2026-05-03T13:05:52.757Z</time></trkpt><trkpt lat="45.5456683" lon="10.86626"><ele>429.0</ele><time>2026-05-03T13:05:53.759Z</time></trkpt><trkpt lat="45.5454983" lon="10.8661283"><ele>429.0</ele><time>2026-05-03T13:05:54.754Z</time></trkpt><trkpt lat="45.54535" lon="10.8659917"><ele>426.66666666666663</ele><time>2026-05-03T13:05:55.752Z</time></trkpt><trkpt lat="45.5452167" lon="10.8658333"><ele>424.3333333333333</ele><time>2026-05-03T13:05:56.76Z</time></trkpt><trkpt lat="45.5450983" lon="10.8656433"><ele>422.0</ele><time>2026-05-03T13:05:57.755Z</time></trkpt><trkpt lat="45.5449817" lon="10.8654417"><ele>422.0</ele><time>2026-05-03T13:05:58.785Z</time></trkpt><trkpt lat="45.5448633" lon="10.865245"><ele>422.0</ele><time>2026-05-03T13:05:59.756Z</time></trkpt><trkpt lat="45.54475" lon="10.8650633"><ele>422.0</ele><time>2026-05-03T13:06:00.76Z</time></trkpt><trkpt lat="45.5446317" lon="10.8649083"><ele>418.3333333333333</ele><time>2026-05-03T13:06:01.753Z</time></trkpt><trkpt lat="45.544505" lon="10.8647783"><ele>414.66666666666663</ele><time>2026-05-03T13:06:02.756Z</time></trkpt><trkpt lat="45.5443633" lon="10.8646817"><ele>411.0</ele><time>2026-05-03T13:06:03.757Z</time></trkpt><trkpt lat="45.5442017" lon="10.8646267"><ele>411.0</ele><time>2026-05-03T13:06:04.759Z</time></trkpt><trkpt lat="45.544045" lon="10.864625"><ele>411.0</ele><time>2026-05-03T13:06:05.751Z</time></trkpt><trkpt lat="45.5439017" lon="10.864685"><ele>411.0</ele><time>2026-05-03T13:06:06.754Z</time></trkpt><trkpt lat="45.54378" lon="10.8647983"><ele>408.0</ele><time>2026-05-03T13:06:07.766Z</time></trkpt><trkpt lat="45.543665" lon="10.86496"><ele>405.0</ele><time>2026-05-03T13:06:08.757Z</time></trkpt><trkpt lat="45.5435517" lon="10.8651567"><ele>402.0</ele><time>2026-05-03T13:06:09.762Z</time></trkpt><trkpt lat="45.543445" lon="10.8653517"><ele>402.0</ele><time>2026-05-03T13:06:10.755Z</time></trkpt><trkpt lat="45.54335" lon="10.865525"><ele>402.0</ele><time>2026-05-03T13:06:11.757Z</time></trkpt><trkpt lat="45.5432783" lon="10.8656933"><ele>402.0</ele><time>2026-05-03T13:06:12.759Z</time></trkpt><trkpt lat="45.5432433" lon="10.865875"><ele>402.0</ele><time>2026-05-03T13:06:13.756Z</time></trkpt><trkpt lat="45.5432467" lon="10.8660983"><ele>402.0</ele><time>2026-05-03T13:06:14.756Z</time></trkpt><trkpt lat="45.5432617" lon="10.866335"><ele>402.0</ele><time>2026-05-03T13:06:15.754Z</time></trkpt><trkpt lat="45.5432833" lon="10.86657"><ele>402.0</ele><time>2026-05-03T13:06:16.758Z</time></trkpt><trkpt lat="45.5433017" lon="10.8667867"><ele>400.5</ele><time>2026-05-03T13:06:17.752Z</time></trkpt><trkpt lat="45.5433183" lon="10.866975"><ele>399.0</ele><time>2026-05-03T13:06:18.757Z</time></trkpt><trkpt lat="45.5433483" lon="10.867145"><ele>397.5</ele><time>2026-05-03T13:06:19.752Z</time></trkpt><trkpt lat="45.5434117" lon="10.86729"><ele>396.0</ele><time>2026-05-03T13:06:20.755Z</time></trkpt><trkpt lat="45.54352" lon="10.8674083"><ele>396.0</ele><time>2026-05-03T13:06:21.754Z</time></trkpt><trkpt lat="45.5436567" lon="10.86751"><ele>396.0</ele><time>2026-05-03T13:06:22.756Z</time></trkpt><trkpt lat="45.54381" lon="10.8676167"><ele>396.0</ele><time>2026-05-03T13:06:23.753Z</time></trkpt><trkpt lat="45.5439683" lon="10.8677183"><ele>390.3333333333333</ele><time>2026-05-03T13:06:24.753Z</time></trkpt><trkpt lat="45.5441417" lon="10.867795"><ele>384.66666666666663</ele><time>2026-05-03T13:06:25.755Z</time></trkpt><trkpt lat="45.544335" lon="10.8678217"><ele>379.0</ele><time>2026-05-03T13:06:26.757Z</time></trkpt><trkpt lat="45.5445433" lon="10.8678267"><ele>380.3333333333333</ele><time>2026-05-03T13:06:27.759Z</time></trkpt><trkpt lat="45.5447467" lon="10.86783"><ele>381.6666666666667</ele><time>2026-05-03T13:06:28.759Z</time></trkpt><trkpt lat="45.5449383" lon="10.8678283"><ele>383.0</ele><time>2026-05-03T13:06:29.76Z</time></trkpt><trkpt lat="45.545115" lon="10.8678383"><ele>383.0</ele><time>2026-05-03T13:06:30.757Z</time></trkpt><trkpt lat="45.5452767" lon="10.8678833"><ele>383.0</ele><time>2026-05-03T13:06:31.758Z</time></trkpt><trkpt lat="45.54542" lon="10.867985"><ele>383.0</ele><time>2026-05-03T13:06:32.757Z</time></trkpt><trkpt lat="45.5455483" lon="10.8681233"><ele>382.5</ele><time>2026-05-03T13:06:33.752Z</time></trkpt><trkpt lat="45.545655" lon="10.8682767"><ele>382.0</ele><time>2026-05-03T13:06:34.754Z</time></trkpt><trkpt lat="45.545745" lon="10.8684317"><ele>381.5</ele><time>2026-05-03T13:06:35.757Z</time></trkpt><trkpt lat="45.5458233" lon="10.8686017"><ele>381.0</ele><time>2026-05-03T13:06:36.761Z</time></trkpt><trkpt lat="45.5458917" lon="10.868785"><ele>381.0</ele><time>2026-05-03T13:06:37.756Z</time></trkpt><trkpt lat="45.5459667" lon="10.8689617"><ele>381.0</ele><time>2026-05-03T13:06:38.759Z</time></trkpt><trkpt lat="45.5460717" lon="10.8691033"><ele>381.0</ele><time>2026-05-03T13:06:39.753Z</time></trkpt><trkpt lat="45.54619" lon="10.8692017"><ele>381.0</ele><time>2026-05-03T13:06:40.756Z</time></trkpt><trkpt lat="45.5463233" lon="10.86926"><ele>383.0</ele><time>2026-05-03T13:06:41.753Z</time></trkpt><trkpt lat="45.5464683" lon="10.8692833"><ele>385.0</ele><time>2026-05-03T13:06:42.756Z</time></trkpt><trkpt lat="45.5466033" lon="10.8692683"><ele>387.0</ele><time>2026-05-03T13:06:43.76Z</time></trkpt><trkpt lat="45.5467183" lon="10.8692417"><ele>389.0</ele><time>2026-05-03T13:06:44.756Z</time></trkpt><trkpt lat="45.54682" lon="10.8692117"><ele>389.0</ele><time>2026-05-03T13:06:45.757Z</time></trkpt><trkpt lat="45.5469067" lon="10.8691933"><ele>389.0</ele><time>2026-05-03T13:06:46.755Z</time></trkpt><trkpt lat="45.5469817" lon="10.869195"><ele>389.0</ele><time>2026-05-03T13:06:47.757Z</time></trkpt><trkpt lat="45.5470517" lon="10.8692067"><ele>389.0</ele><time>2026-05-03T13:06:48.755Z</time></trkpt><trkpt lat="45.5471" lon="10.86932"><ele>389.0</ele><time>2026-05-03T13:06:50.755Z</time></trkpt><trkpt lat="45.5469433" lon="10.8693617"><ele>381.66666666666663</ele><time>2026-05-03T13:06:51.755Z</time></trkpt><trkpt lat="45.5467983" lon="10.8694083"><ele>374.3333333333333</ele><time>2026-05-03T13:06:52.758Z</time></trkpt><trkpt lat="45.5466133" lon="10.86947"><ele>367.0</ele><time>2026-05-03T13:06:53.756Z</time></trkpt><trkpt lat="45.5464217" lon="10.869535"><ele>367.0</ele><time>2026-05-03T13:06:54.757Z</time></trkpt><trkpt lat="45.5462367" lon="10.869585"><ele>367.0</ele><time>2026-05-03T13:06:55.756Z</time></trkpt><trkpt lat="45.5460533" lon="10.869595"><ele>367.0</ele><time>2026-05-03T13:06:56.757Z</time></trkpt><trkpt lat="45.5458817" lon="10.869555"><ele>365.66666666666663</ele><time>2026-05-03T13:06:57.756Z</time></trkpt><trkpt lat="45.54571" lon="10.8694667"><ele>364.3333333333333</ele><time>2026-05-03T13:06:58.756Z</time></trkpt><trkpt lat="45.54556" lon="10.8693533"><ele>363.0</ele><time>2026-05-03T13:06:59.753Z</time></trkpt><trkpt lat="45.5454483" lon="10.8692133"><ele>362.25</ele><time>2026-05-03T13:07:00.76Z</time></trkpt><trkpt lat="45.5453733" lon="10.86904"><ele>361.5</ele><time>2026-05-03T13:07:01.754Z</time></trkpt><trkpt lat="45.5453167" lon="10.86886"><ele>360.75</ele><time>2026-05-03T13:07:02.754Z</time></trkpt><trkpt lat="45.5452483" lon="10.86871"><ele>360.0</ele><time>2026-05-03T13:07:03.757Z</time></trkpt><trkpt lat="45.5451433" lon="10.8686283"><ele>360.0</ele><time>2026-05-03T13:07:04.755Z</time></trkpt><trkpt lat="45.545005" lon="10.86861"><ele>360.0</ele><time>2026-05-03T13:07:05.759Z</time></trkpt><trkpt lat="45.5448433" lon="10.8686467"><ele>360.0</ele><time>2026-05-03T13:07:06.754Z</time></trkpt><trkpt lat="45.5446667" lon="10.86871"><ele>357.6666666666667</ele><time>2026-05-03T13:07:07.751Z</time></trkpt><trkpt lat="45.544475" lon="10.86878"><ele>355.33333333333337</ele><time>2026-05-03T13:07:08.761Z</time></trkpt><trkpt lat="45.5442817" lon="10.8688517"><ele>353.0</ele><time>2026-05-03T13:07:09.76Z</time></trkpt><trkpt lat="45.5441033" lon="10.8689433"><ele>353.0</ele><time>2026-05-03T13:07:10.757Z</time></trkpt><trkpt lat="45.54393" lon="10.8690667"><ele>353.0</ele><time>2026-05-03T13:07:11.759Z</time></trkpt><trkpt lat="45.54377" lon="10.8692083"><ele>353.0</ele><time>2026-05-03T13:07:12.758Z</time></trkpt><trkpt lat="45.5436217" lon="10.8693533"><ele>348.0</ele><time>2026-05-03T13:07:13.758Z</time></trkpt><trkpt lat="45.5434767" lon="10.8694783"><ele>343.0</ele><time>2026-05-03T13:07:14.757Z</time></trkpt><trkpt lat="45.5433183" lon="10.869565"><ele>338.0</ele><time>2026-05-03T13:07:15.761Z</time></trkpt><trkpt lat="45.543145" lon="10.8696433"><ele>338.0</ele><time>2026-05-03T13:07:16.755Z</time></trkpt><trkpt lat="45.542955" lon="10.8697117"><ele>338.0</ele><time>2026-05-03T13:07:17.762Z</time></trkpt><trkpt lat="45.5427483" lon="10.869765"><ele>338.0</ele><time>2026-05-03T13:07:18.756Z</time></trkpt><trkpt lat="45.5425317" lon="10.8697933"><ele>338.33333333333337</ele><time>2026-05-03T13:07:19.756Z</time></trkpt><trkpt lat="45.542325" lon="10.869805"><ele>338.6666666666667</ele><time>2026-05-03T13:07:20.759Z</time></trkpt><trkpt lat="45.5421367" lon="10.8697983"><ele>339.0</ele><time>2026-05-03T13:07:21.758Z</time></trkpt><trkpt lat="45.5419667" lon="10.8697533"><ele>335.0</ele><time>2026-05-03T13:07:22.758Z</time></trkpt><trkpt lat="45.541815" lon="10.8696717"><ele>331.0</ele><time>2026-05-03T13:07:23.758Z</time></trkpt><trkpt lat="45.54168" lon="10.86956"><ele>327.0</ele><time>2026-05-03T13:07:24.759Z</time></trkpt><trkpt lat="45.5415583" lon="10.86944"><ele>327.0</ele><time>2026-05-03T13:07:25.757Z</time></trkpt><trkpt lat="45.5414583" lon="10.8693317"><ele>327.0</ele><time>2026-05-03T13:07:26.754Z</time></trkpt><trkpt lat="45.5413733" lon="10.869245"><ele>327.0</ele><time>2026-05-03T13:07:27.756Z</time></trkpt><trkpt lat="45.5412983" lon="10.86919"><ele>327.0</ele><time>2026-05-03T13:07:28.757Z</time></trkpt><trkpt lat="45.5412317" lon="10.86918"><ele>327.0</ele><time>2026-05-03T13:07:29.76Z</time></trkpt><trkpt lat="45.54121" lon="10.869345"><ele>327.0</ele><time>2026-05-03T13:07:31.755Z</time></trkpt><trkpt lat="45.54128" lon="10.86943"><ele>327.0</ele><time>2026-05-03T13:07:32.757Z</time></trkpt><trkpt lat="45.5413933" lon="10.86952"><ele>327.0</ele><time>2026-05-03T13:07:33.756Z</time></trkpt><trkpt lat="45.5415233" lon="10.8696267"><ele>327.0</ele><time>2026-05-03T13:07:34.757Z</time></trkpt><trkpt lat="45.5416617" lon="10.8697717"><ele>327.0</ele><time>2026-05-03T13:07:35.755Z</time></trkpt><trkpt lat="45.5418083" lon="10.8699367"><ele>327.0</ele><time>2026-05-03T13:07:36.758Z</time></trkpt><trkpt lat="45.5419733" lon="10.870105"><ele>327.0</ele><time>2026-05-03T13:07:37.756Z</time></trkpt><trkpt lat="45.5421567" lon="10.8702517"><ele>322.6666666666667</ele><time>2026-05-03T13:07:38.76Z</time></trkpt><trkpt lat="45.5423533" lon="10.87037"><ele>318.33333333333337</ele><time>2026-05-03T13:07:39.758Z</time></trkpt><trkpt lat="45.5425483" lon="10.87046"><ele>314.0</ele><time>2026-05-03T13:07:40.76Z</time></trkpt><trkpt lat="45.54273" lon="10.8705167"><ele>314.0</ele><time>2026-05-03T13:07:41.755Z</time></trkpt><trkpt lat="45.5429" lon="10.870545"><ele>314.0</ele><time>2026-05-03T13:07:42.753Z</time></trkpt><trkpt lat="45.5430533" lon="10.87056"><ele>314.0</ele><time>2026-05-03T13:07:43.753Z</time></trkpt><trkpt lat="45.543185" lon="10.8705733"><ele>314.0</ele><time>2026-05-03T13:07:44.758Z</time></trkpt><trkpt lat="45.54329" lon="10.8706017"><ele>314.0</ele><time>2026-05-03T13:07:45.759Z</time></trkpt><trkpt lat="45.5433617" lon="10.8706483"><ele>314.0</ele><time>2026-05-03T13:07:46.756Z</time></trkpt><trkpt lat="45.543375" lon="10.870785"><ele>314.0</ele><time>2026-05-03T13:07:48.75Z</time></trkpt><trkpt lat="45.5432967" lon="10.8708317"><ele>314.0</ele><time>2026-05-03T13:07:49.755Z</time></trkpt><trkpt lat="45.543195" lon="10.870875"><ele>314.0</ele><time>2026-05-03T13:07:50.76Z</time></trkpt><trkpt lat="45.54304" lon="10.8709067"><ele>314.0</ele><time>2026-05-03T13:07:51.752Z</time></trkpt><trkpt lat="45.5428667" lon="10.8709467"><ele>314.0</ele><time>2026-05-03T13:07:52.754Z</time></trkpt><trkpt lat="45.5426767" lon="10.87099"><ele>306.0</ele><time>2026-05-03T13:07:53.755Z</time></trkpt><trkpt lat="45.5424717" lon="10.871035"><ele>298.0</ele><time>2026-05-03T13:07:54.757Z</time></trkpt><trkpt lat="45.542265" lon="10.871075"><ele>290.0</ele><time>2026-05-03T13:07:55.758Z</time></trkpt><trkpt lat="45.5420667" lon="10.8711117"><ele>289.33333333333337</ele><time>2026-05-03T13:07:56.76Z</time></trkpt><trkpt lat="45.5418833" lon="10.8711317"><ele>288.6666666666667</ele><time>2026-05-03T13:07:57.765Z</time></trkpt><trkpt lat="45.5417183" lon="10.8711133"><ele>288.0</ele><time>2026-05-03T13:07:58.751Z</time></trkpt><trkpt lat="45.5415817" lon="10.87105"><ele>288.0</ele><time>2026-05-03T13:07:59.753Z</time></trkpt><trkpt lat="45.5414667" lon="10.8709667"><ele>288.0</ele><time>2026-05-03T13:08:00.757Z</time></trkpt><trkpt lat="45.5413717" lon="10.8709083"><ele>288.0</ele><time>2026-05-03T13:08:01.757Z</time></trkpt><trkpt lat="45.54129" lon="10.8709"><ele>288.0</ele><time>2026-05-03T13:08:02.757Z</time></trkpt><trkpt lat="45.541245" lon="10.87097"><ele>288.0</ele><time>2026-05-03T13:08:03.759Z</time></trkpt><trkpt lat="45.5412717" lon="10.87115"><ele>288.0</ele><time>2026-05-03T13:08:05.756Z</time></trkpt><trkpt lat="45.5413367" lon="10.8712233"><ele>288.0</ele><time>2026-05-03T13:08:06.76Z</time></trkpt><trkpt lat="45.5414883" lon="10.871285"><ele>288.0</ele><time>2026-05-03T13:08:07.752Z</time></trkpt><trkpt lat="45.5416417" lon="10.87135"><ele>288.0</ele><time>2026-05-03T13:08:08.761Z</time></trkpt><trkpt lat="45.5418117" lon="10.87142"><ele>288.0</ele><time>2026-05-03T13:08:09.758Z</time></trkpt><trkpt lat="45.5420017" lon="10.8714817"><ele>288.0</ele><time>2026-05-03T13:08:10.756Z</time></trkpt><trkpt lat="45.5421983" lon="10.8715267"><ele>288.0</ele><time>2026-05-03T13:08:11.754Z</time></trkpt><trkpt lat="45.5423817" lon="10.87156"><ele>288.3333333333333</ele><time>2026-05-03T13:08:12.759Z</time></trkpt><trkpt lat="45.5425633" lon="10.8715917"><ele>288.66666666666663</ele><time>2026-05-03T13:08:13.761Z</time></trkpt><trkpt lat="45.5427383" lon="10.871625"><ele>289.0</ele><time>2026-05-03T13:08:14.76Z</time></trkpt><trkpt lat="45.5428933" lon="10.8716533"><ele>289.0</ele><time>2026-05-03T13:08:15.753Z</time></trkpt><trkpt lat="45.543025" lon="10.8716767"><ele>289.0</ele><time>2026-05-03T13:08:16.763Z</time></trkpt><trkpt lat="45.5431283" lon="10.8717"><ele>289.0</ele><time>2026-05-03T13:08:17.757Z</time></trkpt><trkpt lat="45.5431983" lon="10.8717333"><ele>289.0</ele><time>2026-05-03T13:08:18.757Z</time></trkpt><trkpt lat="45.5432233" lon="10.8718233"><ele>289.0</ele><time>2026-05-03T13:08:20.755Z</time></trkpt><trkpt lat="45.5431083" lon="10.8718867"><ele>282.0</ele><time>2026-05-03T13:08:22.757Z</time></trkpt><trkpt lat="45.5429983" lon="10.8719"><ele>275.0</ele><time>2026-05-03T13:08:23.756Z</time></trkpt><trkpt lat="45.542835" lon="10.87189"><ele>268.0</ele><time>2026-05-03T13:08:24.754Z</time></trkpt><trkpt lat="45.54262" lon="10.8719233"><ele>268.0</ele><time>2026-05-03T13:08:25.756Z</time></trkpt><trkpt lat="45.54241" lon="10.872"><ele>268.0</ele><time>2026-05-03T13:08:26.756Z</time></trkpt><trkpt lat="45.5422217" lon="10.872085"><ele>268.0</ele><time>2026-05-03T13:08:27.757Z</time></trkpt><trkpt lat="45.5420333" lon="10.8721717"><ele>267.66666666666663</ele><time>2026-05-03T13:08:28.76Z</time></trkpt><trkpt lat="45.5418417" lon="10.8722383"><ele>267.3333333333333</ele><time>2026-05-03T13:08:29.754Z</time></trkpt><trkpt lat="45.54165" lon="10.872295"><ele>267.0</ele><time>2026-05-03T13:08:30.76Z</time></trkpt><trkpt lat="45.5414683" lon="10.8723417"><ele>267.0</ele><time>2026-05-03T13:08:31.753Z</time></trkpt><trkpt lat="45.5412983" lon="10.872355"><ele>267.0</ele><time>2026-05-03T13:08:32.757Z</time></trkpt><trkpt lat="45.5411267" lon="10.872325"><ele>267.0</ele><time>2026-05-03T13:08:33.756Z</time></trkpt><trkpt lat="45.5409617" lon="10.8722783"><ele>264.75</ele><time>2026-05-03T13:08:34.758Z</time></trkpt><trkpt lat="45.5408083" lon="10.872225"><ele>262.5</ele><time>2026-05-03T13:08:35.756Z</time></trkpt><trkpt lat="45.5406683" lon="10.87217"><ele>260.25</ele><time>2026-05-03T13:08:36.755Z</time></trkpt><trkpt lat="45.540555" lon="10.8721233"><ele>258.0</ele><time>2026-05-03T13:08:37.757Z</time></trkpt><trkpt lat="45.54046" lon="10.87211"><ele>258.0</ele><time>2026-05-03T13:08:38.755Z</time></trkpt><trkpt lat="45.5403767" lon="10.8721317"><ele>258.0</ele><time>2026-05-03T13:08:39.766Z</time></trkpt><trkpt lat="45.540335" lon="10.8722067"><ele>258.0</ele><time>2026-05-03T13:08:40.752Z</time></trkpt><trkpt lat="45.540345" lon="10.8723067"><ele>258.0</ele><time>2026-05-03T13:08:41.756Z</time></trkpt><trkpt lat="45.5404217" lon="10.8724117"><ele>258.0</ele><time>2026-05-03T13:08:42.761Z</time></trkpt><trkpt lat="45.540545" lon="10.8725"><ele>258.0</ele><time>2026-05-03T13:08:43.756Z</time></trkpt><trkpt lat="45.5406917" lon="10.8725883"><ele>258.0</ele><time>2026-05-03T13:08:44.76Z</time></trkpt><trkpt lat="45.5408517" lon="10.8726833"><ele>258.0</ele><time>2026-05-03T13:08:45.754Z</time></trkpt><trkpt lat="45.5410233" lon="10.8727883"><ele>254.66666666666669</ele><time>2026-05-03T13:08:46.751Z</time></trkpt><trkpt lat="45.54121" lon="10.8729017"><ele>251.33333333333334</ele><time>2026-05-03T13:08:47.759Z</time></trkpt><trkpt lat="45.54141" lon="10.873015"><ele>248.0</ele><time>2026-05-03T13:08:48.76Z</time></trkpt><trkpt lat="45.54161" lon="10.873125"><ele>248.0</ele><time>2026-05-03T13:08:49.764Z</time></trkpt><trkpt lat="45.5418017" lon="10.8732233"><ele>248.0</ele><time>2026-05-03T13:08:50.756Z</time></trkpt><trkpt lat="45.5419733" lon="10.87331"><ele>248.0</ele><time>2026-05-03T13:08:51.757Z</time></trkpt><trkpt lat="45.542135" lon="10.87337"><ele>248.0</ele><time>2026-05-03T13:08:52.758Z</time></trkpt><trkpt lat="45.54229" lon="10.8733933"><ele>248.0</ele><time>2026-05-03T13:08:53.754Z</time></trkpt><trkpt lat="45.5424217" lon="10.8733817"><ele>248.0</ele><time>2026-05-03T13:08:54.754Z</time></trkpt><trkpt lat="45.5425283" lon="10.8733667"><ele>248.0</ele><time>2026-05-03T13:08:55.753Z</time></trkpt><trkpt lat="45.5426083" lon="10.8733817"><ele>245.60000000000002</ele><time>2026-05-03T13:08:56.751Z</time></trkpt><trkpt lat="45.5426617" lon="10.8735033"><ele>243.20000000000002</ele><time>2026-05-03T13:08:58.751Z</time></trkpt><trkpt lat="45.5426117" lon="10.8735917"><ele>240.8</ele><time>2026-05-03T13:08:59.756Z</time></trkpt><trkpt lat="45.5425083" lon="10.8736383"><ele>238.4</ele><time>2026-05-03T13:09:00.76Z</time></trkpt><trkpt lat="45.54236" lon="10.8736617"><ele>236.0</ele><time>2026-05-03T13:09:01.757Z</time></trkpt><trkpt lat="45.5421917" lon="10.8736883"><ele>233.33333333333334</ele><time>2026-05-03T13:09:02.754Z</time></trkpt><trkpt lat="45.542005" lon="10.8737333"><ele>230.66666666666669</ele><time>2026-05-03T13:09:03.753Z</time></trkpt><trkpt lat="45.5418033" lon="10.8737883"><ele>228.0</ele><time>2026-05-03T13:09:04.754Z</time></trkpt><trkpt lat="45.5416" lon="10.8738467"><ele>228.0</ele><time>2026-05-03T13:09:05.753Z</time></trkpt><trkpt lat="45.541405" lon="10.8738983"><ele>228.0</ele><time>2026-05-03T13:09:06.756Z</time></trkpt><trkpt lat="45.5412117" lon="10.8739333"><ele>228.0</ele><time>2026-05-03T13:09:07.754Z</time></trkpt><trkpt lat="45.5410067" lon="10.87394"><ele>227.33333333333331</ele><time>2026-05-03T13:09:08.755Z</time></trkpt><trkpt lat="45.54079" lon="10.873915"><ele>226.66666666666666</ele><time>2026-05-03T13:09:09.758Z</time></trkpt><trkpt lat="45.5405683" lon="10.8738733"><ele>226.0</ele><time>2026-05-03T13:09:10.761Z</time></trkpt><trkpt lat="45.54035" lon="10.8738267"><ele>223.0</ele><time>2026-05-03T13:09:11.766Z</time></trkpt><trkpt lat="45.540145" lon="10.8737817"><ele>220.0</ele><time>2026-05-03T13:09:12.755Z</time></trkpt><trkpt lat="45.539955" lon="10.8737417"><ele>217.0</ele><time>2026-05-03T13:09:13.753Z</time></trkpt><trkpt lat="45.539785" lon="10.87371"><ele>217.0</ele><time>2026-05-03T13:09:14.763Z</time></trkpt><trkpt lat="45.5396283" lon="10.8736833"><ele>217.0</ele><time>2026-05-03T13:09:15.754Z</time></trkpt><trkpt lat="45.5394933" lon="10.8736583"><ele>217.0</ele><time>2026-05-03T13:09:16.752Z</time></trkpt><trkpt lat="45.5393817" lon="10.8736367"><ele>217.0</ele><time>2026-05-03T13:09:17.752Z</time></trkpt><trkpt lat="45.5392883" lon="10.873635"><ele>215.39999999999998</ele><time>2026-05-03T13:09:18.753Z</time></trkpt><trkpt lat="45.539215" lon="10.87368"><ele>213.79999999999998</ele><time>2026-05-03T13:09:19.751Z</time></trkpt><trkpt lat="45.5391583" lon="10.8737533"><ele>212.2</ele><time>2026-05-03T13:09:20.757Z</time></trkpt><trkpt lat="45.539165" lon="10.87386"><ele>210.6</ele><time>2026-05-03T13:09:21.757Z</time></trkpt><trkpt lat="45.5392433" lon="10.8739783"><ele>209.0</ele><time>2026-05-03T13:09:22.758Z</time></trkpt><trkpt lat="45.5393567" lon="10.8741033"><ele>209.0</ele><time>2026-05-03T13:09:23.755Z</time></trkpt><trkpt lat="45.5394883" lon="10.8742417"><ele>209.0</ele><time>2026-05-03T13:09:24.755Z</time></trkpt><trkpt lat="45.5396383" lon="10.8743967"><ele>209.0</ele><time>2026-05-03T13:09:25.759Z</time></trkpt><trkpt lat="45.5397983" lon="10.8745567"><ele>207.66666666666669</ele><time>2026-05-03T13:09:26.759Z</time></trkpt><trkpt lat="45.53997" lon="10.8747117"><ele>206.33333333333331</ele><time>2026-05-03T13:09:27.753Z</time></trkpt><trkpt lat="45.5401483" lon="10.8748517"><ele>205.0</ele><time>2026-05-03T13:09:28.755Z</time></trkpt><trkpt lat="45.540315" lon="10.8749783"><ele>206.66666666666666</ele><time>2026-05-03T13:09:29.759Z</time></trkpt><trkpt lat="45.5404583" lon="10.8751067"><ele>208.33333333333331</ele><time>2026-05-03T13:09:30.754Z</time></trkpt><trkpt lat="45.5405767" lon="10.8752433"><ele>210.0</ele><time>2026-05-03T13:09:31.752Z</time></trkpt><trkpt lat="45.540675" lon="10.8753817"><ele>210.0</ele><time>2026-05-03T13:09:32.756Z</time></trkpt><trkpt lat="45.5407567" lon="10.8755117"><ele>210.0</ele><time>2026-05-03T13:09:33.754Z</time></trkpt><trkpt lat="45.54081" lon="10.8756483"><ele>210.0</ele><time>2026-05-03T13:09:34.753Z</time></trkpt><trkpt lat="45.5408217" lon="10.8757967"><ele>210.0</ele><time>2026-05-03T13:09:35.756Z</time></trkpt><trkpt lat="45.540795" lon="10.875955"><ele>211.66666666666669</ele><time>2026-05-03T13:09:36.757Z</time></trkpt><trkpt lat="45.5407217" lon="10.8761217"><ele>213.33333333333334</ele><time>2026-05-03T13:09:37.763Z</time></trkpt><trkpt lat="45.5406233" lon="10.8763017"><ele>215.0</ele><time>2026-05-03T13:09:38.756Z</time></trkpt><trkpt lat="45.54051" lon="10.8764867"><ele>215.0</ele><time>2026-05-03T13:09:39.754Z</time></trkpt><trkpt lat="45.5403867" lon="10.8766633"><ele>215.0</ele><time>2026-05-03T13:09:40.751Z</time></trkpt><trkpt lat="45.5402583" lon="10.8768167"><ele>215.0</ele><time>2026-05-03T13:09:41.76Z</time></trkpt><trkpt lat="45.5401333" lon="10.8769583"><ele>210.25</ele><time>2026-05-03T13:09:42.754Z</time></trkpt><trkpt lat="45.54002" lon="10.8771"><ele>205.5</ele><time>2026-05-03T13:09:43.757Z</time></trkpt><trkpt lat="45.5399267" lon="10.8772433"><ele>200.75</ele><time>2026-05-03T13:09:44.754Z</time></trkpt><trkpt lat="45.539855" lon="10.8773983"><ele>196.0</ele><time>2026-05-03T13:09:45.752Z</time></trkpt><trkpt lat="45.5398217" lon="10.8775583"><ele>195.8</ele><time>2026-05-03T13:09:46.758Z</time></trkpt><trkpt lat="45.539825" lon="10.8777183"><ele>195.60000000000002</ele><time>2026-05-03T13:09:47.752Z</time></trkpt><trkpt lat="45.5398517" lon="10.877865"><ele>195.4</ele><time>2026-05-03T13:09:48.756Z</time></trkpt><trkpt lat="45.5398783" lon="10.8780083"><ele>195.2</ele><time>2026-05-03T13:09:49.757Z</time></trkpt><trkpt lat="45.539895" lon="10.87814"><ele>195.0</ele><time>2026-05-03T13:09:50.761Z</time></trkpt><trkpt lat="45.5398933" lon="10.8782617"><ele>195.0</ele><time>2026-05-03T13:09:51.752Z</time></trkpt><trkpt lat="45.5398783" lon="10.8783867"><ele>195.0</ele><time>2026-05-03T13:09:52.758Z</time></trkpt><trkpt lat="45.5398567" lon="10.8785183"><ele>195.0</ele><time>2026-05-03T13:09:53.754Z</time></trkpt><trkpt lat="45.5398333" lon="10.878645"><ele>195.0</ele><time>2026-05-03T13:09:54.752Z</time></trkpt><trkpt lat="45.5398133" lon="10.8787683"><ele>195.0</ele><time>2026-05-03T13:09:55.754Z</time></trkpt><trkpt lat="45.5397933" lon="10.8788967"><ele>194.4</ele><time>2026-05-03T13:09:56.753Z</time></trkpt><trkpt lat="45.5397783" lon="10.8790233"><ele>193.8</ele><time>2026-05-03T13:09:57.751Z</time></trkpt><trkpt lat="45.53978" lon="10.8791533"><ele>193.2</ele><time>2026-05-03T13:09:58.752Z</time></trkpt><trkpt lat="45.53979" lon="10.8792667"><ele>192.6</ele><time>2026-05-03T13:09:59.756Z</time></trkpt><trkpt lat="45.5398233" lon="10.8793833"><ele>192.0</ele><time>2026-05-03T13:10:00.755Z</time></trkpt><trkpt lat="45.5399233" lon="10.8794733"><ele>191.33333333333334</ele><time>2026-05-03T13:10:01.756Z</time></trkpt><trkpt lat="45.54005" lon="10.8795683"><ele>190.66666666666669</ele><time>2026-05-03T13:10:02.757Z</time></trkpt><trkpt lat="45.5401983" lon="10.8796733"><ele>190.0</ele><time>2026-05-03T13:10:03.756Z</time></trkpt><trkpt lat="45.5403583" lon="10.879775"><ele>191.33333333333334</ele><time>2026-05-03T13:10:04.753Z</time></trkpt><trkpt lat="45.5405383" lon="10.8798817"><ele>192.66666666666669</ele><time>2026-05-03T13:10:05.768Z</time></trkpt><trkpt lat="45.5407167" lon="10.8799883"><ele>194.0</ele><time>2026-05-03T13:10:06.756Z</time></trkpt><trkpt lat="45.5408933" lon="10.8800933"><ele>194.33333333333334</ele><time>2026-05-03T13:10:07.752Z</time></trkpt><trkpt lat="45.541055" lon="10.8801933"><ele>194.66666666666669</ele><time>2026-05-03T13:10:08.759Z</time></trkpt><trkpt lat="45.5411983" lon="10.8802883"><ele>195.0</ele><time>2026-05-03T13:10:09.758Z</time></trkpt><trkpt lat="45.5413267" lon="10.8803867"><ele>195.0</ele><time>2026-05-03T13:10:10.752Z</time></trkpt><trkpt lat="45.5414483" lon="10.8805"><ele>195.0</ele><time>2026-05-03T13:10:11.75Z</time></trkpt><trkpt lat="45.5415683" lon="10.8806233"><ele>195.0</ele><time>2026-05-03T13:10:12.752Z</time></trkpt><trkpt lat="45.5416967" lon="10.880755"><ele>195.0</ele><time>2026-05-03T13:10:13.75Z</time></trkpt><trkpt lat="45.54183" lon="10.8808867"><ele>195.0</ele><time>2026-05-03T13:10:14.755Z</time></trkpt><trkpt lat="45.5419583" lon="10.8810183"><ele>195.0</ele><time>2026-05-03T13:10:15.755Z</time></trkpt><trkpt lat="45.5420883" lon="10.8811517"><ele>196.0</ele><time>2026-05-03T13:10:16.754Z</time></trkpt><trkpt lat="45.5422217" lon="10.8812867"><ele>197.0</ele><time>2026-05-03T13:10:17.751Z</time></trkpt><trkpt lat="45.5423467" lon="10.8814117"><ele>198.0</ele><time>2026-05-03T13:10:18.761Z</time></trkpt><trkpt lat="45.5424733" lon="10.88153"><ele>198.0</ele><time>2026-05-03T13:10:19.754Z</time></trkpt><trkpt lat="45.5426" lon="10.8816467"><ele>198.0</ele><time>2026-05-03T13:10:20.752Z</time></trkpt><trkpt lat="45.5427133" lon="10.8817567"><ele>198.0</ele><time>2026-05-03T13:10:21.751Z</time></trkpt><trkpt lat="45.5428233" lon="10.88186"><ele>198.0</ele><time>2026-05-03T13:10:22.756Z</time></trkpt><trkpt lat="45.5429233" lon="10.8819433"><ele>198.0</ele><time>2026-05-03T13:10:23.753Z</time></trkpt><trkpt lat="45.5430117" lon="10.882015"><ele>198.0</ele><time>2026-05-03T13:10:24.755Z</time></trkpt><trkpt lat="45.5430833" lon="10.8820917"><ele>198.0</ele><time>2026-05-03T13:10:25.751Z</time></trkpt><trkpt lat="45.5431417" lon="10.8821833"><ele>198.0</ele><time>2026-05-03T13:10:26.756Z</time></trkpt><trkpt lat="45.5431867" lon="10.882295"><ele>198.0</ele><time>2026-05-03T13:10:27.757Z</time></trkpt><trkpt lat="45.543215" lon="10.882425"><ele>197.0</ele><time>2026-05-03T13:10:28.764Z</time></trkpt><trkpt lat="45.543205" lon="10.8826033"><ele>196.0</ele><time>2026-05-03T13:10:29.755Z</time></trkpt><trkpt lat="45.5431867" lon="10.8827733"><ele>195.0</ele><time>2026-05-03T13:10:30.752Z</time></trkpt><trkpt lat="45.5431717" lon="10.8829383"><ele>194.0</ele><time>2026-05-03T13:10:31.755Z</time></trkpt><trkpt lat="45.5431633" lon="10.88309"><ele>194.0</ele><time>2026-05-03T13:10:32.759Z</time></trkpt><trkpt lat="45.5431633" lon="10.883235"><ele>194.0</ele><time>2026-05-03T13:10:33.758Z</time></trkpt><trkpt lat="45.5431717" lon="10.8833767"><ele>194.0</ele><time>2026-05-03T13:10:34.757Z</time></trkpt><trkpt lat="45.5431817" lon="10.8835233"><ele>194.0</ele><time>2026-05-03T13:10:35.758Z</time></trkpt><trkpt lat="45.5431883" lon="10.883675"><ele>194.0</ele><time>2026-05-03T13:10:36.762Z</time></trkpt><trkpt lat="45.543185" lon="10.883825"><ele>193.0</ele><time>2026-05-03T13:10:37.762Z</time></trkpt><trkpt lat="45.54318" lon="10.8839817"><ele>192.0</ele><time>2026-05-03T13:10:38.757Z</time></trkpt><trkpt lat="45.54318" lon="10.8841567"><ele>191.0</ele><time>2026-05-03T13:10:39.755Z</time></trkpt><trkpt lat="45.543185" lon="10.8843167"><ele>190.0</ele><time>2026-05-03T13:10:40.757Z</time></trkpt><trkpt lat="45.54319" lon="10.8844783"><ele>189.4</ele><time>2026-05-03T13:10:41.753Z</time></trkpt><trkpt lat="45.543195" lon="10.8846433"><ele>188.8</ele><time>2026-05-03T13:10:42.752Z</time></trkpt><trkpt lat="45.5432017" lon="10.8848017"><ele>188.2</ele><time>2026-05-03T13:10:43.753Z</time></trkpt><trkpt lat="45.5432083" lon="10.8849517"><ele>187.6</ele><time>2026-05-03T13:10:44.76Z</time></trkpt><trkpt lat="45.5432167" lon="10.8850917"><ele>187.0</ele><time>2026-05-03T13:10:45.758Z</time></trkpt><trkpt lat="45.54322" lon="10.8852217"><ele>186.6</ele><time>2026-05-03T13:10:46.76Z</time></trkpt><trkpt lat="45.543225" lon="10.8853517"><ele>186.2</ele><time>2026-05-03T13:10:47.756Z</time></trkpt><trkpt lat="45.5432283" lon="10.8854917"><ele>185.8</ele><time>2026-05-03T13:10:48.754Z</time></trkpt><trkpt lat="45.5432367" lon="10.8856467"><ele>185.4</ele><time>2026-05-03T13:10:49.755Z</time></trkpt><trkpt lat="45.5432417" lon="10.88581"><ele>185.0</ele><time>2026-05-03T13:10:50.753Z</time></trkpt><trkpt lat="45.54325" lon="10.885985"><ele>185.0</ele><time>2026-05-03T13:10:51.754Z</time></trkpt><trkpt lat="45.5432533" lon="10.8861717"><ele>185.0</ele><time>2026-05-03T13:10:52.755Z</time></trkpt><trkpt lat="45.543255" lon="10.886375"><ele>185.0</ele><time>2026-05-03T13:10:53.755Z</time></trkpt><trkpt lat="45.543255" lon="10.886575"><ele>185.0</ele><time>2026-05-03T13:10:54.754Z</time></trkpt><trkpt lat="45.543255" lon="10.886765"><ele>184.6</ele><time>2026-05-03T13:10:55.753Z</time></trkpt><trkpt lat="45.543255" lon="10.8869383"><ele>184.2</ele><time>2026-05-03T13:10:56.755Z</time></trkpt><trkpt lat="45.5432517" lon="10.8870917"><ele>183.8</ele><time>2026-05-03T13:10:57.753Z</time></trkpt><trkpt lat="45.5432533" lon="10.8872233"><ele>183.4</ele><time>2026-05-03T13:10:58.757Z</time></trkpt><trkpt lat="45.5432567" lon="10.8873433"><ele>183.0</ele><time>2026-05-03T13:10:59.759Z</time></trkpt><trkpt lat="45.54325" lon="10.88745"><ele>183.0</ele><time>2026-05-03T13:11:00.754Z</time></trkpt><trkpt lat="45.54322" lon="10.88754"><ele>183.0</ele><time>2026-05-03T13:11:01.757Z</time></trkpt><trkpt lat="45.54315" lon="10.8876067"><ele>183.0</ele><time>2026-05-03T13:11:02.754Z</time></trkpt><trkpt lat="45.5430767" lon="10.8876667"><ele>183.0</ele><time>2026-05-03T13:11:03.753Z</time></trkpt><trkpt lat="45.5430233" lon="10.88774"><ele>183.0</ele><time>2026-05-03T13:11:04.752Z</time></trkpt><trkpt lat="45.5429833" lon="10.8878383"><ele>183.0</ele><time>2026-05-03T13:11:05.759Z</time></trkpt><trkpt lat="45.542965" lon="10.8879433"><ele>183.5</ele><time>2026-05-03T13:11:06.754Z</time></trkpt><trkpt lat="45.54296" lon="10.88806"><ele>184.0</ele><time>2026-05-03T13:11:07.755Z</time></trkpt><trkpt lat="45.542965" lon="10.8881833"><ele>184.5</ele><time>2026-05-03T13:11:08.756Z</time></trkpt><trkpt lat="45.5429733" lon="10.88831"><ele>185.0</ele><time>2026-05-03T13:11:09.758Z</time></trkpt><trkpt lat="45.5429817" lon="10.8884317"><ele>185.5</ele><time>2026-05-03T13:11:10.761Z</time></trkpt><trkpt lat="45.5429867" lon="10.8885483"><ele>186.0</ele><time>2026-05-03T13:11:11.755Z</time></trkpt><trkpt lat="45.54299" lon="10.888655"><ele>185.71428571428572</ele><time>2026-05-03T13:11:12.754Z</time></trkpt><trkpt lat="45.5429883" lon="10.8887533"><ele>185.42857142857144</ele><time>2026-05-03T13:11:13.757Z</time></trkpt><trkpt lat="45.5429783" lon="10.888855"><ele>185.14285714285717</ele><time>2026-05-03T13:11:14.757Z</time></trkpt><trkpt lat="45.542955" lon="10.8889483"><ele>184.85714285714286</ele><time>2026-05-03T13:11:15.753Z</time></trkpt><trkpt lat="45.54291" lon="10.889015"><ele>184.57142857142856</ele><time>2026-05-03T13:11:16.757Z</time></trkpt><trkpt lat="45.5428383" lon="10.8890433"><ele>184.2857142857143</ele><time>2026-05-03T13:11:17.756Z</time></trkpt><trkpt lat="45.5427483" lon="10.8890433"><ele>184.0</ele><time>2026-05-03T13:11:18.758Z</time></trkpt><trkpt lat="45.542635" lon="10.8890433"><ele>184.0</ele><time>2026-05-03T13:11:19.759Z</time></trkpt><trkpt lat="45.5425117" lon="10.8890683"><ele>184.0</ele><time>2026-05-03T13:11:20.758Z</time></trkpt><trkpt lat="45.5423767" lon="10.8891"><ele>184.0</ele><time>2026-05-03T13:11:21.759Z</time></trkpt><trkpt lat="45.542245" lon="10.8891367"><ele>184.0</ele><time>2026-05-03T13:11:22.756Z</time></trkpt><trkpt lat="45.5421117" lon="10.8891733"><ele>183.75</ele><time>2026-05-03T13:11:23.756Z</time></trkpt><trkpt lat="45.5419867" lon="10.889215"><ele>183.5</ele><time>2026-05-03T13:11:24.753Z</time></trkpt><trkpt lat="45.54187" lon="10.889255"><ele>183.25</ele><time>2026-05-03T13:11:25.761Z</time></trkpt><trkpt lat="45.54176" lon="10.889305"><ele>183.0</ele><time>2026-05-03T13:11:26.758Z</time></trkpt><trkpt lat="45.5416717" lon="10.8893583"><ele>183.0</ele><time>2026-05-03T13:11:27.753Z</time></trkpt><trkpt lat="45.5415983" lon="10.889405"><ele>183.0</ele><time>2026-05-03T13:11:28.765Z</time></trkpt><trkpt lat="45.54154" lon="10.8894467"><ele>183.0</ele><time>2026-05-03T13:11:29.758Z</time></trkpt><trkpt lat="45.5414817" lon="10.8894883"><ele>183.0</ele><time>2026-05-03T13:11:30.759Z</time></trkpt><trkpt lat="45.5414183" lon="10.8895417"><ele>183.0</ele><time>2026-05-03T13:11:31.753Z</time></trkpt><trkpt lat="45.5413467" lon="10.8896083"><ele>183.0</ele><time>2026-05-03T13:11:32.758Z</time></trkpt><trkpt lat="45.5412617" lon="10.8896783"><ele>182.75</ele><time>2026-05-03T13:11:33.76Z</time></trkpt><trkpt lat="45.541165" lon="10.8897433"><ele>182.5</ele><time>2026-05-03T13:11:34.753Z</time></trkpt><trkpt lat="45.5410583" lon="10.8897967"><ele>182.25</ele><time>2026-05-03T13:11:35.756Z</time></trkpt><trkpt lat="45.5409467" lon="10.889835"><ele>182.0</ele><time>2026-05-03T13:11:36.755Z</time></trkpt><trkpt lat="45.5408317" lon="10.8898567"><ele>182.0</ele><time>2026-05-03T13:11:37.763Z</time></trkpt><trkpt lat="45.540715" lon="10.88988"><ele>182.0</ele><time>2026-05-03T13:11:38.76Z</time></trkpt><trkpt lat="45.5406067" lon="10.8899017"><ele>182.0</ele><time>2026-05-03T13:11:39.76Z</time></trkpt><trkpt lat="45.5405" lon="10.8899317"><ele>182.0</ele><time>2026-05-03T13:11:40.759Z</time></trkpt><trkpt lat="45.5403933" lon="10.88996"><ele>182.0</ele><time>2026-05-03T13:11:41.755Z</time></trkpt><trkpt lat="45.54029" lon="10.8899883"><ele>180.0</ele><time>2026-05-03T13:11:42.755Z</time></trkpt><trkpt lat="45.540195" lon="10.890005"><ele>180.0</ele><time>2026-05-03T13:11:43.752Z</time></trkpt><trkpt lat="45.5401117" lon="10.8900217"><ele>180.0</ele><time>2026-05-03T13:11:44.76Z</time></trkpt><trkpt lat="45.5400383" lon="10.8900367"><ele>180.0</ele><time>2026-05-03T13:11:45.751Z</time></trkpt><trkpt lat="45.5399317" lon="10.8900583"><ele>180.0</ele><time>2026-05-03T13:11:47.757Z</time></trkpt><trkpt lat="45.5398633" lon="10.8900817"><ele>180.0</ele><time>2026-05-03T13:11:50.756Z</time></trkpt></trkseg></trk></gpx>